<?xml version="1.0" encoding="UTF-8" standalone="no" ?>
<gpx xmlns="http://www.topografix.com/GPX/1/1" xmlns:xsi="http://www.w3.org/2001/XMLSchema-instance" xsi:schemaLocation="http://www.topografix.com/GPX/1/1 http://www.topografix.com/GPX/1/1/gpx.xsd" version="1.1" creator="VisuGPX - https://www.visugpx.com">
  <metadata>
    <name>Spécifique</name>
  </metadata>
  <trk>
    <name><![CDATA[Spécifique_1]]></name>
    <trkseg>
      <trkpt lat="43.6478" lon="1.37608">
        <ele>147</ele>
        <time>2025-02-27T11:15:35Z</time>
      </trkpt>
      <trkpt lat="43.6478" lon="1.37608">
        <ele>147</ele>
        <time>2025-02-27T11:15:36Z</time>
      </trkpt>
      <trkpt lat="43.64784" lon="1.37606">
        <ele>147</ele>
        <time>2025-02-27T11:15:37Z</time>
      </trkpt>
      <trkpt lat="43.64785" lon="1.37605">
        <ele>147</ele>
        <time>2025-02-27T11:15:38Z</time>
      </trkpt>
      <trkpt lat="43.64787" lon="1.37603">
        <ele>147</ele>
        <time>2025-02-27T11:15:39Z</time>
      </trkpt>
      <trkpt lat="43.6479" lon="1.37602">
        <ele>147</ele>
        <time>2025-02-27T11:15:40Z</time>
      </trkpt>
      <trkpt lat="43.64794" lon="1.376">
        <ele>147</ele>
        <time>2025-02-27T11:15:41Z</time>
      </trkpt>
      <trkpt lat="43.64794" lon="1.376">
        <ele>147</ele>
        <time>2025-02-27T11:15:42Z</time>
      </trkpt>
      <trkpt lat="43.64797" lon="1.37598">
        <ele>147</ele>
        <time>2025-02-27T11:15:43Z</time>
      </trkpt>
      <trkpt lat="43.64799" lon="1.37598">
        <ele>147</ele>
        <time>2025-02-27T11:15:44Z</time>
      </trkpt>
      <trkpt lat="43.64801" lon="1.37597">
        <ele>147</ele>
        <time>2025-02-27T11:15:45Z</time>
      </trkpt>
      <trkpt lat="43.64803" lon="1.37596">
        <ele>147</ele>
        <time>2025-02-27T11:15:46Z</time>
      </trkpt>
      <trkpt lat="43.64805" lon="1.37596">
        <ele>147</ele>
        <time>2025-02-27T11:15:47Z</time>
      </trkpt>
      <trkpt lat="43.64807" lon="1.37597">
        <ele>148</ele>
        <time>2025-02-27T11:15:48Z</time>
      </trkpt>
      <trkpt lat="43.6481" lon="1.37598">
        <ele>148</ele>
        <time>2025-02-27T11:15:49Z</time>
      </trkpt>
      <trkpt lat="43.64811" lon="1.37598">
        <ele>148</ele>
        <time>2025-02-27T11:15:50Z</time>
      </trkpt>
      <trkpt lat="43.64814" lon="1.376">
        <ele>148</ele>
        <time>2025-02-27T11:15:51Z</time>
      </trkpt>
      <trkpt lat="43.64816" lon="1.37601">
        <ele>148</ele>
        <time>2025-02-27T11:15:52Z</time>
      </trkpt>
      <trkpt lat="43.64818" lon="1.37602">
        <ele>147</ele>
        <time>2025-02-27T11:15:53Z</time>
      </trkpt>
      <trkpt lat="43.64819" lon="1.37604">
        <ele>147</ele>
        <time>2025-02-27T11:15:54Z</time>
      </trkpt>
      <trkpt lat="43.64819" lon="1.37604">
        <ele>147</ele>
        <time>2025-02-27T11:15:55Z</time>
      </trkpt>
      <trkpt lat="43.64824" lon="1.37607">
        <ele>147</ele>
        <time>2025-02-27T11:15:56Z</time>
      </trkpt>
      <trkpt lat="43.64825" lon="1.37608">
        <ele>147</ele>
        <time>2025-02-27T11:15:57Z</time>
      </trkpt>
      <trkpt lat="43.64828" lon="1.3761">
        <ele>147</ele>
        <time>2025-02-27T11:15:58Z</time>
      </trkpt>
      <trkpt lat="43.6483" lon="1.37612">
        <ele>147</ele>
        <time>2025-02-27T11:15:59Z</time>
      </trkpt>
      <trkpt lat="43.64832" lon="1.37614">
        <ele>147</ele>
        <time>2025-02-27T11:16:00Z</time>
      </trkpt>
      <trkpt lat="43.64834" lon="1.37616">
        <ele>148</ele>
        <time>2025-02-27T11:16:01Z</time>
      </trkpt>
      <trkpt lat="43.64838" lon="1.37619">
        <ele>148</ele>
        <time>2025-02-27T11:16:02Z</time>
      </trkpt>
      <trkpt lat="43.64838" lon="1.37619">
        <ele>147</ele>
        <time>2025-02-27T11:16:03Z</time>
      </trkpt>
      <trkpt lat="43.64839" lon="1.3762">
        <ele>147</ele>
        <time>2025-02-27T11:16:04Z</time>
      </trkpt>
      <trkpt lat="43.64842" lon="1.37622">
        <ele>147</ele>
        <time>2025-02-27T11:16:05Z</time>
      </trkpt>
      <trkpt lat="43.64845" lon="1.37625">
        <ele>147</ele>
        <time>2025-02-27T11:16:06Z</time>
      </trkpt>
      <trkpt lat="43.64847" lon="1.37627">
        <ele>147</ele>
        <time>2025-02-27T11:16:07Z</time>
      </trkpt>
      <trkpt lat="43.64849" lon="1.37629">
        <ele>147</ele>
        <time>2025-02-27T11:16:08Z</time>
      </trkpt>
      <trkpt lat="43.64852" lon="1.37632">
        <ele>147</ele>
        <time>2025-02-27T11:16:09Z</time>
      </trkpt>
      <trkpt lat="43.64854" lon="1.37634">
        <ele>147</ele>
        <time>2025-02-27T11:16:10Z</time>
      </trkpt>
      <trkpt lat="43.64856" lon="1.37636">
        <ele>147</ele>
        <time>2025-02-27T11:16:11Z</time>
      </trkpt>
      <trkpt lat="43.64859" lon="1.37638">
        <ele>147</ele>
        <time>2025-02-27T11:16:12Z</time>
      </trkpt>
      <trkpt lat="43.64861" lon="1.3764">
        <ele>148</ele>
        <time>2025-02-27T11:16:13Z</time>
      </trkpt>
      <trkpt lat="43.64863" lon="1.37641">
        <ele>148</ele>
        <time>2025-02-27T11:16:14Z</time>
      </trkpt>
      <trkpt lat="43.64865" lon="1.37643">
        <ele>148</ele>
        <time>2025-02-27T11:16:15Z</time>
      </trkpt>
      <trkpt lat="43.64868" lon="1.37645">
        <ele>148</ele>
        <time>2025-02-27T11:16:16Z</time>
      </trkpt>
      <trkpt lat="43.64869" lon="1.37646">
        <ele>148</ele>
        <time>2025-02-27T11:16:17Z</time>
      </trkpt>
      <trkpt lat="43.64872" lon="1.37648">
        <ele>148</ele>
        <time>2025-02-27T11:16:18Z</time>
      </trkpt>
      <trkpt lat="43.64874" lon="1.37651">
        <ele>147</ele>
        <time>2025-02-27T11:16:19Z</time>
      </trkpt>
      <trkpt lat="43.64876" lon="1.37654">
        <ele>147</ele>
        <time>2025-02-27T11:16:20Z</time>
      </trkpt>
      <trkpt lat="43.64878" lon="1.37657">
        <ele>147</ele>
        <time>2025-02-27T11:16:21Z</time>
      </trkpt>
      <trkpt lat="43.64879" lon="1.3766">
        <ele>147</ele>
        <time>2025-02-27T11:16:22Z</time>
      </trkpt>
      <trkpt lat="43.6488" lon="1.37664">
        <ele>147</ele>
        <time>2025-02-27T11:16:23Z</time>
      </trkpt>
      <trkpt lat="43.64881" lon="1.37667">
        <ele>147</ele>
        <time>2025-02-27T11:16:24Z</time>
      </trkpt>
      <trkpt lat="43.64881" lon="1.3767">
        <ele>147</ele>
        <time>2025-02-27T11:16:25Z</time>
      </trkpt>
      <trkpt lat="43.64882" lon="1.37674">
        <ele>147</ele>
        <time>2025-02-27T11:16:26Z</time>
      </trkpt>
      <trkpt lat="43.64883" lon="1.37677">
        <ele>147</ele>
        <time>2025-02-27T11:16:27Z</time>
      </trkpt>
      <trkpt lat="43.64884" lon="1.37679">
        <ele>147</ele>
        <time>2025-02-27T11:16:28Z</time>
      </trkpt>
      <trkpt lat="43.64884" lon="1.37682">
        <ele>147</ele>
        <time>2025-02-27T11:16:29Z</time>
      </trkpt>
      <trkpt lat="43.64885" lon="1.37685">
        <ele>147</ele>
        <time>2025-02-27T11:16:30Z</time>
      </trkpt>
      <trkpt lat="43.64886" lon="1.37687">
        <ele>147</ele>
        <time>2025-02-27T11:16:31Z</time>
      </trkpt>
      <trkpt lat="43.64888" lon="1.37693">
        <ele>147</ele>
        <time>2025-02-27T11:16:32Z</time>
      </trkpt>
      <trkpt lat="43.6489" lon="1.37699">
        <ele>147</ele>
        <time>2025-02-27T11:16:33Z</time>
      </trkpt>
      <trkpt lat="43.6489" lon="1.37702">
        <ele>147</ele>
        <time>2025-02-27T11:16:34Z</time>
      </trkpt>
      <trkpt lat="43.64891" lon="1.37706">
        <ele>147</ele>
        <time>2025-02-27T11:16:35Z</time>
      </trkpt>
      <trkpt lat="43.64892" lon="1.3771">
        <ele>147</ele>
        <time>2025-02-27T11:16:36Z</time>
      </trkpt>
      <trkpt lat="43.64893" lon="1.37712">
        <ele>147</ele>
        <time>2025-02-27T11:16:37Z</time>
      </trkpt>
      <trkpt lat="43.64895" lon="1.37716">
        <ele>147</ele>
        <time>2025-02-27T11:16:38Z</time>
      </trkpt>
      <trkpt lat="43.64895" lon="1.37719">
        <ele>147</ele>
        <time>2025-02-27T11:16:39Z</time>
      </trkpt>
      <trkpt lat="43.64896" lon="1.37722">
        <ele>147</ele>
        <time>2025-02-27T11:16:40Z</time>
      </trkpt>
      <trkpt lat="43.64896" lon="1.37725">
        <ele>146</ele>
        <time>2025-02-27T11:16:41Z</time>
      </trkpt>
      <trkpt lat="43.64897" lon="1.3773">
        <ele>146</ele>
        <time>2025-02-27T11:16:42Z</time>
      </trkpt>
      <trkpt lat="43.64898" lon="1.37732">
        <ele>146</ele>
        <time>2025-02-27T11:16:43Z</time>
      </trkpt>
      <trkpt lat="43.64898" lon="1.37735">
        <ele>146</ele>
        <time>2025-02-27T11:16:44Z</time>
      </trkpt>
      <trkpt lat="43.64899" lon="1.37739">
        <ele>146</ele>
        <time>2025-02-27T11:16:45Z</time>
      </trkpt>
      <trkpt lat="43.649" lon="1.37742">
        <ele>146</ele>
        <time>2025-02-27T11:16:46Z</time>
      </trkpt>
      <trkpt lat="43.649" lon="1.37745">
        <ele>146</ele>
        <time>2025-02-27T11:16:47Z</time>
      </trkpt>
      <trkpt lat="43.64901" lon="1.37748">
        <ele>146</ele>
        <time>2025-02-27T11:16:48Z</time>
      </trkpt>
      <trkpt lat="43.64902" lon="1.37751">
        <ele>146</ele>
        <time>2025-02-27T11:16:49Z</time>
      </trkpt>
      <trkpt lat="43.64902" lon="1.37755">
        <ele>146</ele>
        <time>2025-02-27T11:16:50Z</time>
      </trkpt>
      <trkpt lat="43.64902" lon="1.37759">
        <ele>146</ele>
        <time>2025-02-27T11:16:51Z</time>
      </trkpt>
      <trkpt lat="43.64903" lon="1.37764">
        <ele>146</ele>
        <time>2025-02-27T11:16:52Z</time>
      </trkpt>
      <trkpt lat="43.64903" lon="1.37765">
        <ele>147</ele>
        <time>2025-02-27T11:16:53Z</time>
      </trkpt>
      <trkpt lat="43.64905" lon="1.37769">
        <ele>147</ele>
        <time>2025-02-27T11:16:54Z</time>
      </trkpt>
      <trkpt lat="43.64905" lon="1.37771">
        <ele>147</ele>
        <time>2025-02-27T11:16:55Z</time>
      </trkpt>
      <trkpt lat="43.64906" lon="1.37774">
        <ele>147</ele>
        <time>2025-02-27T11:16:56Z</time>
      </trkpt>
      <trkpt lat="43.64906" lon="1.37777">
        <ele>147</ele>
        <time>2025-02-27T11:16:57Z</time>
      </trkpt>
      <trkpt lat="43.64907" lon="1.3778">
        <ele>147</ele>
        <time>2025-02-27T11:16:58Z</time>
      </trkpt>
      <trkpt lat="43.64908" lon="1.37785">
        <ele>146</ele>
        <time>2025-02-27T11:16:59Z</time>
      </trkpt>
      <trkpt lat="43.64908" lon="1.37787">
        <ele>146</ele>
        <time>2025-02-27T11:17:00Z</time>
      </trkpt>
      <trkpt lat="43.64909" lon="1.3779">
        <ele>146</ele>
        <time>2025-02-27T11:17:01Z</time>
      </trkpt>
      <trkpt lat="43.64909" lon="1.37795">
        <ele>146</ele>
        <time>2025-02-27T11:17:02Z</time>
      </trkpt>
      <trkpt lat="43.6491" lon="1.37796">
        <ele>146</ele>
        <time>2025-02-27T11:17:03Z</time>
      </trkpt>
      <trkpt lat="43.64911" lon="1.378">
        <ele>146</ele>
        <time>2025-02-27T11:17:04Z</time>
      </trkpt>
      <trkpt lat="43.64911" lon="1.37803">
        <ele>146</ele>
        <time>2025-02-27T11:17:05Z</time>
      </trkpt>
      <trkpt lat="43.64912" lon="1.37806">
        <ele>146</ele>
        <time>2025-02-27T11:17:06Z</time>
      </trkpt>
      <trkpt lat="43.64913" lon="1.37809">
        <ele>146</ele>
        <time>2025-02-27T11:17:07Z</time>
      </trkpt>
      <trkpt lat="43.64914" lon="1.37813">
        <ele>146</ele>
        <time>2025-02-27T11:17:08Z</time>
      </trkpt>
      <trkpt lat="43.64915" lon="1.37816">
        <ele>146</ele>
        <time>2025-02-27T11:17:09Z</time>
      </trkpt>
      <trkpt lat="43.64915" lon="1.37819">
        <ele>146</ele>
        <time>2025-02-27T11:17:10Z</time>
      </trkpt>
      <trkpt lat="43.64917" lon="1.37822">
        <ele>146</ele>
        <time>2025-02-27T11:17:11Z</time>
      </trkpt>
      <trkpt lat="43.64919" lon="1.37825">
        <ele>146</ele>
        <time>2025-02-27T11:17:12Z</time>
      </trkpt>
      <trkpt lat="43.6492" lon="1.37828">
        <ele>146</ele>
        <time>2025-02-27T11:17:13Z</time>
      </trkpt>
      <trkpt lat="43.64921" lon="1.37831">
        <ele>146</ele>
        <time>2025-02-27T11:17:14Z</time>
      </trkpt>
      <trkpt lat="43.64922" lon="1.37834">
        <ele>146</ele>
        <time>2025-02-27T11:17:15Z</time>
      </trkpt>
      <trkpt lat="43.64923" lon="1.37837">
        <ele>146</ele>
        <time>2025-02-27T11:17:16Z</time>
      </trkpt>
      <trkpt lat="43.64925" lon="1.37841">
        <ele>146</ele>
        <time>2025-02-27T11:17:17Z</time>
      </trkpt>
      <trkpt lat="43.64926" lon="1.37844">
        <ele>146</ele>
        <time>2025-02-27T11:17:18Z</time>
      </trkpt>
      <trkpt lat="43.64926" lon="1.37848">
        <ele>146</ele>
        <time>2025-02-27T11:17:19Z</time>
      </trkpt>
      <trkpt lat="43.64927" lon="1.37851">
        <ele>146</ele>
        <time>2025-02-27T11:17:20Z</time>
      </trkpt>
      <trkpt lat="43.64928" lon="1.37854">
        <ele>146</ele>
        <time>2025-02-27T11:17:21Z</time>
      </trkpt>
      <trkpt lat="43.64928" lon="1.37857">
        <ele>146</ele>
        <time>2025-02-27T11:17:22Z</time>
      </trkpt>
      <trkpt lat="43.64929" lon="1.3786">
        <ele>146</ele>
        <time>2025-02-27T11:17:23Z</time>
      </trkpt>
      <trkpt lat="43.6493" lon="1.37864">
        <ele>146</ele>
        <time>2025-02-27T11:17:24Z</time>
      </trkpt>
      <trkpt lat="43.64931" lon="1.37867">
        <ele>146</ele>
        <time>2025-02-27T11:17:25Z</time>
      </trkpt>
      <trkpt lat="43.64932" lon="1.3787">
        <ele>146</ele>
        <time>2025-02-27T11:17:26Z</time>
      </trkpt>
      <trkpt lat="43.64932" lon="1.37873">
        <ele>146</ele>
        <time>2025-02-27T11:17:27Z</time>
      </trkpt>
      <trkpt lat="43.64933" lon="1.37875">
        <ele>146</ele>
        <time>2025-02-27T11:17:28Z</time>
      </trkpt>
      <trkpt lat="43.64933" lon="1.37879">
        <ele>146</ele>
        <time>2025-02-27T11:17:29Z</time>
      </trkpt>
      <trkpt lat="43.64933" lon="1.37881">
        <ele>146</ele>
        <time>2025-02-27T11:17:30Z</time>
      </trkpt>
      <trkpt lat="43.64934" lon="1.37884">
        <ele>146</ele>
        <time>2025-02-27T11:17:31Z</time>
      </trkpt>
      <trkpt lat="43.64935" lon="1.37889">
        <ele>146</ele>
        <time>2025-02-27T11:17:32Z</time>
      </trkpt>
      <trkpt lat="43.64936" lon="1.3789">
        <ele>146</ele>
        <time>2025-02-27T11:17:33Z</time>
      </trkpt>
      <trkpt lat="43.64937" lon="1.37894">
        <ele>146</ele>
        <time>2025-02-27T11:17:34Z</time>
      </trkpt>
      <trkpt lat="43.64938" lon="1.37897">
        <ele>146</ele>
        <time>2025-02-27T11:17:35Z</time>
      </trkpt>
      <trkpt lat="43.64939" lon="1.379">
        <ele>146</ele>
        <time>2025-02-27T11:17:36Z</time>
      </trkpt>
      <trkpt lat="43.6494" lon="1.37904">
        <ele>146</ele>
        <time>2025-02-27T11:17:37Z</time>
      </trkpt>
      <trkpt lat="43.64941" lon="1.37907">
        <ele>145</ele>
        <time>2025-02-27T11:17:38Z</time>
      </trkpt>
      <trkpt lat="43.64942" lon="1.3791">
        <ele>145</ele>
        <time>2025-02-27T11:17:39Z</time>
      </trkpt>
      <trkpt lat="43.64943" lon="1.37913">
        <ele>145</ele>
        <time>2025-02-27T11:17:40Z</time>
      </trkpt>
      <trkpt lat="43.64943" lon="1.37917">
        <ele>145</ele>
        <time>2025-02-27T11:17:41Z</time>
      </trkpt>
      <trkpt lat="43.64944" lon="1.3792">
        <ele>145</ele>
        <time>2025-02-27T11:17:42Z</time>
      </trkpt>
      <trkpt lat="43.64947" lon="1.37926">
        <ele>145</ele>
        <time>2025-02-27T11:17:43Z</time>
      </trkpt>
      <trkpt lat="43.64947" lon="1.37926">
        <ele>145</ele>
        <time>2025-02-27T11:17:44Z</time>
      </trkpt>
      <trkpt lat="43.64948" lon="1.37931">
        <ele>145</ele>
        <time>2025-02-27T11:17:45Z</time>
      </trkpt>
      <trkpt lat="43.64948" lon="1.37932">
        <ele>145</ele>
        <time>2025-02-27T11:17:46Z</time>
      </trkpt>
      <trkpt lat="43.64949" lon="1.37938">
        <ele>145</ele>
        <time>2025-02-27T11:17:47Z</time>
      </trkpt>
      <trkpt lat="43.6495" lon="1.37939">
        <ele>145</ele>
        <time>2025-02-27T11:17:48Z</time>
      </trkpt>
      <trkpt lat="43.64951" lon="1.37942">
        <ele>145</ele>
        <time>2025-02-27T11:17:49Z</time>
      </trkpt>
      <trkpt lat="43.64951" lon="1.37945">
        <ele>145</ele>
        <time>2025-02-27T11:17:50Z</time>
      </trkpt>
      <trkpt lat="43.64952" lon="1.37948">
        <ele>145</ele>
        <time>2025-02-27T11:17:51Z</time>
      </trkpt>
      <trkpt lat="43.64953" lon="1.37952">
        <ele>145</ele>
        <time>2025-02-27T11:17:52Z</time>
      </trkpt>
      <trkpt lat="43.64954" lon="1.37955">
        <ele>145</ele>
        <time>2025-02-27T11:17:53Z</time>
      </trkpt>
      <trkpt lat="43.64954" lon="1.37958">
        <ele>145</ele>
        <time>2025-02-27T11:17:54Z</time>
      </trkpt>
      <trkpt lat="43.64954" lon="1.37962">
        <ele>145</ele>
        <time>2025-02-27T11:17:55Z</time>
      </trkpt>
      <trkpt lat="43.64954" lon="1.37965">
        <ele>145</ele>
        <time>2025-02-27T11:17:56Z</time>
      </trkpt>
      <trkpt lat="43.64954" lon="1.37969">
        <ele>145</ele>
        <time>2025-02-27T11:17:57Z</time>
      </trkpt>
      <trkpt lat="43.64954" lon="1.37971">
        <ele>145</ele>
        <time>2025-02-27T11:17:58Z</time>
      </trkpt>
      <trkpt lat="43.64954" lon="1.37971">
        <ele>145</ele>
        <time>2025-02-27T11:17:59Z</time>
      </trkpt>
      <trkpt lat="43.64954" lon="1.37975">
        <ele>145</ele>
        <time>2025-02-27T11:18:00Z</time>
      </trkpt>
      <trkpt lat="43.64954" lon="1.37975">
        <ele>145</ele>
        <time>2025-02-27T11:18:01Z</time>
      </trkpt>
      <trkpt lat="43.64955" lon="1.3798">
        <ele>145</ele>
        <time>2025-02-27T11:18:02Z</time>
      </trkpt>
      <trkpt lat="43.64956" lon="1.37983">
        <ele>145</ele>
        <time>2025-02-27T11:18:03Z</time>
      </trkpt>
      <trkpt lat="43.64957" lon="1.37986">
        <ele>145</ele>
        <time>2025-02-27T11:18:04Z</time>
      </trkpt>
      <trkpt lat="43.64958" lon="1.37988">
        <ele>145</ele>
        <time>2025-02-27T11:18:05Z</time>
      </trkpt>
      <trkpt lat="43.64958" lon="1.37988">
        <ele>144</ele>
        <time>2025-02-27T11:18:06Z</time>
      </trkpt>
      <trkpt lat="43.64963" lon="1.37995">
        <ele>144</ele>
        <time>2025-02-27T11:18:07Z</time>
      </trkpt>
      <trkpt lat="43.64963" lon="1.37995">
        <ele>144</ele>
        <time>2025-02-27T11:18:08Z</time>
      </trkpt>
      <trkpt lat="43.64965" lon="1.37999">
        <ele>144</ele>
        <time>2025-02-27T11:18:09Z</time>
      </trkpt>
      <trkpt lat="43.64965" lon="1.38">
        <ele>144</ele>
        <time>2025-02-27T11:18:10Z</time>
      </trkpt>
      <trkpt lat="43.64966" lon="1.38006">
        <ele>144</ele>
        <time>2025-02-27T11:18:11Z</time>
      </trkpt>
      <trkpt lat="43.64966" lon="1.38007">
        <ele>144</ele>
        <time>2025-02-27T11:18:12Z</time>
      </trkpt>
      <trkpt lat="43.64967" lon="1.3801">
        <ele>144</ele>
        <time>2025-02-27T11:18:13Z</time>
      </trkpt>
      <trkpt lat="43.64968" lon="1.38013">
        <ele>144</ele>
        <time>2025-02-27T11:18:14Z</time>
      </trkpt>
      <trkpt lat="43.64969" lon="1.38016">
        <ele>145</ele>
        <time>2025-02-27T11:18:15Z</time>
      </trkpt>
      <trkpt lat="43.6497" lon="1.3802">
        <ele>145</ele>
        <time>2025-02-27T11:18:16Z</time>
      </trkpt>
      <trkpt lat="43.64971" lon="1.38023">
        <ele>145</ele>
        <time>2025-02-27T11:18:17Z</time>
      </trkpt>
      <trkpt lat="43.64971" lon="1.38026">
        <ele>145</ele>
        <time>2025-02-27T11:18:18Z</time>
      </trkpt>
      <trkpt lat="43.64972" lon="1.38029">
        <ele>145</ele>
        <time>2025-02-27T11:18:19Z</time>
      </trkpt>
      <trkpt lat="43.64973" lon="1.38032">
        <ele>145</ele>
        <time>2025-02-27T11:18:20Z</time>
      </trkpt>
      <trkpt lat="43.64975" lon="1.38035">
        <ele>145</ele>
        <time>2025-02-27T11:18:21Z</time>
      </trkpt>
      <trkpt lat="43.64976" lon="1.38038">
        <ele>145</ele>
        <time>2025-02-27T11:18:22Z</time>
      </trkpt>
      <trkpt lat="43.64976" lon="1.3804">
        <ele>145</ele>
        <time>2025-02-27T11:18:23Z</time>
      </trkpt>
      <trkpt lat="43.64978" lon="1.38043">
        <ele>145</ele>
        <time>2025-02-27T11:18:24Z</time>
      </trkpt>
      <trkpt lat="43.64979" lon="1.38046">
        <ele>145</ele>
        <time>2025-02-27T11:18:25Z</time>
      </trkpt>
      <trkpt lat="43.64982" lon="1.38052">
        <ele>145</ele>
        <time>2025-02-27T11:18:26Z</time>
      </trkpt>
      <trkpt lat="43.64982" lon="1.38052">
        <ele>145</ele>
        <time>2025-02-27T11:18:27Z</time>
      </trkpt>
      <trkpt lat="43.64983" lon="1.38057">
        <ele>145</ele>
        <time>2025-02-27T11:18:28Z</time>
      </trkpt>
      <trkpt lat="43.64983" lon="1.38058">
        <ele>145</ele>
        <time>2025-02-27T11:18:29Z</time>
      </trkpt>
      <trkpt lat="43.64984" lon="1.38061">
        <ele>145</ele>
        <time>2025-02-27T11:18:30Z</time>
      </trkpt>
      <trkpt lat="43.64985" lon="1.38064">
        <ele>145</ele>
        <time>2025-02-27T11:18:31Z</time>
      </trkpt>
      <trkpt lat="43.64987" lon="1.38067">
        <ele>145</ele>
        <time>2025-02-27T11:18:32Z</time>
      </trkpt>
      <trkpt lat="43.64989" lon="1.38072">
        <ele>145</ele>
        <time>2025-02-27T11:18:33Z</time>
      </trkpt>
      <trkpt lat="43.6499" lon="1.38073">
        <ele>145</ele>
        <time>2025-02-27T11:18:34Z</time>
      </trkpt>
      <trkpt lat="43.64992" lon="1.38079">
        <ele>145</ele>
        <time>2025-02-27T11:18:35Z</time>
      </trkpt>
      <trkpt lat="43.64994" lon="1.38083">
        <ele>145</ele>
        <time>2025-02-27T11:18:36Z</time>
      </trkpt>
      <trkpt lat="43.64994" lon="1.38083">
        <ele>145</ele>
        <time>2025-02-27T11:18:37Z</time>
      </trkpt>
      <trkpt lat="43.64995" lon="1.38086">
        <ele>145</ele>
        <time>2025-02-27T11:18:38Z</time>
      </trkpt>
      <trkpt lat="43.64996" lon="1.38089">
        <ele>145</ele>
        <time>2025-02-27T11:18:39Z</time>
      </trkpt>
      <trkpt lat="43.64997" lon="1.38093">
        <ele>145</ele>
        <time>2025-02-27T11:18:40Z</time>
      </trkpt>
      <trkpt lat="43.64997" lon="1.38096">
        <ele>145</ele>
        <time>2025-02-27T11:18:41Z</time>
      </trkpt>
      <trkpt lat="43.64997" lon="1.38099">
        <ele>145</ele>
        <time>2025-02-27T11:18:42Z</time>
      </trkpt>
      <trkpt lat="43.64998" lon="1.38102">
        <ele>145</ele>
        <time>2025-02-27T11:18:43Z</time>
      </trkpt>
      <trkpt lat="43.64999" lon="1.38105">
        <ele>145</ele>
        <time>2025-02-27T11:18:44Z</time>
      </trkpt>
      <trkpt lat="43.65001" lon="1.38111">
        <ele>145</ele>
        <time>2025-02-27T11:18:45Z</time>
      </trkpt>
      <trkpt lat="43.65001" lon="1.38111">
        <ele>145</ele>
        <time>2025-02-27T11:18:46Z</time>
      </trkpt>
      <trkpt lat="43.65002" lon="1.38116">
        <ele>145</ele>
        <time>2025-02-27T11:18:47Z</time>
      </trkpt>
      <trkpt lat="43.65003" lon="1.38118">
        <ele>145</ele>
        <time>2025-02-27T11:18:48Z</time>
      </trkpt>
      <trkpt lat="43.65004" lon="1.38122">
        <ele>145</ele>
        <time>2025-02-27T11:18:49Z</time>
      </trkpt>
      <trkpt lat="43.65004" lon="1.38124">
        <ele>145</ele>
        <time>2025-02-27T11:18:50Z</time>
      </trkpt>
      <trkpt lat="43.65005" lon="1.38127">
        <ele>145</ele>
        <time>2025-02-27T11:18:51Z</time>
      </trkpt>
      <trkpt lat="43.65007" lon="1.38131">
        <ele>145</ele>
        <time>2025-02-27T11:18:52Z</time>
      </trkpt>
      <trkpt lat="43.65008" lon="1.38135">
        <ele>145</ele>
        <time>2025-02-27T11:18:53Z</time>
      </trkpt>
      <trkpt lat="43.65009" lon="1.38138">
        <ele>145</ele>
        <time>2025-02-27T11:18:54Z</time>
      </trkpt>
      <trkpt lat="43.65011" lon="1.38142">
        <ele>145</ele>
        <time>2025-02-27T11:18:55Z</time>
      </trkpt>
      <trkpt lat="43.65012" lon="1.38145">
        <ele>145</ele>
        <time>2025-02-27T11:18:56Z</time>
      </trkpt>
      <trkpt lat="43.65013" lon="1.38149">
        <ele>145</ele>
        <time>2025-02-27T11:18:57Z</time>
      </trkpt>
      <trkpt lat="43.65012" lon="1.38152">
        <ele>145</ele>
        <time>2025-02-27T11:18:58Z</time>
      </trkpt>
      <trkpt lat="43.6501" lon="1.38155">
        <ele>145</ele>
        <time>2025-02-27T11:18:59Z</time>
      </trkpt>
      <trkpt lat="43.65009" lon="1.38159">
        <ele>145</ele>
        <time>2025-02-27T11:19:00Z</time>
      </trkpt>
      <trkpt lat="43.65007" lon="1.38164">
        <ele>145</ele>
        <time>2025-02-27T11:19:01Z</time>
      </trkpt>
      <trkpt lat="43.65006" lon="1.38165">
        <ele>145</ele>
        <time>2025-02-27T11:19:02Z</time>
      </trkpt>
      <trkpt lat="43.65005" lon="1.38168">
        <ele>145</ele>
        <time>2025-02-27T11:19:03Z</time>
      </trkpt>
      <trkpt lat="43.65004" lon="1.38173">
        <ele>145</ele>
        <time>2025-02-27T11:19:04Z</time>
      </trkpt>
      <trkpt lat="43.65004" lon="1.38174">
        <ele>145</ele>
        <time>2025-02-27T11:19:05Z</time>
      </trkpt>
      <trkpt lat="43.65003" lon="1.38176">
        <ele>145</ele>
        <time>2025-02-27T11:19:06Z</time>
      </trkpt>
      <trkpt lat="43.65003" lon="1.38176">
        <ele>145</ele>
        <time>2025-02-27T11:19:07Z</time>
      </trkpt>
      <trkpt lat="43.65005" lon="1.38181">
        <ele>145</ele>
        <time>2025-02-27T11:19:08Z</time>
      </trkpt>
      <trkpt lat="43.65005" lon="1.38181">
        <ele>145</ele>
        <time>2025-02-27T11:19:09Z</time>
      </trkpt>
      <trkpt lat="43.65007" lon="1.38184">
        <ele>145</ele>
        <time>2025-02-27T11:19:10Z</time>
      </trkpt>
      <trkpt lat="43.65008" lon="1.38187">
        <ele>145</ele>
        <time>2025-02-27T11:19:11Z</time>
      </trkpt>
      <trkpt lat="43.65009" lon="1.38189">
        <ele>145</ele>
        <time>2025-02-27T11:19:12Z</time>
      </trkpt>
      <trkpt lat="43.65012" lon="1.38194">
        <ele>145</ele>
        <time>2025-02-27T11:19:13Z</time>
      </trkpt>
      <trkpt lat="43.65013" lon="1.38195">
        <ele>145</ele>
        <time>2025-02-27T11:19:14Z</time>
      </trkpt>
      <trkpt lat="43.65014" lon="1.38198">
        <ele>145</ele>
        <time>2025-02-27T11:19:15Z</time>
      </trkpt>
      <trkpt lat="43.65016" lon="1.38202">
        <ele>145</ele>
        <time>2025-02-27T11:19:16Z</time>
      </trkpt>
      <trkpt lat="43.65017" lon="1.38205">
        <ele>145</ele>
        <time>2025-02-27T11:19:17Z</time>
      </trkpt>
      <trkpt lat="43.65019" lon="1.38209">
        <ele>146</ele>
        <time>2025-02-27T11:19:18Z</time>
      </trkpt>
      <trkpt lat="43.6502" lon="1.38212">
        <ele>146</ele>
        <time>2025-02-27T11:19:19Z</time>
      </trkpt>
      <trkpt lat="43.65023" lon="1.38218">
        <ele>145</ele>
        <time>2025-02-27T11:19:20Z</time>
      </trkpt>
      <trkpt lat="43.65023" lon="1.38218">
        <ele>145</ele>
        <time>2025-02-27T11:19:21Z</time>
      </trkpt>
      <trkpt lat="43.65027" lon="1.38223">
        <ele>145</ele>
        <time>2025-02-27T11:19:22Z</time>
      </trkpt>
      <trkpt lat="43.65028" lon="1.38224">
        <ele>145</ele>
        <time>2025-02-27T11:19:23Z</time>
      </trkpt>
      <trkpt lat="43.65029" lon="1.38227">
        <ele>145</ele>
        <time>2025-02-27T11:19:24Z</time>
      </trkpt>
      <trkpt lat="43.65031" lon="1.38231">
        <ele>145</ele>
        <time>2025-02-27T11:19:25Z</time>
      </trkpt>
      <trkpt lat="43.65031" lon="1.38234">
        <ele>145</ele>
        <time>2025-02-27T11:19:26Z</time>
      </trkpt>
      <trkpt lat="43.65032" lon="1.38237">
        <ele>145</ele>
        <time>2025-02-27T11:19:27Z</time>
      </trkpt>
      <trkpt lat="43.65032" lon="1.38241">
        <ele>145</ele>
        <time>2025-02-27T11:19:28Z</time>
      </trkpt>
      <trkpt lat="43.65032" lon="1.38245">
        <ele>145</ele>
        <time>2025-02-27T11:19:29Z</time>
      </trkpt>
      <trkpt lat="43.65033" lon="1.3825">
        <ele>145</ele>
        <time>2025-02-27T11:19:30Z</time>
      </trkpt>
      <trkpt lat="43.65033" lon="1.38251">
        <ele>145</ele>
        <time>2025-02-27T11:19:31Z</time>
      </trkpt>
      <trkpt lat="43.65034" lon="1.38256">
        <ele>145</ele>
        <time>2025-02-27T11:19:32Z</time>
      </trkpt>
      <trkpt lat="43.65034" lon="1.38258">
        <ele>145</ele>
        <time>2025-02-27T11:19:33Z</time>
      </trkpt>
      <trkpt lat="43.65034" lon="1.38261">
        <ele>145</ele>
        <time>2025-02-27T11:19:34Z</time>
      </trkpt>
      <trkpt lat="43.65034" lon="1.38264">
        <ele>146</ele>
        <time>2025-02-27T11:19:35Z</time>
      </trkpt>
      <trkpt lat="43.65035" lon="1.38267">
        <ele>146</ele>
        <time>2025-02-27T11:19:36Z</time>
      </trkpt>
      <trkpt lat="43.65037" lon="1.38272">
        <ele>145</ele>
        <time>2025-02-27T11:19:37Z</time>
      </trkpt>
      <trkpt lat="43.65038" lon="1.38274">
        <ele>145</ele>
        <time>2025-02-27T11:19:38Z</time>
      </trkpt>
      <trkpt lat="43.65038" lon="1.38277">
        <ele>145</ele>
        <time>2025-02-27T11:19:39Z</time>
      </trkpt>
      <trkpt lat="43.65039" lon="1.3828">
        <ele>145</ele>
        <time>2025-02-27T11:19:40Z</time>
      </trkpt>
      <trkpt lat="43.65041" lon="1.38283">
        <ele>145</ele>
        <time>2025-02-27T11:19:41Z</time>
      </trkpt>
      <trkpt lat="43.65042" lon="1.38287">
        <ele>145</ele>
        <time>2025-02-27T11:19:42Z</time>
      </trkpt>
      <trkpt lat="43.65042" lon="1.3829">
        <ele>146</ele>
        <time>2025-02-27T11:19:43Z</time>
      </trkpt>
      <trkpt lat="43.65043" lon="1.38293">
        <ele>146</ele>
        <time>2025-02-27T11:19:44Z</time>
      </trkpt>
      <trkpt lat="43.65043" lon="1.38296">
        <ele>146</ele>
        <time>2025-02-27T11:19:45Z</time>
      </trkpt>
      <trkpt lat="43.65044" lon="1.38299">
        <ele>146</ele>
        <time>2025-02-27T11:19:46Z</time>
      </trkpt>
      <trkpt lat="43.65044" lon="1.38302">
        <ele>146</ele>
        <time>2025-02-27T11:19:47Z</time>
      </trkpt>
      <trkpt lat="43.65045" lon="1.38305">
        <ele>146</ele>
        <time>2025-02-27T11:19:48Z</time>
      </trkpt>
      <trkpt lat="43.65045" lon="1.38308">
        <ele>146</ele>
        <time>2025-02-27T11:19:49Z</time>
      </trkpt>
      <trkpt lat="43.65046" lon="1.38311">
        <ele>146</ele>
        <time>2025-02-27T11:19:50Z</time>
      </trkpt>
      <trkpt lat="43.65047" lon="1.38315">
        <ele>146</ele>
        <time>2025-02-27T11:19:51Z</time>
      </trkpt>
      <trkpt lat="43.65047" lon="1.38318">
        <ele>145</ele>
        <time>2025-02-27T11:19:52Z</time>
      </trkpt>
      <trkpt lat="43.65048" lon="1.38321">
        <ele>146</ele>
        <time>2025-02-27T11:19:53Z</time>
      </trkpt>
      <trkpt lat="43.65049" lon="1.38324">
        <ele>146</ele>
        <time>2025-02-27T11:19:54Z</time>
      </trkpt>
      <trkpt lat="43.6505" lon="1.38328">
        <ele>145</ele>
        <time>2025-02-27T11:19:55Z</time>
      </trkpt>
      <trkpt lat="43.65052" lon="1.38332">
        <ele>145</ele>
        <time>2025-02-27T11:19:56Z</time>
      </trkpt>
      <trkpt lat="43.65052" lon="1.38334">
        <ele>145</ele>
        <time>2025-02-27T11:19:57Z</time>
      </trkpt>
      <trkpt lat="43.65054" lon="1.38337">
        <ele>145</ele>
        <time>2025-02-27T11:19:58Z</time>
      </trkpt>
      <trkpt lat="43.65055" lon="1.3834">
        <ele>145</ele>
        <time>2025-02-27T11:19:59Z</time>
      </trkpt>
      <trkpt lat="43.65056" lon="1.38343">
        <ele>145</ele>
        <time>2025-02-27T11:20:00Z</time>
      </trkpt>
      <trkpt lat="43.65057" lon="1.38346">
        <ele>145</ele>
        <time>2025-02-27T11:20:01Z</time>
      </trkpt>
      <trkpt lat="43.65058" lon="1.38349">
        <ele>145</ele>
        <time>2025-02-27T11:20:02Z</time>
      </trkpt>
      <trkpt lat="43.65059" lon="1.38353">
        <ele>145</ele>
        <time>2025-02-27T11:20:03Z</time>
      </trkpt>
      <trkpt lat="43.6506" lon="1.38354">
        <ele>145</ele>
        <time>2025-02-27T11:20:04Z</time>
      </trkpt>
      <trkpt lat="43.6506" lon="1.38357">
        <ele>145</ele>
        <time>2025-02-27T11:20:05Z</time>
      </trkpt>
      <trkpt lat="43.65061" lon="1.3836">
        <ele>145</ele>
        <time>2025-02-27T11:20:06Z</time>
      </trkpt>
      <trkpt lat="43.65063" lon="1.38363">
        <ele>145</ele>
        <time>2025-02-27T11:20:07Z</time>
      </trkpt>
      <trkpt lat="43.65065" lon="1.38367">
        <ele>145</ele>
        <time>2025-02-27T11:20:08Z</time>
      </trkpt>
      <trkpt lat="43.65066" lon="1.3837">
        <ele>145</ele>
        <time>2025-02-27T11:20:09Z</time>
      </trkpt>
      <trkpt lat="43.65067" lon="1.38373">
        <ele>145</ele>
        <time>2025-02-27T11:20:10Z</time>
      </trkpt>
      <trkpt lat="43.65068" lon="1.38376">
        <ele>145</ele>
        <time>2025-02-27T11:20:11Z</time>
      </trkpt>
      <trkpt lat="43.65069" lon="1.38379">
        <ele>145</ele>
        <time>2025-02-27T11:20:12Z</time>
      </trkpt>
      <trkpt lat="43.6507" lon="1.38383">
        <ele>145</ele>
        <time>2025-02-27T11:20:13Z</time>
      </trkpt>
      <trkpt lat="43.6507" lon="1.38386">
        <ele>144</ele>
        <time>2025-02-27T11:20:14Z</time>
      </trkpt>
      <trkpt lat="43.65071" lon="1.38389">
        <ele>144</ele>
        <time>2025-02-27T11:20:15Z</time>
      </trkpt>
      <trkpt lat="43.65072" lon="1.38392">
        <ele>144</ele>
        <time>2025-02-27T11:20:16Z</time>
      </trkpt>
      <trkpt lat="43.65073" lon="1.38395">
        <ele>145</ele>
        <time>2025-02-27T11:20:17Z</time>
      </trkpt>
      <trkpt lat="43.65074" lon="1.38398">
        <ele>145</ele>
        <time>2025-02-27T11:20:18Z</time>
      </trkpt>
      <trkpt lat="43.65075" lon="1.38401">
        <ele>144</ele>
        <time>2025-02-27T11:20:19Z</time>
      </trkpt>
      <trkpt lat="43.65076" lon="1.38405">
        <ele>144</ele>
        <time>2025-02-27T11:20:20Z</time>
      </trkpt>
      <trkpt lat="43.65076" lon="1.38408">
        <ele>144</ele>
        <time>2025-02-27T11:20:21Z</time>
      </trkpt>
      <trkpt lat="43.65077" lon="1.38411">
        <ele>144</ele>
        <time>2025-02-27T11:20:22Z</time>
      </trkpt>
      <trkpt lat="43.65078" lon="1.38414">
        <ele>144</ele>
        <time>2025-02-27T11:20:23Z</time>
      </trkpt>
      <trkpt lat="43.65078" lon="1.38417">
        <ele>144</ele>
        <time>2025-02-27T11:20:24Z</time>
      </trkpt>
      <trkpt lat="43.65079" lon="1.38421">
        <ele>144</ele>
        <time>2025-02-27T11:20:25Z</time>
      </trkpt>
      <trkpt lat="43.6508" lon="1.38424">
        <ele>144</ele>
        <time>2025-02-27T11:20:26Z</time>
      </trkpt>
      <trkpt lat="43.65081" lon="1.38427">
        <ele>144</ele>
        <time>2025-02-27T11:20:27Z</time>
      </trkpt>
      <trkpt lat="43.65082" lon="1.3843">
        <ele>144</ele>
        <time>2025-02-27T11:20:28Z</time>
      </trkpt>
      <trkpt lat="43.65083" lon="1.38433">
        <ele>144</ele>
        <time>2025-02-27T11:20:29Z</time>
      </trkpt>
      <trkpt lat="43.65084" lon="1.38436">
        <ele>144</ele>
        <time>2025-02-27T11:20:30Z</time>
      </trkpt>
      <trkpt lat="43.65085" lon="1.38439">
        <ele>144</ele>
        <time>2025-02-27T11:20:31Z</time>
      </trkpt>
      <trkpt lat="43.65086" lon="1.38442">
        <ele>144</ele>
        <time>2025-02-27T11:20:32Z</time>
      </trkpt>
      <trkpt lat="43.65087" lon="1.38445">
        <ele>144</ele>
        <time>2025-02-27T11:20:33Z</time>
      </trkpt>
      <trkpt lat="43.65089" lon="1.38448">
        <ele>144</ele>
        <time>2025-02-27T11:20:34Z</time>
      </trkpt>
      <trkpt lat="43.6509" lon="1.38451">
        <ele>144</ele>
        <time>2025-02-27T11:20:35Z</time>
      </trkpt>
      <trkpt lat="43.6509" lon="1.38454">
        <ele>144</ele>
        <time>2025-02-27T11:20:36Z</time>
      </trkpt>
      <trkpt lat="43.65091" lon="1.38457">
        <ele>144</ele>
        <time>2025-02-27T11:20:37Z</time>
      </trkpt>
      <trkpt lat="43.65091" lon="1.3846">
        <ele>144</ele>
        <time>2025-02-27T11:20:38Z</time>
      </trkpt>
      <trkpt lat="43.65093" lon="1.38466">
        <ele>144</ele>
        <time>2025-02-27T11:20:39Z</time>
      </trkpt>
      <trkpt lat="43.65093" lon="1.38466">
        <ele>144</ele>
        <time>2025-02-27T11:20:40Z</time>
      </trkpt>
      <trkpt lat="43.65094" lon="1.38469">
        <ele>144</ele>
        <time>2025-02-27T11:20:41Z</time>
      </trkpt>
      <trkpt lat="43.65095" lon="1.38472">
        <ele>144</ele>
        <time>2025-02-27T11:20:42Z</time>
      </trkpt>
      <trkpt lat="43.65096" lon="1.38475">
        <ele>143</ele>
        <time>2025-02-27T11:20:43Z</time>
      </trkpt>
      <trkpt lat="43.65097" lon="1.38478">
        <ele>143</ele>
        <time>2025-02-27T11:20:44Z</time>
      </trkpt>
      <trkpt lat="43.65098" lon="1.38481">
        <ele>143</ele>
        <time>2025-02-27T11:20:45Z</time>
      </trkpt>
      <trkpt lat="43.65099" lon="1.38484">
        <ele>142</ele>
        <time>2025-02-27T11:20:46Z</time>
      </trkpt>
      <trkpt lat="43.65101" lon="1.38487">
        <ele>143</ele>
        <time>2025-02-27T11:20:47Z</time>
      </trkpt>
      <trkpt lat="43.65103" lon="1.38492">
        <ele>143</ele>
        <time>2025-02-27T11:20:48Z</time>
      </trkpt>
      <trkpt lat="43.65103" lon="1.38494">
        <ele>143</ele>
        <time>2025-02-27T11:20:49Z</time>
      </trkpt>
      <trkpt lat="43.65104" lon="1.38499">
        <ele>143</ele>
        <time>2025-02-27T11:20:50Z</time>
      </trkpt>
      <trkpt lat="43.65105" lon="1.385">
        <ele>143</ele>
        <time>2025-02-27T11:20:51Z</time>
      </trkpt>
      <trkpt lat="43.65105" lon="1.38504">
        <ele>143</ele>
        <time>2025-02-27T11:20:52Z</time>
      </trkpt>
      <trkpt lat="43.65105" lon="1.38508">
        <ele>143</ele>
        <time>2025-02-27T11:20:53Z</time>
      </trkpt>
      <trkpt lat="43.65105" lon="1.38512">
        <ele>143</ele>
        <time>2025-02-27T11:20:54Z</time>
      </trkpt>
      <trkpt lat="43.65104" lon="1.38515">
        <ele>143</ele>
        <time>2025-02-27T11:20:55Z</time>
      </trkpt>
      <trkpt lat="43.65103" lon="1.38519">
        <ele>143</ele>
        <time>2025-02-27T11:20:56Z</time>
      </trkpt>
      <trkpt lat="43.65103" lon="1.38524">
        <ele>143</ele>
        <time>2025-02-27T11:20:57Z</time>
      </trkpt>
      <trkpt lat="43.65103" lon="1.38526">
        <ele>143</ele>
        <time>2025-02-27T11:20:58Z</time>
      </trkpt>
      <trkpt lat="43.65103" lon="1.38531">
        <ele>143</ele>
        <time>2025-02-27T11:20:59Z</time>
      </trkpt>
      <trkpt lat="43.65103" lon="1.38532">
        <ele>143</ele>
        <time>2025-02-27T11:21:00Z</time>
      </trkpt>
      <trkpt lat="43.65103" lon="1.38535">
        <ele>142</ele>
        <time>2025-02-27T11:21:01Z</time>
      </trkpt>
      <trkpt lat="43.65105" lon="1.38538">
        <ele>142</ele>
        <time>2025-02-27T11:21:02Z</time>
      </trkpt>
      <trkpt lat="43.65107" lon="1.3854">
        <ele>142</ele>
        <time>2025-02-27T11:21:03Z</time>
      </trkpt>
      <trkpt lat="43.65109" lon="1.38541">
        <ele>142</ele>
        <time>2025-02-27T11:21:04Z</time>
      </trkpt>
      <trkpt lat="43.65112" lon="1.38541">
        <ele>142</ele>
        <time>2025-02-27T11:21:05Z</time>
      </trkpt>
      <trkpt lat="43.65114" lon="1.38541">
        <ele>142</ele>
        <time>2025-02-27T11:21:06Z</time>
      </trkpt>
      <trkpt lat="43.65117" lon="1.38542">
        <ele>142</ele>
        <time>2025-02-27T11:21:07Z</time>
      </trkpt>
      <trkpt lat="43.65119" lon="1.38544">
        <ele>142</ele>
        <time>2025-02-27T11:21:08Z</time>
      </trkpt>
      <trkpt lat="43.65121" lon="1.38546">
        <ele>142</ele>
        <time>2025-02-27T11:21:09Z</time>
      </trkpt>
      <trkpt lat="43.65122" lon="1.38549">
        <ele>142</ele>
        <time>2025-02-27T11:21:10Z</time>
      </trkpt>
      <trkpt lat="43.65123" lon="1.38553">
        <ele>142</ele>
        <time>2025-02-27T11:21:11Z</time>
      </trkpt>
      <trkpt lat="43.65124" lon="1.38557">
        <ele>142</ele>
        <time>2025-02-27T11:21:12Z</time>
      </trkpt>
      <trkpt lat="43.65125" lon="1.3856">
        <ele>143</ele>
        <time>2025-02-27T11:21:13Z</time>
      </trkpt>
      <trkpt lat="43.65125" lon="1.38564">
        <ele>143</ele>
        <time>2025-02-27T11:21:14Z</time>
      </trkpt>
      <trkpt lat="43.65126" lon="1.38567">
        <ele>143</ele>
        <time>2025-02-27T11:21:15Z</time>
      </trkpt>
      <trkpt lat="43.65127" lon="1.38571">
        <ele>143</ele>
        <time>2025-02-27T11:21:16Z</time>
      </trkpt>
      <trkpt lat="43.65128" lon="1.38578">
        <ele>142</ele>
        <time>2025-02-27T11:21:17Z</time>
      </trkpt>
      <trkpt lat="43.65128" lon="1.38578">
        <ele>142</ele>
        <time>2025-02-27T11:21:18Z</time>
      </trkpt>
      <trkpt lat="43.65129" lon="1.38583">
        <ele>142</ele>
        <time>2025-02-27T11:21:19Z</time>
      </trkpt>
      <trkpt lat="43.65129" lon="1.38585">
        <ele>142</ele>
        <time>2025-02-27T11:21:20Z</time>
      </trkpt>
      <trkpt lat="43.6513" lon="1.38588">
        <ele>142</ele>
        <time>2025-02-27T11:21:21Z</time>
      </trkpt>
      <trkpt lat="43.65131" lon="1.38591">
        <ele>142</ele>
        <time>2025-02-27T11:21:22Z</time>
      </trkpt>
      <trkpt lat="43.65132" lon="1.38596">
        <ele>142</ele>
        <time>2025-02-27T11:21:23Z</time>
      </trkpt>
      <trkpt lat="43.65133" lon="1.38597">
        <ele>142</ele>
        <time>2025-02-27T11:21:24Z</time>
      </trkpt>
      <trkpt lat="43.65133" lon="1.38601">
        <ele>142</ele>
        <time>2025-02-27T11:21:25Z</time>
      </trkpt>
      <trkpt lat="43.65134" lon="1.38604">
        <ele>142</ele>
        <time>2025-02-27T11:21:26Z</time>
      </trkpt>
      <trkpt lat="43.65135" lon="1.38608">
        <ele>142</ele>
        <time>2025-02-27T11:21:27Z</time>
      </trkpt>
      <trkpt lat="43.65136" lon="1.38611">
        <ele>142</ele>
        <time>2025-02-27T11:21:28Z</time>
      </trkpt>
      <trkpt lat="43.65137" lon="1.38615">
        <ele>142</ele>
        <time>2025-02-27T11:21:29Z</time>
      </trkpt>
      <trkpt lat="43.65138" lon="1.38619">
        <ele>142</ele>
        <time>2025-02-27T11:21:30Z</time>
      </trkpt>
      <trkpt lat="43.65138" lon="1.38622">
        <ele>142</ele>
        <time>2025-02-27T11:21:31Z</time>
      </trkpt>
      <trkpt lat="43.65139" lon="1.38625">
        <ele>142</ele>
        <time>2025-02-27T11:21:32Z</time>
      </trkpt>
      <trkpt lat="43.6514" lon="1.38628">
        <ele>142</ele>
        <time>2025-02-27T11:21:33Z</time>
      </trkpt>
      <trkpt lat="43.65142" lon="1.38632">
        <ele>142</ele>
        <time>2025-02-27T11:21:34Z</time>
      </trkpt>
      <trkpt lat="43.65143" lon="1.38633">
        <ele>142</ele>
        <time>2025-02-27T11:21:35Z</time>
      </trkpt>
      <trkpt lat="43.65144" lon="1.38636">
        <ele>142</ele>
        <time>2025-02-27T11:21:36Z</time>
      </trkpt>
      <trkpt lat="43.65146" lon="1.38639">
        <ele>142</ele>
        <time>2025-02-27T11:21:37Z</time>
      </trkpt>
      <trkpt lat="43.65147" lon="1.38642">
        <ele>142</ele>
        <time>2025-02-27T11:21:38Z</time>
      </trkpt>
      <trkpt lat="43.65148" lon="1.38648">
        <ele>142</ele>
        <time>2025-02-27T11:21:39Z</time>
      </trkpt>
      <trkpt lat="43.65148" lon="1.38648">
        <ele>142</ele>
        <time>2025-02-27T11:21:40Z</time>
      </trkpt>
      <trkpt lat="43.6515" lon="1.38653">
        <ele>142</ele>
        <time>2025-02-27T11:21:41Z</time>
      </trkpt>
      <trkpt lat="43.65151" lon="1.38654">
        <ele>142</ele>
        <time>2025-02-27T11:21:42Z</time>
      </trkpt>
      <trkpt lat="43.65152" lon="1.38658">
        <ele>142</ele>
        <time>2025-02-27T11:21:43Z</time>
      </trkpt>
      <trkpt lat="43.65152" lon="1.38661">
        <ele>142</ele>
        <time>2025-02-27T11:21:44Z</time>
      </trkpt>
      <trkpt lat="43.65153" lon="1.38664">
        <ele>142</ele>
        <time>2025-02-27T11:21:45Z</time>
      </trkpt>
      <trkpt lat="43.65154" lon="1.38667">
        <ele>142</ele>
        <time>2025-02-27T11:21:46Z</time>
      </trkpt>
      <trkpt lat="43.65155" lon="1.38671">
        <ele>142</ele>
        <time>2025-02-27T11:21:47Z</time>
      </trkpt>
      <trkpt lat="43.65156" lon="1.38674">
        <ele>142</ele>
        <time>2025-02-27T11:21:48Z</time>
      </trkpt>
      <trkpt lat="43.65157" lon="1.38677">
        <ele>142</ele>
        <time>2025-02-27T11:21:49Z</time>
      </trkpt>
      <trkpt lat="43.65158" lon="1.3868">
        <ele>142</ele>
        <time>2025-02-27T11:21:50Z</time>
      </trkpt>
      <trkpt lat="43.65158" lon="1.38683">
        <ele>142</ele>
        <time>2025-02-27T11:21:51Z</time>
      </trkpt>
      <trkpt lat="43.65159" lon="1.38686">
        <ele>142</ele>
        <time>2025-02-27T11:21:52Z</time>
      </trkpt>
      <trkpt lat="43.6516" lon="1.3869">
        <ele>142</ele>
        <time>2025-02-27T11:21:53Z</time>
      </trkpt>
      <trkpt lat="43.6516" lon="1.38693">
        <ele>142</ele>
        <time>2025-02-27T11:21:54Z</time>
      </trkpt>
      <trkpt lat="43.65161" lon="1.38697">
        <ele>142</ele>
        <time>2025-02-27T11:21:55Z</time>
      </trkpt>
      <trkpt lat="43.65163" lon="1.38701">
        <ele>141</ele>
        <time>2025-02-27T11:21:56Z</time>
      </trkpt>
      <trkpt lat="43.65163" lon="1.38703">
        <ele>141</ele>
        <time>2025-02-27T11:21:57Z</time>
      </trkpt>
      <trkpt lat="43.65165" lon="1.38706">
        <ele>141</ele>
        <time>2025-02-27T11:21:58Z</time>
      </trkpt>
      <trkpt lat="43.65166" lon="1.38711">
        <ele>141</ele>
        <time>2025-02-27T11:21:59Z</time>
      </trkpt>
      <trkpt lat="43.65166" lon="1.38712">
        <ele>141</ele>
        <time>2025-02-27T11:22:00Z</time>
      </trkpt>
      <trkpt lat="43.65167" lon="1.38715">
        <ele>142</ele>
        <time>2025-02-27T11:22:01Z</time>
      </trkpt>
      <trkpt lat="43.65169" lon="1.38719">
        <ele>142</ele>
        <time>2025-02-27T11:22:02Z</time>
      </trkpt>
      <trkpt lat="43.65169" lon="1.38721">
        <ele>142</ele>
        <time>2025-02-27T11:22:03Z</time>
      </trkpt>
      <trkpt lat="43.65171" lon="1.38724">
        <ele>142</ele>
        <time>2025-02-27T11:22:04Z</time>
      </trkpt>
      <trkpt lat="43.65172" lon="1.38728">
        <ele>141</ele>
        <time>2025-02-27T11:22:05Z</time>
      </trkpt>
      <trkpt lat="43.65173" lon="1.38731">
        <ele>141</ele>
        <time>2025-02-27T11:22:06Z</time>
      </trkpt>
      <trkpt lat="43.65174" lon="1.38734">
        <ele>141</ele>
        <time>2025-02-27T11:22:07Z</time>
      </trkpt>
      <trkpt lat="43.65175" lon="1.38737">
        <ele>141</ele>
        <time>2025-02-27T11:22:08Z</time>
      </trkpt>
      <trkpt lat="43.65176" lon="1.3874">
        <ele>141</ele>
        <time>2025-02-27T11:22:09Z</time>
      </trkpt>
      <trkpt lat="43.65177" lon="1.38744">
        <ele>141</ele>
        <time>2025-02-27T11:22:10Z</time>
      </trkpt>
      <trkpt lat="43.65178" lon="1.38745">
        <ele>141</ele>
        <time>2025-02-27T11:22:11Z</time>
      </trkpt>
      <trkpt lat="43.65179" lon="1.38749">
        <ele>141</ele>
        <time>2025-02-27T11:22:12Z</time>
      </trkpt>
      <trkpt lat="43.6518" lon="1.38752">
        <ele>141</ele>
        <time>2025-02-27T11:22:13Z</time>
      </trkpt>
      <trkpt lat="43.65183" lon="1.38759">
        <ele>141</ele>
        <time>2025-02-27T11:22:14Z</time>
      </trkpt>
      <trkpt lat="43.65183" lon="1.38759">
        <ele>141</ele>
        <time>2025-02-27T11:22:15Z</time>
      </trkpt>
      <trkpt lat="43.65185" lon="1.38764">
        <ele>141</ele>
        <time>2025-02-27T11:22:16Z</time>
      </trkpt>
      <trkpt lat="43.65186" lon="1.38766">
        <ele>141</ele>
        <time>2025-02-27T11:22:17Z</time>
      </trkpt>
      <trkpt lat="43.65187" lon="1.38769">
        <ele>142</ele>
        <time>2025-02-27T11:22:18Z</time>
      </trkpt>
      <trkpt lat="43.6519" lon="1.38772">
        <ele>142</ele>
        <time>2025-02-27T11:22:19Z</time>
      </trkpt>
      <trkpt lat="43.65192" lon="1.38774">
        <ele>142</ele>
        <time>2025-02-27T11:22:20Z</time>
      </trkpt>
      <trkpt lat="43.65194" lon="1.38776">
        <ele>141</ele>
        <time>2025-02-27T11:22:21Z</time>
      </trkpt>
      <trkpt lat="43.65196" lon="1.38779">
        <ele>141</ele>
        <time>2025-02-27T11:22:22Z</time>
      </trkpt>
      <trkpt lat="43.65199" lon="1.38783">
        <ele>141</ele>
        <time>2025-02-27T11:22:23Z</time>
      </trkpt>
      <trkpt lat="43.652" lon="1.38784">
        <ele>141</ele>
        <time>2025-02-27T11:22:24Z</time>
      </trkpt>
      <trkpt lat="43.65202" lon="1.38787">
        <ele>141</ele>
        <time>2025-02-27T11:22:25Z</time>
      </trkpt>
      <trkpt lat="43.65204" lon="1.38789">
        <ele>141</ele>
        <time>2025-02-27T11:22:26Z</time>
      </trkpt>
      <trkpt lat="43.65207" lon="1.38792">
        <ele>141</ele>
        <time>2025-02-27T11:22:27Z</time>
      </trkpt>
      <trkpt lat="43.65208" lon="1.38794">
        <ele>141</ele>
        <time>2025-02-27T11:22:28Z</time>
      </trkpt>
      <trkpt lat="43.6521" lon="1.38797">
        <ele>141</ele>
        <time>2025-02-27T11:22:29Z</time>
      </trkpt>
      <trkpt lat="43.65213" lon="1.38801">
        <ele>141</ele>
        <time>2025-02-27T11:22:30Z</time>
      </trkpt>
      <trkpt lat="43.65214" lon="1.38802">
        <ele>141</ele>
        <time>2025-02-27T11:22:31Z</time>
      </trkpt>
      <trkpt lat="43.65216" lon="1.38805">
        <ele>141</ele>
        <time>2025-02-27T11:22:32Z</time>
      </trkpt>
      <trkpt lat="43.65218" lon="1.38807">
        <ele>141</ele>
        <time>2025-02-27T11:22:33Z</time>
      </trkpt>
      <trkpt lat="43.6522" lon="1.3881">
        <ele>141</ele>
        <time>2025-02-27T11:22:34Z</time>
      </trkpt>
      <trkpt lat="43.65222" lon="1.38813">
        <ele>141</ele>
        <time>2025-02-27T11:22:35Z</time>
      </trkpt>
      <trkpt lat="43.65224" lon="1.38815">
        <ele>141</ele>
        <time>2025-02-27T11:22:36Z</time>
      </trkpt>
      <trkpt lat="43.65226" lon="1.38818">
        <ele>141</ele>
        <time>2025-02-27T11:22:37Z</time>
      </trkpt>
      <trkpt lat="43.65227" lon="1.3882">
        <ele>141</ele>
        <time>2025-02-27T11:22:38Z</time>
      </trkpt>
      <trkpt lat="43.65229" lon="1.38823">
        <ele>141</ele>
        <time>2025-02-27T11:22:39Z</time>
      </trkpt>
      <trkpt lat="43.6523" lon="1.38825">
        <ele>140</ele>
        <time>2025-02-27T11:22:40Z</time>
      </trkpt>
      <trkpt lat="43.65232" lon="1.38828">
        <ele>140</ele>
        <time>2025-02-27T11:22:41Z</time>
      </trkpt>
      <trkpt lat="43.65234" lon="1.3883">
        <ele>140</ele>
        <time>2025-02-27T11:22:42Z</time>
      </trkpt>
      <trkpt lat="43.65236" lon="1.38833">
        <ele>140</ele>
        <time>2025-02-27T11:22:43Z</time>
      </trkpt>
      <trkpt lat="43.65238" lon="1.38836">
        <ele>140</ele>
        <time>2025-02-27T11:22:44Z</time>
      </trkpt>
      <trkpt lat="43.6524" lon="1.38838">
        <ele>140</ele>
        <time>2025-02-27T11:22:45Z</time>
      </trkpt>
      <trkpt lat="43.65242" lon="1.38841">
        <ele>140</ele>
        <time>2025-02-27T11:22:46Z</time>
      </trkpt>
      <trkpt lat="43.65244" lon="1.38844">
        <ele>139</ele>
        <time>2025-02-27T11:22:47Z</time>
      </trkpt>
      <trkpt lat="43.65246" lon="1.38846">
        <ele>138</ele>
        <time>2025-02-27T11:22:48Z</time>
      </trkpt>
      <trkpt lat="43.65247" lon="1.38849">
        <ele>138</ele>
        <time>2025-02-27T11:22:49Z</time>
      </trkpt>
      <trkpt lat="43.65249" lon="1.38852">
        <ele>138</ele>
        <time>2025-02-27T11:22:50Z</time>
      </trkpt>
      <trkpt lat="43.65252" lon="1.38856">
        <ele>138</ele>
        <time>2025-02-27T11:22:51Z</time>
      </trkpt>
      <trkpt lat="43.65253" lon="1.38857">
        <ele>138</ele>
        <time>2025-02-27T11:22:52Z</time>
      </trkpt>
      <trkpt lat="43.65255" lon="1.3886">
        <ele>137</ele>
        <time>2025-02-27T11:22:53Z</time>
      </trkpt>
      <trkpt lat="43.65256" lon="1.38862">
        <ele>137</ele>
        <time>2025-02-27T11:22:54Z</time>
      </trkpt>
      <trkpt lat="43.65259" lon="1.38866">
        <ele>137</ele>
        <time>2025-02-27T11:22:55Z</time>
      </trkpt>
      <trkpt lat="43.6526" lon="1.38867">
        <ele>137</ele>
        <time>2025-02-27T11:22:56Z</time>
      </trkpt>
      <trkpt lat="43.65263" lon="1.38871">
        <ele>137</ele>
        <time>2025-02-27T11:22:57Z</time>
      </trkpt>
      <trkpt lat="43.65264" lon="1.38872">
        <ele>137</ele>
        <time>2025-02-27T11:22:58Z</time>
      </trkpt>
      <trkpt lat="43.65266" lon="1.38874">
        <ele>136</ele>
        <time>2025-02-27T11:22:59Z</time>
      </trkpt>
      <trkpt lat="43.65268" lon="1.38877">
        <ele>135</ele>
        <time>2025-02-27T11:23:00Z</time>
      </trkpt>
      <trkpt lat="43.6527" lon="1.38879">
        <ele>135</ele>
        <time>2025-02-27T11:23:01Z</time>
      </trkpt>
      <trkpt lat="43.65272" lon="1.38882">
        <ele>135</ele>
        <time>2025-02-27T11:23:02Z</time>
      </trkpt>
      <trkpt lat="43.65274" lon="1.38885">
        <ele>135</ele>
        <time>2025-02-27T11:23:03Z</time>
      </trkpt>
      <trkpt lat="43.65275" lon="1.38887">
        <ele>135</ele>
        <time>2025-02-27T11:23:04Z</time>
      </trkpt>
      <trkpt lat="43.65277" lon="1.3889">
        <ele>135</ele>
        <time>2025-02-27T11:23:05Z</time>
      </trkpt>
      <trkpt lat="43.65279" lon="1.38893">
        <ele>135</ele>
        <time>2025-02-27T11:23:06Z</time>
      </trkpt>
      <trkpt lat="43.65281" lon="1.38895">
        <ele>135</ele>
        <time>2025-02-27T11:23:07Z</time>
      </trkpt>
      <trkpt lat="43.65283" lon="1.38898">
        <ele>134</ele>
        <time>2025-02-27T11:23:08Z</time>
      </trkpt>
      <trkpt lat="43.65284" lon="1.38901">
        <ele>134</ele>
        <time>2025-02-27T11:23:09Z</time>
      </trkpt>
      <trkpt lat="43.65286" lon="1.38904">
        <ele>134</ele>
        <time>2025-02-27T11:23:10Z</time>
      </trkpt>
      <trkpt lat="43.6529" lon="1.38909">
        <ele>134</ele>
        <time>2025-02-27T11:23:11Z</time>
      </trkpt>
      <trkpt lat="43.6529" lon="1.38909">
        <ele>134</ele>
        <time>2025-02-27T11:23:12Z</time>
      </trkpt>
      <trkpt lat="43.65292" lon="1.38911">
        <ele>134</ele>
        <time>2025-02-27T11:23:13Z</time>
      </trkpt>
      <trkpt lat="43.65294" lon="1.38912">
        <ele>134</ele>
        <time>2025-02-27T11:23:14Z</time>
      </trkpt>
      <trkpt lat="43.65298" lon="1.38913">
        <ele>133</ele>
        <time>2025-02-27T11:23:15Z</time>
      </trkpt>
      <trkpt lat="43.65299" lon="1.38914">
        <ele>133</ele>
        <time>2025-02-27T11:23:16Z</time>
      </trkpt>
      <trkpt lat="43.65301" lon="1.38915">
        <ele>133</ele>
        <time>2025-02-27T11:23:17Z</time>
      </trkpt>
      <trkpt lat="43.65304" lon="1.38916">
        <ele>133</ele>
        <time>2025-02-27T11:23:18Z</time>
      </trkpt>
      <trkpt lat="43.65307" lon="1.38917">
        <ele>132</ele>
        <time>2025-02-27T11:23:19Z</time>
      </trkpt>
      <trkpt lat="43.6531" lon="1.38919">
        <ele>132</ele>
        <time>2025-02-27T11:23:20Z</time>
      </trkpt>
      <trkpt lat="43.65313" lon="1.38922">
        <ele>132</ele>
        <time>2025-02-27T11:23:21Z</time>
      </trkpt>
      <trkpt lat="43.65315" lon="1.38926">
        <ele>131</ele>
        <time>2025-02-27T11:23:22Z</time>
      </trkpt>
      <trkpt lat="43.65317" lon="1.3893">
        <ele>130</ele>
        <time>2025-02-27T11:23:23Z</time>
      </trkpt>
      <trkpt lat="43.65318" lon="1.38935">
        <ele>130</ele>
        <time>2025-02-27T11:23:24Z</time>
      </trkpt>
      <trkpt lat="43.65319" lon="1.3894">
        <ele>130</ele>
        <time>2025-02-27T11:23:25Z</time>
      </trkpt>
      <trkpt lat="43.6532" lon="1.38944">
        <ele>129</ele>
        <time>2025-02-27T11:23:26Z</time>
      </trkpt>
      <trkpt lat="43.65321" lon="1.38949">
        <ele>128</ele>
        <time>2025-02-27T11:23:27Z</time>
      </trkpt>
      <trkpt lat="43.65322" lon="1.38953">
        <ele>128</ele>
        <time>2025-02-27T11:23:28Z</time>
      </trkpt>
      <trkpt lat="43.65323" lon="1.38958">
        <ele>128</ele>
        <time>2025-02-27T11:23:29Z</time>
      </trkpt>
      <trkpt lat="43.65323" lon="1.38964">
        <ele>128</ele>
        <time>2025-02-27T11:23:30Z</time>
      </trkpt>
      <trkpt lat="43.65324" lon="1.38967">
        <ele>127</ele>
        <time>2025-02-27T11:23:31Z</time>
      </trkpt>
      <trkpt lat="43.65325" lon="1.38971">
        <ele>127</ele>
        <time>2025-02-27T11:23:32Z</time>
      </trkpt>
      <trkpt lat="43.65326" lon="1.38976">
        <ele>125</ele>
        <time>2025-02-27T11:23:33Z</time>
      </trkpt>
      <trkpt lat="43.65327" lon="1.3898">
        <ele>125</ele>
        <time>2025-02-27T11:23:34Z</time>
      </trkpt>
      <trkpt lat="43.65328" lon="1.38984">
        <ele>125</ele>
        <time>2025-02-27T11:23:35Z</time>
      </trkpt>
      <trkpt lat="43.6533" lon="1.38987">
        <ele>125</ele>
        <time>2025-02-27T11:23:36Z</time>
      </trkpt>
      <trkpt lat="43.65331" lon="1.38991">
        <ele>124</ele>
        <time>2025-02-27T11:23:37Z</time>
      </trkpt>
      <trkpt lat="43.6533" lon="1.38996">
        <ele>124</ele>
        <time>2025-02-27T11:23:38Z</time>
      </trkpt>
      <trkpt lat="43.65329" lon="1.39002">
        <ele>124</ele>
        <time>2025-02-27T11:23:39Z</time>
      </trkpt>
      <trkpt lat="43.65328" lon="1.39004">
        <ele>124</ele>
        <time>2025-02-27T11:23:40Z</time>
      </trkpt>
      <trkpt lat="43.65327" lon="1.39008">
        <ele>123</ele>
        <time>2025-02-27T11:23:41Z</time>
      </trkpt>
      <trkpt lat="43.65326" lon="1.39012">
        <ele>122</ele>
        <time>2025-02-27T11:23:42Z</time>
      </trkpt>
      <trkpt lat="43.65324" lon="1.39016">
        <ele>122</ele>
        <time>2025-02-27T11:23:43Z</time>
      </trkpt>
      <trkpt lat="43.65323" lon="1.39019">
        <ele>122</ele>
        <time>2025-02-27T11:23:44Z</time>
      </trkpt>
      <trkpt lat="43.65322" lon="1.39023">
        <ele>122</ele>
        <time>2025-02-27T11:23:45Z</time>
      </trkpt>
      <trkpt lat="43.6532" lon="1.39028">
        <ele>122</ele>
        <time>2025-02-27T11:23:46Z</time>
      </trkpt>
      <trkpt lat="43.65319" lon="1.3903">
        <ele>122</ele>
        <time>2025-02-27T11:23:47Z</time>
      </trkpt>
      <trkpt lat="43.65318" lon="1.39033">
        <ele>122</ele>
        <time>2025-02-27T11:23:48Z</time>
      </trkpt>
      <trkpt lat="43.65313" lon="1.39039">
        <ele>122</ele>
        <time>2025-02-27T11:23:49Z</time>
      </trkpt>
      <trkpt lat="43.65313" lon="1.39039">
        <ele>122</ele>
        <time>2025-02-27T11:23:50Z</time>
      </trkpt>
      <trkpt lat="43.65308" lon="1.39041">
        <ele>122</ele>
        <time>2025-02-27T11:23:51Z</time>
      </trkpt>
      <trkpt lat="43.65306" lon="1.39042">
        <ele>122</ele>
        <time>2025-02-27T11:23:52Z</time>
      </trkpt>
      <trkpt lat="43.65303" lon="1.39042">
        <ele>122</ele>
        <time>2025-02-27T11:23:53Z</time>
      </trkpt>
      <trkpt lat="43.653" lon="1.39041">
        <ele>122</ele>
        <time>2025-02-27T11:23:54Z</time>
      </trkpt>
      <trkpt lat="43.65297" lon="1.3904">
        <ele>122</ele>
        <time>2025-02-27T11:23:55Z</time>
      </trkpt>
      <trkpt lat="43.65293" lon="1.39039">
        <ele>122</ele>
        <time>2025-02-27T11:23:56Z</time>
      </trkpt>
      <trkpt lat="43.65291" lon="1.39038">
        <ele>122</ele>
        <time>2025-02-27T11:23:57Z</time>
      </trkpt>
      <trkpt lat="43.65287" lon="1.39038">
        <ele>122</ele>
        <time>2025-02-27T11:23:58Z</time>
      </trkpt>
      <trkpt lat="43.65286" lon="1.39037">
        <ele>122</ele>
        <time>2025-02-27T11:23:59Z</time>
      </trkpt>
      <trkpt lat="43.65283" lon="1.39037">
        <ele>122</ele>
        <time>2025-02-27T11:24:00Z</time>
      </trkpt>
      <trkpt lat="43.6528" lon="1.39037">
        <ele>122</ele>
        <time>2025-02-27T11:24:01Z</time>
      </trkpt>
      <trkpt lat="43.65277" lon="1.39036">
        <ele>122</ele>
        <time>2025-02-27T11:24:02Z</time>
      </trkpt>
      <trkpt lat="43.65275" lon="1.39036">
        <ele>122</ele>
        <time>2025-02-27T11:24:03Z</time>
      </trkpt>
      <trkpt lat="43.65272" lon="1.39036">
        <ele>122</ele>
        <time>2025-02-27T11:24:04Z</time>
      </trkpt>
      <trkpt lat="43.65269" lon="1.39036">
        <ele>122</ele>
        <time>2025-02-27T11:24:05Z</time>
      </trkpt>
      <trkpt lat="43.65267" lon="1.39036">
        <ele>122</ele>
        <time>2025-02-27T11:24:06Z</time>
      </trkpt>
      <trkpt lat="43.65264" lon="1.39036">
        <ele>122</ele>
        <time>2025-02-27T11:24:07Z</time>
      </trkpt>
      <trkpt lat="43.65258" lon="1.39035">
        <ele>122</ele>
        <time>2025-02-27T11:24:08Z</time>
      </trkpt>
      <trkpt lat="43.65256" lon="1.39035">
        <ele>122</ele>
        <time>2025-02-27T11:24:09Z</time>
      </trkpt>
      <trkpt lat="43.65256" lon="1.39035">
        <ele>122</ele>
        <time>2025-02-27T11:24:10Z</time>
      </trkpt>
      <trkpt lat="43.65252" lon="1.39034">
        <ele>122</ele>
        <time>2025-02-27T11:24:11Z</time>
      </trkpt>
      <trkpt lat="43.6525" lon="1.39033">
        <ele>121</ele>
        <time>2025-02-27T11:24:12Z</time>
      </trkpt>
      <trkpt lat="43.65248" lon="1.39032">
        <ele>121</ele>
        <time>2025-02-27T11:24:13Z</time>
      </trkpt>
      <trkpt lat="43.65245" lon="1.39031">
        <ele>121</ele>
        <time>2025-02-27T11:24:14Z</time>
      </trkpt>
      <trkpt lat="43.65243" lon="1.39029">
        <ele>121</ele>
        <time>2025-02-27T11:24:15Z</time>
      </trkpt>
      <trkpt lat="43.6524" lon="1.39027">
        <ele>122</ele>
        <time>2025-02-27T11:24:16Z</time>
      </trkpt>
      <trkpt lat="43.65238" lon="1.39025">
        <ele>122</ele>
        <time>2025-02-27T11:24:17Z</time>
      </trkpt>
      <trkpt lat="43.65235" lon="1.39024">
        <ele>122</ele>
        <time>2025-02-27T11:24:18Z</time>
      </trkpt>
      <trkpt lat="43.65233" lon="1.39022">
        <ele>122</ele>
        <time>2025-02-27T11:24:19Z</time>
      </trkpt>
      <trkpt lat="43.65231" lon="1.3902">
        <ele>122</ele>
        <time>2025-02-27T11:24:20Z</time>
      </trkpt>
      <trkpt lat="43.65228" lon="1.39019">
        <ele>121</ele>
        <time>2025-02-27T11:24:21Z</time>
      </trkpt>
      <trkpt lat="43.65226" lon="1.39018">
        <ele>121</ele>
        <time>2025-02-27T11:24:22Z</time>
      </trkpt>
      <trkpt lat="43.65223" lon="1.39017">
        <ele>122</ele>
        <time>2025-02-27T11:24:23Z</time>
      </trkpt>
      <trkpt lat="43.6522" lon="1.39017">
        <ele>122</ele>
        <time>2025-02-27T11:24:24Z</time>
      </trkpt>
      <trkpt lat="43.65218" lon="1.39016">
        <ele>122</ele>
        <time>2025-02-27T11:24:25Z</time>
      </trkpt>
      <trkpt lat="43.65215" lon="1.39016">
        <ele>122</ele>
        <time>2025-02-27T11:24:26Z</time>
      </trkpt>
      <trkpt lat="43.6521" lon="1.39016">
        <ele>122</ele>
        <time>2025-02-27T11:24:27Z</time>
      </trkpt>
      <trkpt lat="43.6521" lon="1.39016">
        <ele>122</ele>
        <time>2025-02-27T11:24:28Z</time>
      </trkpt>
      <trkpt lat="43.65206" lon="1.39016">
        <ele>122</ele>
        <time>2025-02-27T11:24:29Z</time>
      </trkpt>
      <trkpt lat="43.65205" lon="1.39016">
        <ele>122</ele>
        <time>2025-02-27T11:24:30Z</time>
      </trkpt>
      <trkpt lat="43.65202" lon="1.39016">
        <ele>122</ele>
        <time>2025-02-27T11:24:31Z</time>
      </trkpt>
      <trkpt lat="43.65199" lon="1.39016">
        <ele>122</ele>
        <time>2025-02-27T11:24:32Z</time>
      </trkpt>
      <trkpt lat="43.65196" lon="1.39015">
        <ele>122</ele>
        <time>2025-02-27T11:24:33Z</time>
      </trkpt>
      <trkpt lat="43.65193" lon="1.39015">
        <ele>122</ele>
        <time>2025-02-27T11:24:34Z</time>
      </trkpt>
      <trkpt lat="43.6519" lon="1.39016">
        <ele>122</ele>
        <time>2025-02-27T11:24:35Z</time>
      </trkpt>
      <trkpt lat="43.65187" lon="1.39016">
        <ele>122</ele>
        <time>2025-02-27T11:24:36Z</time>
      </trkpt>
      <trkpt lat="43.65184" lon="1.39016">
        <ele>122</ele>
        <time>2025-02-27T11:24:37Z</time>
      </trkpt>
      <trkpt lat="43.65182" lon="1.39016">
        <ele>122</ele>
        <time>2025-02-27T11:24:38Z</time>
      </trkpt>
      <trkpt lat="43.65179" lon="1.39016">
        <ele>122</ele>
        <time>2025-02-27T11:24:39Z</time>
      </trkpt>
      <trkpt lat="43.65176" lon="1.39016">
        <ele>122</ele>
        <time>2025-02-27T11:24:40Z</time>
      </trkpt>
      <trkpt lat="43.65172" lon="1.39016">
        <ele>122</ele>
        <time>2025-02-27T11:24:41Z</time>
      </trkpt>
      <trkpt lat="43.6517" lon="1.39016">
        <ele>122</ele>
        <time>2025-02-27T11:24:42Z</time>
      </trkpt>
      <trkpt lat="43.65167" lon="1.39016">
        <ele>122</ele>
        <time>2025-02-27T11:24:43Z</time>
      </trkpt>
      <trkpt lat="43.65164" lon="1.39017">
        <ele>122</ele>
        <time>2025-02-27T11:24:44Z</time>
      </trkpt>
      <trkpt lat="43.65161" lon="1.39017">
        <ele>122</ele>
        <time>2025-02-27T11:24:45Z</time>
      </trkpt>
      <trkpt lat="43.65158" lon="1.39017">
        <ele>122</ele>
        <time>2025-02-27T11:24:46Z</time>
      </trkpt>
      <trkpt lat="43.65155" lon="1.39018">
        <ele>122</ele>
        <time>2025-02-27T11:24:47Z</time>
      </trkpt>
      <trkpt lat="43.65152" lon="1.39018">
        <ele>122</ele>
        <time>2025-02-27T11:24:48Z</time>
      </trkpt>
      <trkpt lat="43.65149" lon="1.39018">
        <ele>122</ele>
        <time>2025-02-27T11:24:49Z</time>
      </trkpt>
      <trkpt lat="43.65146" lon="1.39018">
        <ele>122</ele>
        <time>2025-02-27T11:24:50Z</time>
      </trkpt>
      <trkpt lat="43.65143" lon="1.39018">
        <ele>122</ele>
        <time>2025-02-27T11:24:51Z</time>
      </trkpt>
      <trkpt lat="43.6514" lon="1.39018">
        <ele>122</ele>
        <time>2025-02-27T11:24:52Z</time>
      </trkpt>
      <trkpt lat="43.65138" lon="1.39018">
        <ele>122</ele>
        <time>2025-02-27T11:24:53Z</time>
      </trkpt>
      <trkpt lat="43.65135" lon="1.39018">
        <ele>122</ele>
        <time>2025-02-27T11:24:54Z</time>
      </trkpt>
      <trkpt lat="43.65132" lon="1.39018">
        <ele>122</ele>
        <time>2025-02-27T11:24:55Z</time>
      </trkpt>
      <trkpt lat="43.65129" lon="1.39017">
        <ele>122</ele>
        <time>2025-02-27T11:24:56Z</time>
      </trkpt>
      <trkpt lat="43.65126" lon="1.39017">
        <ele>122</ele>
        <time>2025-02-27T11:24:57Z</time>
      </trkpt>
      <trkpt lat="43.65124" lon="1.39017">
        <ele>122</ele>
        <time>2025-02-27T11:24:58Z</time>
      </trkpt>
      <trkpt lat="43.65121" lon="1.39017">
        <ele>122</ele>
        <time>2025-02-27T11:24:59Z</time>
      </trkpt>
      <trkpt lat="43.65118" lon="1.39017">
        <ele>122</ele>
        <time>2025-02-27T11:25:00Z</time>
      </trkpt>
      <trkpt lat="43.65114" lon="1.39016">
        <ele>122</ele>
        <time>2025-02-27T11:25:01Z</time>
      </trkpt>
      <trkpt lat="43.65112" lon="1.39016">
        <ele>122</ele>
        <time>2025-02-27T11:25:02Z</time>
      </trkpt>
      <trkpt lat="43.65109" lon="1.39016">
        <ele>122</ele>
        <time>2025-02-27T11:25:03Z</time>
      </trkpt>
      <trkpt lat="43.65107" lon="1.39016">
        <ele>122</ele>
        <time>2025-02-27T11:25:04Z</time>
      </trkpt>
      <trkpt lat="43.65101" lon="1.39016">
        <ele>122</ele>
        <time>2025-02-27T11:25:05Z</time>
      </trkpt>
      <trkpt lat="43.65101" lon="1.39016">
        <ele>122</ele>
        <time>2025-02-27T11:25:06Z</time>
      </trkpt>
      <trkpt lat="43.65097" lon="1.39017">
        <ele>122</ele>
        <time>2025-02-27T11:25:07Z</time>
      </trkpt>
      <trkpt lat="43.65095" lon="1.39018">
        <ele>122</ele>
        <time>2025-02-27T11:25:08Z</time>
      </trkpt>
      <trkpt lat="43.65092" lon="1.39019">
        <ele>122</ele>
        <time>2025-02-27T11:25:09Z</time>
      </trkpt>
      <trkpt lat="43.6509" lon="1.39021">
        <ele>122</ele>
        <time>2025-02-27T11:25:10Z</time>
      </trkpt>
      <trkpt lat="43.65088" lon="1.39023">
        <ele>122</ele>
        <time>2025-02-27T11:25:11Z</time>
      </trkpt>
      <trkpt lat="43.65084" lon="1.39027">
        <ele>122</ele>
        <time>2025-02-27T11:25:12Z</time>
      </trkpt>
      <trkpt lat="43.65083" lon="1.39028">
        <ele>122</ele>
        <time>2025-02-27T11:25:13Z</time>
      </trkpt>
      <trkpt lat="43.6508" lon="1.3903">
        <ele>122</ele>
        <time>2025-02-27T11:25:14Z</time>
      </trkpt>
      <trkpt lat="43.65078" lon="1.39032">
        <ele>122</ele>
        <time>2025-02-27T11:25:15Z</time>
      </trkpt>
      <trkpt lat="43.65076" lon="1.39035">
        <ele>121</ele>
        <time>2025-02-27T11:25:16Z</time>
      </trkpt>
      <trkpt lat="43.65075" lon="1.39038">
        <ele>121</ele>
        <time>2025-02-27T11:25:17Z</time>
      </trkpt>
      <trkpt lat="43.65074" lon="1.39042">
        <ele>122</ele>
        <time>2025-02-27T11:25:18Z</time>
      </trkpt>
      <trkpt lat="43.65073" lon="1.39048">
        <ele>122</ele>
        <time>2025-02-27T11:25:19Z</time>
      </trkpt>
      <trkpt lat="43.65073" lon="1.3905">
        <ele>122</ele>
        <time>2025-02-27T11:25:20Z</time>
      </trkpt>
      <trkpt lat="43.65074" lon="1.39056">
        <ele>122</ele>
        <time>2025-02-27T11:25:21Z</time>
      </trkpt>
      <trkpt lat="43.65074" lon="1.39058">
        <ele>122</ele>
        <time>2025-02-27T11:25:22Z</time>
      </trkpt>
      <trkpt lat="43.65074" lon="1.39066">
        <ele>122</ele>
        <time>2025-02-27T11:25:23Z</time>
      </trkpt>
      <trkpt lat="43.65073" lon="1.3907">
        <ele>122</ele>
        <time>2025-02-27T11:25:24Z</time>
      </trkpt>
      <trkpt lat="43.65073" lon="1.3907">
        <ele>122</ele>
        <time>2025-02-27T11:25:25Z</time>
      </trkpt>
      <trkpt lat="43.65074" lon="1.39075">
        <ele>122</ele>
        <time>2025-02-27T11:25:26Z</time>
      </trkpt>
      <trkpt lat="43.65074" lon="1.39079">
        <ele>122</ele>
        <time>2025-02-27T11:25:27Z</time>
      </trkpt>
      <trkpt lat="43.65074" lon="1.39083">
        <ele>122</ele>
        <time>2025-02-27T11:25:28Z</time>
      </trkpt>
      <trkpt lat="43.65074" lon="1.39087">
        <ele>122</ele>
        <time>2025-02-27T11:25:29Z</time>
      </trkpt>
      <trkpt lat="43.65074" lon="1.39091">
        <ele>122</ele>
        <time>2025-02-27T11:25:30Z</time>
      </trkpt>
      <trkpt lat="43.65075" lon="1.39095">
        <ele>121</ele>
        <time>2025-02-27T11:25:31Z</time>
      </trkpt>
      <trkpt lat="43.65075" lon="1.39099">
        <ele>121</ele>
        <time>2025-02-27T11:25:32Z</time>
      </trkpt>
      <trkpt lat="43.65075" lon="1.39103">
        <ele>121</ele>
        <time>2025-02-27T11:25:33Z</time>
      </trkpt>
      <trkpt lat="43.65076" lon="1.39107">
        <ele>121</ele>
        <time>2025-02-27T11:25:34Z</time>
      </trkpt>
      <trkpt lat="43.65075" lon="1.39111">
        <ele>121</ele>
        <time>2025-02-27T11:25:35Z</time>
      </trkpt>
      <trkpt lat="43.65076" lon="1.39115">
        <ele>122</ele>
        <time>2025-02-27T11:25:36Z</time>
      </trkpt>
      <trkpt lat="43.65075" lon="1.39119">
        <ele>122</ele>
        <time>2025-02-27T11:25:37Z</time>
      </trkpt>
      <trkpt lat="43.65075" lon="1.39123">
        <ele>122</ele>
        <time>2025-02-27T11:25:38Z</time>
      </trkpt>
      <trkpt lat="43.65073" lon="1.39129">
        <ele>122</ele>
        <time>2025-02-27T11:25:39Z</time>
      </trkpt>
      <trkpt lat="43.65072" lon="1.3913">
        <ele>122</ele>
        <time>2025-02-27T11:25:40Z</time>
      </trkpt>
      <trkpt lat="43.6507" lon="1.39134">
        <ele>122</ele>
        <time>2025-02-27T11:25:41Z</time>
      </trkpt>
      <trkpt lat="43.65068" lon="1.39137">
        <ele>122</ele>
        <time>2025-02-27T11:25:42Z</time>
      </trkpt>
      <trkpt lat="43.65064" lon="1.39141">
        <ele>122</ele>
        <time>2025-02-27T11:25:43Z</time>
      </trkpt>
      <trkpt lat="43.65064" lon="1.39141">
        <ele>122</ele>
        <time>2025-02-27T11:25:44Z</time>
      </trkpt>
      <trkpt lat="43.65061" lon="1.39142">
        <ele>122</ele>
        <time>2025-02-27T11:25:45Z</time>
      </trkpt>
      <trkpt lat="43.65058" lon="1.39144">
        <ele>122</ele>
        <time>2025-02-27T11:25:46Z</time>
      </trkpt>
      <trkpt lat="43.65052" lon="1.39145">
        <ele>122</ele>
        <time>2025-02-27T11:25:47Z</time>
      </trkpt>
      <trkpt lat="43.65052" lon="1.39145">
        <ele>122</ele>
        <time>2025-02-27T11:25:48Z</time>
      </trkpt>
      <trkpt lat="43.65049" lon="1.39146">
        <ele>122</ele>
        <time>2025-02-27T11:25:49Z</time>
      </trkpt>
      <trkpt lat="43.65045" lon="1.39147">
        <ele>122</ele>
        <time>2025-02-27T11:25:50Z</time>
      </trkpt>
      <trkpt lat="43.65043" lon="1.39147">
        <ele>122</ele>
        <time>2025-02-27T11:25:51Z</time>
      </trkpt>
      <trkpt lat="43.65041" lon="1.39148">
        <ele>122</ele>
        <time>2025-02-27T11:25:52Z</time>
      </trkpt>
      <trkpt lat="43.65038" lon="1.39148">
        <ele>122</ele>
        <time>2025-02-27T11:25:53Z</time>
      </trkpt>
      <trkpt lat="43.65035" lon="1.39149">
        <ele>122</ele>
        <time>2025-02-27T11:25:54Z</time>
      </trkpt>
      <trkpt lat="43.65032" lon="1.39149">
        <ele>122</ele>
        <time>2025-02-27T11:25:55Z</time>
      </trkpt>
      <trkpt lat="43.65029" lon="1.39149">
        <ele>122</ele>
        <time>2025-02-27T11:25:56Z</time>
      </trkpt>
      <trkpt lat="43.65027" lon="1.39149">
        <ele>122</ele>
        <time>2025-02-27T11:25:57Z</time>
      </trkpt>
      <trkpt lat="43.65024" lon="1.3915">
        <ele>122</ele>
        <time>2025-02-27T11:25:58Z</time>
      </trkpt>
      <trkpt lat="43.65021" lon="1.3915">
        <ele>122</ele>
        <time>2025-02-27T11:25:59Z</time>
      </trkpt>
      <trkpt lat="43.65018" lon="1.39151">
        <ele>122</ele>
        <time>2025-02-27T11:26:00Z</time>
      </trkpt>
      <trkpt lat="43.65015" lon="1.39152">
        <ele>122</ele>
        <time>2025-02-27T11:26:01Z</time>
      </trkpt>
      <trkpt lat="43.6501" lon="1.39153">
        <ele>122</ele>
        <time>2025-02-27T11:26:02Z</time>
      </trkpt>
      <trkpt lat="43.6501" lon="1.39153">
        <ele>122</ele>
        <time>2025-02-27T11:26:03Z</time>
      </trkpt>
      <trkpt lat="43.65007" lon="1.39154">
        <ele>122</ele>
        <time>2025-02-27T11:26:04Z</time>
      </trkpt>
      <trkpt lat="43.65004" lon="1.39154">
        <ele>122</ele>
        <time>2025-02-27T11:26:05Z</time>
      </trkpt>
      <trkpt lat="43.64998" lon="1.39155">
        <ele>122</ele>
        <time>2025-02-27T11:26:06Z</time>
      </trkpt>
      <trkpt lat="43.64998" lon="1.39155">
        <ele>122</ele>
        <time>2025-02-27T11:26:07Z</time>
      </trkpt>
      <trkpt lat="43.64995" lon="1.39155">
        <ele>122</ele>
        <time>2025-02-27T11:26:08Z</time>
      </trkpt>
      <trkpt lat="43.64992" lon="1.39156">
        <ele>122</ele>
        <time>2025-02-27T11:26:09Z</time>
      </trkpt>
      <trkpt lat="43.64989" lon="1.39157">
        <ele>122</ele>
        <time>2025-02-27T11:26:10Z</time>
      </trkpt>
      <trkpt lat="43.64986" lon="1.39158">
        <ele>122</ele>
        <time>2025-02-27T11:26:11Z</time>
      </trkpt>
      <trkpt lat="43.64984" lon="1.39159">
        <ele>122</ele>
        <time>2025-02-27T11:26:12Z</time>
      </trkpt>
      <trkpt lat="43.64981" lon="1.39159">
        <ele>122</ele>
        <time>2025-02-27T11:26:13Z</time>
      </trkpt>
      <trkpt lat="43.64978" lon="1.3916">
        <ele>122</ele>
        <time>2025-02-27T11:26:14Z</time>
      </trkpt>
      <trkpt lat="43.64975" lon="1.39161">
        <ele>122</ele>
        <time>2025-02-27T11:26:15Z</time>
      </trkpt>
      <trkpt lat="43.64972" lon="1.39161">
        <ele>122</ele>
        <time>2025-02-27T11:26:16Z</time>
      </trkpt>
      <trkpt lat="43.64969" lon="1.39162">
        <ele>122</ele>
        <time>2025-02-27T11:26:17Z</time>
      </trkpt>
      <trkpt lat="43.64966" lon="1.39161">
        <ele>122</ele>
        <time>2025-02-27T11:26:18Z</time>
      </trkpt>
      <trkpt lat="43.64963" lon="1.3916">
        <ele>122</ele>
        <time>2025-02-27T11:26:19Z</time>
      </trkpt>
      <trkpt lat="43.6496" lon="1.39157">
        <ele>122</ele>
        <time>2025-02-27T11:26:20Z</time>
      </trkpt>
      <trkpt lat="43.64957" lon="1.3915">
        <ele>122</ele>
        <time>2025-02-27T11:26:21Z</time>
      </trkpt>
      <trkpt lat="43.64957" lon="1.3915">
        <ele>122</ele>
        <time>2025-02-27T11:26:22Z</time>
      </trkpt>
      <trkpt lat="43.64955" lon="1.39146">
        <ele>122</ele>
        <time>2025-02-27T11:26:23Z</time>
      </trkpt>
      <trkpt lat="43.64954" lon="1.39142">
        <ele>122</ele>
        <time>2025-02-27T11:26:24Z</time>
      </trkpt>
      <trkpt lat="43.64953" lon="1.39138">
        <ele>122</ele>
        <time>2025-02-27T11:26:25Z</time>
      </trkpt>
      <trkpt lat="43.64952" lon="1.39133">
        <ele>122</ele>
        <time>2025-02-27T11:26:26Z</time>
      </trkpt>
      <trkpt lat="43.64951" lon="1.39129">
        <ele>121</ele>
        <time>2025-02-27T11:26:27Z</time>
      </trkpt>
      <trkpt lat="43.64949" lon="1.39126">
        <ele>121</ele>
        <time>2025-02-27T11:26:28Z</time>
      </trkpt>
      <trkpt lat="43.64947" lon="1.39123">
        <ele>121</ele>
        <time>2025-02-27T11:26:29Z</time>
      </trkpt>
      <trkpt lat="43.64945" lon="1.3912">
        <ele>121</ele>
        <time>2025-02-27T11:26:30Z</time>
      </trkpt>
      <trkpt lat="43.64943" lon="1.39119">
        <ele>121</ele>
        <time>2025-02-27T11:26:31Z</time>
      </trkpt>
      <trkpt lat="43.6494" lon="1.39118">
        <ele>121</ele>
        <time>2025-02-27T11:26:32Z</time>
      </trkpt>
      <trkpt lat="43.64937" lon="1.39117">
        <ele>121</ele>
        <time>2025-02-27T11:26:33Z</time>
      </trkpt>
      <trkpt lat="43.64934" lon="1.39117">
        <ele>122</ele>
        <time>2025-02-27T11:26:34Z</time>
      </trkpt>
      <trkpt lat="43.6493" lon="1.39117">
        <ele>122</ele>
        <time>2025-02-27T11:26:35Z</time>
      </trkpt>
      <trkpt lat="43.64927" lon="1.39117">
        <ele>122</ele>
        <time>2025-02-27T11:26:36Z</time>
      </trkpt>
      <trkpt lat="43.64924" lon="1.39117">
        <ele>122</ele>
        <time>2025-02-27T11:26:37Z</time>
      </trkpt>
      <trkpt lat="43.64921" lon="1.39116">
        <ele>122</ele>
        <time>2025-02-27T11:26:38Z</time>
      </trkpt>
      <trkpt lat="43.64915" lon="1.39116">
        <ele>122</ele>
        <time>2025-02-27T11:26:39Z</time>
      </trkpt>
      <trkpt lat="43.64912" lon="1.39116">
        <ele>122</ele>
        <time>2025-02-27T11:26:40Z</time>
      </trkpt>
      <trkpt lat="43.64912" lon="1.39116">
        <ele>122</ele>
        <time>2025-02-27T11:26:41Z</time>
      </trkpt>
      <trkpt lat="43.64908" lon="1.39117">
        <ele>122</ele>
        <time>2025-02-27T11:26:42Z</time>
      </trkpt>
      <trkpt lat="43.64905" lon="1.39117">
        <ele>122</ele>
        <time>2025-02-27T11:26:43Z</time>
      </trkpt>
      <trkpt lat="43.64902" lon="1.39118">
        <ele>122</ele>
        <time>2025-02-27T11:26:44Z</time>
      </trkpt>
      <trkpt lat="43.64899" lon="1.39119">
        <ele>122</ele>
        <time>2025-02-27T11:26:45Z</time>
      </trkpt>
      <trkpt lat="43.64894" lon="1.3912">
        <ele>122</ele>
        <time>2025-02-27T11:26:46Z</time>
      </trkpt>
      <trkpt lat="43.64893" lon="1.3912">
        <ele>122</ele>
        <time>2025-02-27T11:26:47Z</time>
      </trkpt>
      <trkpt lat="43.64889" lon="1.39121">
        <ele>122</ele>
        <time>2025-02-27T11:26:48Z</time>
      </trkpt>
      <trkpt lat="43.64886" lon="1.39122">
        <ele>122</ele>
        <time>2025-02-27T11:26:49Z</time>
      </trkpt>
      <trkpt lat="43.64883" lon="1.39123">
        <ele>122</ele>
        <time>2025-02-27T11:26:50Z</time>
      </trkpt>
      <trkpt lat="43.64878" lon="1.39124">
        <ele>122</ele>
        <time>2025-02-27T11:26:51Z</time>
      </trkpt>
      <trkpt lat="43.64877" lon="1.39125">
        <ele>122</ele>
        <time>2025-02-27T11:26:52Z</time>
      </trkpt>
      <trkpt lat="43.64871" lon="1.39126">
        <ele>122</ele>
        <time>2025-02-27T11:26:53Z</time>
      </trkpt>
      <trkpt lat="43.64868" lon="1.39127">
        <ele>122</ele>
        <time>2025-02-27T11:26:54Z</time>
      </trkpt>
      <trkpt lat="43.64868" lon="1.39127">
        <ele>122</ele>
        <time>2025-02-27T11:26:55Z</time>
      </trkpt>
      <trkpt lat="43.64865" lon="1.39128">
        <ele>122</ele>
        <time>2025-02-27T11:26:56Z</time>
      </trkpt>
      <trkpt lat="43.64862" lon="1.39129">
        <ele>122</ele>
        <time>2025-02-27T11:26:57Z</time>
      </trkpt>
      <trkpt lat="43.64859" lon="1.3913">
        <ele>122</ele>
        <time>2025-02-27T11:26:58Z</time>
      </trkpt>
      <trkpt lat="43.64853" lon="1.39132">
        <ele>122</ele>
        <time>2025-02-27T11:26:59Z</time>
      </trkpt>
      <trkpt lat="43.64853" lon="1.39132">
        <ele>122</ele>
        <time>2025-02-27T11:27:00Z</time>
      </trkpt>
      <trkpt lat="43.6485" lon="1.39133">
        <ele>122</ele>
        <time>2025-02-27T11:27:01Z</time>
      </trkpt>
      <trkpt lat="43.64847" lon="1.39134">
        <ele>122</ele>
        <time>2025-02-27T11:27:02Z</time>
      </trkpt>
      <trkpt lat="43.64844" lon="1.39135">
        <ele>122</ele>
        <time>2025-02-27T11:27:03Z</time>
      </trkpt>
      <trkpt lat="43.64841" lon="1.39137">
        <ele>122</ele>
        <time>2025-02-27T11:27:04Z</time>
      </trkpt>
      <trkpt lat="43.64837" lon="1.3914">
        <ele>121</ele>
        <time>2025-02-27T11:27:05Z</time>
      </trkpt>
      <trkpt lat="43.64835" lon="1.39141">
        <ele>121</ele>
        <time>2025-02-27T11:27:06Z</time>
      </trkpt>
      <trkpt lat="43.64832" lon="1.39143">
        <ele>121</ele>
        <time>2025-02-27T11:27:07Z</time>
      </trkpt>
      <trkpt lat="43.6483" lon="1.39145">
        <ele>121</ele>
        <time>2025-02-27T11:27:08Z</time>
      </trkpt>
      <trkpt lat="43.64827" lon="1.39147">
        <ele>122</ele>
        <time>2025-02-27T11:27:09Z</time>
      </trkpt>
      <trkpt lat="43.64823" lon="1.3915">
        <ele>122</ele>
        <time>2025-02-27T11:27:10Z</time>
      </trkpt>
      <trkpt lat="43.64821" lon="1.39151">
        <ele>121</ele>
        <time>2025-02-27T11:27:11Z</time>
      </trkpt>
      <trkpt lat="43.64818" lon="1.39153">
        <ele>121</ele>
        <time>2025-02-27T11:27:12Z</time>
      </trkpt>
      <trkpt lat="43.64816" lon="1.39155">
        <ele>121</ele>
        <time>2025-02-27T11:27:13Z</time>
      </trkpt>
      <trkpt lat="43.64813" lon="1.39157">
        <ele>121</ele>
        <time>2025-02-27T11:27:14Z</time>
      </trkpt>
      <trkpt lat="43.6481" lon="1.39159">
        <ele>121</ele>
        <time>2025-02-27T11:27:15Z</time>
      </trkpt>
      <trkpt lat="43.64807" lon="1.39161">
        <ele>121</ele>
        <time>2025-02-27T11:27:16Z</time>
      </trkpt>
      <trkpt lat="43.64804" lon="1.39163">
        <ele>121</ele>
        <time>2025-02-27T11:27:17Z</time>
      </trkpt>
      <trkpt lat="43.64798" lon="1.39167">
        <ele>121</ele>
        <time>2025-02-27T11:27:18Z</time>
      </trkpt>
      <trkpt lat="43.64798" lon="1.39167">
        <ele>121</ele>
        <time>2025-02-27T11:27:19Z</time>
      </trkpt>
      <trkpt lat="43.64795" lon="1.39169">
        <ele>121</ele>
        <time>2025-02-27T11:27:20Z</time>
      </trkpt>
      <trkpt lat="43.64792" lon="1.39171">
        <ele>121</ele>
        <time>2025-02-27T11:27:21Z</time>
      </trkpt>
      <trkpt lat="43.64786" lon="1.39175">
        <ele>121</ele>
        <time>2025-02-27T11:27:22Z</time>
      </trkpt>
      <trkpt lat="43.64786" lon="1.39175">
        <ele>121</ele>
        <time>2025-02-27T11:27:23Z</time>
      </trkpt>
      <trkpt lat="43.64783" lon="1.39177">
        <ele>121</ele>
        <time>2025-02-27T11:27:24Z</time>
      </trkpt>
      <trkpt lat="43.6478" lon="1.39179">
        <ele>121</ele>
        <time>2025-02-27T11:27:25Z</time>
      </trkpt>
      <trkpt lat="43.64777" lon="1.3918">
        <ele>121</ele>
        <time>2025-02-27T11:27:26Z</time>
      </trkpt>
      <trkpt lat="43.64774" lon="1.39182">
        <ele>121</ele>
        <time>2025-02-27T11:27:27Z</time>
      </trkpt>
      <trkpt lat="43.6477" lon="1.39184">
        <ele>121</ele>
        <time>2025-02-27T11:27:28Z</time>
      </trkpt>
      <trkpt lat="43.64768" lon="1.39185">
        <ele>121</ele>
        <time>2025-02-27T11:27:29Z</time>
      </trkpt>
      <trkpt lat="43.64765" lon="1.39187">
        <ele>121</ele>
        <time>2025-02-27T11:27:30Z</time>
      </trkpt>
      <trkpt lat="43.64762" lon="1.39188">
        <ele>121</ele>
        <time>2025-02-27T11:27:31Z</time>
      </trkpt>
      <trkpt lat="43.64759" lon="1.3919">
        <ele>121</ele>
        <time>2025-02-27T11:27:32Z</time>
      </trkpt>
      <trkpt lat="43.64756" lon="1.39192">
        <ele>121</ele>
        <time>2025-02-27T11:27:33Z</time>
      </trkpt>
      <trkpt lat="43.64754" lon="1.39194">
        <ele>121</ele>
        <time>2025-02-27T11:27:34Z</time>
      </trkpt>
      <trkpt lat="43.64751" lon="1.39196">
        <ele>120</ele>
        <time>2025-02-27T11:27:35Z</time>
      </trkpt>
      <trkpt lat="43.64748" lon="1.39198">
        <ele>120</ele>
        <time>2025-02-27T11:27:36Z</time>
      </trkpt>
      <trkpt lat="43.64742" lon="1.39202">
        <ele>120</ele>
        <time>2025-02-27T11:27:37Z</time>
      </trkpt>
      <trkpt lat="43.64742" lon="1.39202">
        <ele>120</ele>
        <time>2025-02-27T11:27:38Z</time>
      </trkpt>
      <trkpt lat="43.64738" lon="1.39205">
        <ele>120</ele>
        <time>2025-02-27T11:27:39Z</time>
      </trkpt>
      <trkpt lat="43.64737" lon="1.39206">
        <ele>121</ele>
        <time>2025-02-27T11:27:40Z</time>
      </trkpt>
      <trkpt lat="43.64733" lon="1.39209">
        <ele>121</ele>
        <time>2025-02-27T11:27:41Z</time>
      </trkpt>
      <trkpt lat="43.64731" lon="1.3921">
        <ele>121</ele>
        <time>2025-02-27T11:27:42Z</time>
      </trkpt>
      <trkpt lat="43.64728" lon="1.39213">
        <ele>121</ele>
        <time>2025-02-27T11:27:43Z</time>
      </trkpt>
      <trkpt lat="43.64725" lon="1.39215">
        <ele>121</ele>
        <time>2025-02-27T11:27:44Z</time>
      </trkpt>
      <trkpt lat="43.64723" lon="1.39217">
        <ele>121</ele>
        <time>2025-02-27T11:27:45Z</time>
      </trkpt>
      <trkpt lat="43.6472" lon="1.39219">
        <ele>121</ele>
        <time>2025-02-27T11:27:46Z</time>
      </trkpt>
      <trkpt lat="43.64717" lon="1.39221">
        <ele>120</ele>
        <time>2025-02-27T11:27:47Z</time>
      </trkpt>
      <trkpt lat="43.64714" lon="1.39224">
        <ele>120</ele>
        <time>2025-02-27T11:27:48Z</time>
      </trkpt>
      <trkpt lat="43.64709" lon="1.39227">
        <ele>121</ele>
        <time>2025-02-27T11:27:49Z</time>
      </trkpt>
      <trkpt lat="43.64707" lon="1.39227">
        <ele>121</ele>
        <time>2025-02-27T11:27:50Z</time>
      </trkpt>
      <trkpt lat="43.64703" lon="1.3923">
        <ele>121</ele>
        <time>2025-02-27T11:27:51Z</time>
      </trkpt>
      <trkpt lat="43.64701" lon="1.39231">
        <ele>121</ele>
        <time>2025-02-27T11:27:52Z</time>
      </trkpt>
      <trkpt lat="43.64698" lon="1.39233">
        <ele>121</ele>
        <time>2025-02-27T11:27:53Z</time>
      </trkpt>
      <trkpt lat="43.64695" lon="1.39235">
        <ele>121</ele>
        <time>2025-02-27T11:27:54Z</time>
      </trkpt>
      <trkpt lat="43.64692" lon="1.39236">
        <ele>121</ele>
        <time>2025-02-27T11:27:55Z</time>
      </trkpt>
      <trkpt lat="43.64689" lon="1.39238">
        <ele>121</ele>
        <time>2025-02-27T11:27:56Z</time>
      </trkpt>
      <trkpt lat="43.64686" lon="1.3924">
        <ele>121</ele>
        <time>2025-02-27T11:27:57Z</time>
      </trkpt>
      <trkpt lat="43.64683" lon="1.39242">
        <ele>121</ele>
        <time>2025-02-27T11:27:58Z</time>
      </trkpt>
      <trkpt lat="43.6468" lon="1.39243">
        <ele>121</ele>
        <time>2025-02-27T11:27:59Z</time>
      </trkpt>
      <trkpt lat="43.64676" lon="1.39246">
        <ele>121</ele>
        <time>2025-02-27T11:28:00Z</time>
      </trkpt>
      <trkpt lat="43.64674" lon="1.39247">
        <ele>121</ele>
        <time>2025-02-27T11:28:01Z</time>
      </trkpt>
      <trkpt lat="43.64671" lon="1.39249">
        <ele>121</ele>
        <time>2025-02-27T11:28:02Z</time>
      </trkpt>
      <trkpt lat="43.64668" lon="1.39251">
        <ele>121</ele>
        <time>2025-02-27T11:28:03Z</time>
      </trkpt>
      <trkpt lat="43.64665" lon="1.39253">
        <ele>121</ele>
        <time>2025-02-27T11:28:04Z</time>
      </trkpt>
      <trkpt lat="43.64662" lon="1.39254">
        <ele>121</ele>
        <time>2025-02-27T11:28:05Z</time>
      </trkpt>
      <trkpt lat="43.64658" lon="1.39256">
        <ele>121</ele>
        <time>2025-02-27T11:28:06Z</time>
      </trkpt>
      <trkpt lat="43.64656" lon="1.39257">
        <ele>121</ele>
        <time>2025-02-27T11:28:07Z</time>
      </trkpt>
      <trkpt lat="43.64653" lon="1.39258">
        <ele>121</ele>
        <time>2025-02-27T11:28:08Z</time>
      </trkpt>
      <trkpt lat="43.6465" lon="1.3926">
        <ele>121</ele>
        <time>2025-02-27T11:28:09Z</time>
      </trkpt>
      <trkpt lat="43.64647" lon="1.39261">
        <ele>121</ele>
        <time>2025-02-27T11:28:10Z</time>
      </trkpt>
      <trkpt lat="43.64644" lon="1.39263">
        <ele>121</ele>
        <time>2025-02-27T11:28:11Z</time>
      </trkpt>
      <trkpt lat="43.64641" lon="1.39265">
        <ele>121</ele>
        <time>2025-02-27T11:28:12Z</time>
      </trkpt>
      <trkpt lat="43.64638" lon="1.39266">
        <ele>121</ele>
        <time>2025-02-27T11:28:13Z</time>
      </trkpt>
      <trkpt lat="43.64634" lon="1.39268">
        <ele>121</ele>
        <time>2025-02-27T11:28:14Z</time>
      </trkpt>
      <trkpt lat="43.64628" lon="1.39271">
        <ele>121</ele>
        <time>2025-02-27T11:28:15Z</time>
      </trkpt>
      <trkpt lat="43.64628" lon="1.39271">
        <ele>121</ele>
        <time>2025-02-27T11:28:16Z</time>
      </trkpt>
      <trkpt lat="43.64625" lon="1.39272">
        <ele>121</ele>
        <time>2025-02-27T11:28:17Z</time>
      </trkpt>
      <trkpt lat="43.64622" lon="1.39274">
        <ele>121</ele>
        <time>2025-02-27T11:28:18Z</time>
      </trkpt>
      <trkpt lat="43.64619" lon="1.39275">
        <ele>121</ele>
        <time>2025-02-27T11:28:19Z</time>
      </trkpt>
      <trkpt lat="43.64616" lon="1.39276">
        <ele>121</ele>
        <time>2025-02-27T11:28:20Z</time>
      </trkpt>
      <trkpt lat="43.64614" lon="1.39277">
        <ele>122</ele>
        <time>2025-02-27T11:28:21Z</time>
      </trkpt>
      <trkpt lat="43.64611" lon="1.39279">
        <ele>122</ele>
        <time>2025-02-27T11:28:22Z</time>
      </trkpt>
      <trkpt lat="43.64608" lon="1.3928">
        <ele>122</ele>
        <time>2025-02-27T11:28:23Z</time>
      </trkpt>
      <trkpt lat="43.64605" lon="1.39282">
        <ele>122</ele>
        <time>2025-02-27T11:28:24Z</time>
      </trkpt>
      <trkpt lat="43.64602" lon="1.39283">
        <ele>122</ele>
        <time>2025-02-27T11:28:25Z</time>
      </trkpt>
      <trkpt lat="43.64598" lon="1.39285">
        <ele>122</ele>
        <time>2025-02-27T11:28:26Z</time>
      </trkpt>
      <trkpt lat="43.64596" lon="1.39286">
        <ele>122</ele>
        <time>2025-02-27T11:28:27Z</time>
      </trkpt>
      <trkpt lat="43.64592" lon="1.39287">
        <ele>122</ele>
        <time>2025-02-27T11:28:28Z</time>
      </trkpt>
      <trkpt lat="43.64589" lon="1.39288">
        <ele>122</ele>
        <time>2025-02-27T11:28:29Z</time>
      </trkpt>
      <trkpt lat="43.64586" lon="1.3929">
        <ele>121</ele>
        <time>2025-02-27T11:28:30Z</time>
      </trkpt>
      <trkpt lat="43.64582" lon="1.39291">
        <ele>121</ele>
        <time>2025-02-27T11:28:31Z</time>
      </trkpt>
      <trkpt lat="43.64579" lon="1.39292">
        <ele>121</ele>
        <time>2025-02-27T11:28:32Z</time>
      </trkpt>
      <trkpt lat="43.64575" lon="1.39293">
        <ele>122</ele>
        <time>2025-02-27T11:28:33Z</time>
      </trkpt>
      <trkpt lat="43.64569" lon="1.39295">
        <ele>122</ele>
        <time>2025-02-27T11:28:34Z</time>
      </trkpt>
      <trkpt lat="43.64569" lon="1.39295">
        <ele>122</ele>
        <time>2025-02-27T11:28:35Z</time>
      </trkpt>
      <trkpt lat="43.64565" lon="1.39295">
        <ele>122</ele>
        <time>2025-02-27T11:28:36Z</time>
      </trkpt>
      <trkpt lat="43.64562" lon="1.39297">
        <ele>122</ele>
        <time>2025-02-27T11:28:37Z</time>
      </trkpt>
      <trkpt lat="43.64559" lon="1.39298">
        <ele>122</ele>
        <time>2025-02-27T11:28:38Z</time>
      </trkpt>
      <trkpt lat="43.64555" lon="1.39299">
        <ele>121</ele>
        <time>2025-02-27T11:28:39Z</time>
      </trkpt>
      <trkpt lat="43.64552" lon="1.393">
        <ele>121</ele>
        <time>2025-02-27T11:28:40Z</time>
      </trkpt>
      <trkpt lat="43.64549" lon="1.39301">
        <ele>121</ele>
        <time>2025-02-27T11:28:41Z</time>
      </trkpt>
      <trkpt lat="43.64545" lon="1.39302">
        <ele>121</ele>
        <time>2025-02-27T11:28:42Z</time>
      </trkpt>
      <trkpt lat="43.64542" lon="1.39303">
        <ele>121</ele>
        <time>2025-02-27T11:28:43Z</time>
      </trkpt>
      <trkpt lat="43.64538" lon="1.39304">
        <ele>121</ele>
        <time>2025-02-27T11:28:44Z</time>
      </trkpt>
      <trkpt lat="43.64535" lon="1.39305">
        <ele>121</ele>
        <time>2025-02-27T11:28:45Z</time>
      </trkpt>
      <trkpt lat="43.64532" lon="1.39307">
        <ele>121</ele>
        <time>2025-02-27T11:28:46Z</time>
      </trkpt>
      <trkpt lat="43.64527" lon="1.3931">
        <ele>121</ele>
        <time>2025-02-27T11:28:47Z</time>
      </trkpt>
      <trkpt lat="43.64525" lon="1.3931">
        <ele>121</ele>
        <time>2025-02-27T11:28:48Z</time>
      </trkpt>
      <trkpt lat="43.64522" lon="1.39311">
        <ele>121</ele>
        <time>2025-02-27T11:28:49Z</time>
      </trkpt>
      <trkpt lat="43.64519" lon="1.39312">
        <ele>121</ele>
        <time>2025-02-27T11:28:50Z</time>
      </trkpt>
      <trkpt lat="43.64515" lon="1.39313">
        <ele>122</ele>
        <time>2025-02-27T11:28:51Z</time>
      </trkpt>
      <trkpt lat="43.64512" lon="1.39313">
        <ele>122</ele>
        <time>2025-02-27T11:28:52Z</time>
      </trkpt>
      <trkpt lat="43.64505" lon="1.39313">
        <ele>122</ele>
        <time>2025-02-27T11:28:53Z</time>
      </trkpt>
      <trkpt lat="43.64505" lon="1.39313">
        <ele>122</ele>
        <time>2025-02-27T11:28:54Z</time>
      </trkpt>
      <trkpt lat="43.64502" lon="1.39313">
        <ele>122</ele>
        <time>2025-02-27T11:28:55Z</time>
      </trkpt>
      <trkpt lat="43.64498" lon="1.39313">
        <ele>122</ele>
        <time>2025-02-27T11:28:56Z</time>
      </trkpt>
      <trkpt lat="43.64495" lon="1.39312">
        <ele>122</ele>
        <time>2025-02-27T11:28:57Z</time>
      </trkpt>
      <trkpt lat="43.64492" lon="1.39312">
        <ele>122</ele>
        <time>2025-02-27T11:28:58Z</time>
      </trkpt>
      <trkpt lat="43.64489" lon="1.39312">
        <ele>122</ele>
        <time>2025-02-27T11:28:59Z</time>
      </trkpt>
      <trkpt lat="43.64486" lon="1.39312">
        <ele>123</ele>
        <time>2025-02-27T11:29:00Z</time>
      </trkpt>
      <trkpt lat="43.64483" lon="1.39312">
        <ele>123</ele>
        <time>2025-02-27T11:29:01Z</time>
      </trkpt>
      <trkpt lat="43.64479" lon="1.39312">
        <ele>123</ele>
        <time>2025-02-27T11:29:02Z</time>
      </trkpt>
      <trkpt lat="43.64476" lon="1.39312">
        <ele>124</ele>
        <time>2025-02-27T11:29:03Z</time>
      </trkpt>
      <trkpt lat="43.64473" lon="1.39312">
        <ele>124</ele>
        <time>2025-02-27T11:29:04Z</time>
      </trkpt>
      <trkpt lat="43.64469" lon="1.39314">
        <ele>124</ele>
        <time>2025-02-27T11:29:05Z</time>
      </trkpt>
      <trkpt lat="43.64468" lon="1.39314">
        <ele>124</ele>
        <time>2025-02-27T11:29:06Z</time>
      </trkpt>
      <trkpt lat="43.64467" lon="1.39317">
        <ele>124</ele>
        <time>2025-02-27T11:29:07Z</time>
      </trkpt>
      <trkpt lat="43.64466" lon="1.3932">
        <ele>125</ele>
        <time>2025-02-27T11:29:08Z</time>
      </trkpt>
      <trkpt lat="43.64466" lon="1.39322">
        <ele>125</ele>
        <time>2025-02-27T11:29:09Z</time>
      </trkpt>
      <trkpt lat="43.64466" lon="1.39322">
        <ele>125</ele>
        <time>2025-02-27T11:29:10Z</time>
      </trkpt>
      <trkpt lat="43.64466" lon="1.39327">
        <ele>124</ele>
        <time>2025-02-27T11:29:11Z</time>
      </trkpt>
      <trkpt lat="43.64466" lon="1.39327">
        <ele>124</ele>
        <time>2025-02-27T11:29:12Z</time>
      </trkpt>
      <trkpt lat="43.64466" lon="1.39331">
        <ele>124</ele>
        <time>2025-02-27T11:29:13Z</time>
      </trkpt>
      <trkpt lat="43.64466" lon="1.39331">
        <ele>124</ele>
        <time>2025-02-27T11:29:14Z</time>
      </trkpt>
      <trkpt lat="43.64468" lon="1.39334">
        <ele>124</ele>
        <time>2025-02-27T11:29:15Z</time>
      </trkpt>
      <trkpt lat="43.64468" lon="1.39334">
        <ele>124</ele>
        <time>2025-02-27T11:29:16Z</time>
      </trkpt>
      <trkpt lat="43.64469" lon="1.39337">
        <ele>124</ele>
        <time>2025-02-27T11:29:17Z</time>
      </trkpt>
      <trkpt lat="43.64469" lon="1.39337">
        <ele>124</ele>
        <time>2025-02-27T11:29:18Z</time>
      </trkpt>
      <trkpt lat="43.6447" lon="1.3934">
        <ele>124</ele>
        <time>2025-02-27T11:29:19Z</time>
      </trkpt>
      <trkpt lat="43.6447" lon="1.3934">
        <ele>125</ele>
        <time>2025-02-27T11:29:20Z</time>
      </trkpt>
      <trkpt lat="43.6447" lon="1.39343">
        <ele>125</ele>
        <time>2025-02-27T11:29:21Z</time>
      </trkpt>
      <trkpt lat="43.6447" lon="1.39343">
        <ele>126</ele>
        <time>2025-02-27T11:29:22Z</time>
      </trkpt>
      <trkpt lat="43.64471" lon="1.39346">
        <ele>126</ele>
        <time>2025-02-27T11:29:23Z</time>
      </trkpt>
      <trkpt lat="43.64471" lon="1.39346">
        <ele>126</ele>
        <time>2025-02-27T11:29:24Z</time>
      </trkpt>
      <trkpt lat="43.64472" lon="1.39349">
        <ele>126</ele>
        <time>2025-02-27T11:29:25Z</time>
      </trkpt>
      <trkpt lat="43.64472" lon="1.39349">
        <ele>126</ele>
        <time>2025-02-27T11:29:26Z</time>
      </trkpt>
      <trkpt lat="43.64473" lon="1.39352">
        <ele>126</ele>
        <time>2025-02-27T11:29:27Z</time>
      </trkpt>
      <trkpt lat="43.64473" lon="1.39352">
        <ele>125</ele>
        <time>2025-02-27T11:29:28Z</time>
      </trkpt>
      <trkpt lat="43.64474" lon="1.39355">
        <ele>124</ele>
        <time>2025-02-27T11:29:29Z</time>
      </trkpt>
      <trkpt lat="43.64474" lon="1.39355">
        <ele>124</ele>
        <time>2025-02-27T11:29:30Z</time>
      </trkpt>
      <trkpt lat="43.64474" lon="1.39358">
        <ele>124</ele>
        <time>2025-02-27T11:29:31Z</time>
      </trkpt>
      <trkpt lat="43.64474" lon="1.39358">
        <ele>124</ele>
        <time>2025-02-27T11:29:32Z</time>
      </trkpt>
      <trkpt lat="43.64474" lon="1.39361">
        <ele>124</ele>
        <time>2025-02-27T11:29:33Z</time>
      </trkpt>
      <trkpt lat="43.64474" lon="1.39361">
        <ele>124</ele>
        <time>2025-02-27T11:29:34Z</time>
      </trkpt>
      <trkpt lat="43.64474" lon="1.39365">
        <ele>124</ele>
        <time>2025-02-27T11:29:35Z</time>
      </trkpt>
      <trkpt lat="43.64474" lon="1.39365">
        <ele>125</ele>
        <time>2025-02-27T11:29:36Z</time>
      </trkpt>
      <trkpt lat="43.64475" lon="1.39368">
        <ele>125</ele>
        <time>2025-02-27T11:29:37Z</time>
      </trkpt>
      <trkpt lat="43.64475" lon="1.39368">
        <ele>126</ele>
        <time>2025-02-27T11:29:38Z</time>
      </trkpt>
      <trkpt lat="43.64476" lon="1.39371">
        <ele>126</ele>
        <time>2025-02-27T11:29:39Z</time>
      </trkpt>
      <trkpt lat="43.64476" lon="1.39371">
        <ele>125</ele>
        <time>2025-02-27T11:29:40Z</time>
      </trkpt>
      <trkpt lat="43.64477" lon="1.39374">
        <ele>124</ele>
        <time>2025-02-27T11:29:41Z</time>
      </trkpt>
      <trkpt lat="43.64477" lon="1.39374">
        <ele>124</ele>
        <time>2025-02-27T11:29:42Z</time>
      </trkpt>
      <trkpt lat="43.64478" lon="1.39378">
        <ele>124</ele>
        <time>2025-02-27T11:29:43Z</time>
      </trkpt>
      <trkpt lat="43.64478" lon="1.39378">
        <ele>125</ele>
        <time>2025-02-27T11:29:44Z</time>
      </trkpt>
      <trkpt lat="43.64478" lon="1.39381">
        <ele>125</ele>
        <time>2025-02-27T11:29:45Z</time>
      </trkpt>
      <trkpt lat="43.64478" lon="1.39381">
        <ele>126</ele>
        <time>2025-02-27T11:29:46Z</time>
      </trkpt>
      <trkpt lat="43.64478" lon="1.39384">
        <ele>126</ele>
        <time>2025-02-27T11:29:47Z</time>
      </trkpt>
      <trkpt lat="43.64478" lon="1.39384">
        <ele>126</ele>
        <time>2025-02-27T11:29:48Z</time>
      </trkpt>
      <trkpt lat="43.64479" lon="1.39388">
        <ele>126</ele>
        <time>2025-02-27T11:29:49Z</time>
      </trkpt>
      <trkpt lat="43.6448" lon="1.39391">
        <ele>126</ele>
        <time>2025-02-27T11:29:50Z</time>
      </trkpt>
      <trkpt lat="43.6448" lon="1.39391">
        <ele>125</ele>
        <time>2025-02-27T11:29:51Z</time>
      </trkpt>
      <trkpt lat="43.6448" lon="1.39391">
        <ele>125</ele>
        <time>2025-02-27T11:29:52Z</time>
      </trkpt>
      <trkpt lat="43.6448" lon="1.39395">
        <ele>124</ele>
        <time>2025-02-27T11:29:53Z</time>
      </trkpt>
      <trkpt lat="43.6448" lon="1.39395">
        <ele>124</ele>
        <time>2025-02-27T11:29:54Z</time>
      </trkpt>
      <trkpt lat="43.6448" lon="1.39399">
        <ele>124</ele>
        <time>2025-02-27T11:29:55Z</time>
      </trkpt>
      <trkpt lat="43.6448" lon="1.39402">
        <ele>124</ele>
        <time>2025-02-27T11:29:56Z</time>
      </trkpt>
      <trkpt lat="43.6448" lon="1.39402">
        <ele>124</ele>
        <time>2025-02-27T11:29:57Z</time>
      </trkpt>
      <trkpt lat="43.64482" lon="1.39404">
        <ele>124</ele>
        <time>2025-02-27T11:29:58Z</time>
      </trkpt>
      <trkpt lat="43.64483" lon="1.39408">
        <ele>124</ele>
        <time>2025-02-27T11:29:59Z</time>
      </trkpt>
      <trkpt lat="43.64483" lon="1.39408">
        <ele>124</ele>
        <time>2025-02-27T11:30:00Z</time>
      </trkpt>
      <trkpt lat="43.64483" lon="1.39408">
        <ele>124</ele>
        <time>2025-02-27T11:30:01Z</time>
      </trkpt>
      <trkpt lat="43.64483" lon="1.39412">
        <ele>124</ele>
        <time>2025-02-27T11:30:02Z</time>
      </trkpt>
      <trkpt lat="43.64483" lon="1.39415">
        <ele>124</ele>
        <time>2025-02-27T11:30:03Z</time>
      </trkpt>
      <trkpt lat="43.64483" lon="1.39418">
        <ele>124</ele>
        <time>2025-02-27T11:30:04Z</time>
      </trkpt>
      <trkpt lat="43.64484" lon="1.39421">
        <ele>124</ele>
        <time>2025-02-27T11:30:05Z</time>
      </trkpt>
      <trkpt lat="43.64484" lon="1.39424">
        <ele>124</ele>
        <time>2025-02-27T11:30:06Z</time>
      </trkpt>
      <trkpt lat="43.64484" lon="1.39427">
        <ele>124</ele>
        <time>2025-02-27T11:30:07Z</time>
      </trkpt>
      <trkpt lat="43.64484" lon="1.39427">
        <ele>124</ele>
        <time>2025-02-27T11:30:08Z</time>
      </trkpt>
      <trkpt lat="43.64485" lon="1.3943">
        <ele>124</ele>
        <time>2025-02-27T11:30:09Z</time>
      </trkpt>
      <trkpt lat="43.64485" lon="1.39433">
        <ele>124</ele>
        <time>2025-02-27T11:30:10Z</time>
      </trkpt>
      <trkpt lat="43.64485" lon="1.39433">
        <ele>124</ele>
        <time>2025-02-27T11:30:11Z</time>
      </trkpt>
      <trkpt lat="43.64485" lon="1.39437">
        <ele>124</ele>
        <time>2025-02-27T11:30:12Z</time>
      </trkpt>
      <trkpt lat="43.64486" lon="1.39439">
        <ele>124</ele>
        <time>2025-02-27T11:30:13Z</time>
      </trkpt>
      <trkpt lat="43.64487" lon="1.39442">
        <ele>124</ele>
        <time>2025-02-27T11:30:14Z</time>
      </trkpt>
      <trkpt lat="43.64487" lon="1.39442">
        <ele>124</ele>
        <time>2025-02-27T11:30:15Z</time>
      </trkpt>
      <trkpt lat="43.64488" lon="1.39446">
        <ele>124</ele>
        <time>2025-02-27T11:30:16Z</time>
      </trkpt>
      <trkpt lat="43.64488" lon="1.39446">
        <ele>124</ele>
        <time>2025-02-27T11:30:17Z</time>
      </trkpt>
      <trkpt lat="43.64488" lon="1.3945">
        <ele>124</ele>
        <time>2025-02-27T11:30:18Z</time>
      </trkpt>
      <trkpt lat="43.64488" lon="1.3945">
        <ele>124</ele>
        <time>2025-02-27T11:30:19Z</time>
      </trkpt>
      <trkpt lat="43.64488" lon="1.39454">
        <ele>124</ele>
        <time>2025-02-27T11:30:20Z</time>
      </trkpt>
      <trkpt lat="43.64488" lon="1.39454">
        <ele>124</ele>
        <time>2025-02-27T11:30:21Z</time>
      </trkpt>
      <trkpt lat="43.64489" lon="1.39458">
        <ele>124</ele>
        <time>2025-02-27T11:30:22Z</time>
      </trkpt>
      <trkpt lat="43.64489" lon="1.39461">
        <ele>124</ele>
        <time>2025-02-27T11:30:23Z</time>
      </trkpt>
      <trkpt lat="43.64489" lon="1.39464">
        <ele>124</ele>
        <time>2025-02-27T11:30:24Z</time>
      </trkpt>
      <trkpt lat="43.6449" lon="1.39466">
        <ele>124</ele>
        <time>2025-02-27T11:30:25Z</time>
      </trkpt>
      <trkpt lat="43.6449" lon="1.39466">
        <ele>124</ele>
        <time>2025-02-27T11:30:26Z</time>
      </trkpt>
      <trkpt lat="43.6449" lon="1.39471">
        <ele>124</ele>
        <time>2025-02-27T11:30:27Z</time>
      </trkpt>
      <trkpt lat="43.64489" lon="1.39474">
        <ele>124</ele>
        <time>2025-02-27T11:30:28Z</time>
      </trkpt>
      <trkpt lat="43.64489" lon="1.39474">
        <ele>124</ele>
        <time>2025-02-27T11:30:29Z</time>
      </trkpt>
      <trkpt lat="43.6449" lon="1.39476">
        <ele>124</ele>
        <time>2025-02-27T11:30:30Z</time>
      </trkpt>
      <trkpt lat="43.6449" lon="1.39476">
        <ele>124</ele>
        <time>2025-02-27T11:30:31Z</time>
      </trkpt>
      <trkpt lat="43.64491" lon="1.39481">
        <ele>124</ele>
        <time>2025-02-27T11:30:32Z</time>
      </trkpt>
      <trkpt lat="43.64491" lon="1.39481">
        <ele>124</ele>
        <time>2025-02-27T11:30:33Z</time>
      </trkpt>
      <trkpt lat="43.64493" lon="1.39486">
        <ele>124</ele>
        <time>2025-02-27T11:30:34Z</time>
      </trkpt>
      <trkpt lat="43.64493" lon="1.39486">
        <ele>124</ele>
        <time>2025-02-27T11:30:35Z</time>
      </trkpt>
      <trkpt lat="43.64494" lon="1.3949">
        <ele>124</ele>
        <time>2025-02-27T11:30:36Z</time>
      </trkpt>
      <trkpt lat="43.64494" lon="1.3949">
        <ele>124</ele>
        <time>2025-02-27T11:30:37Z</time>
      </trkpt>
      <trkpt lat="43.64495" lon="1.39493">
        <ele>124</ele>
        <time>2025-02-27T11:30:38Z</time>
      </trkpt>
      <trkpt lat="43.64495" lon="1.39493">
        <ele>124</ele>
        <time>2025-02-27T11:30:39Z</time>
      </trkpt>
      <trkpt lat="43.64495" lon="1.39497">
        <ele>124</ele>
        <time>2025-02-27T11:30:40Z</time>
      </trkpt>
      <trkpt lat="43.64495" lon="1.39497">
        <ele>124</ele>
        <time>2025-02-27T11:30:41Z</time>
      </trkpt>
      <trkpt lat="43.64496" lon="1.395">
        <ele>124</ele>
        <time>2025-02-27T11:30:42Z</time>
      </trkpt>
      <trkpt lat="43.64496" lon="1.395">
        <ele>124</ele>
        <time>2025-02-27T11:30:43Z</time>
      </trkpt>
      <trkpt lat="43.64496" lon="1.39504">
        <ele>124</ele>
        <time>2025-02-27T11:30:44Z</time>
      </trkpt>
      <trkpt lat="43.64496" lon="1.39504">
        <ele>124</ele>
        <time>2025-02-27T11:30:45Z</time>
      </trkpt>
      <trkpt lat="43.64497" lon="1.39508">
        <ele>124</ele>
        <time>2025-02-27T11:30:46Z</time>
      </trkpt>
      <trkpt lat="43.64497" lon="1.39511">
        <ele>124</ele>
        <time>2025-02-27T11:30:47Z</time>
      </trkpt>
      <trkpt lat="43.64497" lon="1.39511">
        <ele>124</ele>
        <time>2025-02-27T11:30:48Z</time>
      </trkpt>
      <trkpt lat="43.64497" lon="1.39511">
        <ele>124</ele>
        <time>2025-02-27T11:30:49Z</time>
      </trkpt>
      <trkpt lat="43.64498" lon="1.39515">
        <ele>124</ele>
        <time>2025-02-27T11:30:50Z</time>
      </trkpt>
      <trkpt lat="43.64498" lon="1.39515">
        <ele>124</ele>
        <time>2025-02-27T11:30:51Z</time>
      </trkpt>
      <trkpt lat="43.64498" lon="1.39518">
        <ele>124</ele>
        <time>2025-02-27T11:30:52Z</time>
      </trkpt>
      <trkpt lat="43.64498" lon="1.39518">
        <ele>124</ele>
        <time>2025-02-27T11:30:53Z</time>
      </trkpt>
      <trkpt lat="43.64499" lon="1.39522">
        <ele>124</ele>
        <time>2025-02-27T11:30:54Z</time>
      </trkpt>
      <trkpt lat="43.64499" lon="1.39522">
        <ele>125</ele>
        <time>2025-02-27T11:30:55Z</time>
      </trkpt>
      <trkpt lat="43.64499" lon="1.39525">
        <ele>125</ele>
        <time>2025-02-27T11:30:56Z</time>
      </trkpt>
      <trkpt lat="43.64499" lon="1.39525">
        <ele>125</ele>
        <time>2025-02-27T11:30:57Z</time>
      </trkpt>
      <trkpt lat="43.64501" lon="1.39528">
        <ele>125</ele>
        <time>2025-02-27T11:30:58Z</time>
      </trkpt>
      <trkpt lat="43.64501" lon="1.39528">
        <ele>125</ele>
        <time>2025-02-27T11:30:59Z</time>
      </trkpt>
      <trkpt lat="43.64501" lon="1.39531">
        <ele>125</ele>
        <time>2025-02-27T11:31:00Z</time>
      </trkpt>
      <trkpt lat="43.64501" lon="1.39531">
        <ele>125</ele>
        <time>2025-02-27T11:31:01Z</time>
      </trkpt>
      <trkpt lat="43.64501" lon="1.39535">
        <ele>125</ele>
        <time>2025-02-27T11:31:02Z</time>
      </trkpt>
      <trkpt lat="43.64501" lon="1.39535">
        <ele>125</ele>
        <time>2025-02-27T11:31:03Z</time>
      </trkpt>
      <trkpt lat="43.64501" lon="1.39538">
        <ele>125</ele>
        <time>2025-02-27T11:31:04Z</time>
      </trkpt>
      <trkpt lat="43.64501" lon="1.39538">
        <ele>125</ele>
        <time>2025-02-27T11:31:05Z</time>
      </trkpt>
      <trkpt lat="43.64501" lon="1.39542">
        <ele>125</ele>
        <time>2025-02-27T11:31:06Z</time>
      </trkpt>
      <trkpt lat="43.64501" lon="1.39542">
        <ele>125</ele>
        <time>2025-02-27T11:31:07Z</time>
      </trkpt>
      <trkpt lat="43.64499" lon="1.39545">
        <ele>125</ele>
        <time>2025-02-27T11:31:08Z</time>
      </trkpt>
      <trkpt lat="43.64499" lon="1.39545">
        <ele>125</ele>
        <time>2025-02-27T11:31:09Z</time>
      </trkpt>
      <trkpt lat="43.64497" lon="1.39548">
        <ele>125</ele>
        <time>2025-02-27T11:31:10Z</time>
      </trkpt>
      <trkpt lat="43.64497" lon="1.39548">
        <ele>125</ele>
        <time>2025-02-27T11:31:11Z</time>
      </trkpt>
      <trkpt lat="43.64494" lon="1.39549">
        <ele>125</ele>
        <time>2025-02-27T11:31:12Z</time>
      </trkpt>
      <trkpt lat="43.64494" lon="1.39549">
        <ele>125</ele>
        <time>2025-02-27T11:31:13Z</time>
      </trkpt>
      <trkpt lat="43.64491" lon="1.3955">
        <ele>125</ele>
        <time>2025-02-27T11:31:14Z</time>
      </trkpt>
      <trkpt lat="43.64491" lon="1.3955">
        <ele>125</ele>
        <time>2025-02-27T11:31:15Z</time>
      </trkpt>
      <trkpt lat="43.64488" lon="1.39551">
        <ele>125</ele>
        <time>2025-02-27T11:31:16Z</time>
      </trkpt>
      <trkpt lat="43.64488" lon="1.39551">
        <ele>124</ele>
        <time>2025-02-27T11:31:17Z</time>
      </trkpt>
      <trkpt lat="43.64485" lon="1.39552">
        <ele>124</ele>
        <time>2025-02-27T11:31:18Z</time>
      </trkpt>
      <trkpt lat="43.64485" lon="1.39552">
        <ele>124</ele>
        <time>2025-02-27T11:31:19Z</time>
      </trkpt>
      <trkpt lat="43.64483" lon="1.39552">
        <ele>124</ele>
        <time>2025-02-27T11:31:20Z</time>
      </trkpt>
      <trkpt lat="43.64483" lon="1.39552">
        <ele>124</ele>
        <time>2025-02-27T11:31:21Z</time>
      </trkpt>
      <trkpt lat="43.6448" lon="1.39553">
        <ele>124</ele>
        <time>2025-02-27T11:31:22Z</time>
      </trkpt>
      <trkpt lat="43.6448" lon="1.39553">
        <ele>124</ele>
        <time>2025-02-27T11:31:23Z</time>
      </trkpt>
      <trkpt lat="43.64478" lon="1.39553">
        <ele>124</ele>
        <time>2025-02-27T11:31:24Z</time>
      </trkpt>
      <trkpt lat="43.64476" lon="1.3955">
        <ele>124</ele>
        <time>2025-02-27T11:31:25Z</time>
      </trkpt>
      <trkpt lat="43.64476" lon="1.3955">
        <ele>124</ele>
        <time>2025-02-27T11:31:26Z</time>
      </trkpt>
      <trkpt lat="43.64476" lon="1.3955">
        <ele>124</ele>
        <time>2025-02-27T11:31:27Z</time>
      </trkpt>
      <trkpt lat="43.64475" lon="1.39548">
        <ele>124</ele>
        <time>2025-02-27T11:31:28Z</time>
      </trkpt>
      <trkpt lat="43.64475" lon="1.39548">
        <ele>124</ele>
        <time>2025-02-27T11:31:29Z</time>
      </trkpt>
      <trkpt lat="43.64475" lon="1.39548">
        <ele>124</ele>
        <time>2025-02-27T11:31:30Z</time>
      </trkpt>
      <trkpt lat="43.64475" lon="1.39545">
        <ele>123</ele>
        <time>2025-02-27T11:31:31Z</time>
      </trkpt>
      <trkpt lat="43.64475" lon="1.39545">
        <ele>122</ele>
        <time>2025-02-27T11:31:32Z</time>
      </trkpt>
      <trkpt lat="43.64475" lon="1.39542">
        <ele>122</ele>
        <time>2025-02-27T11:31:33Z</time>
      </trkpt>
      <trkpt lat="43.64475" lon="1.39542">
        <ele>122</ele>
        <time>2025-02-27T11:31:34Z</time>
      </trkpt>
      <trkpt lat="43.64475" lon="1.39542">
        <ele>122</ele>
        <time>2025-02-27T11:31:35Z</time>
      </trkpt>
      <trkpt lat="43.64475" lon="1.39542">
        <ele>122</ele>
        <time>2025-02-27T11:31:36Z</time>
      </trkpt>
      <trkpt lat="43.64475" lon="1.39542">
        <ele>122</ele>
        <time>2025-02-27T11:31:37Z</time>
      </trkpt>
      <trkpt lat="43.64475" lon="1.39542">
        <ele>122</ele>
        <time>2025-02-27T11:31:38Z</time>
      </trkpt>
      <trkpt lat="43.64475" lon="1.39542">
        <ele>122</ele>
        <time>2025-02-27T11:31:39Z</time>
      </trkpt>
      <trkpt lat="43.64475" lon="1.39542">
        <ele>122</ele>
        <time>2025-02-27T11:31:40Z</time>
      </trkpt>
      <trkpt lat="43.64475" lon="1.39542">
        <ele>122</ele>
        <time>2025-02-27T11:31:41Z</time>
      </trkpt>
      <trkpt lat="43.64475" lon="1.39542">
        <ele>122</ele>
        <time>2025-02-27T11:31:42Z</time>
      </trkpt>
      <trkpt lat="43.64475" lon="1.39542">
        <ele>122</ele>
        <time>2025-02-27T11:31:43Z</time>
      </trkpt>
      <trkpt lat="43.64475" lon="1.39542">
        <ele>122</ele>
        <time>2025-02-27T11:31:44Z</time>
      </trkpt>
      <trkpt lat="43.64475" lon="1.39542">
        <ele>121</ele>
        <time>2025-02-27T11:31:45Z</time>
      </trkpt>
      <trkpt lat="43.64475" lon="1.39542">
        <ele>121</ele>
        <time>2025-02-27T11:31:46Z</time>
      </trkpt>
      <trkpt lat="43.64475" lon="1.39542">
        <ele>121</ele>
        <time>2025-02-27T11:31:47Z</time>
      </trkpt>
      <trkpt lat="43.64475" lon="1.39542">
        <ele>121</ele>
        <time>2025-02-27T11:31:48Z</time>
      </trkpt>
      <trkpt lat="43.64475" lon="1.39542">
        <ele>121</ele>
        <time>2025-02-27T11:31:49Z</time>
      </trkpt>
      <trkpt lat="43.64475" lon="1.39542">
        <ele>121</ele>
        <time>2025-02-27T11:31:50Z</time>
      </trkpt>
      <trkpt lat="43.64475" lon="1.39542">
        <ele>121</ele>
        <time>2025-02-27T11:31:51Z</time>
      </trkpt>
      <trkpt lat="43.64475" lon="1.39542">
        <ele>121</ele>
        <time>2025-02-27T11:31:52Z</time>
      </trkpt>
      <trkpt lat="43.64475" lon="1.39542">
        <ele>121</ele>
        <time>2025-02-27T11:31:53Z</time>
      </trkpt>
      <trkpt lat="43.64475" lon="1.39542">
        <ele>121</ele>
        <time>2025-02-27T11:31:54Z</time>
      </trkpt>
      <trkpt lat="43.64475" lon="1.39542">
        <ele>121</ele>
        <time>2025-02-27T11:31:55Z</time>
      </trkpt>
      <trkpt lat="43.64475" lon="1.39545">
        <ele>121</ele>
        <time>2025-02-27T11:31:56Z</time>
      </trkpt>
      <trkpt lat="43.64475" lon="1.39545">
        <ele>121</ele>
        <time>2025-02-27T11:31:57Z</time>
      </trkpt>
      <trkpt lat="43.64475" lon="1.39545">
        <ele>122</ele>
        <time>2025-02-27T11:31:58Z</time>
      </trkpt>
      <trkpt lat="43.64475" lon="1.39545">
        <ele>122</ele>
        <time>2025-02-27T11:31:59Z</time>
      </trkpt>
      <trkpt lat="43.64475" lon="1.39547">
        <ele>122</ele>
        <time>2025-02-27T11:32:00Z</time>
      </trkpt>
      <trkpt lat="43.64475" lon="1.39547">
        <ele>123</ele>
        <time>2025-02-27T11:32:01Z</time>
      </trkpt>
      <trkpt lat="43.64475" lon="1.39547">
        <ele>123</ele>
        <time>2025-02-27T11:32:02Z</time>
      </trkpt>
      <trkpt lat="43.64474" lon="1.39544">
        <ele>123</ele>
        <time>2025-02-27T11:32:03Z</time>
      </trkpt>
      <trkpt lat="43.64474" lon="1.39544">
        <ele>123</ele>
        <time>2025-02-27T11:32:04Z</time>
      </trkpt>
      <trkpt lat="43.64474" lon="1.39544">
        <ele>123</ele>
        <time>2025-02-27T11:32:05Z</time>
      </trkpt>
      <trkpt lat="43.64474" lon="1.39544">
        <ele>123</ele>
        <time>2025-02-27T11:32:06Z</time>
      </trkpt>
      <trkpt lat="43.64474" lon="1.39544">
        <ele>122</ele>
        <time>2025-02-27T11:32:07Z</time>
      </trkpt>
      <trkpt lat="43.64474" lon="1.39544">
        <ele>122</ele>
        <time>2025-02-27T11:32:08Z</time>
      </trkpt>
      <trkpt lat="43.64475" lon="1.39547">
        <ele>122</ele>
        <time>2025-02-27T11:32:09Z</time>
      </trkpt>
      <trkpt lat="43.64475" lon="1.39547">
        <ele>122</ele>
        <time>2025-02-27T11:32:10Z</time>
      </trkpt>
      <trkpt lat="43.64475" lon="1.39547">
        <ele>122</ele>
        <time>2025-02-27T11:32:11Z</time>
      </trkpt>
      <trkpt lat="43.64475" lon="1.39547">
        <ele>123</ele>
        <time>2025-02-27T11:32:12Z</time>
      </trkpt>
      <trkpt lat="43.64475" lon="1.39547">
        <ele>123</ele>
        <time>2025-02-27T11:32:13Z</time>
      </trkpt>
      <trkpt lat="43.64475" lon="1.39547">
        <ele>123</ele>
        <time>2025-02-27T11:32:14Z</time>
      </trkpt>
      <trkpt lat="43.64474" lon="1.39544">
        <ele>123</ele>
        <time>2025-02-27T11:32:15Z</time>
      </trkpt>
      <trkpt lat="43.64474" lon="1.39544">
        <ele>123</ele>
        <time>2025-02-27T11:32:16Z</time>
      </trkpt>
      <trkpt lat="43.64473" lon="1.39541">
        <ele>123</ele>
        <time>2025-02-27T11:32:17Z</time>
      </trkpt>
      <trkpt lat="43.64473" lon="1.39541">
        <ele>122</ele>
        <time>2025-02-27T11:32:18Z</time>
      </trkpt>
      <trkpt lat="43.64474" lon="1.39544">
        <ele>122</ele>
        <time>2025-02-27T11:32:19Z</time>
      </trkpt>
      <trkpt lat="43.64474" lon="1.39544">
        <ele>122</ele>
        <time>2025-02-27T11:32:20Z</time>
      </trkpt>
      <trkpt lat="43.64476" lon="1.39546">
        <ele>122</ele>
        <time>2025-02-27T11:32:21Z</time>
      </trkpt>
      <trkpt lat="43.64476" lon="1.39546">
        <ele>122</ele>
        <time>2025-02-27T11:32:22Z</time>
      </trkpt>
      <trkpt lat="43.64476" lon="1.39546">
        <ele>122</ele>
        <time>2025-02-27T11:32:23Z</time>
      </trkpt>
      <trkpt lat="43.64476" lon="1.39546">
        <ele>123</ele>
        <time>2025-02-27T11:32:24Z</time>
      </trkpt>
      <trkpt lat="43.64476" lon="1.39546">
        <ele>123</ele>
        <time>2025-02-27T11:32:25Z</time>
      </trkpt>
      <trkpt lat="43.64476" lon="1.39546">
        <ele>123</ele>
        <time>2025-02-27T11:32:26Z</time>
      </trkpt>
      <trkpt lat="43.64474" lon="1.39544">
        <ele>123</ele>
        <time>2025-02-27T11:32:27Z</time>
      </trkpt>
      <trkpt lat="43.64474" lon="1.39544">
        <ele>123</ele>
        <time>2025-02-27T11:32:28Z</time>
      </trkpt>
      <trkpt lat="43.64474" lon="1.39541">
        <ele>123</ele>
        <time>2025-02-27T11:32:29Z</time>
      </trkpt>
      <trkpt lat="43.64474" lon="1.39541">
        <ele>123</ele>
        <time>2025-02-27T11:32:30Z</time>
      </trkpt>
      <trkpt lat="43.64474" lon="1.39541">
        <ele>122</ele>
        <time>2025-02-27T11:32:31Z</time>
      </trkpt>
      <trkpt lat="43.64475" lon="1.39543">
        <ele>121</ele>
        <time>2025-02-27T11:32:32Z</time>
      </trkpt>
      <trkpt lat="43.64475" lon="1.39543">
        <ele>121</ele>
        <time>2025-02-27T11:32:33Z</time>
      </trkpt>
      <trkpt lat="43.64476" lon="1.39546">
        <ele>122</ele>
        <time>2025-02-27T11:32:34Z</time>
      </trkpt>
      <trkpt lat="43.64476" lon="1.39546">
        <ele>123</ele>
        <time>2025-02-27T11:32:35Z</time>
      </trkpt>
      <trkpt lat="43.64476" lon="1.39546">
        <ele>123</ele>
        <time>2025-02-27T11:32:36Z</time>
      </trkpt>
      <trkpt lat="43.64476" lon="1.39546">
        <ele>123</ele>
        <time>2025-02-27T11:32:37Z</time>
      </trkpt>
      <trkpt lat="43.64476" lon="1.39546">
        <ele>123</ele>
        <time>2025-02-27T11:32:38Z</time>
      </trkpt>
      <trkpt lat="43.64475" lon="1.39544">
        <ele>123</ele>
        <time>2025-02-27T11:32:39Z</time>
      </trkpt>
      <trkpt lat="43.64475" lon="1.39544">
        <ele>123</ele>
        <time>2025-02-27T11:32:40Z</time>
      </trkpt>
      <trkpt lat="43.64474" lon="1.39542">
        <ele>123</ele>
        <time>2025-02-27T11:32:41Z</time>
      </trkpt>
      <trkpt lat="43.64474" lon="1.39542">
        <ele>123</ele>
        <time>2025-02-27T11:32:42Z</time>
      </trkpt>
      <trkpt lat="43.64474" lon="1.39542">
        <ele>123</ele>
        <time>2025-02-27T11:32:43Z</time>
      </trkpt>
      <trkpt lat="43.64474" lon="1.39542">
        <ele>123</ele>
        <time>2025-02-27T11:32:44Z</time>
      </trkpt>
      <trkpt lat="43.64475" lon="1.39544">
        <ele>122</ele>
        <time>2025-02-27T11:32:45Z</time>
      </trkpt>
      <trkpt lat="43.64475" lon="1.39544">
        <ele>122</ele>
        <time>2025-02-27T11:32:46Z</time>
      </trkpt>
      <trkpt lat="43.64476" lon="1.39547">
        <ele>122</ele>
        <time>2025-02-27T11:32:47Z</time>
      </trkpt>
      <trkpt lat="43.64476" lon="1.39547">
        <ele>123</ele>
        <time>2025-02-27T11:32:48Z</time>
      </trkpt>
      <trkpt lat="43.64476" lon="1.39547">
        <ele>124</ele>
        <time>2025-02-27T11:32:49Z</time>
      </trkpt>
      <trkpt lat="43.64476" lon="1.39547">
        <ele>124</ele>
        <time>2025-02-27T11:32:50Z</time>
      </trkpt>
      <trkpt lat="43.64476" lon="1.39547">
        <ele>124</ele>
        <time>2025-02-27T11:32:51Z</time>
      </trkpt>
      <trkpt lat="43.64476" lon="1.39547">
        <ele>124</ele>
        <time>2025-02-27T11:32:52Z</time>
      </trkpt>
      <trkpt lat="43.64476" lon="1.39547">
        <ele>124</ele>
        <time>2025-02-27T11:32:53Z</time>
      </trkpt>
      <trkpt lat="43.64475" lon="1.39544">
        <ele>124</ele>
        <time>2025-02-27T11:32:54Z</time>
      </trkpt>
      <trkpt lat="43.64475" lon="1.39544">
        <ele>124</ele>
        <time>2025-02-27T11:32:55Z</time>
      </trkpt>
      <trkpt lat="43.64475" lon="1.39544">
        <ele>124</ele>
        <time>2025-02-27T11:32:56Z</time>
      </trkpt>
      <trkpt lat="43.64473" lon="1.39543">
        <ele>123</ele>
        <time>2025-02-27T11:32:57Z</time>
      </trkpt>
      <trkpt lat="43.64473" lon="1.39543">
        <ele>122</ele>
        <time>2025-02-27T11:32:58Z</time>
      </trkpt>
      <trkpt lat="43.64471" lon="1.39542">
        <ele>122</ele>
        <time>2025-02-27T11:32:59Z</time>
      </trkpt>
      <trkpt lat="43.64468" lon="1.39542">
        <ele>122</ele>
        <time>2025-02-27T11:33:00Z</time>
      </trkpt>
      <trkpt lat="43.64468" lon="1.39542">
        <ele>122</ele>
        <time>2025-02-27T11:33:01Z</time>
      </trkpt>
      <trkpt lat="43.64468" lon="1.39542">
        <ele>122</ele>
        <time>2025-02-27T11:33:02Z</time>
      </trkpt>
      <trkpt lat="43.64466" lon="1.39542">
        <ele>122</ele>
        <time>2025-02-27T11:33:03Z</time>
      </trkpt>
      <trkpt lat="43.64466" lon="1.39542">
        <ele>121</ele>
        <time>2025-02-27T11:33:04Z</time>
      </trkpt>
      <trkpt lat="43.64464" lon="1.39543">
        <ele>121</ele>
        <time>2025-02-27T11:33:05Z</time>
      </trkpt>
      <trkpt lat="43.64464" lon="1.39543">
        <ele>121</ele>
        <time>2025-02-27T11:33:06Z</time>
      </trkpt>
      <trkpt lat="43.64462" lon="1.39543">
        <ele>121</ele>
        <time>2025-02-27T11:33:07Z</time>
      </trkpt>
      <trkpt lat="43.64462" lon="1.39543">
        <ele>122</ele>
        <time>2025-02-27T11:33:08Z</time>
      </trkpt>
      <trkpt lat="43.6446" lon="1.39544">
        <ele>122</ele>
        <time>2025-02-27T11:33:09Z</time>
      </trkpt>
      <trkpt lat="43.6446" lon="1.39544">
        <ele>122</ele>
        <time>2025-02-27T11:33:10Z</time>
      </trkpt>
      <trkpt lat="43.64458" lon="1.39545">
        <ele>122</ele>
        <time>2025-02-27T11:33:11Z</time>
      </trkpt>
      <trkpt lat="43.64458" lon="1.39545">
        <ele>122</ele>
        <time>2025-02-27T11:33:12Z</time>
      </trkpt>
      <trkpt lat="43.64458" lon="1.39545">
        <ele>122</ele>
        <time>2025-02-27T11:33:13Z</time>
      </trkpt>
      <trkpt lat="43.64456" lon="1.39546">
        <ele>122</ele>
        <time>2025-02-27T11:33:14Z</time>
      </trkpt>
      <trkpt lat="43.64456" lon="1.39546">
        <ele>122</ele>
        <time>2025-02-27T11:33:15Z</time>
      </trkpt>
      <trkpt lat="43.64456" lon="1.39546">
        <ele>122</ele>
        <time>2025-02-27T11:33:16Z</time>
      </trkpt>
      <trkpt lat="43.64458" lon="1.39546">
        <ele>122</ele>
        <time>2025-02-27T11:33:17Z</time>
      </trkpt>
      <trkpt lat="43.64458" lon="1.39546">
        <ele>122</ele>
        <time>2025-02-27T11:33:18Z</time>
      </trkpt>
      <trkpt lat="43.6446" lon="1.39545">
        <ele>122</ele>
        <time>2025-02-27T11:33:19Z</time>
      </trkpt>
      <trkpt lat="43.6446" lon="1.39545">
        <ele>122</ele>
        <time>2025-02-27T11:33:20Z</time>
      </trkpt>
      <trkpt lat="43.64462" lon="1.39544">
        <ele>122</ele>
        <time>2025-02-27T11:33:21Z</time>
      </trkpt>
      <trkpt lat="43.64462" lon="1.39544">
        <ele>122</ele>
        <time>2025-02-27T11:33:22Z</time>
      </trkpt>
      <trkpt lat="43.64464" lon="1.39543">
        <ele>121</ele>
        <time>2025-02-27T11:33:23Z</time>
      </trkpt>
      <trkpt lat="43.64464" lon="1.39543">
        <ele>121</ele>
        <time>2025-02-27T11:33:24Z</time>
      </trkpt>
      <trkpt lat="43.64466" lon="1.39542">
        <ele>121</ele>
        <time>2025-02-27T11:33:25Z</time>
      </trkpt>
      <trkpt lat="43.64466" lon="1.39542">
        <ele>121</ele>
        <time>2025-02-27T11:33:26Z</time>
      </trkpt>
      <trkpt lat="43.64468" lon="1.39541">
        <ele>122</ele>
        <time>2025-02-27T11:33:27Z</time>
      </trkpt>
      <trkpt lat="43.64468" lon="1.39541">
        <ele>122</ele>
        <time>2025-02-27T11:33:28Z</time>
      </trkpt>
      <trkpt lat="43.64468" lon="1.39541">
        <ele>122</ele>
        <time>2025-02-27T11:33:29Z</time>
      </trkpt>
      <trkpt lat="43.64471" lon="1.3954">
        <ele>122</ele>
        <time>2025-02-27T11:33:30Z</time>
      </trkpt>
      <trkpt lat="43.64471" lon="1.3954">
        <ele>122</ele>
        <time>2025-02-27T11:33:31Z</time>
      </trkpt>
      <trkpt lat="43.64472" lon="1.3954">
        <ele>122</ele>
        <time>2025-02-27T11:33:32Z</time>
      </trkpt>
      <trkpt lat="43.64472" lon="1.3954">
        <ele>122</ele>
        <time>2025-02-27T11:33:33Z</time>
      </trkpt>
      <trkpt lat="43.64474" lon="1.3954">
        <ele>122</ele>
        <time>2025-02-27T11:33:34Z</time>
      </trkpt>
      <trkpt lat="43.64474" lon="1.3954">
        <ele>122</ele>
        <time>2025-02-27T11:33:35Z</time>
      </trkpt>
      <trkpt lat="43.64476" lon="1.39539">
        <ele>122</ele>
        <time>2025-02-27T11:33:36Z</time>
      </trkpt>
      <trkpt lat="43.64476" lon="1.39539">
        <ele>122</ele>
        <time>2025-02-27T11:33:37Z</time>
      </trkpt>
      <trkpt lat="43.64478" lon="1.39539">
        <ele>122</ele>
        <time>2025-02-27T11:33:38Z</time>
      </trkpt>
      <trkpt lat="43.64478" lon="1.39539">
        <ele>122</ele>
        <time>2025-02-27T11:33:39Z</time>
      </trkpt>
      <trkpt lat="43.6448" lon="1.39538">
        <ele>122</ele>
        <time>2025-02-27T11:33:40Z</time>
      </trkpt>
      <trkpt lat="43.6448" lon="1.39538">
        <ele>122</ele>
        <time>2025-02-27T11:33:41Z</time>
      </trkpt>
      <trkpt lat="43.6448" lon="1.39538">
        <ele>122</ele>
        <time>2025-02-27T11:33:42Z</time>
      </trkpt>
      <trkpt lat="43.6448" lon="1.39538">
        <ele>122</ele>
        <time>2025-02-27T11:33:43Z</time>
      </trkpt>
      <trkpt lat="43.6448" lon="1.39538">
        <ele>122</ele>
        <time>2025-02-27T11:33:44Z</time>
      </trkpt>
      <trkpt lat="43.6448" lon="1.39538">
        <ele>122</ele>
        <time>2025-02-27T11:33:45Z</time>
      </trkpt>
      <trkpt lat="43.64478" lon="1.39537">
        <ele>122</ele>
        <time>2025-02-27T11:33:46Z</time>
      </trkpt>
      <trkpt lat="43.64478" lon="1.39537">
        <ele>122</ele>
        <time>2025-02-27T11:33:47Z</time>
      </trkpt>
      <trkpt lat="43.64478" lon="1.39537">
        <ele>122</ele>
        <time>2025-02-27T11:33:48Z</time>
      </trkpt>
      <trkpt lat="43.64476" lon="1.39538">
        <ele>122</ele>
        <time>2025-02-27T11:33:49Z</time>
      </trkpt>
      <trkpt lat="43.64476" lon="1.39538">
        <ele>122</ele>
        <time>2025-02-27T11:33:50Z</time>
      </trkpt>
      <trkpt lat="43.64476" lon="1.39538">
        <ele>122</ele>
        <time>2025-02-27T11:33:51Z</time>
      </trkpt>
      <trkpt lat="43.64474" lon="1.3954">
        <ele>122</ele>
        <time>2025-02-27T11:33:52Z</time>
      </trkpt>
      <trkpt lat="43.64474" lon="1.3954">
        <ele>122</ele>
        <time>2025-02-27T11:33:53Z</time>
      </trkpt>
      <trkpt lat="43.64474" lon="1.3954">
        <ele>122</ele>
        <time>2025-02-27T11:33:54Z</time>
      </trkpt>
      <trkpt lat="43.64474" lon="1.3954">
        <ele>122</ele>
        <time>2025-02-27T11:33:55Z</time>
      </trkpt>
      <trkpt lat="43.64474" lon="1.39543">
        <ele>122</ele>
        <time>2025-02-27T11:33:56Z</time>
      </trkpt>
      <trkpt lat="43.64474" lon="1.39543">
        <ele>122</ele>
        <time>2025-02-27T11:33:57Z</time>
      </trkpt>
      <trkpt lat="43.64474" lon="1.39543">
        <ele>122</ele>
        <time>2025-02-27T11:33:58Z</time>
      </trkpt>
      <trkpt lat="43.64474" lon="1.39543">
        <ele>122</ele>
        <time>2025-02-27T11:33:59Z</time>
      </trkpt>
      <trkpt lat="43.64474" lon="1.39543">
        <ele>123</ele>
        <time>2025-02-27T11:34:00Z</time>
      </trkpt>
      <trkpt lat="43.64474" lon="1.39543">
        <ele>124</ele>
        <time>2025-02-27T11:34:01Z</time>
      </trkpt>
      <trkpt lat="43.64474" lon="1.39546">
        <ele>124</ele>
        <time>2025-02-27T11:34:02Z</time>
      </trkpt>
      <trkpt lat="43.64474" lon="1.39546">
        <ele>124</ele>
        <time>2025-02-27T11:34:03Z</time>
      </trkpt>
      <trkpt lat="43.64474" lon="1.39546">
        <ele>124</ele>
        <time>2025-02-27T11:34:04Z</time>
      </trkpt>
      <trkpt lat="43.64474" lon="1.39546">
        <ele>124</ele>
        <time>2025-02-27T11:34:05Z</time>
      </trkpt>
      <trkpt lat="43.64475" lon="1.39548">
        <ele>124</ele>
        <time>2025-02-27T11:34:06Z</time>
      </trkpt>
      <trkpt lat="43.64475" lon="1.39548">
        <ele>125</ele>
        <time>2025-02-27T11:34:07Z</time>
      </trkpt>
      <trkpt lat="43.64475" lon="1.39548">
        <ele>125</ele>
        <time>2025-02-27T11:34:08Z</time>
      </trkpt>
      <trkpt lat="43.64475" lon="1.39548">
        <ele>125</ele>
        <time>2025-02-27T11:34:09Z</time>
      </trkpt>
      <trkpt lat="43.64475" lon="1.39548">
        <ele>125</ele>
        <time>2025-02-27T11:34:10Z</time>
      </trkpt>
      <trkpt lat="43.64474" lon="1.39546">
        <ele>125</ele>
        <time>2025-02-27T11:34:11Z</time>
      </trkpt>
      <trkpt lat="43.64474" lon="1.39546">
        <ele>124</ele>
        <time>2025-02-27T11:34:12Z</time>
      </trkpt>
      <trkpt lat="43.64474" lon="1.39546">
        <ele>124</ele>
        <time>2025-02-27T11:34:13Z</time>
      </trkpt>
      <trkpt lat="43.64474" lon="1.39542">
        <ele>123</ele>
        <time>2025-02-27T11:34:14Z</time>
      </trkpt>
      <trkpt lat="43.64474" lon="1.39542">
        <ele>123</ele>
        <time>2025-02-27T11:34:15Z</time>
      </trkpt>
      <trkpt lat="43.64474" lon="1.39542">
        <ele>123</ele>
        <time>2025-02-27T11:34:16Z</time>
      </trkpt>
      <trkpt lat="43.64474" lon="1.39542">
        <ele>122</ele>
        <time>2025-02-27T11:34:17Z</time>
      </trkpt>
      <trkpt lat="43.64474" lon="1.39542">
        <ele>122</ele>
        <time>2025-02-27T11:34:18Z</time>
      </trkpt>
      <trkpt lat="43.64474" lon="1.39542">
        <ele>122</ele>
        <time>2025-02-27T11:34:19Z</time>
      </trkpt>
      <trkpt lat="43.64474" lon="1.39542">
        <ele>123</ele>
        <time>2025-02-27T11:34:20Z</time>
      </trkpt>
      <trkpt lat="43.64474" lon="1.39542">
        <ele>123</ele>
        <time>2025-02-27T11:34:21Z</time>
      </trkpt>
      <trkpt lat="43.64475" lon="1.39543">
        <ele>123</ele>
        <time>2025-02-27T11:34:22Z</time>
      </trkpt>
      <trkpt lat="43.64475" lon="1.39543">
        <ele>123</ele>
        <time>2025-02-27T11:34:23Z</time>
      </trkpt>
      <trkpt lat="43.64475" lon="1.39543">
        <ele>123</ele>
        <time>2025-02-27T11:34:24Z</time>
      </trkpt>
      <trkpt lat="43.64475" lon="1.39543">
        <ele>124</ele>
        <time>2025-02-27T11:34:25Z</time>
      </trkpt>
      <trkpt lat="43.64475" lon="1.39543">
        <ele>124</ele>
        <time>2025-02-27T11:34:26Z</time>
      </trkpt>
      <trkpt lat="43.64476" lon="1.39546">
        <ele>124</ele>
        <time>2025-02-27T11:34:27Z</time>
      </trkpt>
      <trkpt lat="43.64476" lon="1.39546">
        <ele>124</ele>
        <time>2025-02-27T11:34:28Z</time>
      </trkpt>
      <trkpt lat="43.64476" lon="1.39546">
        <ele>124</ele>
        <time>2025-02-27T11:34:29Z</time>
      </trkpt>
      <trkpt lat="43.64476" lon="1.39546">
        <ele>124</ele>
        <time>2025-02-27T11:34:30Z</time>
      </trkpt>
      <trkpt lat="43.64476" lon="1.39546">
        <ele>124</ele>
        <time>2025-02-27T11:34:31Z</time>
      </trkpt>
      <trkpt lat="43.64476" lon="1.39546">
        <ele>124</ele>
        <time>2025-02-27T11:34:32Z</time>
      </trkpt>
      <trkpt lat="43.64476" lon="1.39546">
        <ele>124</ele>
        <time>2025-02-27T11:34:33Z</time>
      </trkpt>
      <trkpt lat="43.64476" lon="1.39546">
        <ele>124</ele>
        <time>2025-02-27T11:34:34Z</time>
      </trkpt>
      <trkpt lat="43.64476" lon="1.39546">
        <ele>124</ele>
        <time>2025-02-27T11:34:35Z</time>
      </trkpt>
      <trkpt lat="43.64476" lon="1.39543">
        <ele>124</ele>
        <time>2025-02-27T11:34:36Z</time>
      </trkpt>
      <trkpt lat="43.64476" lon="1.39543">
        <ele>123</ele>
        <time>2025-02-27T11:34:37Z</time>
      </trkpt>
      <trkpt lat="43.64476" lon="1.39543">
        <ele>123</ele>
        <time>2025-02-27T11:34:38Z</time>
      </trkpt>
      <trkpt lat="43.64476" lon="1.39543">
        <ele>123</ele>
        <time>2025-02-27T11:34:39Z</time>
      </trkpt>
      <trkpt lat="43.64476" lon="1.39543">
        <ele>122</ele>
        <time>2025-02-27T11:34:40Z</time>
      </trkpt>
      <trkpt lat="43.64476" lon="1.39543">
        <ele>122</ele>
        <time>2025-02-27T11:34:41Z</time>
      </trkpt>
      <trkpt lat="43.64476" lon="1.39543">
        <ele>122</ele>
        <time>2025-02-27T11:34:42Z</time>
      </trkpt>
      <trkpt lat="43.64476" lon="1.39543">
        <ele>122</ele>
        <time>2025-02-27T11:34:43Z</time>
      </trkpt>
      <trkpt lat="43.64476" lon="1.39543">
        <ele>122</ele>
        <time>2025-02-27T11:34:44Z</time>
      </trkpt>
      <trkpt lat="43.64476" lon="1.39543">
        <ele>122</ele>
        <time>2025-02-27T11:34:45Z</time>
      </trkpt>
      <trkpt lat="43.64476" lon="1.39543">
        <ele>123</ele>
        <time>2025-02-27T11:34:46Z</time>
      </trkpt>
      <trkpt lat="43.64476" lon="1.39543">
        <ele>123</ele>
        <time>2025-02-27T11:34:47Z</time>
      </trkpt>
      <trkpt lat="43.64476" lon="1.39543">
        <ele>124</ele>
        <time>2025-02-27T11:34:48Z</time>
      </trkpt>
      <trkpt lat="43.64476" lon="1.39546">
        <ele>124</ele>
        <time>2025-02-27T11:34:49Z</time>
      </trkpt>
      <trkpt lat="43.64476" lon="1.39546">
        <ele>124</ele>
        <time>2025-02-27T11:34:50Z</time>
      </trkpt>
      <trkpt lat="43.64476" lon="1.39546">
        <ele>124</ele>
        <time>2025-02-27T11:34:51Z</time>
      </trkpt>
      <trkpt lat="43.64476" lon="1.39546">
        <ele>125</ele>
        <time>2025-02-27T11:34:52Z</time>
      </trkpt>
      <trkpt lat="43.64476" lon="1.39546">
        <ele>125</ele>
        <time>2025-02-27T11:34:53Z</time>
      </trkpt>
      <trkpt lat="43.64476" lon="1.39546">
        <ele>125</ele>
        <time>2025-02-27T11:34:54Z</time>
      </trkpt>
      <trkpt lat="43.64476" lon="1.39546">
        <ele>125</ele>
        <time>2025-02-27T11:34:55Z</time>
      </trkpt>
      <trkpt lat="43.64474" lon="1.39545">
        <ele>125</ele>
        <time>2025-02-27T11:34:56Z</time>
      </trkpt>
      <trkpt lat="43.64474" lon="1.39545">
        <ele>125</ele>
        <time>2025-02-27T11:34:57Z</time>
      </trkpt>
      <trkpt lat="43.64474" lon="1.39545">
        <ele>124</ele>
        <time>2025-02-27T11:34:58Z</time>
      </trkpt>
      <trkpt lat="43.64474" lon="1.39542">
        <ele>124</ele>
        <time>2025-02-27T11:34:59Z</time>
      </trkpt>
      <trkpt lat="43.64474" lon="1.39542">
        <ele>123</ele>
        <time>2025-02-27T11:35:00Z</time>
      </trkpt>
      <trkpt lat="43.64474" lon="1.39542">
        <ele>123</ele>
        <time>2025-02-27T11:35:01Z</time>
      </trkpt>
      <trkpt lat="43.64474" lon="1.39542">
        <ele>122</ele>
        <time>2025-02-27T11:35:02Z</time>
      </trkpt>
      <trkpt lat="43.64474" lon="1.39542">
        <ele>122</ele>
        <time>2025-02-27T11:35:03Z</time>
      </trkpt>
      <trkpt lat="43.64474" lon="1.39542">
        <ele>122</ele>
        <time>2025-02-27T11:35:04Z</time>
      </trkpt>
      <trkpt lat="43.64474" lon="1.39542">
        <ele>122</ele>
        <time>2025-02-27T11:35:05Z</time>
      </trkpt>
      <trkpt lat="43.64474" lon="1.39542">
        <ele>122</ele>
        <time>2025-02-27T11:35:06Z</time>
      </trkpt>
      <trkpt lat="43.64474" lon="1.39542">
        <ele>123</ele>
        <time>2025-02-27T11:35:07Z</time>
      </trkpt>
      <trkpt lat="43.64474" lon="1.39544">
        <ele>123</ele>
        <time>2025-02-27T11:35:08Z</time>
      </trkpt>
      <trkpt lat="43.64474" lon="1.39544">
        <ele>123</ele>
        <time>2025-02-27T11:35:09Z</time>
      </trkpt>
      <trkpt lat="43.64474" lon="1.39544">
        <ele>123</ele>
        <time>2025-02-27T11:35:10Z</time>
      </trkpt>
      <trkpt lat="43.64474" lon="1.39544">
        <ele>123</ele>
        <time>2025-02-27T11:35:11Z</time>
      </trkpt>
      <trkpt lat="43.64476" lon="1.39546">
        <ele>124</ele>
        <time>2025-02-27T11:35:12Z</time>
      </trkpt>
      <trkpt lat="43.64476" lon="1.39546">
        <ele>124</ele>
        <time>2025-02-27T11:35:13Z</time>
      </trkpt>
      <trkpt lat="43.64476" lon="1.39546">
        <ele>124</ele>
        <time>2025-02-27T11:35:14Z</time>
      </trkpt>
      <trkpt lat="43.64476" lon="1.39546">
        <ele>124</ele>
        <time>2025-02-27T11:35:15Z</time>
      </trkpt>
      <trkpt lat="43.64476" lon="1.39546">
        <ele>125</ele>
        <time>2025-02-27T11:35:16Z</time>
      </trkpt>
      <trkpt lat="43.64476" lon="1.39546">
        <ele>125</ele>
        <time>2025-02-27T11:35:17Z</time>
      </trkpt>
      <trkpt lat="43.64476" lon="1.39546">
        <ele>125</ele>
        <time>2025-02-27T11:35:18Z</time>
      </trkpt>
      <trkpt lat="43.64476" lon="1.39546">
        <ele>124</ele>
        <time>2025-02-27T11:35:19Z</time>
      </trkpt>
      <trkpt lat="43.64476" lon="1.39546">
        <ele>124</ele>
        <time>2025-02-27T11:35:20Z</time>
      </trkpt>
      <trkpt lat="43.64476" lon="1.39546">
        <ele>124</ele>
        <time>2025-02-27T11:35:21Z</time>
      </trkpt>
      <trkpt lat="43.64475" lon="1.39543">
        <ele>124</ele>
        <time>2025-02-27T11:35:22Z</time>
      </trkpt>
      <trkpt lat="43.64475" lon="1.39543">
        <ele>124</ele>
        <time>2025-02-27T11:35:23Z</time>
      </trkpt>
      <trkpt lat="43.64475" lon="1.39543">
        <ele>124</ele>
        <time>2025-02-27T11:35:24Z</time>
      </trkpt>
      <trkpt lat="43.64475" lon="1.39543">
        <ele>124</ele>
        <time>2025-02-27T11:35:25Z</time>
      </trkpt>
      <trkpt lat="43.64475" lon="1.39543">
        <ele>123</ele>
        <time>2025-02-27T11:35:26Z</time>
      </trkpt>
      <trkpt lat="43.64475" lon="1.39543">
        <ele>123</ele>
        <time>2025-02-27T11:35:27Z</time>
      </trkpt>
      <trkpt lat="43.64475" lon="1.39543">
        <ele>123</ele>
        <time>2025-02-27T11:35:28Z</time>
      </trkpt>
      <trkpt lat="43.64475" lon="1.39543">
        <ele>123</ele>
        <time>2025-02-27T11:35:29Z</time>
      </trkpt>
      <trkpt lat="43.64475" lon="1.39543">
        <ele>123</ele>
        <time>2025-02-27T11:35:30Z</time>
      </trkpt>
      <trkpt lat="43.64475" lon="1.39543">
        <ele>123</ele>
        <time>2025-02-27T11:35:31Z</time>
      </trkpt>
      <trkpt lat="43.64475" lon="1.39543">
        <ele>123</ele>
        <time>2025-02-27T11:35:32Z</time>
      </trkpt>
      <trkpt lat="43.64475" lon="1.39543">
        <ele>123</ele>
        <time>2025-02-27T11:35:33Z</time>
      </trkpt>
      <trkpt lat="43.64476" lon="1.39546">
        <ele>123</ele>
        <time>2025-02-27T11:35:34Z</time>
      </trkpt>
      <trkpt lat="43.64476" lon="1.39546">
        <ele>124</ele>
        <time>2025-02-27T11:35:35Z</time>
      </trkpt>
      <trkpt lat="43.64476" lon="1.39546">
        <ele>125</ele>
        <time>2025-02-27T11:35:36Z</time>
      </trkpt>
      <trkpt lat="43.64476" lon="1.39546">
        <ele>125</ele>
        <time>2025-02-27T11:35:37Z</time>
      </trkpt>
      <trkpt lat="43.64477" lon="1.39548">
        <ele>125</ele>
        <time>2025-02-27T11:35:38Z</time>
      </trkpt>
      <trkpt lat="43.64477" lon="1.39548">
        <ele>125</ele>
        <time>2025-02-27T11:35:39Z</time>
      </trkpt>
      <trkpt lat="43.64477" lon="1.39548">
        <ele>125</ele>
        <time>2025-02-27T11:35:40Z</time>
      </trkpt>
      <trkpt lat="43.64479" lon="1.39549">
        <ele>125</ele>
        <time>2025-02-27T11:35:41Z</time>
      </trkpt>
      <trkpt lat="43.64479" lon="1.39549">
        <ele>125</ele>
        <time>2025-02-27T11:35:42Z</time>
      </trkpt>
      <trkpt lat="43.64481" lon="1.39549">
        <ele>125</ele>
        <time>2025-02-27T11:35:43Z</time>
      </trkpt>
      <trkpt lat="43.64481" lon="1.39549">
        <ele>125</ele>
        <time>2025-02-27T11:35:44Z</time>
      </trkpt>
      <trkpt lat="43.64484" lon="1.39548">
        <ele>125</ele>
        <time>2025-02-27T11:35:45Z</time>
      </trkpt>
      <trkpt lat="43.64484" lon="1.39548">
        <ele>125</ele>
        <time>2025-02-27T11:35:46Z</time>
      </trkpt>
      <trkpt lat="43.64486" lon="1.39548">
        <ele>125</ele>
        <time>2025-02-27T11:35:47Z</time>
      </trkpt>
      <trkpt lat="43.64486" lon="1.39548">
        <ele>125</ele>
        <time>2025-02-27T11:35:48Z</time>
      </trkpt>
      <trkpt lat="43.64488" lon="1.39547">
        <ele>125</ele>
        <time>2025-02-27T11:35:49Z</time>
      </trkpt>
      <trkpt lat="43.64488" lon="1.39547">
        <ele>125</ele>
        <time>2025-02-27T11:35:50Z</time>
      </trkpt>
      <trkpt lat="43.6449" lon="1.39547">
        <ele>125</ele>
        <time>2025-02-27T11:35:51Z</time>
      </trkpt>
      <trkpt lat="43.6449" lon="1.39547">
        <ele>125</ele>
        <time>2025-02-27T11:35:52Z</time>
      </trkpt>
      <trkpt lat="43.64492" lon="1.39546">
        <ele>125</ele>
        <time>2025-02-27T11:35:53Z</time>
      </trkpt>
      <trkpt lat="43.64492" lon="1.39546">
        <ele>125</ele>
        <time>2025-02-27T11:35:54Z</time>
      </trkpt>
      <trkpt lat="43.64495" lon="1.39545">
        <ele>126</ele>
        <time>2025-02-27T11:35:55Z</time>
      </trkpt>
      <trkpt lat="43.64495" lon="1.39545">
        <ele>126</ele>
        <time>2025-02-27T11:35:56Z</time>
      </trkpt>
      <trkpt lat="43.64497" lon="1.39543">
        <ele>126</ele>
        <time>2025-02-27T11:35:57Z</time>
      </trkpt>
      <trkpt lat="43.64497" lon="1.39543">
        <ele>126</ele>
        <time>2025-02-27T11:35:58Z</time>
      </trkpt>
      <trkpt lat="43.64498" lon="1.39541">
        <ele>126</ele>
        <time>2025-02-27T11:35:59Z</time>
      </trkpt>
      <trkpt lat="43.64498" lon="1.39541">
        <ele>126</ele>
        <time>2025-02-27T11:36:00Z</time>
      </trkpt>
      <trkpt lat="43.645" lon="1.39539">
        <ele>126</ele>
        <time>2025-02-27T11:36:01Z</time>
      </trkpt>
      <trkpt lat="43.645" lon="1.39539">
        <ele>126</ele>
        <time>2025-02-27T11:36:02Z</time>
      </trkpt>
      <trkpt lat="43.645" lon="1.39536">
        <ele>126</ele>
        <time>2025-02-27T11:36:03Z</time>
      </trkpt>
      <trkpt lat="43.645" lon="1.39536">
        <ele>126</ele>
        <time>2025-02-27T11:36:04Z</time>
      </trkpt>
      <trkpt lat="43.645" lon="1.39536">
        <ele>126</ele>
        <time>2025-02-27T11:36:05Z</time>
      </trkpt>
      <trkpt lat="43.645" lon="1.39536">
        <ele>126</ele>
        <time>2025-02-27T11:36:06Z</time>
      </trkpt>
      <trkpt lat="43.64499" lon="1.39533">
        <ele>126</ele>
        <time>2025-02-27T11:36:07Z</time>
      </trkpt>
      <trkpt lat="43.64499" lon="1.39533">
        <ele>126</ele>
        <time>2025-02-27T11:36:08Z</time>
      </trkpt>
      <trkpt lat="43.64499" lon="1.3953">
        <ele>126</ele>
        <time>2025-02-27T11:36:09Z</time>
      </trkpt>
      <trkpt lat="43.64499" lon="1.3953">
        <ele>126</ele>
        <time>2025-02-27T11:36:10Z</time>
      </trkpt>
      <trkpt lat="43.64498" lon="1.39526">
        <ele>126</ele>
        <time>2025-02-27T11:36:11Z</time>
      </trkpt>
      <trkpt lat="43.64498" lon="1.39526">
        <ele>126</ele>
        <time>2025-02-27T11:36:12Z</time>
      </trkpt>
      <trkpt lat="43.64497" lon="1.39523">
        <ele>126</ele>
        <time>2025-02-27T11:36:13Z</time>
      </trkpt>
      <trkpt lat="43.64497" lon="1.39523">
        <ele>126</ele>
        <time>2025-02-27T11:36:14Z</time>
      </trkpt>
      <trkpt lat="43.64497" lon="1.3952">
        <ele>126</ele>
        <time>2025-02-27T11:36:15Z</time>
      </trkpt>
      <trkpt lat="43.64497" lon="1.3952">
        <ele>126</ele>
        <time>2025-02-27T11:36:16Z</time>
      </trkpt>
      <trkpt lat="43.64496" lon="1.39516">
        <ele>126</ele>
        <time>2025-02-27T11:36:17Z</time>
      </trkpt>
      <trkpt lat="43.64496" lon="1.39516">
        <ele>126</ele>
        <time>2025-02-27T11:36:18Z</time>
      </trkpt>
      <trkpt lat="43.64495" lon="1.39513">
        <ele>126</ele>
        <time>2025-02-27T11:36:19Z</time>
      </trkpt>
      <trkpt lat="43.64495" lon="1.39513">
        <ele>126</ele>
        <time>2025-02-27T11:36:20Z</time>
      </trkpt>
      <trkpt lat="43.64495" lon="1.39513">
        <ele>126</ele>
        <time>2025-02-27T11:36:21Z</time>
      </trkpt>
      <trkpt lat="43.64495" lon="1.39513">
        <ele>126</ele>
        <time>2025-02-27T11:36:22Z</time>
      </trkpt>
      <trkpt lat="43.64495" lon="1.39513">
        <ele>126</ele>
        <time>2025-02-27T11:36:23Z</time>
      </trkpt>
      <trkpt lat="43.64495" lon="1.39513">
        <ele>126</ele>
        <time>2025-02-27T11:36:24Z</time>
      </trkpt>
      <trkpt lat="43.64494" lon="1.3951">
        <ele>126</ele>
        <time>2025-02-27T11:36:25Z</time>
      </trkpt>
      <trkpt lat="43.64494" lon="1.3951">
        <ele>126</ele>
        <time>2025-02-27T11:36:26Z</time>
      </trkpt>
      <trkpt lat="43.64494" lon="1.39506">
        <ele>126</ele>
        <time>2025-02-27T11:36:27Z</time>
      </trkpt>
      <trkpt lat="43.64494" lon="1.39506">
        <ele>126</ele>
        <time>2025-02-27T11:36:28Z</time>
      </trkpt>
      <trkpt lat="43.64493" lon="1.39502">
        <ele>126</ele>
        <time>2025-02-27T11:36:29Z</time>
      </trkpt>
      <trkpt lat="43.64493" lon="1.39502">
        <ele>126</ele>
        <time>2025-02-27T11:36:30Z</time>
      </trkpt>
      <trkpt lat="43.64492" lon="1.39498">
        <ele>126</ele>
        <time>2025-02-27T11:36:31Z</time>
      </trkpt>
      <trkpt lat="43.64492" lon="1.39498">
        <ele>126</ele>
        <time>2025-02-27T11:36:32Z</time>
      </trkpt>
      <trkpt lat="43.64492" lon="1.39494">
        <ele>126</ele>
        <time>2025-02-27T11:36:33Z</time>
      </trkpt>
      <trkpt lat="43.64492" lon="1.39494">
        <ele>126</ele>
        <time>2025-02-27T11:36:34Z</time>
      </trkpt>
      <trkpt lat="43.64491" lon="1.39491">
        <ele>126</ele>
        <time>2025-02-27T11:36:35Z</time>
      </trkpt>
      <trkpt lat="43.64491" lon="1.39491">
        <ele>126</ele>
        <time>2025-02-27T11:36:36Z</time>
      </trkpt>
      <trkpt lat="43.6449" lon="1.39488">
        <ele>126</ele>
        <time>2025-02-27T11:36:37Z</time>
      </trkpt>
      <trkpt lat="43.6449" lon="1.39488">
        <ele>126</ele>
        <time>2025-02-27T11:36:38Z</time>
      </trkpt>
      <trkpt lat="43.6449" lon="1.39484">
        <ele>126</ele>
        <time>2025-02-27T11:36:39Z</time>
      </trkpt>
      <trkpt lat="43.6449" lon="1.39484">
        <ele>126</ele>
        <time>2025-02-27T11:36:40Z</time>
      </trkpt>
      <trkpt lat="43.64489" lon="1.39481">
        <ele>127</ele>
        <time>2025-02-27T11:36:41Z</time>
      </trkpt>
      <trkpt lat="43.64489" lon="1.39481">
        <ele>127</ele>
        <time>2025-02-27T11:36:42Z</time>
      </trkpt>
      <trkpt lat="43.64488" lon="1.39477">
        <ele>127</ele>
        <time>2025-02-27T11:36:43Z</time>
      </trkpt>
      <trkpt lat="43.64488" lon="1.39477">
        <ele>127</ele>
        <time>2025-02-27T11:36:44Z</time>
      </trkpt>
      <trkpt lat="43.64488" lon="1.39473">
        <ele>127</ele>
        <time>2025-02-27T11:36:45Z</time>
      </trkpt>
      <trkpt lat="43.64488" lon="1.39473">
        <ele>127</ele>
        <time>2025-02-27T11:36:46Z</time>
      </trkpt>
      <trkpt lat="43.64487" lon="1.39469">
        <ele>127</ele>
        <time>2025-02-27T11:36:47Z</time>
      </trkpt>
      <trkpt lat="43.64487" lon="1.39465">
        <ele>127</ele>
        <time>2025-02-27T11:36:48Z</time>
      </trkpt>
      <trkpt lat="43.64487" lon="1.39465">
        <ele>127</ele>
        <time>2025-02-27T11:36:49Z</time>
      </trkpt>
      <trkpt lat="43.64487" lon="1.39465">
        <ele>127</ele>
        <time>2025-02-27T11:36:50Z</time>
      </trkpt>
      <trkpt lat="43.64487" lon="1.39461">
        <ele>127</ele>
        <time>2025-02-27T11:36:51Z</time>
      </trkpt>
      <trkpt lat="43.64487" lon="1.39461">
        <ele>127</ele>
        <time>2025-02-27T11:36:52Z</time>
      </trkpt>
      <trkpt lat="43.64486" lon="1.39458">
        <ele>127</ele>
        <time>2025-02-27T11:36:53Z</time>
      </trkpt>
      <trkpt lat="43.64486" lon="1.39458">
        <ele>127</ele>
        <time>2025-02-27T11:36:54Z</time>
      </trkpt>
      <trkpt lat="43.64485" lon="1.39454">
        <ele>127</ele>
        <time>2025-02-27T11:36:55Z</time>
      </trkpt>
      <trkpt lat="43.64485" lon="1.39454">
        <ele>127</ele>
        <time>2025-02-27T11:36:56Z</time>
      </trkpt>
      <trkpt lat="43.64485" lon="1.39451">
        <ele>127</ele>
        <time>2025-02-27T11:36:57Z</time>
      </trkpt>
      <trkpt lat="43.64485" lon="1.39451">
        <ele>127</ele>
        <time>2025-02-27T11:36:58Z</time>
      </trkpt>
      <trkpt lat="43.64484" lon="1.39447">
        <ele>127</ele>
        <time>2025-02-27T11:36:59Z</time>
      </trkpt>
      <trkpt lat="43.64484" lon="1.39447">
        <ele>127</ele>
        <time>2025-02-27T11:37:00Z</time>
      </trkpt>
      <trkpt lat="43.64483" lon="1.39444">
        <ele>127</ele>
        <time>2025-02-27T11:37:01Z</time>
      </trkpt>
      <trkpt lat="43.64483" lon="1.39444">
        <ele>127</ele>
        <time>2025-02-27T11:37:02Z</time>
      </trkpt>
      <trkpt lat="43.64483" lon="1.39441">
        <ele>127</ele>
        <time>2025-02-27T11:37:03Z</time>
      </trkpt>
      <trkpt lat="43.64483" lon="1.39441">
        <ele>127</ele>
        <time>2025-02-27T11:37:04Z</time>
      </trkpt>
      <trkpt lat="43.64483" lon="1.39441">
        <ele>127</ele>
        <time>2025-02-27T11:37:05Z</time>
      </trkpt>
      <trkpt lat="43.64483" lon="1.39441">
        <ele>127</ele>
        <time>2025-02-27T11:37:06Z</time>
      </trkpt>
      <trkpt lat="43.64482" lon="1.39437">
        <ele>127</ele>
        <time>2025-02-27T11:37:07Z</time>
      </trkpt>
      <trkpt lat="43.64482" lon="1.39437">
        <ele>127</ele>
        <time>2025-02-27T11:37:08Z</time>
      </trkpt>
      <trkpt lat="43.64481" lon="1.39433">
        <ele>127</ele>
        <time>2025-02-27T11:37:09Z</time>
      </trkpt>
      <trkpt lat="43.64481" lon="1.39433">
        <ele>127</ele>
        <time>2025-02-27T11:37:10Z</time>
      </trkpt>
      <trkpt lat="43.64481" lon="1.39429">
        <ele>127</ele>
        <time>2025-02-27T11:37:11Z</time>
      </trkpt>
      <trkpt lat="43.64481" lon="1.39429">
        <ele>127</ele>
        <time>2025-02-27T11:37:12Z</time>
      </trkpt>
      <trkpt lat="43.6448" lon="1.39425">
        <ele>127</ele>
        <time>2025-02-27T11:37:13Z</time>
      </trkpt>
      <trkpt lat="43.6448" lon="1.39425">
        <ele>127</ele>
        <time>2025-02-27T11:37:14Z</time>
      </trkpt>
      <trkpt lat="43.64479" lon="1.39422">
        <ele>127</ele>
        <time>2025-02-27T11:37:15Z</time>
      </trkpt>
      <trkpt lat="43.64479" lon="1.39422">
        <ele>127</ele>
        <time>2025-02-27T11:37:16Z</time>
      </trkpt>
      <trkpt lat="43.64479" lon="1.39418">
        <ele>127</ele>
        <time>2025-02-27T11:37:17Z</time>
      </trkpt>
      <trkpt lat="43.64479" lon="1.39418">
        <ele>127</ele>
        <time>2025-02-27T11:37:18Z</time>
      </trkpt>
      <trkpt lat="43.64478" lon="1.39414">
        <ele>127</ele>
        <time>2025-02-27T11:37:19Z</time>
      </trkpt>
      <trkpt lat="43.64478" lon="1.39414">
        <ele>127</ele>
        <time>2025-02-27T11:37:20Z</time>
      </trkpt>
      <trkpt lat="43.64478" lon="1.3941">
        <ele>127</ele>
        <time>2025-02-27T11:37:21Z</time>
      </trkpt>
      <trkpt lat="43.64478" lon="1.3941">
        <ele>127</ele>
        <time>2025-02-27T11:37:22Z</time>
      </trkpt>
      <trkpt lat="43.64478" lon="1.39407">
        <ele>127</ele>
        <time>2025-02-27T11:37:23Z</time>
      </trkpt>
      <trkpt lat="43.64478" lon="1.39407">
        <ele>127</ele>
        <time>2025-02-27T11:37:24Z</time>
      </trkpt>
      <trkpt lat="43.64477" lon="1.39403">
        <ele>127</ele>
        <time>2025-02-27T11:37:25Z</time>
      </trkpt>
      <trkpt lat="43.64477" lon="1.39403">
        <ele>127</ele>
        <time>2025-02-27T11:37:26Z</time>
      </trkpt>
      <trkpt lat="43.64476" lon="1.394">
        <ele>127</ele>
        <time>2025-02-27T11:37:27Z</time>
      </trkpt>
      <trkpt lat="43.64476" lon="1.394">
        <ele>127</ele>
        <time>2025-02-27T11:37:28Z</time>
      </trkpt>
      <trkpt lat="43.64476" lon="1.39396">
        <ele>127</ele>
        <time>2025-02-27T11:37:29Z</time>
      </trkpt>
      <trkpt lat="43.64476" lon="1.39396">
        <ele>127</ele>
        <time>2025-02-27T11:37:30Z</time>
      </trkpt>
      <trkpt lat="43.64475" lon="1.39392">
        <ele>127</ele>
        <time>2025-02-27T11:37:31Z</time>
      </trkpt>
      <trkpt lat="43.64475" lon="1.39392">
        <ele>127</ele>
        <time>2025-02-27T11:37:32Z</time>
      </trkpt>
      <trkpt lat="43.64475" lon="1.39389">
        <ele>127</ele>
        <time>2025-02-27T11:37:33Z</time>
      </trkpt>
      <trkpt lat="43.64475" lon="1.39389">
        <ele>127</ele>
        <time>2025-02-27T11:37:34Z</time>
      </trkpt>
      <trkpt lat="43.64474" lon="1.39385">
        <ele>127</ele>
        <time>2025-02-27T11:37:35Z</time>
      </trkpt>
      <trkpt lat="43.64474" lon="1.39385">
        <ele>127</ele>
        <time>2025-02-27T11:37:36Z</time>
      </trkpt>
      <trkpt lat="43.64473" lon="1.39382">
        <ele>127</ele>
        <time>2025-02-27T11:37:37Z</time>
      </trkpt>
      <trkpt lat="43.64473" lon="1.39382">
        <ele>127</ele>
        <time>2025-02-27T11:37:38Z</time>
      </trkpt>
      <trkpt lat="43.64473" lon="1.39379">
        <ele>127</ele>
        <time>2025-02-27T11:37:39Z</time>
      </trkpt>
      <trkpt lat="43.64472" lon="1.39375">
        <ele>127</ele>
        <time>2025-02-27T11:37:40Z</time>
      </trkpt>
      <trkpt lat="43.64472" lon="1.39375">
        <ele>127</ele>
        <time>2025-02-27T11:37:41Z</time>
      </trkpt>
      <trkpt lat="43.64472" lon="1.39375">
        <ele>127</ele>
        <time>2025-02-27T11:37:42Z</time>
      </trkpt>
      <trkpt lat="43.64471" lon="1.39371">
        <ele>127</ele>
        <time>2025-02-27T11:37:43Z</time>
      </trkpt>
      <trkpt lat="43.64471" lon="1.39371">
        <ele>127</ele>
        <time>2025-02-27T11:37:44Z</time>
      </trkpt>
      <trkpt lat="43.64471" lon="1.39368">
        <ele>128</ele>
        <time>2025-02-27T11:37:45Z</time>
      </trkpt>
      <trkpt lat="43.64471" lon="1.39368">
        <ele>128</ele>
        <time>2025-02-27T11:37:46Z</time>
      </trkpt>
      <trkpt lat="43.6447" lon="1.39363">
        <ele>128</ele>
        <time>2025-02-27T11:37:47Z</time>
      </trkpt>
      <trkpt lat="43.6447" lon="1.39363">
        <ele>127</ele>
        <time>2025-02-27T11:37:48Z</time>
      </trkpt>
      <trkpt lat="43.6447" lon="1.3936">
        <ele>127</ele>
        <time>2025-02-27T11:37:49Z</time>
      </trkpt>
      <trkpt lat="43.6447" lon="1.3936">
        <ele>127</ele>
        <time>2025-02-27T11:37:50Z</time>
      </trkpt>
      <trkpt lat="43.64469" lon="1.39356">
        <ele>127</ele>
        <time>2025-02-27T11:37:51Z</time>
      </trkpt>
      <trkpt lat="43.64469" lon="1.39356">
        <ele>127</ele>
        <time>2025-02-27T11:37:52Z</time>
      </trkpt>
      <trkpt lat="43.64468" lon="1.39352">
        <ele>127</ele>
        <time>2025-02-27T11:37:53Z</time>
      </trkpt>
      <trkpt lat="43.64468" lon="1.39352">
        <ele>127</ele>
        <time>2025-02-27T11:37:54Z</time>
      </trkpt>
      <trkpt lat="43.64468" lon="1.39349">
        <ele>127</ele>
        <time>2025-02-27T11:37:55Z</time>
      </trkpt>
      <trkpt lat="43.64468" lon="1.39349">
        <ele>127</ele>
        <time>2025-02-27T11:37:56Z</time>
      </trkpt>
      <trkpt lat="43.64467" lon="1.39345">
        <ele>127</ele>
        <time>2025-02-27T11:37:57Z</time>
      </trkpt>
      <trkpt lat="43.64467" lon="1.39345">
        <ele>127</ele>
        <time>2025-02-27T11:37:58Z</time>
      </trkpt>
      <trkpt lat="43.64467" lon="1.39342">
        <ele>127</ele>
        <time>2025-02-27T11:37:59Z</time>
      </trkpt>
      <trkpt lat="43.64467" lon="1.39342">
        <ele>127</ele>
        <time>2025-02-27T11:38:00Z</time>
      </trkpt>
      <trkpt lat="43.64466" lon="1.39339">
        <ele>127</ele>
        <time>2025-02-27T11:38:01Z</time>
      </trkpt>
      <trkpt lat="43.64466" lon="1.39339">
        <ele>127</ele>
        <time>2025-02-27T11:38:02Z</time>
      </trkpt>
      <trkpt lat="43.64464" lon="1.39336">
        <ele>127</ele>
        <time>2025-02-27T11:38:03Z</time>
      </trkpt>
      <trkpt lat="43.64464" lon="1.39332">
        <ele>127</ele>
        <time>2025-02-27T11:38:04Z</time>
      </trkpt>
      <trkpt lat="43.64464" lon="1.39332">
        <ele>127</ele>
        <time>2025-02-27T11:38:05Z</time>
      </trkpt>
      <trkpt lat="43.64464" lon="1.39332">
        <ele>127</ele>
        <time>2025-02-27T11:38:06Z</time>
      </trkpt>
      <trkpt lat="43.64463" lon="1.3933">
        <ele>127</ele>
        <time>2025-02-27T11:38:07Z</time>
      </trkpt>
      <trkpt lat="43.64463" lon="1.3933">
        <ele>127</ele>
        <time>2025-02-27T11:38:08Z</time>
      </trkpt>
      <trkpt lat="43.64462" lon="1.39326">
        <ele>127</ele>
        <time>2025-02-27T11:38:09Z</time>
      </trkpt>
      <trkpt lat="43.64462" lon="1.39326">
        <ele>127</ele>
        <time>2025-02-27T11:38:10Z</time>
      </trkpt>
      <trkpt lat="43.64461" lon="1.39322">
        <ele>127</ele>
        <time>2025-02-27T11:38:11Z</time>
      </trkpt>
      <trkpt lat="43.64461" lon="1.39322">
        <ele>127</ele>
        <time>2025-02-27T11:38:12Z</time>
      </trkpt>
      <trkpt lat="43.6446" lon="1.39318">
        <ele>127</ele>
        <time>2025-02-27T11:38:13Z</time>
      </trkpt>
      <trkpt lat="43.6446" lon="1.39318">
        <ele>127</ele>
        <time>2025-02-27T11:38:14Z</time>
      </trkpt>
      <trkpt lat="43.64459" lon="1.39315">
        <ele>127</ele>
        <time>2025-02-27T11:38:15Z</time>
      </trkpt>
      <trkpt lat="43.64459" lon="1.39315">
        <ele>127</ele>
        <time>2025-02-27T11:38:16Z</time>
      </trkpt>
      <trkpt lat="43.64458" lon="1.39312">
        <ele>127</ele>
        <time>2025-02-27T11:38:17Z</time>
      </trkpt>
      <trkpt lat="43.64458" lon="1.39312">
        <ele>127</ele>
        <time>2025-02-27T11:38:18Z</time>
      </trkpt>
      <trkpt lat="43.64457" lon="1.3931">
        <ele>127</ele>
        <time>2025-02-27T11:38:19Z</time>
      </trkpt>
      <trkpt lat="43.64457" lon="1.3931">
        <ele>127</ele>
        <time>2025-02-27T11:38:20Z</time>
      </trkpt>
      <trkpt lat="43.64454" lon="1.3931">
        <ele>127</ele>
        <time>2025-02-27T11:38:21Z</time>
      </trkpt>
      <trkpt lat="43.64454" lon="1.3931">
        <ele>127</ele>
        <time>2025-02-27T11:38:22Z</time>
      </trkpt>
      <trkpt lat="43.64452" lon="1.3931">
        <ele>127</ele>
        <time>2025-02-27T11:38:23Z</time>
      </trkpt>
      <trkpt lat="43.64452" lon="1.3931">
        <ele>127</ele>
        <time>2025-02-27T11:38:24Z</time>
      </trkpt>
      <trkpt lat="43.64449" lon="1.3931">
        <ele>127</ele>
        <time>2025-02-27T11:38:25Z</time>
      </trkpt>
      <trkpt lat="43.64449" lon="1.3931">
        <ele>127</ele>
        <time>2025-02-27T11:38:26Z</time>
      </trkpt>
      <trkpt lat="43.64447" lon="1.39311">
        <ele>127</ele>
        <time>2025-02-27T11:38:27Z</time>
      </trkpt>
      <trkpt lat="43.64447" lon="1.39311">
        <ele>127</ele>
        <time>2025-02-27T11:38:28Z</time>
      </trkpt>
      <trkpt lat="43.64444" lon="1.39311">
        <ele>127</ele>
        <time>2025-02-27T11:38:29Z</time>
      </trkpt>
      <trkpt lat="43.64444" lon="1.39311">
        <ele>127</ele>
        <time>2025-02-27T11:38:30Z</time>
      </trkpt>
      <trkpt lat="43.64441" lon="1.39311">
        <ele>127</ele>
        <time>2025-02-27T11:38:31Z</time>
      </trkpt>
      <trkpt lat="43.64441" lon="1.39311">
        <ele>127</ele>
        <time>2025-02-27T11:38:32Z</time>
      </trkpt>
      <trkpt lat="43.64439" lon="1.39311">
        <ele>127</ele>
        <time>2025-02-27T11:38:33Z</time>
      </trkpt>
      <trkpt lat="43.64439" lon="1.39311">
        <ele>127</ele>
        <time>2025-02-27T11:38:34Z</time>
      </trkpt>
      <trkpt lat="43.64436" lon="1.39311">
        <ele>127</ele>
        <time>2025-02-27T11:38:35Z</time>
      </trkpt>
      <trkpt lat="43.64436" lon="1.39311">
        <ele>126</ele>
        <time>2025-02-27T11:38:36Z</time>
      </trkpt>
      <trkpt lat="43.64433" lon="1.39312">
        <ele>126</ele>
        <time>2025-02-27T11:38:37Z</time>
      </trkpt>
      <trkpt lat="43.64433" lon="1.39312">
        <ele>126</ele>
        <time>2025-02-27T11:38:38Z</time>
      </trkpt>
      <trkpt lat="43.64431" lon="1.39313">
        <ele>126</ele>
        <time>2025-02-27T11:38:39Z</time>
      </trkpt>
      <trkpt lat="43.64431" lon="1.39313">
        <ele>126</ele>
        <time>2025-02-27T11:38:40Z</time>
      </trkpt>
      <trkpt lat="43.64428" lon="1.39313">
        <ele>126</ele>
        <time>2025-02-27T11:38:41Z</time>
      </trkpt>
      <trkpt lat="43.64428" lon="1.39313">
        <ele>126</ele>
        <time>2025-02-27T11:38:42Z</time>
      </trkpt>
      <trkpt lat="43.64425" lon="1.39314">
        <ele>126</ele>
        <time>2025-02-27T11:38:43Z</time>
      </trkpt>
      <trkpt lat="43.64425" lon="1.39314">
        <ele>126</ele>
        <time>2025-02-27T11:38:44Z</time>
      </trkpt>
      <trkpt lat="43.64422" lon="1.39315">
        <ele>126</ele>
        <time>2025-02-27T11:38:45Z</time>
      </trkpt>
      <trkpt lat="43.64422" lon="1.39315">
        <ele>126</ele>
        <time>2025-02-27T11:38:46Z</time>
      </trkpt>
      <trkpt lat="43.64419" lon="1.39316">
        <ele>125</ele>
        <time>2025-02-27T11:38:47Z</time>
      </trkpt>
      <trkpt lat="43.64419" lon="1.39316">
        <ele>125</ele>
        <time>2025-02-27T11:38:48Z</time>
      </trkpt>
      <trkpt lat="43.64416" lon="1.39316">
        <ele>125</ele>
        <time>2025-02-27T11:38:49Z</time>
      </trkpt>
      <trkpt lat="43.64416" lon="1.39316">
        <ele>125</ele>
        <time>2025-02-27T11:38:50Z</time>
      </trkpt>
      <trkpt lat="43.64413" lon="1.39317">
        <ele>125</ele>
        <time>2025-02-27T11:38:51Z</time>
      </trkpt>
      <trkpt lat="43.64413" lon="1.39317">
        <ele>125</ele>
        <time>2025-02-27T11:38:52Z</time>
      </trkpt>
      <trkpt lat="43.64411" lon="1.39318">
        <ele>125</ele>
        <time>2025-02-27T11:38:53Z</time>
      </trkpt>
      <trkpt lat="43.64411" lon="1.39318">
        <ele>125</ele>
        <time>2025-02-27T11:38:54Z</time>
      </trkpt>
      <trkpt lat="43.64411" lon="1.39318">
        <ele>125</ele>
        <time>2025-02-27T11:38:55Z</time>
      </trkpt>
      <trkpt lat="43.64409" lon="1.39318">
        <ele>125</ele>
        <time>2025-02-27T11:38:56Z</time>
      </trkpt>
      <trkpt lat="43.64409" lon="1.39318">
        <ele>126</ele>
        <time>2025-02-27T11:38:57Z</time>
      </trkpt>
      <trkpt lat="43.64409" lon="1.39318">
        <ele>126</ele>
        <time>2025-02-27T11:38:58Z</time>
      </trkpt>
      <trkpt lat="43.64409" lon="1.39318">
        <ele>126</ele>
        <time>2025-02-27T11:38:59Z</time>
      </trkpt>
      <trkpt lat="43.64411" lon="1.39315">
        <ele>124</ele>
        <time>2025-02-27T11:39:00Z</time>
      </trkpt>
      <trkpt lat="43.64419" lon="1.39311">
        <ele>124</ele>
        <time>2025-02-27T11:39:01Z</time>
      </trkpt>
      <trkpt lat="43.64419" lon="1.39311">
        <ele>124</ele>
        <time>2025-02-27T11:39:02Z</time>
      </trkpt>
      <trkpt lat="43.64423" lon="1.39309">
        <ele>124</ele>
        <time>2025-02-27T11:39:03Z</time>
      </trkpt>
      <trkpt lat="43.64427" lon="1.39308">
        <ele>124</ele>
        <time>2025-02-27T11:39:04Z</time>
      </trkpt>
      <trkpt lat="43.64431" lon="1.39307">
        <ele>125</ele>
        <time>2025-02-27T11:39:05Z</time>
      </trkpt>
      <trkpt lat="43.64437" lon="1.39306">
        <ele>125</ele>
        <time>2025-02-27T11:39:06Z</time>
      </trkpt>
      <trkpt lat="43.64439" lon="1.39306">
        <ele>125</ele>
        <time>2025-02-27T11:39:07Z</time>
      </trkpt>
      <trkpt lat="43.64443" lon="1.39305">
        <ele>126</ele>
        <time>2025-02-27T11:39:08Z</time>
      </trkpt>
      <trkpt lat="43.64446" lon="1.39304">
        <ele>126</ele>
        <time>2025-02-27T11:39:09Z</time>
      </trkpt>
      <trkpt lat="43.64451" lon="1.39303">
        <ele>127</ele>
        <time>2025-02-27T11:39:10Z</time>
      </trkpt>
      <trkpt lat="43.64453" lon="1.39302">
        <ele>127</ele>
        <time>2025-02-27T11:39:11Z</time>
      </trkpt>
      <trkpt lat="43.64459" lon="1.39301">
        <ele>127</ele>
        <time>2025-02-27T11:39:12Z</time>
      </trkpt>
      <trkpt lat="43.64461" lon="1.39301">
        <ele>128</ele>
        <time>2025-02-27T11:39:13Z</time>
      </trkpt>
      <trkpt lat="43.64464" lon="1.393">
        <ele>128</ele>
        <time>2025-02-27T11:39:14Z</time>
      </trkpt>
      <trkpt lat="43.64471" lon="1.393">
        <ele>128</ele>
        <time>2025-02-27T11:39:15Z</time>
      </trkpt>
      <trkpt lat="43.64474" lon="1.393">
        <ele>128</ele>
        <time>2025-02-27T11:39:16Z</time>
      </trkpt>
      <trkpt lat="43.64474" lon="1.393">
        <ele>128</ele>
        <time>2025-02-27T11:39:17Z</time>
      </trkpt>
      <trkpt lat="43.64479" lon="1.39299">
        <ele>128</ele>
        <time>2025-02-27T11:39:18Z</time>
      </trkpt>
      <trkpt lat="43.6448" lon="1.39299">
        <ele>128</ele>
        <time>2025-02-27T11:39:19Z</time>
      </trkpt>
      <trkpt lat="43.64486" lon="1.39299">
        <ele>128</ele>
        <time>2025-02-27T11:39:20Z</time>
      </trkpt>
      <trkpt lat="43.64486" lon="1.39299">
        <ele>128</ele>
        <time>2025-02-27T11:39:21Z</time>
      </trkpt>
      <trkpt lat="43.64489" lon="1.39299">
        <ele>128</ele>
        <time>2025-02-27T11:39:22Z</time>
      </trkpt>
      <trkpt lat="43.64493" lon="1.39299">
        <ele>128</ele>
        <time>2025-02-27T11:39:23Z</time>
      </trkpt>
      <trkpt lat="43.64496" lon="1.39299">
        <ele>127</ele>
        <time>2025-02-27T11:39:24Z</time>
      </trkpt>
      <trkpt lat="43.645" lon="1.393">
        <ele>127</ele>
        <time>2025-02-27T11:39:25Z</time>
      </trkpt>
      <trkpt lat="43.64504" lon="1.393">
        <ele>126</ele>
        <time>2025-02-27T11:39:26Z</time>
      </trkpt>
      <trkpt lat="43.64506" lon="1.393">
        <ele>126</ele>
        <time>2025-02-27T11:39:27Z</time>
      </trkpt>
      <trkpt lat="43.64509" lon="1.39299">
        <ele>126</ele>
        <time>2025-02-27T11:39:28Z</time>
      </trkpt>
      <trkpt lat="43.64511" lon="1.39299">
        <ele>126</ele>
        <time>2025-02-27T11:39:29Z</time>
      </trkpt>
      <trkpt lat="43.64515" lon="1.39299">
        <ele>125</ele>
        <time>2025-02-27T11:39:30Z</time>
      </trkpt>
      <trkpt lat="43.64517" lon="1.39299">
        <ele>125</ele>
        <time>2025-02-27T11:39:31Z</time>
      </trkpt>
      <trkpt lat="43.6452" lon="1.393">
        <ele>125</ele>
        <time>2025-02-27T11:39:32Z</time>
      </trkpt>
      <trkpt lat="43.6452" lon="1.393">
        <ele>125</ele>
        <time>2025-02-27T11:39:33Z</time>
      </trkpt>
      <trkpt lat="43.64517" lon="1.39304">
        <ele>125</ele>
        <time>2025-02-27T11:39:34Z</time>
      </trkpt>
      <trkpt lat="43.64516" lon="1.39305">
        <ele>125</ele>
        <time>2025-02-27T11:39:35Z</time>
      </trkpt>
      <trkpt lat="43.64512" lon="1.39307">
        <ele>124</ele>
        <time>2025-02-27T11:39:36Z</time>
      </trkpt>
      <trkpt lat="43.64508" lon="1.39307">
        <ele>124</ele>
        <time>2025-02-27T11:39:37Z</time>
      </trkpt>
      <trkpt lat="43.64504" lon="1.39308">
        <ele>125</ele>
        <time>2025-02-27T11:39:38Z</time>
      </trkpt>
      <trkpt lat="43.64495" lon="1.39309">
        <ele>125</ele>
        <time>2025-02-27T11:39:39Z</time>
      </trkpt>
      <trkpt lat="43.64495" lon="1.39309">
        <ele>125</ele>
        <time>2025-02-27T11:39:40Z</time>
      </trkpt>
      <trkpt lat="43.64491" lon="1.3931">
        <ele>125</ele>
        <time>2025-02-27T11:39:41Z</time>
      </trkpt>
      <trkpt lat="43.64484" lon="1.3931">
        <ele>126</ele>
        <time>2025-02-27T11:39:42Z</time>
      </trkpt>
      <trkpt lat="43.64482" lon="1.3931">
        <ele>127</ele>
        <time>2025-02-27T11:39:43Z</time>
      </trkpt>
      <trkpt lat="43.64478" lon="1.39311">
        <ele>127</ele>
        <time>2025-02-27T11:39:44Z</time>
      </trkpt>
      <trkpt lat="43.64472" lon="1.39311">
        <ele>127</ele>
        <time>2025-02-27T11:39:45Z</time>
      </trkpt>
      <trkpt lat="43.64469" lon="1.39311">
        <ele>127</ele>
        <time>2025-02-27T11:39:46Z</time>
      </trkpt>
      <trkpt lat="43.64465" lon="1.39312">
        <ele>127</ele>
        <time>2025-02-27T11:39:47Z</time>
      </trkpt>
      <trkpt lat="43.64461" lon="1.39312">
        <ele>128</ele>
        <time>2025-02-27T11:39:48Z</time>
      </trkpt>
      <trkpt lat="43.64458" lon="1.39313">
        <ele>128</ele>
        <time>2025-02-27T11:39:49Z</time>
      </trkpt>
      <trkpt lat="43.64455" lon="1.39312">
        <ele>128</ele>
        <time>2025-02-27T11:39:50Z</time>
      </trkpt>
      <trkpt lat="43.64452" lon="1.39313">
        <ele>128</ele>
        <time>2025-02-27T11:39:51Z</time>
      </trkpt>
      <trkpt lat="43.6445" lon="1.39313">
        <ele>128</ele>
        <time>2025-02-27T11:39:52Z</time>
      </trkpt>
      <trkpt lat="43.64448" lon="1.39313">
        <ele>128</ele>
        <time>2025-02-27T11:39:53Z</time>
      </trkpt>
      <trkpt lat="43.64445" lon="1.39314">
        <ele>127</ele>
        <time>2025-02-27T11:39:54Z</time>
      </trkpt>
      <trkpt lat="43.64443" lon="1.39315">
        <ele>127</ele>
        <time>2025-02-27T11:39:55Z</time>
      </trkpt>
      <trkpt lat="43.6444" lon="1.39316">
        <ele>127</ele>
        <time>2025-02-27T11:39:56Z</time>
      </trkpt>
      <trkpt lat="43.64438" lon="1.39316">
        <ele>127</ele>
        <time>2025-02-27T11:39:57Z</time>
      </trkpt>
      <trkpt lat="43.64432" lon="1.39317">
        <ele>126</ele>
        <time>2025-02-27T11:39:58Z</time>
      </trkpt>
      <trkpt lat="43.64432" lon="1.39317">
        <ele>126</ele>
        <time>2025-02-27T11:39:59Z</time>
      </trkpt>
      <trkpt lat="43.64429" lon="1.39317">
        <ele>125</ele>
        <time>2025-02-27T11:40:00Z</time>
      </trkpt>
      <trkpt lat="43.64424" lon="1.39318">
        <ele>125</ele>
        <time>2025-02-27T11:40:01Z</time>
      </trkpt>
      <trkpt lat="43.64424" lon="1.39318">
        <ele>125</ele>
        <time>2025-02-27T11:40:02Z</time>
      </trkpt>
      <trkpt lat="43.64421" lon="1.39318">
        <ele>125</ele>
        <time>2025-02-27T11:40:03Z</time>
      </trkpt>
      <trkpt lat="43.64419" lon="1.39319">
        <ele>125</ele>
        <time>2025-02-27T11:40:04Z</time>
      </trkpt>
      <trkpt lat="43.64417" lon="1.39319">
        <ele>125</ele>
        <time>2025-02-27T11:40:05Z</time>
      </trkpt>
      <trkpt lat="43.64414" lon="1.39319">
        <ele>125</ele>
        <time>2025-02-27T11:40:06Z</time>
      </trkpt>
      <trkpt lat="43.64412" lon="1.39319">
        <ele>125</ele>
        <time>2025-02-27T11:40:07Z</time>
      </trkpt>
      <trkpt lat="43.64412" lon="1.39319">
        <ele>125</ele>
        <time>2025-02-27T11:40:08Z</time>
      </trkpt>
      <trkpt lat="43.64409" lon="1.39317">
        <ele>125</ele>
        <time>2025-02-27T11:40:09Z</time>
      </trkpt>
      <trkpt lat="43.64411" lon="1.39315">
        <ele>125</ele>
        <time>2025-02-27T11:40:10Z</time>
      </trkpt>
      <trkpt lat="43.64417" lon="1.3931">
        <ele>124</ele>
        <time>2025-02-27T11:40:11Z</time>
      </trkpt>
      <trkpt lat="43.64419" lon="1.39309">
        <ele>125</ele>
        <time>2025-02-27T11:40:12Z</time>
      </trkpt>
      <trkpt lat="43.64424" lon="1.39307">
        <ele>125</ele>
        <time>2025-02-27T11:40:13Z</time>
      </trkpt>
      <trkpt lat="43.64428" lon="1.39305">
        <ele>125</ele>
        <time>2025-02-27T11:40:14Z</time>
      </trkpt>
      <trkpt lat="43.64433" lon="1.39304">
        <ele>125</ele>
        <time>2025-02-27T11:40:15Z</time>
      </trkpt>
      <trkpt lat="43.64441" lon="1.39302">
        <ele>126</ele>
        <time>2025-02-27T11:40:16Z</time>
      </trkpt>
      <trkpt lat="43.64445" lon="1.39301">
        <ele>126</ele>
        <time>2025-02-27T11:40:17Z</time>
      </trkpt>
      <trkpt lat="43.64445" lon="1.39301">
        <ele>126</ele>
        <time>2025-02-27T11:40:18Z</time>
      </trkpt>
      <trkpt lat="43.64448" lon="1.393">
        <ele>126</ele>
        <time>2025-02-27T11:40:19Z</time>
      </trkpt>
      <trkpt lat="43.64452" lon="1.393">
        <ele>126</ele>
        <time>2025-02-27T11:40:20Z</time>
      </trkpt>
      <trkpt lat="43.64458" lon="1.393">
        <ele>126</ele>
        <time>2025-02-27T11:40:21Z</time>
      </trkpt>
      <trkpt lat="43.64459" lon="1.393">
        <ele>127</ele>
        <time>2025-02-27T11:40:22Z</time>
      </trkpt>
      <trkpt lat="43.64464" lon="1.39299">
        <ele>127</ele>
        <time>2025-02-27T11:40:23Z</time>
      </trkpt>
      <trkpt lat="43.64466" lon="1.39299">
        <ele>128</ele>
        <time>2025-02-27T11:40:24Z</time>
      </trkpt>
      <trkpt lat="43.64469" lon="1.39299">
        <ele>128</ele>
        <time>2025-02-27T11:40:25Z</time>
      </trkpt>
      <trkpt lat="43.64471" lon="1.39299">
        <ele>128</ele>
        <time>2025-02-27T11:40:26Z</time>
      </trkpt>
      <trkpt lat="43.64474" lon="1.393">
        <ele>128</ele>
        <time>2025-02-27T11:40:27Z</time>
      </trkpt>
      <trkpt lat="43.64479" lon="1.39301">
        <ele>128</ele>
        <time>2025-02-27T11:40:28Z</time>
      </trkpt>
      <trkpt lat="43.6448" lon="1.39301">
        <ele>128</ele>
        <time>2025-02-27T11:40:29Z</time>
      </trkpt>
      <trkpt lat="43.64483" lon="1.39302">
        <ele>128</ele>
        <time>2025-02-27T11:40:30Z</time>
      </trkpt>
      <trkpt lat="43.64485" lon="1.39302">
        <ele>127</ele>
        <time>2025-02-27T11:40:31Z</time>
      </trkpt>
      <trkpt lat="43.64488" lon="1.39303">
        <ele>127</ele>
        <time>2025-02-27T11:40:32Z</time>
      </trkpt>
      <trkpt lat="43.64489" lon="1.39303">
        <ele>127</ele>
        <time>2025-02-27T11:40:33Z</time>
      </trkpt>
      <trkpt lat="43.64492" lon="1.39302">
        <ele>127</ele>
        <time>2025-02-27T11:40:34Z</time>
      </trkpt>
      <trkpt lat="43.64494" lon="1.39302">
        <ele>127</ele>
        <time>2025-02-27T11:40:35Z</time>
      </trkpt>
      <trkpt lat="43.64496" lon="1.39301">
        <ele>127</ele>
        <time>2025-02-27T11:40:36Z</time>
      </trkpt>
      <trkpt lat="43.64499" lon="1.39301">
        <ele>127</ele>
        <time>2025-02-27T11:40:37Z</time>
      </trkpt>
      <trkpt lat="43.64502" lon="1.39302">
        <ele>127</ele>
        <time>2025-02-27T11:40:38Z</time>
      </trkpt>
      <trkpt lat="43.64504" lon="1.39301">
        <ele>126</ele>
        <time>2025-02-27T11:40:39Z</time>
      </trkpt>
      <trkpt lat="43.64508" lon="1.39301">
        <ele>126</ele>
        <time>2025-02-27T11:40:40Z</time>
      </trkpt>
      <trkpt lat="43.64509" lon="1.39301">
        <ele>126</ele>
        <time>2025-02-27T11:40:41Z</time>
      </trkpt>
      <trkpt lat="43.64512" lon="1.39301">
        <ele>126</ele>
        <time>2025-02-27T11:40:42Z</time>
      </trkpt>
      <trkpt lat="43.64515" lon="1.39301">
        <ele>126</ele>
        <time>2025-02-27T11:40:43Z</time>
      </trkpt>
      <trkpt lat="43.64517" lon="1.39301">
        <ele>126</ele>
        <time>2025-02-27T11:40:44Z</time>
      </trkpt>
      <trkpt lat="43.6452" lon="1.393">
        <ele>125</ele>
        <time>2025-02-27T11:40:45Z</time>
      </trkpt>
      <trkpt lat="43.64521" lon="1.393">
        <ele>125</ele>
        <time>2025-02-27T11:40:46Z</time>
      </trkpt>
      <trkpt lat="43.6452" lon="1.39303">
        <ele>125</ele>
        <time>2025-02-27T11:40:47Z</time>
      </trkpt>
      <trkpt lat="43.64518" lon="1.39305">
        <ele>125</ele>
        <time>2025-02-27T11:40:48Z</time>
      </trkpt>
      <trkpt lat="43.64514" lon="1.39306">
        <ele>125</ele>
        <time>2025-02-27T11:40:49Z</time>
      </trkpt>
      <trkpt lat="43.64507" lon="1.39308">
        <ele>125</ele>
        <time>2025-02-27T11:40:50Z</time>
      </trkpt>
      <trkpt lat="43.64505" lon="1.39308">
        <ele>125</ele>
        <time>2025-02-27T11:40:51Z</time>
      </trkpt>
      <trkpt lat="43.64501" lon="1.39308">
        <ele>125</ele>
        <time>2025-02-27T11:40:52Z</time>
      </trkpt>
      <trkpt lat="43.64496" lon="1.39309">
        <ele>125</ele>
        <time>2025-02-27T11:40:53Z</time>
      </trkpt>
      <trkpt lat="43.64492" lon="1.39309">
        <ele>125</ele>
        <time>2025-02-27T11:40:54Z</time>
      </trkpt>
      <trkpt lat="43.64485" lon="1.3931">
        <ele>125</ele>
        <time>2025-02-27T11:40:55Z</time>
      </trkpt>
      <trkpt lat="43.64485" lon="1.3931">
        <ele>125</ele>
        <time>2025-02-27T11:40:56Z</time>
      </trkpt>
      <trkpt lat="43.64481" lon="1.3931">
        <ele>125</ele>
        <time>2025-02-27T11:40:57Z</time>
      </trkpt>
      <trkpt lat="43.64476" lon="1.3931">
        <ele>125</ele>
        <time>2025-02-27T11:40:58Z</time>
      </trkpt>
      <trkpt lat="43.64472" lon="1.39311">
        <ele>126</ele>
        <time>2025-02-27T11:40:59Z</time>
      </trkpt>
      <trkpt lat="43.64467" lon="1.39311">
        <ele>127</ele>
        <time>2025-02-27T11:41:00Z</time>
      </trkpt>
      <trkpt lat="43.64463" lon="1.39312">
        <ele>127</ele>
        <time>2025-02-27T11:41:01Z</time>
      </trkpt>
      <trkpt lat="43.6446" lon="1.39312">
        <ele>127</ele>
        <time>2025-02-27T11:41:02Z</time>
      </trkpt>
      <trkpt lat="43.64457" lon="1.39313">
        <ele>127</ele>
        <time>2025-02-27T11:41:03Z</time>
      </trkpt>
      <trkpt lat="43.64454" lon="1.39313">
        <ele>127</ele>
        <time>2025-02-27T11:41:04Z</time>
      </trkpt>
      <trkpt lat="43.64451" lon="1.39313">
        <ele>127</ele>
        <time>2025-02-27T11:41:05Z</time>
      </trkpt>
      <trkpt lat="43.64446" lon="1.39313">
        <ele>127</ele>
        <time>2025-02-27T11:41:06Z</time>
      </trkpt>
      <trkpt lat="43.64446" lon="1.39313">
        <ele>127</ele>
        <time>2025-02-27T11:41:07Z</time>
      </trkpt>
      <trkpt lat="43.64444" lon="1.39313">
        <ele>127</ele>
        <time>2025-02-27T11:41:08Z</time>
      </trkpt>
      <trkpt lat="43.64442" lon="1.39313">
        <ele>127</ele>
        <time>2025-02-27T11:41:09Z</time>
      </trkpt>
      <trkpt lat="43.6444" lon="1.39313">
        <ele>127</ele>
        <time>2025-02-27T11:41:10Z</time>
      </trkpt>
      <trkpt lat="43.64437" lon="1.39314">
        <ele>126</ele>
        <time>2025-02-27T11:41:11Z</time>
      </trkpt>
      <trkpt lat="43.64434" lon="1.39314">
        <ele>126</ele>
        <time>2025-02-27T11:41:12Z</time>
      </trkpt>
      <trkpt lat="43.64431" lon="1.39314">
        <ele>126</ele>
        <time>2025-02-27T11:41:13Z</time>
      </trkpt>
      <trkpt lat="43.64427" lon="1.39315">
        <ele>126</ele>
        <time>2025-02-27T11:41:14Z</time>
      </trkpt>
      <trkpt lat="43.64427" lon="1.39315">
        <ele>126</ele>
        <time>2025-02-27T11:41:15Z</time>
      </trkpt>
      <trkpt lat="43.64423" lon="1.39316">
        <ele>126</ele>
        <time>2025-02-27T11:41:16Z</time>
      </trkpt>
      <trkpt lat="43.64422" lon="1.39317">
        <ele>126</ele>
        <time>2025-02-27T11:41:17Z</time>
      </trkpt>
      <trkpt lat="43.6442" lon="1.39318">
        <ele>126</ele>
        <time>2025-02-27T11:41:18Z</time>
      </trkpt>
      <trkpt lat="43.64418" lon="1.39318">
        <ele>125</ele>
        <time>2025-02-27T11:41:19Z</time>
      </trkpt>
      <trkpt lat="43.64415" lon="1.39318">
        <ele>126</ele>
        <time>2025-02-27T11:41:20Z</time>
      </trkpt>
      <trkpt lat="43.64413" lon="1.39319">
        <ele>126</ele>
        <time>2025-02-27T11:41:21Z</time>
      </trkpt>
      <trkpt lat="43.64411" lon="1.39319">
        <ele>126</ele>
        <time>2025-02-27T11:41:22Z</time>
      </trkpt>
      <trkpt lat="43.64409" lon="1.39319">
        <ele>126</ele>
        <time>2025-02-27T11:41:23Z</time>
      </trkpt>
      <trkpt lat="43.64409" lon="1.39319">
        <ele>126</ele>
        <time>2025-02-27T11:41:24Z</time>
      </trkpt>
      <trkpt lat="43.64412" lon="1.39315">
        <ele>126</ele>
        <time>2025-02-27T11:41:25Z</time>
      </trkpt>
      <trkpt lat="43.64418" lon="1.39311">
        <ele>125</ele>
        <time>2025-02-27T11:41:26Z</time>
      </trkpt>
      <trkpt lat="43.64421" lon="1.39309">
        <ele>126</ele>
        <time>2025-02-27T11:41:27Z</time>
      </trkpt>
      <trkpt lat="43.64426" lon="1.39307">
        <ele>126</ele>
        <time>2025-02-27T11:41:28Z</time>
      </trkpt>
      <trkpt lat="43.64428" lon="1.39306">
        <ele>126</ele>
        <time>2025-02-27T11:41:29Z</time>
      </trkpt>
      <trkpt lat="43.64435" lon="1.39304">
        <ele>126</ele>
        <time>2025-02-27T11:41:30Z</time>
      </trkpt>
      <trkpt lat="43.64437" lon="1.39304">
        <ele>126</ele>
        <time>2025-02-27T11:41:31Z</time>
      </trkpt>
      <trkpt lat="43.6444" lon="1.39303">
        <ele>126</ele>
        <time>2025-02-27T11:41:32Z</time>
      </trkpt>
      <trkpt lat="43.64447" lon="1.393">
        <ele>126</ele>
        <time>2025-02-27T11:41:33Z</time>
      </trkpt>
      <trkpt lat="43.64447" lon="1.393">
        <ele>127</ele>
        <time>2025-02-27T11:41:34Z</time>
      </trkpt>
      <trkpt lat="43.64454" lon="1.39299">
        <ele>127</ele>
        <time>2025-02-27T11:41:35Z</time>
      </trkpt>
      <trkpt lat="43.64456" lon="1.39298">
        <ele>127</ele>
        <time>2025-02-27T11:41:36Z</time>
      </trkpt>
      <trkpt lat="43.6446" lon="1.39298">
        <ele>127</ele>
        <time>2025-02-27T11:41:37Z</time>
      </trkpt>
      <trkpt lat="43.64464" lon="1.39297">
        <ele>128</ele>
        <time>2025-02-27T11:41:38Z</time>
      </trkpt>
      <trkpt lat="43.64467" lon="1.39297">
        <ele>128</ele>
        <time>2025-02-27T11:41:39Z</time>
      </trkpt>
      <trkpt lat="43.64471" lon="1.39297">
        <ele>128</ele>
        <time>2025-02-27T11:41:40Z</time>
      </trkpt>
      <trkpt lat="43.64474" lon="1.39297">
        <ele>127</ele>
        <time>2025-02-27T11:41:41Z</time>
      </trkpt>
      <trkpt lat="43.64477" lon="1.39298">
        <ele>127</ele>
        <time>2025-02-27T11:41:42Z</time>
      </trkpt>
      <trkpt lat="43.6448" lon="1.39298">
        <ele>127</ele>
        <time>2025-02-27T11:41:43Z</time>
      </trkpt>
      <trkpt lat="43.64483" lon="1.39299">
        <ele>127</ele>
        <time>2025-02-27T11:41:44Z</time>
      </trkpt>
      <trkpt lat="43.64486" lon="1.39299">
        <ele>127</ele>
        <time>2025-02-27T11:41:45Z</time>
      </trkpt>
      <trkpt lat="43.64489" lon="1.39299">
        <ele>127</ele>
        <time>2025-02-27T11:41:46Z</time>
      </trkpt>
      <trkpt lat="43.64491" lon="1.39299">
        <ele>127</ele>
        <time>2025-02-27T11:41:47Z</time>
      </trkpt>
      <trkpt lat="43.64495" lon="1.39299">
        <ele>127</ele>
        <time>2025-02-27T11:41:48Z</time>
      </trkpt>
      <trkpt lat="43.64498" lon="1.393">
        <ele>127</ele>
        <time>2025-02-27T11:41:49Z</time>
      </trkpt>
      <trkpt lat="43.64501" lon="1.39301">
        <ele>127</ele>
        <time>2025-02-27T11:41:50Z</time>
      </trkpt>
      <trkpt lat="43.64504" lon="1.39301">
        <ele>127</ele>
        <time>2025-02-27T11:41:51Z</time>
      </trkpt>
      <trkpt lat="43.64509" lon="1.39302">
        <ele>127</ele>
        <time>2025-02-27T11:41:52Z</time>
      </trkpt>
      <trkpt lat="43.64509" lon="1.39302">
        <ele>127</ele>
        <time>2025-02-27T11:41:53Z</time>
      </trkpt>
      <trkpt lat="43.64511" lon="1.39303">
        <ele>127</ele>
        <time>2025-02-27T11:41:54Z</time>
      </trkpt>
      <trkpt lat="43.64513" lon="1.39303">
        <ele>127</ele>
        <time>2025-02-27T11:41:55Z</time>
      </trkpt>
      <trkpt lat="43.64513" lon="1.39303">
        <ele>127</ele>
        <time>2025-02-27T11:41:56Z</time>
      </trkpt>
      <trkpt lat="43.64516" lon="1.39304">
        <ele>126</ele>
        <time>2025-02-27T11:41:57Z</time>
      </trkpt>
      <trkpt lat="43.64516" lon="1.39304">
        <ele>126</ele>
        <time>2025-02-27T11:41:58Z</time>
      </trkpt>
      <trkpt lat="43.64518" lon="1.39305">
        <ele>126</ele>
        <time>2025-02-27T11:41:59Z</time>
      </trkpt>
      <trkpt lat="43.64518" lon="1.39305">
        <ele>125</ele>
        <time>2025-02-27T11:42:00Z</time>
      </trkpt>
      <trkpt lat="43.6452" lon="1.39304">
        <ele>125</ele>
        <time>2025-02-27T11:42:01Z</time>
      </trkpt>
      <trkpt lat="43.6452" lon="1.39304">
        <ele>126</ele>
        <time>2025-02-27T11:42:02Z</time>
      </trkpt>
      <trkpt lat="43.6452" lon="1.39304">
        <ele>126</ele>
        <time>2025-02-27T11:42:03Z</time>
      </trkpt>
      <trkpt lat="43.6452" lon="1.39304">
        <ele>126</ele>
        <time>2025-02-27T11:42:04Z</time>
      </trkpt>
      <trkpt lat="43.6452" lon="1.39304">
        <ele>126</ele>
        <time>2025-02-27T11:42:05Z</time>
      </trkpt>
      <trkpt lat="43.64518" lon="1.39303">
        <ele>126</ele>
        <time>2025-02-27T11:42:06Z</time>
      </trkpt>
      <trkpt lat="43.64518" lon="1.39303">
        <ele>126</ele>
        <time>2025-02-27T11:42:07Z</time>
      </trkpt>
      <trkpt lat="43.64515" lon="1.39302">
        <ele>126</ele>
        <time>2025-02-27T11:42:08Z</time>
      </trkpt>
      <trkpt lat="43.64515" lon="1.39302">
        <ele>126</ele>
        <time>2025-02-27T11:42:09Z</time>
      </trkpt>
      <trkpt lat="43.64513" lon="1.39303">
        <ele>126</ele>
        <time>2025-02-27T11:42:10Z</time>
      </trkpt>
      <trkpt lat="43.64511" lon="1.39303">
        <ele>126</ele>
        <time>2025-02-27T11:42:11Z</time>
      </trkpt>
      <trkpt lat="43.64511" lon="1.39303">
        <ele>126</ele>
        <time>2025-02-27T11:42:12Z</time>
      </trkpt>
      <trkpt lat="43.64511" lon="1.39303">
        <ele>126</ele>
        <time>2025-02-27T11:42:13Z</time>
      </trkpt>
      <trkpt lat="43.64508" lon="1.39303">
        <ele>126</ele>
        <time>2025-02-27T11:42:14Z</time>
      </trkpt>
      <trkpt lat="43.64508" lon="1.39303">
        <ele>126</ele>
        <time>2025-02-27T11:42:15Z</time>
      </trkpt>
      <trkpt lat="43.64505" lon="1.39303">
        <ele>125</ele>
        <time>2025-02-27T11:42:16Z</time>
      </trkpt>
      <trkpt lat="43.64505" lon="1.39303">
        <ele>126</ele>
        <time>2025-02-27T11:42:17Z</time>
      </trkpt>
      <trkpt lat="43.64503" lon="1.39304">
        <ele>126</ele>
        <time>2025-02-27T11:42:18Z</time>
      </trkpt>
      <trkpt lat="43.64503" lon="1.39304">
        <ele>126</ele>
        <time>2025-02-27T11:42:19Z</time>
      </trkpt>
      <trkpt lat="43.645" lon="1.39304">
        <ele>126</ele>
        <time>2025-02-27T11:42:20Z</time>
      </trkpt>
      <trkpt lat="43.645" lon="1.39304">
        <ele>126</ele>
        <time>2025-02-27T11:42:21Z</time>
      </trkpt>
      <trkpt lat="43.64498" lon="1.39305">
        <ele>126</ele>
        <time>2025-02-27T11:42:22Z</time>
      </trkpt>
      <trkpt lat="43.64498" lon="1.39305">
        <ele>127</ele>
        <time>2025-02-27T11:42:23Z</time>
      </trkpt>
      <trkpt lat="43.64496" lon="1.39305">
        <ele>127</ele>
        <time>2025-02-27T11:42:24Z</time>
      </trkpt>
      <trkpt lat="43.64496" lon="1.39305">
        <ele>127</ele>
        <time>2025-02-27T11:42:25Z</time>
      </trkpt>
      <trkpt lat="43.64493" lon="1.39305">
        <ele>126</ele>
        <time>2025-02-27T11:42:26Z</time>
      </trkpt>
      <trkpt lat="43.64493" lon="1.39305">
        <ele>126</ele>
        <time>2025-02-27T11:42:27Z</time>
      </trkpt>
      <trkpt lat="43.64493" lon="1.39305">
        <ele>126</ele>
        <time>2025-02-27T11:42:28Z</time>
      </trkpt>
      <trkpt lat="43.64493" lon="1.39305">
        <ele>126</ele>
        <time>2025-02-27T11:42:29Z</time>
      </trkpt>
      <trkpt lat="43.6449" lon="1.39305">
        <ele>126</ele>
        <time>2025-02-27T11:42:30Z</time>
      </trkpt>
      <trkpt lat="43.6449" lon="1.39305">
        <ele>126</ele>
        <time>2025-02-27T11:42:31Z</time>
      </trkpt>
      <trkpt lat="43.6449" lon="1.39305">
        <ele>126</ele>
        <time>2025-02-27T11:42:32Z</time>
      </trkpt>
      <trkpt lat="43.64488" lon="1.39306">
        <ele>126</ele>
        <time>2025-02-27T11:42:33Z</time>
      </trkpt>
      <trkpt lat="43.64488" lon="1.39306">
        <ele>127</ele>
        <time>2025-02-27T11:42:34Z</time>
      </trkpt>
      <trkpt lat="43.64485" lon="1.39306">
        <ele>127</ele>
        <time>2025-02-27T11:42:35Z</time>
      </trkpt>
      <trkpt lat="43.64485" lon="1.39306">
        <ele>128</ele>
        <time>2025-02-27T11:42:36Z</time>
      </trkpt>
      <trkpt lat="43.64481" lon="1.39306">
        <ele>128</ele>
        <time>2025-02-27T11:42:37Z</time>
      </trkpt>
      <trkpt lat="43.64481" lon="1.39306">
        <ele>128</ele>
        <time>2025-02-27T11:42:38Z</time>
      </trkpt>
      <trkpt lat="43.64479" lon="1.39306">
        <ele>128</ele>
        <time>2025-02-27T11:42:39Z</time>
      </trkpt>
      <trkpt lat="43.64479" lon="1.39306">
        <ele>128</ele>
        <time>2025-02-27T11:42:40Z</time>
      </trkpt>
      <trkpt lat="43.64476" lon="1.39306">
        <ele>128</ele>
        <time>2025-02-27T11:42:41Z</time>
      </trkpt>
      <trkpt lat="43.64473" lon="1.39306">
        <ele>128</ele>
        <time>2025-02-27T11:42:42Z</time>
      </trkpt>
      <trkpt lat="43.64473" lon="1.39306">
        <ele>128</ele>
        <time>2025-02-27T11:42:43Z</time>
      </trkpt>
      <trkpt lat="43.64473" lon="1.39306">
        <ele>128</ele>
        <time>2025-02-27T11:42:44Z</time>
      </trkpt>
      <trkpt lat="43.6447" lon="1.39306">
        <ele>128</ele>
        <time>2025-02-27T11:42:45Z</time>
      </trkpt>
      <trkpt lat="43.6447" lon="1.39306">
        <ele>128</ele>
        <time>2025-02-27T11:42:46Z</time>
      </trkpt>
      <trkpt lat="43.64468" lon="1.39306">
        <ele>128</ele>
        <time>2025-02-27T11:42:47Z</time>
      </trkpt>
      <trkpt lat="43.64468" lon="1.39306">
        <ele>128</ele>
        <time>2025-02-27T11:42:48Z</time>
      </trkpt>
      <trkpt lat="43.64464" lon="1.39307">
        <ele>128</ele>
        <time>2025-02-27T11:42:49Z</time>
      </trkpt>
      <trkpt lat="43.64464" lon="1.39307">
        <ele>128</ele>
        <time>2025-02-27T11:42:50Z</time>
      </trkpt>
      <trkpt lat="43.64464" lon="1.39307">
        <ele>128</ele>
        <time>2025-02-27T11:42:51Z</time>
      </trkpt>
      <trkpt lat="43.64461" lon="1.39307">
        <ele>128</ele>
        <time>2025-02-27T11:42:52Z</time>
      </trkpt>
      <trkpt lat="43.64461" lon="1.39307">
        <ele>128</ele>
        <time>2025-02-27T11:42:53Z</time>
      </trkpt>
      <trkpt lat="43.64459" lon="1.39306">
        <ele>128</ele>
        <time>2025-02-27T11:42:54Z</time>
      </trkpt>
      <trkpt lat="43.64459" lon="1.39306">
        <ele>128</ele>
        <time>2025-02-27T11:42:55Z</time>
      </trkpt>
      <trkpt lat="43.64459" lon="1.39306">
        <ele>128</ele>
        <time>2025-02-27T11:42:56Z</time>
      </trkpt>
      <trkpt lat="43.64456" lon="1.39307">
        <ele>128</ele>
        <time>2025-02-27T11:42:57Z</time>
      </trkpt>
      <trkpt lat="43.64456" lon="1.39307">
        <ele>128</ele>
        <time>2025-02-27T11:42:58Z</time>
      </trkpt>
      <trkpt lat="43.64454" lon="1.39307">
        <ele>128</ele>
        <time>2025-02-27T11:42:59Z</time>
      </trkpt>
      <trkpt lat="43.64454" lon="1.39307">
        <ele>128</ele>
        <time>2025-02-27T11:43:00Z</time>
      </trkpt>
      <trkpt lat="43.64452" lon="1.39308">
        <ele>128</ele>
        <time>2025-02-27T11:43:01Z</time>
      </trkpt>
      <trkpt lat="43.64452" lon="1.39308">
        <ele>128</ele>
        <time>2025-02-27T11:43:02Z</time>
      </trkpt>
      <trkpt lat="43.6445" lon="1.39309">
        <ele>128</ele>
        <time>2025-02-27T11:43:03Z</time>
      </trkpt>
      <trkpt lat="43.6445" lon="1.39309">
        <ele>128</ele>
        <time>2025-02-27T11:43:04Z</time>
      </trkpt>
      <trkpt lat="43.64447" lon="1.39309">
        <ele>128</ele>
        <time>2025-02-27T11:43:05Z</time>
      </trkpt>
      <trkpt lat="43.64447" lon="1.39309">
        <ele>128</ele>
        <time>2025-02-27T11:43:06Z</time>
      </trkpt>
      <trkpt lat="43.64445" lon="1.39309">
        <ele>127</ele>
        <time>2025-02-27T11:43:07Z</time>
      </trkpt>
      <trkpt lat="43.64445" lon="1.39309">
        <ele>127</ele>
        <time>2025-02-27T11:43:08Z</time>
      </trkpt>
      <trkpt lat="43.64443" lon="1.39308">
        <ele>127</ele>
        <time>2025-02-27T11:43:09Z</time>
      </trkpt>
      <trkpt lat="43.64443" lon="1.39308">
        <ele>127</ele>
        <time>2025-02-27T11:43:10Z</time>
      </trkpt>
      <trkpt lat="43.6444" lon="1.39308">
        <ele>127</ele>
        <time>2025-02-27T11:43:11Z</time>
      </trkpt>
      <trkpt lat="43.6444" lon="1.39308">
        <ele>127</ele>
        <time>2025-02-27T11:43:12Z</time>
      </trkpt>
      <trkpt lat="43.64438" lon="1.39308">
        <ele>127</ele>
        <time>2025-02-27T11:43:13Z</time>
      </trkpt>
      <trkpt lat="43.64438" lon="1.39308">
        <ele>127</ele>
        <time>2025-02-27T11:43:14Z</time>
      </trkpt>
      <trkpt lat="43.64435" lon="1.39308">
        <ele>127</ele>
        <time>2025-02-27T11:43:15Z</time>
      </trkpt>
      <trkpt lat="43.64435" lon="1.39308">
        <ele>127</ele>
        <time>2025-02-27T11:43:16Z</time>
      </trkpt>
      <trkpt lat="43.64432" lon="1.39309">
        <ele>127</ele>
        <time>2025-02-27T11:43:17Z</time>
      </trkpt>
      <trkpt lat="43.64432" lon="1.39309">
        <ele>127</ele>
        <time>2025-02-27T11:43:18Z</time>
      </trkpt>
      <trkpt lat="43.6443" lon="1.39309">
        <ele>127</ele>
        <time>2025-02-27T11:43:19Z</time>
      </trkpt>
      <trkpt lat="43.6443" lon="1.39309">
        <ele>127</ele>
        <time>2025-02-27T11:43:20Z</time>
      </trkpt>
      <trkpt lat="43.64427" lon="1.3931">
        <ele>127</ele>
        <time>2025-02-27T11:43:21Z</time>
      </trkpt>
      <trkpt lat="43.64427" lon="1.3931">
        <ele>127</ele>
        <time>2025-02-27T11:43:22Z</time>
      </trkpt>
      <trkpt lat="43.64425" lon="1.3931">
        <ele>127</ele>
        <time>2025-02-27T11:43:23Z</time>
      </trkpt>
      <trkpt lat="43.64425" lon="1.3931">
        <ele>127</ele>
        <time>2025-02-27T11:43:24Z</time>
      </trkpt>
      <trkpt lat="43.64422" lon="1.3931">
        <ele>126</ele>
        <time>2025-02-27T11:43:25Z</time>
      </trkpt>
      <trkpt lat="43.64422" lon="1.3931">
        <ele>126</ele>
        <time>2025-02-27T11:43:26Z</time>
      </trkpt>
      <trkpt lat="43.64419" lon="1.3931">
        <ele>126</ele>
        <time>2025-02-27T11:43:27Z</time>
      </trkpt>
      <trkpt lat="43.64419" lon="1.3931">
        <ele>126</ele>
        <time>2025-02-27T11:43:28Z</time>
      </trkpt>
      <trkpt lat="43.64416" lon="1.39311">
        <ele>126</ele>
        <time>2025-02-27T11:43:29Z</time>
      </trkpt>
      <trkpt lat="43.64416" lon="1.39311">
        <ele>126</ele>
        <time>2025-02-27T11:43:30Z</time>
      </trkpt>
      <trkpt lat="43.64413" lon="1.39311">
        <ele>126</ele>
        <time>2025-02-27T11:43:31Z</time>
      </trkpt>
      <trkpt lat="43.64413" lon="1.39311">
        <ele>126</ele>
        <time>2025-02-27T11:43:32Z</time>
      </trkpt>
      <trkpt lat="43.64411" lon="1.39312">
        <ele>126</ele>
        <time>2025-02-27T11:43:33Z</time>
      </trkpt>
      <trkpt lat="43.64411" lon="1.39312">
        <ele>126</ele>
        <time>2025-02-27T11:43:34Z</time>
      </trkpt>
      <trkpt lat="43.64409" lon="1.39312">
        <ele>125</ele>
        <time>2025-02-27T11:43:35Z</time>
      </trkpt>
      <trkpt lat="43.64409" lon="1.39312">
        <ele>125</ele>
        <time>2025-02-27T11:43:36Z</time>
      </trkpt>
      <trkpt lat="43.64409" lon="1.39312">
        <ele>125</ele>
        <time>2025-02-27T11:43:37Z</time>
      </trkpt>
      <trkpt lat="43.64406" lon="1.39312">
        <ele>125</ele>
        <time>2025-02-27T11:43:38Z</time>
      </trkpt>
      <trkpt lat="43.64406" lon="1.39312">
        <ele>125</ele>
        <time>2025-02-27T11:43:39Z</time>
      </trkpt>
      <trkpt lat="43.64406" lon="1.39312">
        <ele>125</ele>
        <time>2025-02-27T11:43:40Z</time>
      </trkpt>
      <trkpt lat="43.64404" lon="1.39311">
        <ele>125</ele>
        <time>2025-02-27T11:43:41Z</time>
      </trkpt>
      <trkpt lat="43.64404" lon="1.39311">
        <ele>125</ele>
        <time>2025-02-27T11:43:42Z</time>
      </trkpt>
      <trkpt lat="43.64404" lon="1.39311">
        <ele>125</ele>
        <time>2025-02-27T11:43:43Z</time>
      </trkpt>
      <trkpt lat="43.64404" lon="1.39311">
        <ele>125</ele>
        <time>2025-02-27T11:43:44Z</time>
      </trkpt>
      <trkpt lat="43.64404" lon="1.39311">
        <ele>125</ele>
        <time>2025-02-27T11:43:45Z</time>
      </trkpt>
      <trkpt lat="43.64404" lon="1.39311">
        <ele>125</ele>
        <time>2025-02-27T11:43:46Z</time>
      </trkpt>
      <trkpt lat="43.64404" lon="1.39311">
        <ele>126</ele>
        <time>2025-02-27T11:43:47Z</time>
      </trkpt>
      <trkpt lat="43.64404" lon="1.39311">
        <ele>126</ele>
        <time>2025-02-27T11:43:48Z</time>
      </trkpt>
      <trkpt lat="43.64407" lon="1.39309">
        <ele>126</ele>
        <time>2025-02-27T11:43:49Z</time>
      </trkpt>
      <trkpt lat="43.64407" lon="1.39309">
        <ele>126</ele>
        <time>2025-02-27T11:43:50Z</time>
      </trkpt>
      <trkpt lat="43.64409" lon="1.3931">
        <ele>125</ele>
        <time>2025-02-27T11:43:51Z</time>
      </trkpt>
      <trkpt lat="43.64409" lon="1.3931">
        <ele>125</ele>
        <time>2025-02-27T11:43:52Z</time>
      </trkpt>
      <trkpt lat="43.64409" lon="1.3931">
        <ele>125</ele>
        <time>2025-02-27T11:43:53Z</time>
      </trkpt>
      <trkpt lat="43.64409" lon="1.3931">
        <ele>125</ele>
        <time>2025-02-27T11:43:54Z</time>
      </trkpt>
      <trkpt lat="43.64409" lon="1.3931">
        <ele>125</ele>
        <time>2025-02-27T11:43:55Z</time>
      </trkpt>
      <trkpt lat="43.64409" lon="1.3931">
        <ele>125</ele>
        <time>2025-02-27T11:43:56Z</time>
      </trkpt>
      <trkpt lat="43.64409" lon="1.3931">
        <ele>125</ele>
        <time>2025-02-27T11:43:57Z</time>
      </trkpt>
      <trkpt lat="43.64409" lon="1.3931">
        <ele>125</ele>
        <time>2025-02-27T11:43:58Z</time>
      </trkpt>
      <trkpt lat="43.64409" lon="1.3931">
        <ele>125</ele>
        <time>2025-02-27T11:43:59Z</time>
      </trkpt>
      <trkpt lat="43.64409" lon="1.3931">
        <ele>125</ele>
        <time>2025-02-27T11:44:00Z</time>
      </trkpt>
      <trkpt lat="43.64409" lon="1.3931">
        <ele>125</ele>
        <time>2025-02-27T11:44:01Z</time>
      </trkpt>
      <trkpt lat="43.64409" lon="1.3931">
        <ele>125</ele>
        <time>2025-02-27T11:44:02Z</time>
      </trkpt>
      <trkpt lat="43.6441" lon="1.39308">
        <ele>125</ele>
        <time>2025-02-27T11:44:03Z</time>
      </trkpt>
      <trkpt lat="43.6441" lon="1.39308">
        <ele>125</ele>
        <time>2025-02-27T11:44:04Z</time>
      </trkpt>
      <trkpt lat="43.64417" lon="1.39303">
        <ele>125</ele>
        <time>2025-02-27T11:44:05Z</time>
      </trkpt>
      <trkpt lat="43.64417" lon="1.39303">
        <ele>125</ele>
        <time>2025-02-27T11:44:06Z</time>
      </trkpt>
      <trkpt lat="43.64424" lon="1.393">
        <ele>125</ele>
        <time>2025-02-27T11:44:07Z</time>
      </trkpt>
      <trkpt lat="43.64426" lon="1.39299">
        <ele>125</ele>
        <time>2025-02-27T11:44:08Z</time>
      </trkpt>
      <trkpt lat="43.64431" lon="1.39298">
        <ele>125</ele>
        <time>2025-02-27T11:44:09Z</time>
      </trkpt>
      <trkpt lat="43.64435" lon="1.39297">
        <ele>126</ele>
        <time>2025-02-27T11:44:10Z</time>
      </trkpt>
      <trkpt lat="43.64438" lon="1.39297">
        <ele>127</ele>
        <time>2025-02-27T11:44:11Z</time>
      </trkpt>
      <trkpt lat="43.64442" lon="1.39296">
        <ele>127</ele>
        <time>2025-02-27T11:44:12Z</time>
      </trkpt>
      <trkpt lat="43.64446" lon="1.39296">
        <ele>128</ele>
        <time>2025-02-27T11:44:13Z</time>
      </trkpt>
      <trkpt lat="43.6445" lon="1.39296">
        <ele>128</ele>
        <time>2025-02-27T11:44:14Z</time>
      </trkpt>
      <trkpt lat="43.64453" lon="1.39295">
        <ele>129</ele>
        <time>2025-02-27T11:44:15Z</time>
      </trkpt>
      <trkpt lat="43.64455" lon="1.39292">
        <ele>129</ele>
        <time>2025-02-27T11:44:16Z</time>
      </trkpt>
      <trkpt lat="43.64457" lon="1.39289">
        <ele>129</ele>
        <time>2025-02-27T11:44:17Z</time>
      </trkpt>
      <trkpt lat="43.64456" lon="1.39287">
        <ele>129</ele>
        <time>2025-02-27T11:44:18Z</time>
      </trkpt>
      <trkpt lat="43.64454" lon="1.39281">
        <ele>129</ele>
        <time>2025-02-27T11:44:19Z</time>
      </trkpt>
      <trkpt lat="43.64453" lon="1.39279">
        <ele>129</ele>
        <time>2025-02-27T11:44:20Z</time>
      </trkpt>
      <trkpt lat="43.64452" lon="1.39275">
        <ele>129</ele>
        <time>2025-02-27T11:44:21Z</time>
      </trkpt>
      <trkpt lat="43.6445" lon="1.3927">
        <ele>129</ele>
        <time>2025-02-27T11:44:22Z</time>
      </trkpt>
      <trkpt lat="43.64449" lon="1.39266">
        <ele>129</ele>
        <time>2025-02-27T11:44:23Z</time>
      </trkpt>
      <trkpt lat="43.64448" lon="1.39262">
        <ele>129</ele>
        <time>2025-02-27T11:44:24Z</time>
      </trkpt>
      <trkpt lat="43.64446" lon="1.39258">
        <ele>129</ele>
        <time>2025-02-27T11:44:25Z</time>
      </trkpt>
      <trkpt lat="43.64444" lon="1.39254">
        <ele>129</ele>
        <time>2025-02-27T11:44:26Z</time>
      </trkpt>
      <trkpt lat="43.64442" lon="1.39249">
        <ele>130</ele>
        <time>2025-02-27T11:44:27Z</time>
      </trkpt>
      <trkpt lat="43.6444" lon="1.39245">
        <ele>130</ele>
        <time>2025-02-27T11:44:28Z</time>
      </trkpt>
      <trkpt lat="43.64437" lon="1.3924">
        <ele>130</ele>
        <time>2025-02-27T11:44:29Z</time>
      </trkpt>
      <trkpt lat="43.64434" lon="1.39234">
        <ele>129</ele>
        <time>2025-02-27T11:44:30Z</time>
      </trkpt>
      <trkpt lat="43.64432" lon="1.39232">
        <ele>129</ele>
        <time>2025-02-27T11:44:31Z</time>
      </trkpt>
      <trkpt lat="43.6443" lon="1.39227">
        <ele>129</ele>
        <time>2025-02-27T11:44:32Z</time>
      </trkpt>
      <trkpt lat="43.64426" lon="1.39219">
        <ele>129</ele>
        <time>2025-02-27T11:44:33Z</time>
      </trkpt>
      <trkpt lat="43.64426" lon="1.39219">
        <ele>130</ele>
        <time>2025-02-27T11:44:34Z</time>
      </trkpt>
      <trkpt lat="43.64423" lon="1.39214">
        <ele>130</ele>
        <time>2025-02-27T11:44:35Z</time>
      </trkpt>
      <trkpt lat="43.64421" lon="1.3921">
        <ele>130</ele>
        <time>2025-02-27T11:44:36Z</time>
      </trkpt>
      <trkpt lat="43.64419" lon="1.39205">
        <ele>130</ele>
        <time>2025-02-27T11:44:37Z</time>
      </trkpt>
      <trkpt lat="43.64415" lon="1.39196">
        <ele>131</ele>
        <time>2025-02-27T11:44:38Z</time>
      </trkpt>
      <trkpt lat="43.64415" lon="1.39196">
        <ele>131</ele>
        <time>2025-02-27T11:44:39Z</time>
      </trkpt>
      <trkpt lat="43.64414" lon="1.39192">
        <ele>131</ele>
        <time>2025-02-27T11:44:40Z</time>
      </trkpt>
      <trkpt lat="43.64412" lon="1.39187">
        <ele>131</ele>
        <time>2025-02-27T11:44:41Z</time>
      </trkpt>
      <trkpt lat="43.64411" lon="1.39182">
        <ele>131</ele>
        <time>2025-02-27T11:44:42Z</time>
      </trkpt>
      <trkpt lat="43.6441" lon="1.39177">
        <ele>132</ele>
        <time>2025-02-27T11:44:43Z</time>
      </trkpt>
      <trkpt lat="43.64409" lon="1.39169">
        <ele>132</ele>
        <time>2025-02-27T11:44:44Z</time>
      </trkpt>
      <trkpt lat="43.64409" lon="1.39167">
        <ele>132</ele>
        <time>2025-02-27T11:44:45Z</time>
      </trkpt>
      <trkpt lat="43.64409" lon="1.39162">
        <ele>133</ele>
        <time>2025-02-27T11:44:46Z</time>
      </trkpt>
      <trkpt lat="43.64408" lon="1.39158">
        <ele>133</ele>
        <time>2025-02-27T11:44:47Z</time>
      </trkpt>
      <trkpt lat="43.64409" lon="1.39153">
        <ele>134</ele>
        <time>2025-02-27T11:44:48Z</time>
      </trkpt>
      <trkpt lat="43.6441" lon="1.39148">
        <ele>134</ele>
        <time>2025-02-27T11:44:49Z</time>
      </trkpt>
      <trkpt lat="43.64411" lon="1.39143">
        <ele>134</ele>
        <time>2025-02-27T11:44:50Z</time>
      </trkpt>
      <trkpt lat="43.64413" lon="1.39138">
        <ele>134</ele>
        <time>2025-02-27T11:44:51Z</time>
      </trkpt>
      <trkpt lat="43.64415" lon="1.39131">
        <ele>134</ele>
        <time>2025-02-27T11:44:52Z</time>
      </trkpt>
      <trkpt lat="43.64416" lon="1.39129">
        <ele>135</ele>
        <time>2025-02-27T11:44:53Z</time>
      </trkpt>
      <trkpt lat="43.64417" lon="1.39125">
        <ele>136</ele>
        <time>2025-02-27T11:44:54Z</time>
      </trkpt>
      <trkpt lat="43.64419" lon="1.39121">
        <ele>137</ele>
        <time>2025-02-27T11:44:55Z</time>
      </trkpt>
      <trkpt lat="43.64419" lon="1.39118">
        <ele>137</ele>
        <time>2025-02-27T11:44:56Z</time>
      </trkpt>
      <trkpt lat="43.64419" lon="1.39118">
        <ele>137</ele>
        <time>2025-02-27T11:44:57Z</time>
      </trkpt>
      <trkpt lat="43.64419" lon="1.39118">
        <ele>137</ele>
        <time>2025-02-27T11:44:58Z</time>
      </trkpt>
      <trkpt lat="43.64417" lon="1.39119">
        <ele>138</ele>
        <time>2025-02-27T11:44:59Z</time>
      </trkpt>
      <trkpt lat="43.64417" lon="1.39119">
        <ele>138</ele>
        <time>2025-02-27T11:45:00Z</time>
      </trkpt>
      <trkpt lat="43.64417" lon="1.39119">
        <ele>138</ele>
        <time>2025-02-27T11:45:01Z</time>
      </trkpt>
      <trkpt lat="43.64416" lon="1.39123">
        <ele>138</ele>
        <time>2025-02-27T11:45:02Z</time>
      </trkpt>
      <trkpt lat="43.64416" lon="1.39123">
        <ele>138</ele>
        <time>2025-02-27T11:45:03Z</time>
      </trkpt>
      <trkpt lat="43.64415" lon="1.39127">
        <ele>138</ele>
        <time>2025-02-27T11:45:04Z</time>
      </trkpt>
      <trkpt lat="43.64415" lon="1.39127">
        <ele>138</ele>
        <time>2025-02-27T11:45:05Z</time>
      </trkpt>
      <trkpt lat="43.64414" lon="1.39133">
        <ele>138</ele>
        <time>2025-02-27T11:45:06Z</time>
      </trkpt>
      <trkpt lat="43.64413" lon="1.39134">
        <ele>137</ele>
        <time>2025-02-27T11:45:07Z</time>
      </trkpt>
      <trkpt lat="43.64412" lon="1.39137">
        <ele>137</ele>
        <time>2025-02-27T11:45:08Z</time>
      </trkpt>
      <trkpt lat="43.64411" lon="1.3914">
        <ele>137</ele>
        <time>2025-02-27T11:45:09Z</time>
      </trkpt>
      <trkpt lat="43.64411" lon="1.39142">
        <ele>137</ele>
        <time>2025-02-27T11:45:10Z</time>
      </trkpt>
      <trkpt lat="43.6441" lon="1.39144">
        <ele>136</ele>
        <time>2025-02-27T11:45:11Z</time>
      </trkpt>
      <trkpt lat="43.6441" lon="1.39147">
        <ele>136</ele>
        <time>2025-02-27T11:45:12Z</time>
      </trkpt>
      <trkpt lat="43.64409" lon="1.3915">
        <ele>136</ele>
        <time>2025-02-27T11:45:13Z</time>
      </trkpt>
      <trkpt lat="43.64409" lon="1.39153">
        <ele>136</ele>
        <time>2025-02-27T11:45:14Z</time>
      </trkpt>
      <trkpt lat="43.64409" lon="1.39153">
        <ele>136</ele>
        <time>2025-02-27T11:45:15Z</time>
      </trkpt>
      <trkpt lat="43.64409" lon="1.39158">
        <ele>136</ele>
        <time>2025-02-27T11:45:16Z</time>
      </trkpt>
      <trkpt lat="43.64409" lon="1.3916">
        <ele>136</ele>
        <time>2025-02-27T11:45:17Z</time>
      </trkpt>
      <trkpt lat="43.64409" lon="1.3916">
        <ele>135</ele>
        <time>2025-02-27T11:45:18Z</time>
      </trkpt>
      <trkpt lat="43.64411" lon="1.39165">
        <ele>135</ele>
        <time>2025-02-27T11:45:19Z</time>
      </trkpt>
      <trkpt lat="43.64412" lon="1.39168">
        <ele>135</ele>
        <time>2025-02-27T11:45:20Z</time>
      </trkpt>
      <trkpt lat="43.64413" lon="1.39173">
        <ele>134</ele>
        <time>2025-02-27T11:45:21Z</time>
      </trkpt>
      <trkpt lat="43.64413" lon="1.39173">
        <ele>134</ele>
        <time>2025-02-27T11:45:22Z</time>
      </trkpt>
      <trkpt lat="43.64414" lon="1.39178">
        <ele>134</ele>
        <time>2025-02-27T11:45:23Z</time>
      </trkpt>
      <trkpt lat="43.64414" lon="1.39179">
        <ele>133</ele>
        <time>2025-02-27T11:45:24Z</time>
      </trkpt>
      <trkpt lat="43.64415" lon="1.39182">
        <ele>133</ele>
        <time>2025-02-27T11:45:25Z</time>
      </trkpt>
      <trkpt lat="43.64416" lon="1.39184">
        <ele>133</ele>
        <time>2025-02-27T11:45:26Z</time>
      </trkpt>
      <trkpt lat="43.64417" lon="1.39186">
        <ele>132</ele>
        <time>2025-02-27T11:45:27Z</time>
      </trkpt>
      <trkpt lat="43.64418" lon="1.39188">
        <ele>132</ele>
        <time>2025-02-27T11:45:28Z</time>
      </trkpt>
      <trkpt lat="43.64419" lon="1.39191">
        <ele>132</ele>
        <time>2025-02-27T11:45:29Z</time>
      </trkpt>
      <trkpt lat="43.64421" lon="1.39193">
        <ele>132</ele>
        <time>2025-02-27T11:45:30Z</time>
      </trkpt>
      <trkpt lat="43.64422" lon="1.39195">
        <ele>132</ele>
        <time>2025-02-27T11:45:31Z</time>
      </trkpt>
      <trkpt lat="43.64423" lon="1.39198">
        <ele>132</ele>
        <time>2025-02-27T11:45:32Z</time>
      </trkpt>
      <trkpt lat="43.64426" lon="1.39201">
        <ele>132</ele>
        <time>2025-02-27T11:45:33Z</time>
      </trkpt>
      <trkpt lat="43.64426" lon="1.39203">
        <ele>132</ele>
        <time>2025-02-27T11:45:34Z</time>
      </trkpt>
      <trkpt lat="43.64428" lon="1.39206">
        <ele>132</ele>
        <time>2025-02-27T11:45:35Z</time>
      </trkpt>
      <trkpt lat="43.64429" lon="1.39208">
        <ele>131</ele>
        <time>2025-02-27T11:45:36Z</time>
      </trkpt>
      <trkpt lat="43.64431" lon="1.39211">
        <ele>131</ele>
        <time>2025-02-27T11:45:37Z</time>
      </trkpt>
      <trkpt lat="43.64433" lon="1.39213">
        <ele>131</ele>
        <time>2025-02-27T11:45:38Z</time>
      </trkpt>
      <trkpt lat="43.64435" lon="1.39216">
        <ele>131</ele>
        <time>2025-02-27T11:45:39Z</time>
      </trkpt>
      <trkpt lat="43.64438" lon="1.39221">
        <ele>131</ele>
        <time>2025-02-27T11:45:40Z</time>
      </trkpt>
      <trkpt lat="43.64438" lon="1.39221">
        <ele>130</ele>
        <time>2025-02-27T11:45:41Z</time>
      </trkpt>
      <trkpt lat="43.64438" lon="1.39224">
        <ele>130</ele>
        <time>2025-02-27T11:45:42Z</time>
      </trkpt>
      <trkpt lat="43.64439" lon="1.39226">
        <ele>130</ele>
        <time>2025-02-27T11:45:43Z</time>
      </trkpt>
      <trkpt lat="43.64441" lon="1.39229">
        <ele>130</ele>
        <time>2025-02-27T11:45:44Z</time>
      </trkpt>
      <trkpt lat="43.64442" lon="1.39232">
        <ele>130</ele>
        <time>2025-02-27T11:45:45Z</time>
      </trkpt>
      <trkpt lat="43.64444" lon="1.39235">
        <ele>129</ele>
        <time>2025-02-27T11:45:46Z</time>
      </trkpt>
      <trkpt lat="43.64445" lon="1.39237">
        <ele>130</ele>
        <time>2025-02-27T11:45:47Z</time>
      </trkpt>
      <trkpt lat="43.64447" lon="1.39241">
        <ele>130</ele>
        <time>2025-02-27T11:45:48Z</time>
      </trkpt>
      <trkpt lat="43.64448" lon="1.39243">
        <ele>130</ele>
        <time>2025-02-27T11:45:49Z</time>
      </trkpt>
      <trkpt lat="43.6445" lon="1.39246">
        <ele>130</ele>
        <time>2025-02-27T11:45:50Z</time>
      </trkpt>
      <trkpt lat="43.64451" lon="1.3925">
        <ele>130</ele>
        <time>2025-02-27T11:45:51Z</time>
      </trkpt>
      <trkpt lat="43.64452" lon="1.39253">
        <ele>130</ele>
        <time>2025-02-27T11:45:52Z</time>
      </trkpt>
      <trkpt lat="43.64452" lon="1.39256">
        <ele>130</ele>
        <time>2025-02-27T11:45:53Z</time>
      </trkpt>
      <trkpt lat="43.64454" lon="1.39261">
        <ele>129</ele>
        <time>2025-02-27T11:45:54Z</time>
      </trkpt>
      <trkpt lat="43.64455" lon="1.39263">
        <ele>129</ele>
        <time>2025-02-27T11:45:55Z</time>
      </trkpt>
      <trkpt lat="43.64456" lon="1.39266">
        <ele>129</ele>
        <time>2025-02-27T11:45:56Z</time>
      </trkpt>
      <trkpt lat="43.64456" lon="1.39269">
        <ele>129</ele>
        <time>2025-02-27T11:45:57Z</time>
      </trkpt>
      <trkpt lat="43.64457" lon="1.39272">
        <ele>129</ele>
        <time>2025-02-27T11:45:58Z</time>
      </trkpt>
      <trkpt lat="43.64458" lon="1.39275">
        <ele>129</ele>
        <time>2025-02-27T11:45:59Z</time>
      </trkpt>
      <trkpt lat="43.64458" lon="1.39278">
        <ele>129</ele>
        <time>2025-02-27T11:46:00Z</time>
      </trkpt>
      <trkpt lat="43.64458" lon="1.39281">
        <ele>129</ele>
        <time>2025-02-27T11:46:01Z</time>
      </trkpt>
      <trkpt lat="43.64459" lon="1.39284">
        <ele>129</ele>
        <time>2025-02-27T11:46:02Z</time>
      </trkpt>
      <trkpt lat="43.64459" lon="1.39287">
        <ele>129</ele>
        <time>2025-02-27T11:46:03Z</time>
      </trkpt>
      <trkpt lat="43.6446" lon="1.3929">
        <ele>129</ele>
        <time>2025-02-27T11:46:04Z</time>
      </trkpt>
      <trkpt lat="43.64462" lon="1.39294">
        <ele>129</ele>
        <time>2025-02-27T11:46:05Z</time>
      </trkpt>
      <trkpt lat="43.64462" lon="1.39297">
        <ele>129</ele>
        <time>2025-02-27T11:46:06Z</time>
      </trkpt>
      <trkpt lat="43.64462" lon="1.393">
        <ele>129</ele>
        <time>2025-02-27T11:46:07Z</time>
      </trkpt>
      <trkpt lat="43.6446" lon="1.39303">
        <ele>129</ele>
        <time>2025-02-27T11:46:08Z</time>
      </trkpt>
      <trkpt lat="43.64457" lon="1.39304">
        <ele>129</ele>
        <time>2025-02-27T11:46:09Z</time>
      </trkpt>
      <trkpt lat="43.64454" lon="1.39305">
        <ele>129</ele>
        <time>2025-02-27T11:46:10Z</time>
      </trkpt>
      <trkpt lat="43.64451" lon="1.39306">
        <ele>129</ele>
        <time>2025-02-27T11:46:11Z</time>
      </trkpt>
      <trkpt lat="43.64447" lon="1.39307">
        <ele>129</ele>
        <time>2025-02-27T11:46:12Z</time>
      </trkpt>
      <trkpt lat="43.64444" lon="1.39307">
        <ele>128</ele>
        <time>2025-02-27T11:46:13Z</time>
      </trkpt>
      <trkpt lat="43.64441" lon="1.39307">
        <ele>128</ele>
        <time>2025-02-27T11:46:14Z</time>
      </trkpt>
      <trkpt lat="43.64438" lon="1.39308">
        <ele>128</ele>
        <time>2025-02-27T11:46:15Z</time>
      </trkpt>
      <trkpt lat="43.64435" lon="1.39309">
        <ele>128</ele>
        <time>2025-02-27T11:46:16Z</time>
      </trkpt>
      <trkpt lat="43.64432" lon="1.3931">
        <ele>128</ele>
        <time>2025-02-27T11:46:17Z</time>
      </trkpt>
      <trkpt lat="43.64426" lon="1.39312">
        <ele>128</ele>
        <time>2025-02-27T11:46:18Z</time>
      </trkpt>
      <trkpt lat="43.64426" lon="1.39312">
        <ele>127</ele>
        <time>2025-02-27T11:46:19Z</time>
      </trkpt>
      <trkpt lat="43.64421" lon="1.39312">
        <ele>127</ele>
        <time>2025-02-27T11:46:20Z</time>
      </trkpt>
      <trkpt lat="43.6442" lon="1.39313">
        <ele>127</ele>
        <time>2025-02-27T11:46:21Z</time>
      </trkpt>
      <trkpt lat="43.64417" lon="1.39314">
        <ele>127</ele>
        <time>2025-02-27T11:46:22Z</time>
      </trkpt>
      <trkpt lat="43.64415" lon="1.39314">
        <ele>127</ele>
        <time>2025-02-27T11:46:23Z</time>
      </trkpt>
      <trkpt lat="43.64413" lon="1.39315">
        <ele>127</ele>
        <time>2025-02-27T11:46:24Z</time>
      </trkpt>
      <trkpt lat="43.64411" lon="1.39316">
        <ele>127</ele>
        <time>2025-02-27T11:46:25Z</time>
      </trkpt>
      <trkpt lat="43.64409" lon="1.39315">
        <ele>127</ele>
        <time>2025-02-27T11:46:26Z</time>
      </trkpt>
      <trkpt lat="43.64409" lon="1.39315">
        <ele>127</ele>
        <time>2025-02-27T11:46:27Z</time>
      </trkpt>
      <trkpt lat="43.64411" lon="1.39311">
        <ele>127</ele>
        <time>2025-02-27T11:46:28Z</time>
      </trkpt>
      <trkpt lat="43.64416" lon="1.39306">
        <ele>127</ele>
        <time>2025-02-27T11:46:29Z</time>
      </trkpt>
      <trkpt lat="43.64419" lon="1.39305">
        <ele>126</ele>
        <time>2025-02-27T11:46:30Z</time>
      </trkpt>
      <trkpt lat="43.64423" lon="1.39302">
        <ele>127</ele>
        <time>2025-02-27T11:46:31Z</time>
      </trkpt>
      <trkpt lat="43.6443" lon="1.39299">
        <ele>127</ele>
        <time>2025-02-27T11:46:32Z</time>
      </trkpt>
      <trkpt lat="43.64431" lon="1.39298">
        <ele>127</ele>
        <time>2025-02-27T11:46:33Z</time>
      </trkpt>
      <trkpt lat="43.64435" lon="1.39297">
        <ele>127</ele>
        <time>2025-02-27T11:46:34Z</time>
      </trkpt>
      <trkpt lat="43.64439" lon="1.39296">
        <ele>128</ele>
        <time>2025-02-27T11:46:35Z</time>
      </trkpt>
      <trkpt lat="43.64443" lon="1.39296">
        <ele>128</ele>
        <time>2025-02-27T11:46:36Z</time>
      </trkpt>
      <trkpt lat="43.6445" lon="1.39295">
        <ele>128</ele>
        <time>2025-02-27T11:46:37Z</time>
      </trkpt>
      <trkpt lat="43.6445" lon="1.39295">
        <ele>128</ele>
        <time>2025-02-27T11:46:38Z</time>
      </trkpt>
      <trkpt lat="43.64453" lon="1.39295">
        <ele>128</ele>
        <time>2025-02-27T11:46:39Z</time>
      </trkpt>
      <trkpt lat="43.64455" lon="1.39292">
        <ele>129</ele>
        <time>2025-02-27T11:46:40Z</time>
      </trkpt>
      <trkpt lat="43.64456" lon="1.3929">
        <ele>129</ele>
        <time>2025-02-27T11:46:41Z</time>
      </trkpt>
      <trkpt lat="43.64456" lon="1.39287">
        <ele>130</ele>
        <time>2025-02-27T11:46:42Z</time>
      </trkpt>
      <trkpt lat="43.64455" lon="1.39283">
        <ele>130</ele>
        <time>2025-02-27T11:46:43Z</time>
      </trkpt>
      <trkpt lat="43.64454" lon="1.39279">
        <ele>130</ele>
        <time>2025-02-27T11:46:44Z</time>
      </trkpt>
      <trkpt lat="43.64453" lon="1.39276">
        <ele>130</ele>
        <time>2025-02-27T11:46:45Z</time>
      </trkpt>
      <trkpt lat="43.64451" lon="1.39271">
        <ele>130</ele>
        <time>2025-02-27T11:46:46Z</time>
      </trkpt>
      <trkpt lat="43.64449" lon="1.39267">
        <ele>130</ele>
        <time>2025-02-27T11:46:47Z</time>
      </trkpt>
      <trkpt lat="43.64448" lon="1.39262">
        <ele>130</ele>
        <time>2025-02-27T11:46:48Z</time>
      </trkpt>
      <trkpt lat="43.64445" lon="1.39255">
        <ele>130</ele>
        <time>2025-02-27T11:46:49Z</time>
      </trkpt>
      <trkpt lat="43.64444" lon="1.39253">
        <ele>130</ele>
        <time>2025-02-27T11:46:50Z</time>
      </trkpt>
      <trkpt lat="43.64442" lon="1.39249">
        <ele>130</ele>
        <time>2025-02-27T11:46:51Z</time>
      </trkpt>
      <trkpt lat="43.64439" lon="1.39245">
        <ele>130</ele>
        <time>2025-02-27T11:46:52Z</time>
      </trkpt>
      <trkpt lat="43.64437" lon="1.3924">
        <ele>130</ele>
        <time>2025-02-27T11:46:53Z</time>
      </trkpt>
      <trkpt lat="43.64434" lon="1.39234">
        <ele>130</ele>
        <time>2025-02-27T11:46:54Z</time>
      </trkpt>
      <trkpt lat="43.64432" lon="1.39231">
        <ele>130</ele>
        <time>2025-02-27T11:46:55Z</time>
      </trkpt>
      <trkpt lat="43.64429" lon="1.39225">
        <ele>130</ele>
        <time>2025-02-27T11:46:56Z</time>
      </trkpt>
      <trkpt lat="43.64427" lon="1.39223">
        <ele>130</ele>
        <time>2025-02-27T11:46:57Z</time>
      </trkpt>
      <trkpt lat="43.64425" lon="1.39218">
        <ele>130</ele>
        <time>2025-02-27T11:46:58Z</time>
      </trkpt>
      <trkpt lat="43.64422" lon="1.39211">
        <ele>130</ele>
        <time>2025-02-27T11:46:59Z</time>
      </trkpt>
      <trkpt lat="43.64421" lon="1.39209">
        <ele>130</ele>
        <time>2025-02-27T11:47:00Z</time>
      </trkpt>
      <trkpt lat="43.64419" lon="1.39205">
        <ele>131</ele>
        <time>2025-02-27T11:47:01Z</time>
      </trkpt>
      <trkpt lat="43.64416" lon="1.39199">
        <ele>131</ele>
        <time>2025-02-27T11:47:02Z</time>
      </trkpt>
      <trkpt lat="43.64415" lon="1.39197">
        <ele>131</ele>
        <time>2025-02-27T11:47:03Z</time>
      </trkpt>
      <trkpt lat="43.64413" lon="1.39193">
        <ele>131</ele>
        <time>2025-02-27T11:47:04Z</time>
      </trkpt>
      <trkpt lat="43.64412" lon="1.39188">
        <ele>132</ele>
        <time>2025-02-27T11:47:05Z</time>
      </trkpt>
      <trkpt lat="43.6441" lon="1.39183">
        <ele>132</ele>
        <time>2025-02-27T11:47:06Z</time>
      </trkpt>
      <trkpt lat="43.64409" lon="1.39177">
        <ele>132</ele>
        <time>2025-02-27T11:47:07Z</time>
      </trkpt>
      <trkpt lat="43.64409" lon="1.39172">
        <ele>132</ele>
        <time>2025-02-27T11:47:08Z</time>
      </trkpt>
      <trkpt lat="43.64408" lon="1.39167">
        <ele>133</ele>
        <time>2025-02-27T11:47:09Z</time>
      </trkpt>
      <trkpt lat="43.64408" lon="1.39162">
        <ele>133</ele>
        <time>2025-02-27T11:47:10Z</time>
      </trkpt>
      <trkpt lat="43.64408" lon="1.39158">
        <ele>134</ele>
        <time>2025-02-27T11:47:11Z</time>
      </trkpt>
      <trkpt lat="43.64409" lon="1.39154">
        <ele>134</ele>
        <time>2025-02-27T11:47:12Z</time>
      </trkpt>
      <trkpt lat="43.6441" lon="1.3915">
        <ele>134</ele>
        <time>2025-02-27T11:47:13Z</time>
      </trkpt>
      <trkpt lat="43.64412" lon="1.39145">
        <ele>135</ele>
        <time>2025-02-27T11:47:14Z</time>
      </trkpt>
      <trkpt lat="43.64415" lon="1.39136">
        <ele>136</ele>
        <time>2025-02-27T11:47:15Z</time>
      </trkpt>
      <trkpt lat="43.64415" lon="1.39136">
        <ele>137</ele>
        <time>2025-02-27T11:47:16Z</time>
      </trkpt>
      <trkpt lat="43.64416" lon="1.39132">
        <ele>137</ele>
        <time>2025-02-27T11:47:17Z</time>
      </trkpt>
      <trkpt lat="43.64417" lon="1.39128">
        <ele>137</ele>
        <time>2025-02-27T11:47:18Z</time>
      </trkpt>
      <trkpt lat="43.64418" lon="1.39123">
        <ele>138</ele>
        <time>2025-02-27T11:47:19Z</time>
      </trkpt>
      <trkpt lat="43.6442" lon="1.39119">
        <ele>138</ele>
        <time>2025-02-27T11:47:20Z</time>
      </trkpt>
      <trkpt lat="43.6442" lon="1.39117">
        <ele>138</ele>
        <time>2025-02-27T11:47:21Z</time>
      </trkpt>
      <trkpt lat="43.6442" lon="1.39117">
        <ele>138</ele>
        <time>2025-02-27T11:47:22Z</time>
      </trkpt>
      <trkpt lat="43.6442" lon="1.39117">
        <ele>138</ele>
        <time>2025-02-27T11:47:23Z</time>
      </trkpt>
      <trkpt lat="43.64418" lon="1.39119">
        <ele>138</ele>
        <time>2025-02-27T11:47:24Z</time>
      </trkpt>
      <trkpt lat="43.64417" lon="1.39122">
        <ele>138</ele>
        <time>2025-02-27T11:47:25Z</time>
      </trkpt>
      <trkpt lat="43.64416" lon="1.39124">
        <ele>139</ele>
        <time>2025-02-27T11:47:26Z</time>
      </trkpt>
      <trkpt lat="43.64415" lon="1.39127">
        <ele>139</ele>
        <time>2025-02-27T11:47:27Z</time>
      </trkpt>
      <trkpt lat="43.64414" lon="1.39131">
        <ele>139</ele>
        <time>2025-02-27T11:47:28Z</time>
      </trkpt>
      <trkpt lat="43.64414" lon="1.39132">
        <ele>139</ele>
        <time>2025-02-27T11:47:29Z</time>
      </trkpt>
      <trkpt lat="43.64413" lon="1.39136">
        <ele>138</ele>
        <time>2025-02-27T11:47:30Z</time>
      </trkpt>
      <trkpt lat="43.64412" lon="1.39139">
        <ele>138</ele>
        <time>2025-02-27T11:47:31Z</time>
      </trkpt>
      <trkpt lat="43.64411" lon="1.39142">
        <ele>138</ele>
        <time>2025-02-27T11:47:32Z</time>
      </trkpt>
      <trkpt lat="43.6441" lon="1.39144">
        <ele>138</ele>
        <time>2025-02-27T11:47:33Z</time>
      </trkpt>
      <trkpt lat="43.6441" lon="1.39149">
        <ele>137</ele>
        <time>2025-02-27T11:47:34Z</time>
      </trkpt>
      <trkpt lat="43.6441" lon="1.39149">
        <ele>137</ele>
        <time>2025-02-27T11:47:35Z</time>
      </trkpt>
      <trkpt lat="43.6441" lon="1.39153">
        <ele>137</ele>
        <time>2025-02-27T11:47:36Z</time>
      </trkpt>
      <trkpt lat="43.6441" lon="1.39155">
        <ele>137</ele>
        <time>2025-02-27T11:47:37Z</time>
      </trkpt>
      <trkpt lat="43.6441" lon="1.39155">
        <ele>137</ele>
        <time>2025-02-27T11:47:38Z</time>
      </trkpt>
      <trkpt lat="43.6441" lon="1.39159">
        <ele>137</ele>
        <time>2025-02-27T11:47:39Z</time>
      </trkpt>
      <trkpt lat="43.64411" lon="1.39162">
        <ele>136</ele>
        <time>2025-02-27T11:47:40Z</time>
      </trkpt>
      <trkpt lat="43.64411" lon="1.39164">
        <ele>136</ele>
        <time>2025-02-27T11:47:41Z</time>
      </trkpt>
      <trkpt lat="43.64412" lon="1.39168">
        <ele>136</ele>
        <time>2025-02-27T11:47:42Z</time>
      </trkpt>
      <trkpt lat="43.64413" lon="1.39171">
        <ele>135</ele>
        <time>2025-02-27T11:47:43Z</time>
      </trkpt>
      <trkpt lat="43.64414" lon="1.39174">
        <ele>135</ele>
        <time>2025-02-27T11:47:44Z</time>
      </trkpt>
      <trkpt lat="43.64415" lon="1.39176">
        <ele>135</ele>
        <time>2025-02-27T11:47:45Z</time>
      </trkpt>
      <trkpt lat="43.64415" lon="1.39179">
        <ele>135</ele>
        <time>2025-02-27T11:47:46Z</time>
      </trkpt>
      <trkpt lat="43.64416" lon="1.39181">
        <ele>135</ele>
        <time>2025-02-27T11:47:47Z</time>
      </trkpt>
      <trkpt lat="43.64417" lon="1.39184">
        <ele>135</ele>
        <time>2025-02-27T11:47:48Z</time>
      </trkpt>
      <trkpt lat="43.64418" lon="1.39187">
        <ele>134</ele>
        <time>2025-02-27T11:47:49Z</time>
      </trkpt>
      <trkpt lat="43.6442" lon="1.3919">
        <ele>133</ele>
        <time>2025-02-27T11:47:50Z</time>
      </trkpt>
      <trkpt lat="43.64421" lon="1.39193">
        <ele>133</ele>
        <time>2025-02-27T11:47:51Z</time>
      </trkpt>
      <trkpt lat="43.64422" lon="1.39196">
        <ele>133</ele>
        <time>2025-02-27T11:47:52Z</time>
      </trkpt>
      <trkpt lat="43.64424" lon="1.39201">
        <ele>132</ele>
        <time>2025-02-27T11:47:53Z</time>
      </trkpt>
      <trkpt lat="43.64424" lon="1.39201">
        <ele>132</ele>
        <time>2025-02-27T11:47:54Z</time>
      </trkpt>
      <trkpt lat="43.64426" lon="1.39205">
        <ele>132</ele>
        <time>2025-02-27T11:47:55Z</time>
      </trkpt>
      <trkpt lat="43.64427" lon="1.39206">
        <ele>132</ele>
        <time>2025-02-27T11:47:56Z</time>
      </trkpt>
      <trkpt lat="43.64429" lon="1.39208">
        <ele>132</ele>
        <time>2025-02-27T11:47:57Z</time>
      </trkpt>
      <trkpt lat="43.6443" lon="1.39211">
        <ele>132</ele>
        <time>2025-02-27T11:47:58Z</time>
      </trkpt>
      <trkpt lat="43.64432" lon="1.39213">
        <ele>132</ele>
        <time>2025-02-27T11:47:59Z</time>
      </trkpt>
      <trkpt lat="43.64433" lon="1.39215">
        <ele>131</ele>
        <time>2025-02-27T11:48:00Z</time>
      </trkpt>
      <trkpt lat="43.64435" lon="1.39218">
        <ele>131</ele>
        <time>2025-02-27T11:48:01Z</time>
      </trkpt>
      <trkpt lat="43.64436" lon="1.3922">
        <ele>131</ele>
        <time>2025-02-27T11:48:02Z</time>
      </trkpt>
      <trkpt lat="43.64438" lon="1.39223">
        <ele>131</ele>
        <time>2025-02-27T11:48:03Z</time>
      </trkpt>
      <trkpt lat="43.64439" lon="1.39227">
        <ele>131</ele>
        <time>2025-02-27T11:48:04Z</time>
      </trkpt>
      <trkpt lat="43.6444" lon="1.39228">
        <ele>131</ele>
        <time>2025-02-27T11:48:05Z</time>
      </trkpt>
      <trkpt lat="43.64442" lon="1.3923">
        <ele>131</ele>
        <time>2025-02-27T11:48:06Z</time>
      </trkpt>
      <trkpt lat="43.64443" lon="1.39232">
        <ele>131</ele>
        <time>2025-02-27T11:48:07Z</time>
      </trkpt>
      <trkpt lat="43.64445" lon="1.39235">
        <ele>131</ele>
        <time>2025-02-27T11:48:08Z</time>
      </trkpt>
      <trkpt lat="43.64447" lon="1.39238">
        <ele>130</ele>
        <time>2025-02-27T11:48:09Z</time>
      </trkpt>
      <trkpt lat="43.64449" lon="1.39241">
        <ele>130</ele>
        <time>2025-02-27T11:48:10Z</time>
      </trkpt>
      <trkpt lat="43.6445" lon="1.39244">
        <ele>130</ele>
        <time>2025-02-27T11:48:11Z</time>
      </trkpt>
      <trkpt lat="43.64451" lon="1.39247">
        <ele>130</ele>
        <time>2025-02-27T11:48:12Z</time>
      </trkpt>
      <trkpt lat="43.64452" lon="1.3925">
        <ele>130</ele>
        <time>2025-02-27T11:48:13Z</time>
      </trkpt>
      <trkpt lat="43.64453" lon="1.39255">
        <ele>130</ele>
        <time>2025-02-27T11:48:14Z</time>
      </trkpt>
      <trkpt lat="43.64454" lon="1.39257">
        <ele>130</ele>
        <time>2025-02-27T11:48:15Z</time>
      </trkpt>
      <trkpt lat="43.64455" lon="1.39261">
        <ele>130</ele>
        <time>2025-02-27T11:48:16Z</time>
      </trkpt>
      <trkpt lat="43.64455" lon="1.39263">
        <ele>130</ele>
        <time>2025-02-27T11:48:17Z</time>
      </trkpt>
      <trkpt lat="43.64455" lon="1.39266">
        <ele>130</ele>
        <time>2025-02-27T11:48:18Z</time>
      </trkpt>
      <trkpt lat="43.64456" lon="1.39269">
        <ele>130</ele>
        <time>2025-02-27T11:48:19Z</time>
      </trkpt>
      <trkpt lat="43.64456" lon="1.39273">
        <ele>130</ele>
        <time>2025-02-27T11:48:20Z</time>
      </trkpt>
      <trkpt lat="43.64457" lon="1.39278">
        <ele>130</ele>
        <time>2025-02-27T11:48:21Z</time>
      </trkpt>
      <trkpt lat="43.64457" lon="1.3928">
        <ele>130</ele>
        <time>2025-02-27T11:48:22Z</time>
      </trkpt>
      <trkpt lat="43.64458" lon="1.39285">
        <ele>130</ele>
        <time>2025-02-27T11:48:23Z</time>
      </trkpt>
      <trkpt lat="43.64458" lon="1.39286">
        <ele>130</ele>
        <time>2025-02-27T11:48:24Z</time>
      </trkpt>
      <trkpt lat="43.64459" lon="1.39289">
        <ele>130</ele>
        <time>2025-02-27T11:48:25Z</time>
      </trkpt>
      <trkpt lat="43.64459" lon="1.39293">
        <ele>130</ele>
        <time>2025-02-27T11:48:26Z</time>
      </trkpt>
      <trkpt lat="43.6446" lon="1.39296">
        <ele>130</ele>
        <time>2025-02-27T11:48:27Z</time>
      </trkpt>
      <trkpt lat="43.6446" lon="1.39302">
        <ele>130</ele>
        <time>2025-02-27T11:48:28Z</time>
      </trkpt>
      <trkpt lat="43.6446" lon="1.39304">
        <ele>130</ele>
        <time>2025-02-27T11:48:29Z</time>
      </trkpt>
      <trkpt lat="43.64454" lon="1.39308">
        <ele>130</ele>
        <time>2025-02-27T11:48:30Z</time>
      </trkpt>
      <trkpt lat="43.64451" lon="1.3931">
        <ele>130</ele>
        <time>2025-02-27T11:48:31Z</time>
      </trkpt>
      <trkpt lat="43.64451" lon="1.3931">
        <ele>130</ele>
        <time>2025-02-27T11:48:32Z</time>
      </trkpt>
      <trkpt lat="43.64448" lon="1.3931">
        <ele>130</ele>
        <time>2025-02-27T11:48:33Z</time>
      </trkpt>
      <trkpt lat="43.64445" lon="1.3931">
        <ele>129</ele>
        <time>2025-02-27T11:48:34Z</time>
      </trkpt>
      <trkpt lat="43.64441" lon="1.3931">
        <ele>128</ele>
        <time>2025-02-27T11:48:35Z</time>
      </trkpt>
      <trkpt lat="43.64436" lon="1.3931">
        <ele>128</ele>
        <time>2025-02-27T11:48:36Z</time>
      </trkpt>
      <trkpt lat="43.64436" lon="1.3931">
        <ele>128</ele>
        <time>2025-02-27T11:48:37Z</time>
      </trkpt>
      <trkpt lat="43.64433" lon="1.39311">
        <ele>129</ele>
        <time>2025-02-27T11:48:38Z</time>
      </trkpt>
      <trkpt lat="43.6443" lon="1.39311">
        <ele>129</ele>
        <time>2025-02-27T11:48:39Z</time>
      </trkpt>
      <trkpt lat="43.64427" lon="1.39311">
        <ele>129</ele>
        <time>2025-02-27T11:48:40Z</time>
      </trkpt>
      <trkpt lat="43.64425" lon="1.39312">
        <ele>129</ele>
        <time>2025-02-27T11:48:41Z</time>
      </trkpt>
      <trkpt lat="43.64421" lon="1.39313">
        <ele>128</ele>
        <time>2025-02-27T11:48:42Z</time>
      </trkpt>
      <trkpt lat="43.64419" lon="1.39313">
        <ele>128</ele>
        <time>2025-02-27T11:48:43Z</time>
      </trkpt>
      <trkpt lat="43.64416" lon="1.39314">
        <ele>128</ele>
        <time>2025-02-27T11:48:44Z</time>
      </trkpt>
      <trkpt lat="43.64414" lon="1.39314">
        <ele>128</ele>
        <time>2025-02-27T11:48:45Z</time>
      </trkpt>
      <trkpt lat="43.64411" lon="1.39315">
        <ele>128</ele>
        <time>2025-02-27T11:48:46Z</time>
      </trkpt>
      <trkpt lat="43.64409" lon="1.39315">
        <ele>128</ele>
        <time>2025-02-27T11:48:47Z</time>
      </trkpt>
      <trkpt lat="43.64409" lon="1.39315">
        <ele>128</ele>
        <time>2025-02-27T11:48:48Z</time>
      </trkpt>
      <trkpt lat="43.6441" lon="1.39313">
        <ele>128</ele>
        <time>2025-02-27T11:48:49Z</time>
      </trkpt>
      <trkpt lat="43.64412" lon="1.39311">
        <ele>127</ele>
        <time>2025-02-27T11:48:50Z</time>
      </trkpt>
      <trkpt lat="43.64415" lon="1.39309">
        <ele>127</ele>
        <time>2025-02-27T11:48:51Z</time>
      </trkpt>
      <trkpt lat="43.64419" lon="1.39306">
        <ele>127</ele>
        <time>2025-02-27T11:48:52Z</time>
      </trkpt>
      <trkpt lat="43.64424" lon="1.39304">
        <ele>127</ele>
        <time>2025-02-27T11:48:53Z</time>
      </trkpt>
      <trkpt lat="43.64429" lon="1.39303">
        <ele>127</ele>
        <time>2025-02-27T11:48:54Z</time>
      </trkpt>
      <trkpt lat="43.64435" lon="1.39302">
        <ele>128</ele>
        <time>2025-02-27T11:48:55Z</time>
      </trkpt>
      <trkpt lat="43.64437" lon="1.39301">
        <ele>129</ele>
        <time>2025-02-27T11:48:56Z</time>
      </trkpt>
      <trkpt lat="43.64441" lon="1.39301">
        <ele>129</ele>
        <time>2025-02-27T11:48:57Z</time>
      </trkpt>
      <trkpt lat="43.64445" lon="1.39301">
        <ele>130</ele>
        <time>2025-02-27T11:48:58Z</time>
      </trkpt>
      <trkpt lat="43.64448" lon="1.393">
        <ele>130</ele>
        <time>2025-02-27T11:48:59Z</time>
      </trkpt>
      <trkpt lat="43.64448" lon="1.393">
        <ele>130</ele>
        <time>2025-02-27T11:49:00Z</time>
      </trkpt>
      <trkpt lat="43.64455" lon="1.39296">
        <ele>130</ele>
        <time>2025-02-27T11:49:01Z</time>
      </trkpt>
      <trkpt lat="43.64456" lon="1.39295">
        <ele>130</ele>
        <time>2025-02-27T11:49:02Z</time>
      </trkpt>
      <trkpt lat="43.64457" lon="1.39292">
        <ele>130</ele>
        <time>2025-02-27T11:49:03Z</time>
      </trkpt>
      <trkpt lat="43.64457" lon="1.39289">
        <ele>131</ele>
        <time>2025-02-27T11:49:04Z</time>
      </trkpt>
      <trkpt lat="43.64455" lon="1.39286">
        <ele>131</ele>
        <time>2025-02-27T11:49:05Z</time>
      </trkpt>
      <trkpt lat="43.64454" lon="1.39282">
        <ele>131</ele>
        <time>2025-02-27T11:49:06Z</time>
      </trkpt>
      <trkpt lat="43.64452" lon="1.39276">
        <ele>131</ele>
        <time>2025-02-27T11:49:07Z</time>
      </trkpt>
      <trkpt lat="43.64451" lon="1.39273">
        <ele>131</ele>
        <time>2025-02-27T11:49:08Z</time>
      </trkpt>
      <trkpt lat="43.6445" lon="1.39269">
        <ele>131</ele>
        <time>2025-02-27T11:49:09Z</time>
      </trkpt>
      <trkpt lat="43.64447" lon="1.39261">
        <ele>131</ele>
        <time>2025-02-27T11:49:10Z</time>
      </trkpt>
      <trkpt lat="43.64447" lon="1.39259">
        <ele>131</ele>
        <time>2025-02-27T11:49:11Z</time>
      </trkpt>
      <trkpt lat="43.64445" lon="1.39255">
        <ele>130</ele>
        <time>2025-02-27T11:49:12Z</time>
      </trkpt>
      <trkpt lat="43.64442" lon="1.3925">
        <ele>130</ele>
        <time>2025-02-27T11:49:13Z</time>
      </trkpt>
      <trkpt lat="43.6444" lon="1.39245">
        <ele>130</ele>
        <time>2025-02-27T11:49:14Z</time>
      </trkpt>
      <trkpt lat="43.64438" lon="1.3924">
        <ele>130</ele>
        <time>2025-02-27T11:49:15Z</time>
      </trkpt>
      <trkpt lat="43.64434" lon="1.39233">
        <ele>130</ele>
        <time>2025-02-27T11:49:16Z</time>
      </trkpt>
      <trkpt lat="43.64433" lon="1.39231">
        <ele>130</ele>
        <time>2025-02-27T11:49:17Z</time>
      </trkpt>
      <trkpt lat="43.6443" lon="1.39227">
        <ele>130</ele>
        <time>2025-02-27T11:49:18Z</time>
      </trkpt>
      <trkpt lat="43.64427" lon="1.39223">
        <ele>131</ele>
        <time>2025-02-27T11:49:19Z</time>
      </trkpt>
      <trkpt lat="43.64424" lon="1.39216">
        <ele>131</ele>
        <time>2025-02-27T11:49:20Z</time>
      </trkpt>
      <trkpt lat="43.64423" lon="1.39214">
        <ele>132</ele>
        <time>2025-02-27T11:49:21Z</time>
      </trkpt>
      <trkpt lat="43.6442" lon="1.3921">
        <ele>132</ele>
        <time>2025-02-27T11:49:22Z</time>
      </trkpt>
      <trkpt lat="43.64418" lon="1.39206">
        <ele>132</ele>
        <time>2025-02-27T11:49:23Z</time>
      </trkpt>
      <trkpt lat="43.64415" lon="1.392">
        <ele>132</ele>
        <time>2025-02-27T11:49:24Z</time>
      </trkpt>
      <trkpt lat="43.64414" lon="1.39198">
        <ele>132</ele>
        <time>2025-02-27T11:49:25Z</time>
      </trkpt>
      <trkpt lat="43.64412" lon="1.39193">
        <ele>132</ele>
        <time>2025-02-27T11:49:26Z</time>
      </trkpt>
      <trkpt lat="43.64411" lon="1.39187">
        <ele>133</ele>
        <time>2025-02-27T11:49:27Z</time>
      </trkpt>
      <trkpt lat="43.64409" lon="1.39175">
        <ele>133</ele>
        <time>2025-02-27T11:49:28Z</time>
      </trkpt>
      <trkpt lat="43.64409" lon="1.39175">
        <ele>133</ele>
        <time>2025-02-27T11:49:29Z</time>
      </trkpt>
      <trkpt lat="43.64408" lon="1.39168">
        <ele>133</ele>
        <time>2025-02-27T11:49:30Z</time>
      </trkpt>
      <trkpt lat="43.64408" lon="1.39165">
        <ele>134</ele>
        <time>2025-02-27T11:49:31Z</time>
      </trkpt>
      <trkpt lat="43.64409" lon="1.3916">
        <ele>135</ele>
        <time>2025-02-27T11:49:32Z</time>
      </trkpt>
      <trkpt lat="43.6441" lon="1.39155">
        <ele>136</ele>
        <time>2025-02-27T11:49:33Z</time>
      </trkpt>
      <trkpt lat="43.64412" lon="1.39146">
        <ele>136</ele>
        <time>2025-02-27T11:49:34Z</time>
      </trkpt>
      <trkpt lat="43.64412" lon="1.39146">
        <ele>136</ele>
        <time>2025-02-27T11:49:35Z</time>
      </trkpt>
      <trkpt lat="43.64413" lon="1.39142">
        <ele>136</ele>
        <time>2025-02-27T11:49:36Z</time>
      </trkpt>
      <trkpt lat="43.64414" lon="1.39138">
        <ele>137</ele>
        <time>2025-02-27T11:49:37Z</time>
      </trkpt>
      <trkpt lat="43.64416" lon="1.39133">
        <ele>137</ele>
        <time>2025-02-27T11:49:38Z</time>
      </trkpt>
      <trkpt lat="43.64417" lon="1.39129">
        <ele>138</ele>
        <time>2025-02-27T11:49:39Z</time>
      </trkpt>
      <trkpt lat="43.64419" lon="1.39125">
        <ele>139</ele>
        <time>2025-02-27T11:49:40Z</time>
      </trkpt>
      <trkpt lat="43.64421" lon="1.39121">
        <ele>139</ele>
        <time>2025-02-27T11:49:41Z</time>
      </trkpt>
      <trkpt lat="43.64421" lon="1.39121">
        <ele>140</ele>
        <time>2025-02-27T11:49:42Z</time>
      </trkpt>
      <trkpt lat="43.64421" lon="1.39121">
        <ele>140</ele>
        <time>2025-02-27T11:49:43Z</time>
      </trkpt>
      <trkpt lat="43.64421" lon="1.39121">
        <ele>141</ele>
        <time>2025-02-27T11:49:44Z</time>
      </trkpt>
      <trkpt lat="43.64421" lon="1.39121">
        <ele>141</ele>
        <time>2025-02-27T11:49:45Z</time>
      </trkpt>
      <trkpt lat="43.64421" lon="1.39121">
        <ele>141</ele>
        <time>2025-02-27T11:49:46Z</time>
      </trkpt>
      <trkpt lat="43.64419" lon="1.39124">
        <ele>141</ele>
        <time>2025-02-27T11:49:47Z</time>
      </trkpt>
      <trkpt lat="43.64419" lon="1.39124">
        <ele>141</ele>
        <time>2025-02-27T11:49:48Z</time>
      </trkpt>
      <trkpt lat="43.64418" lon="1.39128">
        <ele>141</ele>
        <time>2025-02-27T11:49:49Z</time>
      </trkpt>
      <trkpt lat="43.64417" lon="1.39131">
        <ele>141</ele>
        <time>2025-02-27T11:49:50Z</time>
      </trkpt>
      <trkpt lat="43.64416" lon="1.39134">
        <ele>140</ele>
        <time>2025-02-27T11:49:51Z</time>
      </trkpt>
      <trkpt lat="43.64415" lon="1.39138">
        <ele>140</ele>
        <time>2025-02-27T11:49:52Z</time>
      </trkpt>
      <trkpt lat="43.64415" lon="1.39138">
        <ele>140</ele>
        <time>2025-02-27T11:49:53Z</time>
      </trkpt>
      <trkpt lat="43.64414" lon="1.3914">
        <ele>140</ele>
        <time>2025-02-27T11:49:54Z</time>
      </trkpt>
      <trkpt lat="43.64414" lon="1.3914">
        <ele>139</ele>
        <time>2025-02-27T11:49:55Z</time>
      </trkpt>
      <trkpt lat="43.64413" lon="1.39146">
        <ele>139</ele>
        <time>2025-02-27T11:49:56Z</time>
      </trkpt>
      <trkpt lat="43.64412" lon="1.39147">
        <ele>139</ele>
        <time>2025-02-27T11:49:57Z</time>
      </trkpt>
      <trkpt lat="43.64412" lon="1.3915">
        <ele>138</ele>
        <time>2025-02-27T11:49:58Z</time>
      </trkpt>
      <trkpt lat="43.64411" lon="1.39153">
        <ele>138</ele>
        <time>2025-02-27T11:49:59Z</time>
      </trkpt>
      <trkpt lat="43.64411" lon="1.39155">
        <ele>137</ele>
        <time>2025-02-27T11:50:00Z</time>
      </trkpt>
      <trkpt lat="43.64411" lon="1.39155">
        <ele>137</ele>
        <time>2025-02-27T11:50:01Z</time>
      </trkpt>
      <trkpt lat="43.64411" lon="1.3916">
        <ele>137</ele>
        <time>2025-02-27T11:50:02Z</time>
      </trkpt>
      <trkpt lat="43.64411" lon="1.39163">
        <ele>136</ele>
        <time>2025-02-27T11:50:03Z</time>
      </trkpt>
      <trkpt lat="43.64411" lon="1.39165">
        <ele>136</ele>
        <time>2025-02-27T11:50:04Z</time>
      </trkpt>
      <trkpt lat="43.64412" lon="1.3917">
        <ele>136</ele>
        <time>2025-02-27T11:50:05Z</time>
      </trkpt>
      <trkpt lat="43.64412" lon="1.39173">
        <ele>136</ele>
        <time>2025-02-27T11:50:06Z</time>
      </trkpt>
      <trkpt lat="43.64412" lon="1.39173">
        <ele>136</ele>
        <time>2025-02-27T11:50:07Z</time>
      </trkpt>
      <trkpt lat="43.64413" lon="1.39178">
        <ele>136</ele>
        <time>2025-02-27T11:50:08Z</time>
      </trkpt>
      <trkpt lat="43.64413" lon="1.39179">
        <ele>136</ele>
        <time>2025-02-27T11:50:09Z</time>
      </trkpt>
      <trkpt lat="43.64414" lon="1.39182">
        <ele>136</ele>
        <time>2025-02-27T11:50:10Z</time>
      </trkpt>
      <trkpt lat="43.64414" lon="1.39182">
        <ele>136</ele>
        <time>2025-02-27T11:50:11Z</time>
      </trkpt>
      <trkpt lat="43.64415" lon="1.39186">
        <ele>135</ele>
        <time>2025-02-27T11:50:12Z</time>
      </trkpt>
      <trkpt lat="43.64415" lon="1.39186">
        <ele>135</ele>
        <time>2025-02-27T11:50:13Z</time>
      </trkpt>
      <trkpt lat="43.64415" lon="1.39189">
        <ele>135</ele>
        <time>2025-02-27T11:50:14Z</time>
      </trkpt>
      <trkpt lat="43.64415" lon="1.39189">
        <ele>135</ele>
        <time>2025-02-27T11:50:15Z</time>
      </trkpt>
      <trkpt lat="43.64416" lon="1.39192">
        <ele>135</ele>
        <time>2025-02-27T11:50:16Z</time>
      </trkpt>
      <trkpt lat="43.64416" lon="1.39192">
        <ele>135</ele>
        <time>2025-02-27T11:50:17Z</time>
      </trkpt>
      <trkpt lat="43.64417" lon="1.39195">
        <ele>135</ele>
        <time>2025-02-27T11:50:18Z</time>
      </trkpt>
      <trkpt lat="43.64417" lon="1.39195">
        <ele>135</ele>
        <time>2025-02-27T11:50:19Z</time>
      </trkpt>
      <trkpt lat="43.64419" lon="1.39197">
        <ele>135</ele>
        <time>2025-02-27T11:50:20Z</time>
      </trkpt>
      <trkpt lat="43.64419" lon="1.39197">
        <ele>134</ele>
        <time>2025-02-27T11:50:21Z</time>
      </trkpt>
      <trkpt lat="43.6442" lon="1.392">
        <ele>134</ele>
        <time>2025-02-27T11:50:22Z</time>
      </trkpt>
      <trkpt lat="43.6442" lon="1.392">
        <ele>134</ele>
        <time>2025-02-27T11:50:23Z</time>
      </trkpt>
      <trkpt lat="43.64422" lon="1.39202">
        <ele>134</ele>
        <time>2025-02-27T11:50:24Z</time>
      </trkpt>
      <trkpt lat="43.64424" lon="1.39206">
        <ele>134</ele>
        <time>2025-02-27T11:50:25Z</time>
      </trkpt>
      <trkpt lat="43.64424" lon="1.39206">
        <ele>134</ele>
        <time>2025-02-27T11:50:26Z</time>
      </trkpt>
      <trkpt lat="43.64424" lon="1.39206">
        <ele>134</ele>
        <time>2025-02-27T11:50:27Z</time>
      </trkpt>
      <trkpt lat="43.64425" lon="1.39208">
        <ele>133</ele>
        <time>2025-02-27T11:50:28Z</time>
      </trkpt>
      <trkpt lat="43.64425" lon="1.39208">
        <ele>133</ele>
        <time>2025-02-27T11:50:29Z</time>
      </trkpt>
      <trkpt lat="43.64427" lon="1.39211">
        <ele>133</ele>
        <time>2025-02-27T11:50:30Z</time>
      </trkpt>
      <trkpt lat="43.64427" lon="1.39211">
        <ele>132</ele>
        <time>2025-02-27T11:50:31Z</time>
      </trkpt>
      <trkpt lat="43.64429" lon="1.39214">
        <ele>132</ele>
        <time>2025-02-27T11:50:32Z</time>
      </trkpt>
      <trkpt lat="43.64429" lon="1.39214">
        <ele>132</ele>
        <time>2025-02-27T11:50:33Z</time>
      </trkpt>
      <trkpt lat="43.64431" lon="1.39217">
        <ele>132</ele>
        <time>2025-02-27T11:50:34Z</time>
      </trkpt>
      <trkpt lat="43.64431" lon="1.39217">
        <ele>132</ele>
        <time>2025-02-27T11:50:35Z</time>
      </trkpt>
      <trkpt lat="43.64432" lon="1.3922">
        <ele>131</ele>
        <time>2025-02-27T11:50:36Z</time>
      </trkpt>
      <trkpt lat="43.64432" lon="1.3922">
        <ele>131</ele>
        <time>2025-02-27T11:50:37Z</time>
      </trkpt>
      <trkpt lat="43.64435" lon="1.39224">
        <ele>131</ele>
        <time>2025-02-27T11:50:38Z</time>
      </trkpt>
      <trkpt lat="43.64435" lon="1.39224">
        <ele>131</ele>
        <time>2025-02-27T11:50:39Z</time>
      </trkpt>
      <trkpt lat="43.64436" lon="1.39226">
        <ele>131</ele>
        <time>2025-02-27T11:50:40Z</time>
      </trkpt>
      <trkpt lat="43.64436" lon="1.39226">
        <ele>131</ele>
        <time>2025-02-27T11:50:41Z</time>
      </trkpt>
      <trkpt lat="43.64438" lon="1.39229">
        <ele>131</ele>
        <time>2025-02-27T11:50:42Z</time>
      </trkpt>
      <trkpt lat="43.64438" lon="1.39229">
        <ele>131</ele>
        <time>2025-02-27T11:50:43Z</time>
      </trkpt>
      <trkpt lat="43.64439" lon="1.39232">
        <ele>131</ele>
        <time>2025-02-27T11:50:44Z</time>
      </trkpt>
      <trkpt lat="43.64439" lon="1.39232">
        <ele>131</ele>
        <time>2025-02-27T11:50:45Z</time>
      </trkpt>
      <trkpt lat="43.64441" lon="1.39235">
        <ele>131</ele>
        <time>2025-02-27T11:50:46Z</time>
      </trkpt>
      <trkpt lat="43.64441" lon="1.39235">
        <ele>131</ele>
        <time>2025-02-27T11:50:47Z</time>
      </trkpt>
      <trkpt lat="43.64443" lon="1.39238">
        <ele>131</ele>
        <time>2025-02-27T11:50:48Z</time>
      </trkpt>
      <trkpt lat="43.64443" lon="1.39238">
        <ele>131</ele>
        <time>2025-02-27T11:50:49Z</time>
      </trkpt>
      <trkpt lat="43.64444" lon="1.39241">
        <ele>131</ele>
        <time>2025-02-27T11:50:50Z</time>
      </trkpt>
      <trkpt lat="43.64444" lon="1.39241">
        <ele>131</ele>
        <time>2025-02-27T11:50:51Z</time>
      </trkpt>
      <trkpt lat="43.64446" lon="1.39244">
        <ele>131</ele>
        <time>2025-02-27T11:50:52Z</time>
      </trkpt>
      <trkpt lat="43.64446" lon="1.39244">
        <ele>131</ele>
        <time>2025-02-27T11:50:53Z</time>
      </trkpt>
      <trkpt lat="43.64447" lon="1.39246">
        <ele>131</ele>
        <time>2025-02-27T11:50:54Z</time>
      </trkpt>
      <trkpt lat="43.64447" lon="1.39246">
        <ele>131</ele>
        <time>2025-02-27T11:50:55Z</time>
      </trkpt>
      <trkpt lat="43.64448" lon="1.39249">
        <ele>131</ele>
        <time>2025-02-27T11:50:56Z</time>
      </trkpt>
      <trkpt lat="43.64448" lon="1.39249">
        <ele>131</ele>
        <time>2025-02-27T11:50:57Z</time>
      </trkpt>
      <trkpt lat="43.64449" lon="1.39252">
        <ele>131</ele>
        <time>2025-02-27T11:50:58Z</time>
      </trkpt>
      <trkpt lat="43.64449" lon="1.39252">
        <ele>131</ele>
        <time>2025-02-27T11:50:59Z</time>
      </trkpt>
      <trkpt lat="43.6445" lon="1.39255">
        <ele>131</ele>
        <time>2025-02-27T11:51:00Z</time>
      </trkpt>
      <trkpt lat="43.6445" lon="1.39255">
        <ele>131</ele>
        <time>2025-02-27T11:51:01Z</time>
      </trkpt>
      <trkpt lat="43.6445" lon="1.39258">
        <ele>131</ele>
        <time>2025-02-27T11:51:02Z</time>
      </trkpt>
      <trkpt lat="43.6445" lon="1.39258">
        <ele>131</ele>
        <time>2025-02-27T11:51:03Z</time>
      </trkpt>
      <trkpt lat="43.64451" lon="1.39261">
        <ele>131</ele>
        <time>2025-02-27T11:51:04Z</time>
      </trkpt>
      <trkpt lat="43.64451" lon="1.39261">
        <ele>131</ele>
        <time>2025-02-27T11:51:05Z</time>
      </trkpt>
      <trkpt lat="43.64451" lon="1.39264">
        <ele>131</ele>
        <time>2025-02-27T11:51:06Z</time>
      </trkpt>
      <trkpt lat="43.64451" lon="1.39264">
        <ele>131</ele>
        <time>2025-02-27T11:51:07Z</time>
      </trkpt>
      <trkpt lat="43.64452" lon="1.39267">
        <ele>131</ele>
        <time>2025-02-27T11:51:08Z</time>
      </trkpt>
      <trkpt lat="43.64452" lon="1.39267">
        <ele>131</ele>
        <time>2025-02-27T11:51:09Z</time>
      </trkpt>
      <trkpt lat="43.64452" lon="1.3927">
        <ele>131</ele>
        <time>2025-02-27T11:51:10Z</time>
      </trkpt>
      <trkpt lat="43.64452" lon="1.3927">
        <ele>131</ele>
        <time>2025-02-27T11:51:11Z</time>
      </trkpt>
      <trkpt lat="43.64453" lon="1.39273">
        <ele>131</ele>
        <time>2025-02-27T11:51:12Z</time>
      </trkpt>
      <trkpt lat="43.64453" lon="1.39273">
        <ele>131</ele>
        <time>2025-02-27T11:51:13Z</time>
      </trkpt>
      <trkpt lat="43.64453" lon="1.39276">
        <ele>131</ele>
        <time>2025-02-27T11:51:14Z</time>
      </trkpt>
      <trkpt lat="43.64453" lon="1.39276">
        <ele>131</ele>
        <time>2025-02-27T11:51:15Z</time>
      </trkpt>
      <trkpt lat="43.64454" lon="1.39279">
        <ele>131</ele>
        <time>2025-02-27T11:51:16Z</time>
      </trkpt>
      <trkpt lat="43.64454" lon="1.39279">
        <ele>131</ele>
        <time>2025-02-27T11:51:17Z</time>
      </trkpt>
      <trkpt lat="43.64454" lon="1.39281">
        <ele>130</ele>
        <time>2025-02-27T11:51:18Z</time>
      </trkpt>
      <trkpt lat="43.64454" lon="1.39281">
        <ele>130</ele>
        <time>2025-02-27T11:51:19Z</time>
      </trkpt>
      <trkpt lat="43.64455" lon="1.39284">
        <ele>131</ele>
        <time>2025-02-27T11:51:20Z</time>
      </trkpt>
      <trkpt lat="43.64455" lon="1.39284">
        <ele>131</ele>
        <time>2025-02-27T11:51:21Z</time>
      </trkpt>
      <trkpt lat="43.64455" lon="1.39287">
        <ele>132</ele>
        <time>2025-02-27T11:51:22Z</time>
      </trkpt>
      <trkpt lat="43.64455" lon="1.39287">
        <ele>132</ele>
        <time>2025-02-27T11:51:23Z</time>
      </trkpt>
      <trkpt lat="43.64455" lon="1.39289">
        <ele>132</ele>
        <time>2025-02-27T11:51:24Z</time>
      </trkpt>
      <trkpt lat="43.64455" lon="1.39289">
        <ele>132</ele>
        <time>2025-02-27T11:51:25Z</time>
      </trkpt>
      <trkpt lat="43.64456" lon="1.39292">
        <ele>131</ele>
        <time>2025-02-27T11:51:26Z</time>
      </trkpt>
      <trkpt lat="43.64456" lon="1.39292">
        <ele>130</ele>
        <time>2025-02-27T11:51:27Z</time>
      </trkpt>
      <trkpt lat="43.64457" lon="1.39295">
        <ele>130</ele>
        <time>2025-02-27T11:51:28Z</time>
      </trkpt>
      <trkpt lat="43.64457" lon="1.39295">
        <ele>130</ele>
        <time>2025-02-27T11:51:29Z</time>
      </trkpt>
      <trkpt lat="43.64458" lon="1.39297">
        <ele>130</ele>
        <time>2025-02-27T11:51:30Z</time>
      </trkpt>
      <trkpt lat="43.64458" lon="1.39297">
        <ele>130</ele>
        <time>2025-02-27T11:51:31Z</time>
      </trkpt>
      <trkpt lat="43.64458" lon="1.393">
        <ele>130</ele>
        <time>2025-02-27T11:51:32Z</time>
      </trkpt>
      <trkpt lat="43.64458" lon="1.393">
        <ele>131</ele>
        <time>2025-02-27T11:51:33Z</time>
      </trkpt>
      <trkpt lat="43.64456" lon="1.39302">
        <ele>131</ele>
        <time>2025-02-27T11:51:34Z</time>
      </trkpt>
      <trkpt lat="43.64456" lon="1.39302">
        <ele>131</ele>
        <time>2025-02-27T11:51:35Z</time>
      </trkpt>
      <trkpt lat="43.64455" lon="1.39304">
        <ele>131</ele>
        <time>2025-02-27T11:51:36Z</time>
      </trkpt>
      <trkpt lat="43.64455" lon="1.39304">
        <ele>131</ele>
        <time>2025-02-27T11:51:37Z</time>
      </trkpt>
      <trkpt lat="43.64453" lon="1.39306">
        <ele>131</ele>
        <time>2025-02-27T11:51:38Z</time>
      </trkpt>
      <trkpt lat="43.64453" lon="1.39306">
        <ele>131</ele>
        <time>2025-02-27T11:51:39Z</time>
      </trkpt>
      <trkpt lat="43.6445" lon="1.39307">
        <ele>131</ele>
        <time>2025-02-27T11:51:40Z</time>
      </trkpt>
      <trkpt lat="43.64448" lon="1.39307">
        <ele>131</ele>
        <time>2025-02-27T11:51:41Z</time>
      </trkpt>
      <trkpt lat="43.64448" lon="1.39307">
        <ele>131</ele>
        <time>2025-02-27T11:51:42Z</time>
      </trkpt>
      <trkpt lat="43.64448" lon="1.39307">
        <ele>131</ele>
        <time>2025-02-27T11:51:43Z</time>
      </trkpt>
      <trkpt lat="43.64445" lon="1.39307">
        <ele>131</ele>
        <time>2025-02-27T11:51:44Z</time>
      </trkpt>
      <trkpt lat="43.64445" lon="1.39307">
        <ele>131</ele>
        <time>2025-02-27T11:51:45Z</time>
      </trkpt>
      <trkpt lat="43.64442" lon="1.39308">
        <ele>130</ele>
        <time>2025-02-27T11:51:46Z</time>
      </trkpt>
      <trkpt lat="43.64442" lon="1.39308">
        <ele>130</ele>
        <time>2025-02-27T11:51:47Z</time>
      </trkpt>
      <trkpt lat="43.64439" lon="1.39307">
        <ele>130</ele>
        <time>2025-02-27T11:51:48Z</time>
      </trkpt>
      <trkpt lat="43.64439" lon="1.39307">
        <ele>130</ele>
        <time>2025-02-27T11:51:49Z</time>
      </trkpt>
      <trkpt lat="43.64436" lon="1.39307">
        <ele>130</ele>
        <time>2025-02-27T11:51:50Z</time>
      </trkpt>
      <trkpt lat="43.64436" lon="1.39307">
        <ele>130</ele>
        <time>2025-02-27T11:51:51Z</time>
      </trkpt>
      <trkpt lat="43.64434" lon="1.39308">
        <ele>130</ele>
        <time>2025-02-27T11:51:52Z</time>
      </trkpt>
      <trkpt lat="43.64434" lon="1.39308">
        <ele>130</ele>
        <time>2025-02-27T11:51:53Z</time>
      </trkpt>
      <trkpt lat="43.6443" lon="1.39308">
        <ele>130</ele>
        <time>2025-02-27T11:51:54Z</time>
      </trkpt>
      <trkpt lat="43.6443" lon="1.39308">
        <ele>130</ele>
        <time>2025-02-27T11:51:55Z</time>
      </trkpt>
      <trkpt lat="43.64427" lon="1.39309">
        <ele>130</ele>
        <time>2025-02-27T11:51:56Z</time>
      </trkpt>
      <trkpt lat="43.64427" lon="1.39309">
        <ele>130</ele>
        <time>2025-02-27T11:51:57Z</time>
      </trkpt>
      <trkpt lat="43.64425" lon="1.39309">
        <ele>130</ele>
        <time>2025-02-27T11:51:58Z</time>
      </trkpt>
      <trkpt lat="43.64425" lon="1.39309">
        <ele>130</ele>
        <time>2025-02-27T11:51:59Z</time>
      </trkpt>
      <trkpt lat="43.64423" lon="1.39309">
        <ele>130</ele>
        <time>2025-02-27T11:52:00Z</time>
      </trkpt>
      <trkpt lat="43.64423" lon="1.39309">
        <ele>130</ele>
        <time>2025-02-27T11:52:01Z</time>
      </trkpt>
      <trkpt lat="43.6442" lon="1.39309">
        <ele>130</ele>
        <time>2025-02-27T11:52:02Z</time>
      </trkpt>
      <trkpt lat="43.6442" lon="1.39309">
        <ele>130</ele>
        <time>2025-02-27T11:52:03Z</time>
      </trkpt>
      <trkpt lat="43.64418" lon="1.3931">
        <ele>130</ele>
        <time>2025-02-27T11:52:04Z</time>
      </trkpt>
      <trkpt lat="43.64418" lon="1.3931">
        <ele>129</ele>
        <time>2025-02-27T11:52:05Z</time>
      </trkpt>
      <trkpt lat="43.64415" lon="1.39311">
        <ele>129</ele>
        <time>2025-02-27T11:52:06Z</time>
      </trkpt>
      <trkpt lat="43.64415" lon="1.39311">
        <ele>129</ele>
        <time>2025-02-27T11:52:07Z</time>
      </trkpt>
      <trkpt lat="43.64413" lon="1.39311">
        <ele>129</ele>
        <time>2025-02-27T11:52:08Z</time>
      </trkpt>
      <trkpt lat="43.64413" lon="1.39311">
        <ele>129</ele>
        <time>2025-02-27T11:52:09Z</time>
      </trkpt>
      <trkpt lat="43.64413" lon="1.39311">
        <ele>128</ele>
        <time>2025-02-27T11:52:10Z</time>
      </trkpt>
      <trkpt lat="43.64411" lon="1.39311">
        <ele>128</ele>
        <time>2025-02-27T11:52:11Z</time>
      </trkpt>
      <trkpt lat="43.64411" lon="1.39311">
        <ele>129</ele>
        <time>2025-02-27T11:52:12Z</time>
      </trkpt>
      <trkpt lat="43.64411" lon="1.39311">
        <ele>129</ele>
        <time>2025-02-27T11:52:13Z</time>
      </trkpt>
      <trkpt lat="43.64408" lon="1.39311">
        <ele>129</ele>
        <time>2025-02-27T11:52:14Z</time>
      </trkpt>
      <trkpt lat="43.64408" lon="1.39311">
        <ele>129</ele>
        <time>2025-02-27T11:52:15Z</time>
      </trkpt>
      <trkpt lat="43.64408" lon="1.39311">
        <ele>129</ele>
        <time>2025-02-27T11:52:16Z</time>
      </trkpt>
      <trkpt lat="43.64408" lon="1.39311">
        <ele>129</ele>
        <time>2025-02-27T11:52:17Z</time>
      </trkpt>
      <trkpt lat="43.64408" lon="1.39311">
        <ele>129</ele>
        <time>2025-02-27T11:52:18Z</time>
      </trkpt>
      <trkpt lat="43.64408" lon="1.39311">
        <ele>129</ele>
        <time>2025-02-27T11:52:19Z</time>
      </trkpt>
      <trkpt lat="43.64408" lon="1.39311">
        <ele>129</ele>
        <time>2025-02-27T11:52:20Z</time>
      </trkpt>
      <trkpt lat="43.64408" lon="1.39311">
        <ele>129</ele>
        <time>2025-02-27T11:52:21Z</time>
      </trkpt>
      <trkpt lat="43.64408" lon="1.39311">
        <ele>129</ele>
        <time>2025-02-27T11:52:22Z</time>
      </trkpt>
      <trkpt lat="43.64408" lon="1.39311">
        <ele>129</ele>
        <time>2025-02-27T11:52:23Z</time>
      </trkpt>
      <trkpt lat="43.64408" lon="1.39311">
        <ele>129</ele>
        <time>2025-02-27T11:52:24Z</time>
      </trkpt>
      <trkpt lat="43.64408" lon="1.39311">
        <ele>129</ele>
        <time>2025-02-27T11:52:25Z</time>
      </trkpt>
      <trkpt lat="43.64408" lon="1.39311">
        <ele>129</ele>
        <time>2025-02-27T11:52:26Z</time>
      </trkpt>
      <trkpt lat="43.64408" lon="1.39311">
        <ele>129</ele>
        <time>2025-02-27T11:52:27Z</time>
      </trkpt>
      <trkpt lat="43.64408" lon="1.39311">
        <ele>129</ele>
        <time>2025-02-27T11:52:28Z</time>
      </trkpt>
      <trkpt lat="43.64408" lon="1.39311">
        <ele>129</ele>
        <time>2025-02-27T11:52:29Z</time>
      </trkpt>
      <trkpt lat="43.64408" lon="1.39311">
        <ele>129</ele>
        <time>2025-02-27T11:52:30Z</time>
      </trkpt>
      <trkpt lat="43.64408" lon="1.39311">
        <ele>129</ele>
        <time>2025-02-27T11:52:31Z</time>
      </trkpt>
      <trkpt lat="43.64408" lon="1.39311">
        <ele>129</ele>
        <time>2025-02-27T11:52:32Z</time>
      </trkpt>
      <trkpt lat="43.64408" lon="1.39311">
        <ele>129</ele>
        <time>2025-02-27T11:52:33Z</time>
      </trkpt>
      <trkpt lat="43.6441" lon="1.39309">
        <ele>129</ele>
        <time>2025-02-27T11:52:34Z</time>
      </trkpt>
      <trkpt lat="43.6441" lon="1.39309">
        <ele>129</ele>
        <time>2025-02-27T11:52:35Z</time>
      </trkpt>
      <trkpt lat="43.6441" lon="1.39309">
        <ele>129</ele>
        <time>2025-02-27T11:52:36Z</time>
      </trkpt>
      <trkpt lat="43.64412" lon="1.39307">
        <ele>128</ele>
        <time>2025-02-27T11:52:37Z</time>
      </trkpt>
      <trkpt lat="43.64421" lon="1.39302">
        <ele>128</ele>
        <time>2025-02-27T11:52:38Z</time>
      </trkpt>
      <trkpt lat="43.64421" lon="1.39302">
        <ele>128</ele>
        <time>2025-02-27T11:52:39Z</time>
      </trkpt>
      <trkpt lat="43.64426" lon="1.39299">
        <ele>128</ele>
        <time>2025-02-27T11:52:40Z</time>
      </trkpt>
      <trkpt lat="43.64434" lon="1.39297">
        <ele>128</ele>
        <time>2025-02-27T11:52:41Z</time>
      </trkpt>
      <trkpt lat="43.64436" lon="1.39297">
        <ele>129</ele>
        <time>2025-02-27T11:52:42Z</time>
      </trkpt>
      <trkpt lat="43.6444" lon="1.39296">
        <ele>129</ele>
        <time>2025-02-27T11:52:43Z</time>
      </trkpt>
      <trkpt lat="43.64445" lon="1.39295">
        <ele>130</ele>
        <time>2025-02-27T11:52:44Z</time>
      </trkpt>
      <trkpt lat="43.64449" lon="1.39295">
        <ele>130</ele>
        <time>2025-02-27T11:52:45Z</time>
      </trkpt>
      <trkpt lat="43.64452" lon="1.39294">
        <ele>130</ele>
        <time>2025-02-27T11:52:46Z</time>
      </trkpt>
      <trkpt lat="43.64454" lon="1.39291">
        <ele>130</ele>
        <time>2025-02-27T11:52:47Z</time>
      </trkpt>
      <trkpt lat="43.64454" lon="1.39287">
        <ele>131</ele>
        <time>2025-02-27T11:52:48Z</time>
      </trkpt>
      <trkpt lat="43.64453" lon="1.39281">
        <ele>131</ele>
        <time>2025-02-27T11:52:49Z</time>
      </trkpt>
      <trkpt lat="43.64451" lon="1.39275">
        <ele>131</ele>
        <time>2025-02-27T11:52:50Z</time>
      </trkpt>
      <trkpt lat="43.6445" lon="1.3927">
        <ele>131</ele>
        <time>2025-02-27T11:52:51Z</time>
      </trkpt>
      <trkpt lat="43.64448" lon="1.39264">
        <ele>132</ele>
        <time>2025-02-27T11:52:52Z</time>
      </trkpt>
      <trkpt lat="43.64447" lon="1.39258">
        <ele>132</ele>
        <time>2025-02-27T11:52:53Z</time>
      </trkpt>
      <trkpt lat="43.64443" lon="1.3925">
        <ele>131</ele>
        <time>2025-02-27T11:52:54Z</time>
      </trkpt>
      <trkpt lat="43.64442" lon="1.39248">
        <ele>131</ele>
        <time>2025-02-27T11:52:55Z</time>
      </trkpt>
      <trkpt lat="43.64439" lon="1.39242">
        <ele>131</ele>
        <time>2025-02-27T11:52:56Z</time>
      </trkpt>
      <trkpt lat="43.64432" lon="1.39231">
        <ele>131</ele>
        <time>2025-02-27T11:52:57Z</time>
      </trkpt>
      <trkpt lat="43.64432" lon="1.39231">
        <ele>131</ele>
        <time>2025-02-27T11:52:58Z</time>
      </trkpt>
      <trkpt lat="43.64428" lon="1.39223">
        <ele>131</ele>
        <time>2025-02-27T11:52:59Z</time>
      </trkpt>
      <trkpt lat="43.64427" lon="1.3922">
        <ele>131</ele>
        <time>2025-02-27T11:53:00Z</time>
      </trkpt>
      <trkpt lat="43.64424" lon="1.39215">
        <ele>131</ele>
        <time>2025-02-27T11:53:01Z</time>
      </trkpt>
      <trkpt lat="43.64418" lon="1.39205">
        <ele>131</ele>
        <time>2025-02-27T11:53:02Z</time>
      </trkpt>
      <trkpt lat="43.64418" lon="1.39205">
        <ele>132</ele>
        <time>2025-02-27T11:53:03Z</time>
      </trkpt>
      <trkpt lat="43.64415" lon="1.39196">
        <ele>132</ele>
        <time>2025-02-27T11:53:04Z</time>
      </trkpt>
      <trkpt lat="43.64413" lon="1.39194">
        <ele>133</ele>
        <time>2025-02-27T11:53:05Z</time>
      </trkpt>
      <trkpt lat="43.64412" lon="1.39188">
        <ele>134</ele>
        <time>2025-02-27T11:53:06Z</time>
      </trkpt>
      <trkpt lat="43.6441" lon="1.39182">
        <ele>134</ele>
        <time>2025-02-27T11:53:07Z</time>
      </trkpt>
      <trkpt lat="43.64409" lon="1.39173">
        <ele>134</ele>
        <time>2025-02-27T11:53:08Z</time>
      </trkpt>
      <trkpt lat="43.64409" lon="1.3917">
        <ele>135</ele>
        <time>2025-02-27T11:53:09Z</time>
      </trkpt>
      <trkpt lat="43.64409" lon="1.39164">
        <ele>136</ele>
        <time>2025-02-27T11:53:10Z</time>
      </trkpt>
      <trkpt lat="43.64409" lon="1.39158">
        <ele>136</ele>
        <time>2025-02-27T11:53:11Z</time>
      </trkpt>
      <trkpt lat="43.6441" lon="1.39152">
        <ele>136</ele>
        <time>2025-02-27T11:53:12Z</time>
      </trkpt>
      <trkpt lat="43.64411" lon="1.39147">
        <ele>136</ele>
        <time>2025-02-27T11:53:13Z</time>
      </trkpt>
      <trkpt lat="43.64412" lon="1.39142">
        <ele>136</ele>
        <time>2025-02-27T11:53:14Z</time>
      </trkpt>
      <trkpt lat="43.64413" lon="1.39136">
        <ele>137</ele>
        <time>2025-02-27T11:53:15Z</time>
      </trkpt>
      <trkpt lat="43.64415" lon="1.39127">
        <ele>137</ele>
        <time>2025-02-27T11:53:16Z</time>
      </trkpt>
      <trkpt lat="43.64415" lon="1.39127">
        <ele>137</ele>
        <time>2025-02-27T11:53:17Z</time>
      </trkpt>
      <trkpt lat="43.64417" lon="1.39122">
        <ele>137</ele>
        <time>2025-02-27T11:53:18Z</time>
      </trkpt>
      <trkpt lat="43.64418" lon="1.3912">
        <ele>138</ele>
        <time>2025-02-27T11:53:19Z</time>
      </trkpt>
      <trkpt lat="43.64418" lon="1.39117">
        <ele>139</ele>
        <time>2025-02-27T11:53:20Z</time>
      </trkpt>
      <trkpt lat="43.64419" lon="1.39114">
        <ele>139</ele>
        <time>2025-02-27T11:53:21Z</time>
      </trkpt>
      <trkpt lat="43.6442" lon="1.3911">
        <ele>140</ele>
        <time>2025-02-27T11:53:22Z</time>
      </trkpt>
      <trkpt lat="43.6442" lon="1.3911">
        <ele>141</ele>
        <time>2025-02-27T11:53:23Z</time>
      </trkpt>
      <trkpt lat="43.6442" lon="1.3911">
        <ele>142</ele>
        <time>2025-02-27T11:53:24Z</time>
      </trkpt>
      <trkpt lat="43.64421" lon="1.39107">
        <ele>142</ele>
        <time>2025-02-27T11:53:25Z</time>
      </trkpt>
      <trkpt lat="43.64421" lon="1.39107">
        <ele>142</ele>
        <time>2025-02-27T11:53:26Z</time>
      </trkpt>
      <trkpt lat="43.64422" lon="1.39104">
        <ele>142</ele>
        <time>2025-02-27T11:53:27Z</time>
      </trkpt>
      <trkpt lat="43.64422" lon="1.39104">
        <ele>142</ele>
        <time>2025-02-27T11:53:28Z</time>
      </trkpt>
      <trkpt lat="43.64423" lon="1.39101">
        <ele>142</ele>
        <time>2025-02-27T11:53:29Z</time>
      </trkpt>
      <trkpt lat="43.64423" lon="1.39101">
        <ele>142</ele>
        <time>2025-02-27T11:53:30Z</time>
      </trkpt>
      <trkpt lat="43.64424" lon="1.39098">
        <ele>142</ele>
        <time>2025-02-27T11:53:31Z</time>
      </trkpt>
      <trkpt lat="43.64424" lon="1.39098">
        <ele>142</ele>
        <time>2025-02-27T11:53:32Z</time>
      </trkpt>
      <trkpt lat="43.64426" lon="1.39095">
        <ele>142</ele>
        <time>2025-02-27T11:53:33Z</time>
      </trkpt>
      <trkpt lat="43.64426" lon="1.39095">
        <ele>142</ele>
        <time>2025-02-27T11:53:34Z</time>
      </trkpt>
      <trkpt lat="43.64428" lon="1.39092">
        <ele>142</ele>
        <time>2025-02-27T11:53:35Z</time>
      </trkpt>
      <trkpt lat="43.64428" lon="1.39092">
        <ele>142</ele>
        <time>2025-02-27T11:53:36Z</time>
      </trkpt>
      <trkpt lat="43.6443" lon="1.39089">
        <ele>142</ele>
        <time>2025-02-27T11:53:37Z</time>
      </trkpt>
      <trkpt lat="43.6443" lon="1.39089">
        <ele>142</ele>
        <time>2025-02-27T11:53:38Z</time>
      </trkpt>
      <trkpt lat="43.64432" lon="1.39086">
        <ele>142</ele>
        <time>2025-02-27T11:53:39Z</time>
      </trkpt>
      <trkpt lat="43.64432" lon="1.39086">
        <ele>142</ele>
        <time>2025-02-27T11:53:40Z</time>
      </trkpt>
      <trkpt lat="43.64433" lon="1.39083">
        <ele>142</ele>
        <time>2025-02-27T11:53:41Z</time>
      </trkpt>
      <trkpt lat="43.64433" lon="1.39083">
        <ele>142</ele>
        <time>2025-02-27T11:53:42Z</time>
      </trkpt>
      <trkpt lat="43.64435" lon="1.3908">
        <ele>142</ele>
        <time>2025-02-27T11:53:43Z</time>
      </trkpt>
      <trkpt lat="43.64435" lon="1.3908">
        <ele>143</ele>
        <time>2025-02-27T11:53:44Z</time>
      </trkpt>
      <trkpt lat="43.64435" lon="1.39076">
        <ele>143</ele>
        <time>2025-02-27T11:53:45Z</time>
      </trkpt>
      <trkpt lat="43.64435" lon="1.39076">
        <ele>143</ele>
        <time>2025-02-27T11:53:46Z</time>
      </trkpt>
      <trkpt lat="43.64436" lon="1.39073">
        <ele>143</ele>
        <time>2025-02-27T11:53:47Z</time>
      </trkpt>
      <trkpt lat="43.64436" lon="1.39073">
        <ele>143</ele>
        <time>2025-02-27T11:53:48Z</time>
      </trkpt>
      <trkpt lat="43.64438" lon="1.3907">
        <ele>143</ele>
        <time>2025-02-27T11:53:49Z</time>
      </trkpt>
      <trkpt lat="43.64438" lon="1.3907">
        <ele>143</ele>
        <time>2025-02-27T11:53:50Z</time>
      </trkpt>
      <trkpt lat="43.64439" lon="1.39067">
        <ele>143</ele>
        <time>2025-02-27T11:53:51Z</time>
      </trkpt>
      <trkpt lat="43.64439" lon="1.39067">
        <ele>143</ele>
        <time>2025-02-27T11:53:52Z</time>
      </trkpt>
      <trkpt lat="43.64441" lon="1.39064">
        <ele>143</ele>
        <time>2025-02-27T11:53:53Z</time>
      </trkpt>
      <trkpt lat="43.64443" lon="1.39062">
        <ele>143</ele>
        <time>2025-02-27T11:53:54Z</time>
      </trkpt>
      <trkpt lat="43.64443" lon="1.39062">
        <ele>143</ele>
        <time>2025-02-27T11:53:55Z</time>
      </trkpt>
      <trkpt lat="43.64443" lon="1.39062">
        <ele>143</ele>
        <time>2025-02-27T11:53:56Z</time>
      </trkpt>
      <trkpt lat="43.64444" lon="1.3906">
        <ele>143</ele>
        <time>2025-02-27T11:53:57Z</time>
      </trkpt>
      <trkpt lat="43.64444" lon="1.3906">
        <ele>143</ele>
        <time>2025-02-27T11:53:58Z</time>
      </trkpt>
      <trkpt lat="43.64446" lon="1.39058">
        <ele>144</ele>
        <time>2025-02-27T11:53:59Z</time>
      </trkpt>
      <trkpt lat="43.64446" lon="1.39058">
        <ele>144</ele>
        <time>2025-02-27T11:54:00Z</time>
      </trkpt>
      <trkpt lat="43.64448" lon="1.39055">
        <ele>144</ele>
        <time>2025-02-27T11:54:01Z</time>
      </trkpt>
      <trkpt lat="43.64448" lon="1.39055">
        <ele>144</ele>
        <time>2025-02-27T11:54:02Z</time>
      </trkpt>
      <trkpt lat="43.6445" lon="1.39052">
        <ele>145</ele>
        <time>2025-02-27T11:54:03Z</time>
      </trkpt>
      <trkpt lat="43.6445" lon="1.39052">
        <ele>145</ele>
        <time>2025-02-27T11:54:04Z</time>
      </trkpt>
      <trkpt lat="43.64452" lon="1.39049">
        <ele>145</ele>
        <time>2025-02-27T11:54:05Z</time>
      </trkpt>
      <trkpt lat="43.64452" lon="1.39049">
        <ele>145</ele>
        <time>2025-02-27T11:54:06Z</time>
      </trkpt>
      <trkpt lat="43.64454" lon="1.39047">
        <ele>145</ele>
        <time>2025-02-27T11:54:07Z</time>
      </trkpt>
      <trkpt lat="43.64454" lon="1.39047">
        <ele>145</ele>
        <time>2025-02-27T11:54:08Z</time>
      </trkpt>
      <trkpt lat="43.64457" lon="1.39045">
        <ele>145</ele>
        <time>2025-02-27T11:54:09Z</time>
      </trkpt>
      <trkpt lat="43.64457" lon="1.39045">
        <ele>145</ele>
        <time>2025-02-27T11:54:10Z</time>
      </trkpt>
      <trkpt lat="43.64459" lon="1.39043">
        <ele>145</ele>
        <time>2025-02-27T11:54:11Z</time>
      </trkpt>
      <trkpt lat="43.64459" lon="1.39043">
        <ele>145</ele>
        <time>2025-02-27T11:54:12Z</time>
      </trkpt>
      <trkpt lat="43.64461" lon="1.39042">
        <ele>145</ele>
        <time>2025-02-27T11:54:13Z</time>
      </trkpt>
      <trkpt lat="43.64461" lon="1.39042">
        <ele>145</ele>
        <time>2025-02-27T11:54:14Z</time>
      </trkpt>
      <trkpt lat="43.64464" lon="1.39041">
        <ele>145</ele>
        <time>2025-02-27T11:54:15Z</time>
      </trkpt>
      <trkpt lat="43.64464" lon="1.39041">
        <ele>145</ele>
        <time>2025-02-27T11:54:16Z</time>
      </trkpt>
      <trkpt lat="43.64466" lon="1.39039">
        <ele>145</ele>
        <time>2025-02-27T11:54:17Z</time>
      </trkpt>
      <trkpt lat="43.64466" lon="1.39039">
        <ele>145</ele>
        <time>2025-02-27T11:54:18Z</time>
      </trkpt>
      <trkpt lat="43.64468" lon="1.39039">
        <ele>145</ele>
        <time>2025-02-27T11:54:19Z</time>
      </trkpt>
      <trkpt lat="43.64468" lon="1.39039">
        <ele>145</ele>
        <time>2025-02-27T11:54:20Z</time>
      </trkpt>
      <trkpt lat="43.64471" lon="1.39038">
        <ele>145</ele>
        <time>2025-02-27T11:54:21Z</time>
      </trkpt>
      <trkpt lat="43.64471" lon="1.39038">
        <ele>145</ele>
        <time>2025-02-27T11:54:22Z</time>
      </trkpt>
      <trkpt lat="43.64474" lon="1.39037">
        <ele>145</ele>
        <time>2025-02-27T11:54:23Z</time>
      </trkpt>
      <trkpt lat="43.64474" lon="1.39037">
        <ele>145</ele>
        <time>2025-02-27T11:54:24Z</time>
      </trkpt>
      <trkpt lat="43.64476" lon="1.39035">
        <ele>145</ele>
        <time>2025-02-27T11:54:25Z</time>
      </trkpt>
      <trkpt lat="43.64476" lon="1.39035">
        <ele>145</ele>
        <time>2025-02-27T11:54:26Z</time>
      </trkpt>
      <trkpt lat="43.64478" lon="1.39033">
        <ele>145</ele>
        <time>2025-02-27T11:54:27Z</time>
      </trkpt>
      <trkpt lat="43.64478" lon="1.39033">
        <ele>145</ele>
        <time>2025-02-27T11:54:28Z</time>
      </trkpt>
      <trkpt lat="43.64479" lon="1.3903">
        <ele>146</ele>
        <time>2025-02-27T11:54:29Z</time>
      </trkpt>
      <trkpt lat="43.64479" lon="1.3903">
        <ele>146</ele>
        <time>2025-02-27T11:54:30Z</time>
      </trkpt>
      <trkpt lat="43.64481" lon="1.39027">
        <ele>145</ele>
        <time>2025-02-27T11:54:31Z</time>
      </trkpt>
      <trkpt lat="43.64481" lon="1.39027">
        <ele>145</ele>
        <time>2025-02-27T11:54:32Z</time>
      </trkpt>
      <trkpt lat="43.64483" lon="1.39023">
        <ele>145</ele>
        <time>2025-02-27T11:54:33Z</time>
      </trkpt>
      <trkpt lat="43.64483" lon="1.39023">
        <ele>145</ele>
        <time>2025-02-27T11:54:34Z</time>
      </trkpt>
      <trkpt lat="43.64485" lon="1.39021">
        <ele>145</ele>
        <time>2025-02-27T11:54:35Z</time>
      </trkpt>
      <trkpt lat="43.64485" lon="1.39021">
        <ele>146</ele>
        <time>2025-02-27T11:54:36Z</time>
      </trkpt>
      <trkpt lat="43.64486" lon="1.39017">
        <ele>146</ele>
        <time>2025-02-27T11:54:37Z</time>
      </trkpt>
      <trkpt lat="43.64486" lon="1.39017">
        <ele>146</ele>
        <time>2025-02-27T11:54:38Z</time>
      </trkpt>
      <trkpt lat="43.64487" lon="1.39013">
        <ele>145</ele>
        <time>2025-02-27T11:54:39Z</time>
      </trkpt>
      <trkpt lat="43.64488" lon="1.3901">
        <ele>145</ele>
        <time>2025-02-27T11:54:40Z</time>
      </trkpt>
      <trkpt lat="43.64489" lon="1.39007">
        <ele>145</ele>
        <time>2025-02-27T11:54:41Z</time>
      </trkpt>
      <trkpt lat="43.6449" lon="1.39005">
        <ele>146</ele>
        <time>2025-02-27T11:54:42Z</time>
      </trkpt>
      <trkpt lat="43.64491" lon="1.39002">
        <ele>146</ele>
        <time>2025-02-27T11:54:43Z</time>
      </trkpt>
      <trkpt lat="43.64493" lon="1.39">
        <ele>146</ele>
        <time>2025-02-27T11:54:44Z</time>
      </trkpt>
      <trkpt lat="43.64494" lon="1.38997">
        <ele>145</ele>
        <time>2025-02-27T11:54:45Z</time>
      </trkpt>
      <trkpt lat="43.64496" lon="1.38996">
        <ele>145</ele>
        <time>2025-02-27T11:54:46Z</time>
      </trkpt>
      <trkpt lat="43.64497" lon="1.38993">
        <ele>145</ele>
        <time>2025-02-27T11:54:47Z</time>
      </trkpt>
      <trkpt lat="43.64498" lon="1.3899">
        <ele>146</ele>
        <time>2025-02-27T11:54:48Z</time>
      </trkpt>
      <trkpt lat="43.64499" lon="1.38987">
        <ele>146</ele>
        <time>2025-02-27T11:54:49Z</time>
      </trkpt>
      <trkpt lat="43.64499" lon="1.38984">
        <ele>146</ele>
        <time>2025-02-27T11:54:50Z</time>
      </trkpt>
      <trkpt lat="43.645" lon="1.38978">
        <ele>146</ele>
        <time>2025-02-27T11:54:51Z</time>
      </trkpt>
      <trkpt lat="43.645" lon="1.38978">
        <ele>147</ele>
        <time>2025-02-27T11:54:52Z</time>
      </trkpt>
      <trkpt lat="43.64502" lon="1.38973">
        <ele>147</ele>
        <time>2025-02-27T11:54:53Z</time>
      </trkpt>
      <trkpt lat="43.64502" lon="1.38972">
        <ele>147</ele>
        <time>2025-02-27T11:54:54Z</time>
      </trkpt>
      <trkpt lat="43.64503" lon="1.38969">
        <ele>147</ele>
        <time>2025-02-27T11:54:55Z</time>
      </trkpt>
      <trkpt lat="43.64505" lon="1.38964">
        <ele>146</ele>
        <time>2025-02-27T11:54:56Z</time>
      </trkpt>
      <trkpt lat="43.64505" lon="1.38962">
        <ele>146</ele>
        <time>2025-02-27T11:54:57Z</time>
      </trkpt>
      <trkpt lat="43.64507" lon="1.38958">
        <ele>146</ele>
        <time>2025-02-27T11:54:58Z</time>
      </trkpt>
      <trkpt lat="43.64507" lon="1.38957">
        <ele>146</ele>
        <time>2025-02-27T11:54:59Z</time>
      </trkpt>
      <trkpt lat="43.64508" lon="1.38954">
        <ele>146</ele>
        <time>2025-02-27T11:55:00Z</time>
      </trkpt>
      <trkpt lat="43.64509" lon="1.38951">
        <ele>146</ele>
        <time>2025-02-27T11:55:01Z</time>
      </trkpt>
      <trkpt lat="43.6451" lon="1.38948">
        <ele>146</ele>
        <time>2025-02-27T11:55:02Z</time>
      </trkpt>
      <trkpt lat="43.6451" lon="1.38945">
        <ele>146</ele>
        <time>2025-02-27T11:55:03Z</time>
      </trkpt>
      <trkpt lat="43.64511" lon="1.38942">
        <ele>146</ele>
        <time>2025-02-27T11:55:04Z</time>
      </trkpt>
      <trkpt lat="43.64511" lon="1.38939">
        <ele>146</ele>
        <time>2025-02-27T11:55:05Z</time>
      </trkpt>
      <trkpt lat="43.64512" lon="1.38936">
        <ele>146</ele>
        <time>2025-02-27T11:55:06Z</time>
      </trkpt>
      <trkpt lat="43.64513" lon="1.38932">
        <ele>146</ele>
        <time>2025-02-27T11:55:07Z</time>
      </trkpt>
      <trkpt lat="43.64514" lon="1.38929">
        <ele>145</ele>
        <time>2025-02-27T11:55:08Z</time>
      </trkpt>
      <trkpt lat="43.64516" lon="1.38924">
        <ele>146</ele>
        <time>2025-02-27T11:55:09Z</time>
      </trkpt>
      <trkpt lat="43.64516" lon="1.38923">
        <ele>146</ele>
        <time>2025-02-27T11:55:10Z</time>
      </trkpt>
      <trkpt lat="43.64517" lon="1.3892">
        <ele>146</ele>
        <time>2025-02-27T11:55:11Z</time>
      </trkpt>
      <trkpt lat="43.64517" lon="1.38917">
        <ele>146</ele>
        <time>2025-02-27T11:55:12Z</time>
      </trkpt>
      <trkpt lat="43.64517" lon="1.38917">
        <ele>146</ele>
        <time>2025-02-27T11:55:13Z</time>
      </trkpt>
      <trkpt lat="43.64517" lon="1.38912">
        <ele>146</ele>
        <time>2025-02-27T11:55:14Z</time>
      </trkpt>
      <trkpt lat="43.64517" lon="1.38909">
        <ele>146</ele>
        <time>2025-02-27T11:55:15Z</time>
      </trkpt>
      <trkpt lat="43.64517" lon="1.38907">
        <ele>146</ele>
        <time>2025-02-27T11:55:16Z</time>
      </trkpt>
      <trkpt lat="43.64517" lon="1.38904">
        <ele>146</ele>
        <time>2025-02-27T11:55:17Z</time>
      </trkpt>
      <trkpt lat="43.64516" lon="1.38901">
        <ele>146</ele>
        <time>2025-02-27T11:55:18Z</time>
      </trkpt>
      <trkpt lat="43.64515" lon="1.38896">
        <ele>146</ele>
        <time>2025-02-27T11:55:19Z</time>
      </trkpt>
      <trkpt lat="43.64515" lon="1.38895">
        <ele>146</ele>
        <time>2025-02-27T11:55:20Z</time>
      </trkpt>
      <trkpt lat="43.64514" lon="1.38891">
        <ele>146</ele>
        <time>2025-02-27T11:55:21Z</time>
      </trkpt>
      <trkpt lat="43.64512" lon="1.38888">
        <ele>146</ele>
        <time>2025-02-27T11:55:22Z</time>
      </trkpt>
      <trkpt lat="43.64511" lon="1.38884">
        <ele>146</ele>
        <time>2025-02-27T11:55:23Z</time>
      </trkpt>
      <trkpt lat="43.64511" lon="1.38881">
        <ele>146</ele>
        <time>2025-02-27T11:55:24Z</time>
      </trkpt>
      <trkpt lat="43.6451" lon="1.38878">
        <ele>147</ele>
        <time>2025-02-27T11:55:25Z</time>
      </trkpt>
      <trkpt lat="43.6451" lon="1.38875">
        <ele>147</ele>
        <time>2025-02-27T11:55:26Z</time>
      </trkpt>
      <trkpt lat="43.64509" lon="1.3887">
        <ele>146</ele>
        <time>2025-02-27T11:55:27Z</time>
      </trkpt>
      <trkpt lat="43.64509" lon="1.38868">
        <ele>146</ele>
        <time>2025-02-27T11:55:28Z</time>
      </trkpt>
      <trkpt lat="43.6451" lon="1.38864">
        <ele>146</ele>
        <time>2025-02-27T11:55:29Z</time>
      </trkpt>
      <trkpt lat="43.64511" lon="1.38862">
        <ele>147</ele>
        <time>2025-02-27T11:55:30Z</time>
      </trkpt>
      <trkpt lat="43.64513" lon="1.38859">
        <ele>147</ele>
        <time>2025-02-27T11:55:31Z</time>
      </trkpt>
      <trkpt lat="43.64514" lon="1.38857">
        <ele>147</ele>
        <time>2025-02-27T11:55:32Z</time>
      </trkpt>
      <trkpt lat="43.64516" lon="1.38853">
        <ele>146</ele>
        <time>2025-02-27T11:55:33Z</time>
      </trkpt>
      <trkpt lat="43.64517" lon="1.38851">
        <ele>146</ele>
        <time>2025-02-27T11:55:34Z</time>
      </trkpt>
      <trkpt lat="43.64518" lon="1.38848">
        <ele>147</ele>
        <time>2025-02-27T11:55:35Z</time>
      </trkpt>
      <trkpt lat="43.6452" lon="1.38846">
        <ele>147</ele>
        <time>2025-02-27T11:55:36Z</time>
      </trkpt>
      <trkpt lat="43.64522" lon="1.38844">
        <ele>147</ele>
        <time>2025-02-27T11:55:37Z</time>
      </trkpt>
      <trkpt lat="43.64523" lon="1.38843">
        <ele>147</ele>
        <time>2025-02-27T11:55:38Z</time>
      </trkpt>
      <trkpt lat="43.64526" lon="1.38843">
        <ele>147</ele>
        <time>2025-02-27T11:55:39Z</time>
      </trkpt>
      <trkpt lat="43.64528" lon="1.38842">
        <ele>146</ele>
        <time>2025-02-27T11:55:40Z</time>
      </trkpt>
      <trkpt lat="43.6453" lon="1.38842">
        <ele>146</ele>
        <time>2025-02-27T11:55:41Z</time>
      </trkpt>
      <trkpt lat="43.64533" lon="1.38841">
        <ele>146</ele>
        <time>2025-02-27T11:55:42Z</time>
      </trkpt>
      <trkpt lat="43.64534" lon="1.38839">
        <ele>146</ele>
        <time>2025-02-27T11:55:43Z</time>
      </trkpt>
      <trkpt lat="43.64537" lon="1.38838">
        <ele>146</ele>
        <time>2025-02-27T11:55:44Z</time>
      </trkpt>
      <trkpt lat="43.6454" lon="1.38837">
        <ele>146</ele>
        <time>2025-02-27T11:55:45Z</time>
      </trkpt>
      <trkpt lat="43.64541" lon="1.38836">
        <ele>146</ele>
        <time>2025-02-27T11:55:46Z</time>
      </trkpt>
      <trkpt lat="43.64544" lon="1.38835">
        <ele>146</ele>
        <time>2025-02-27T11:55:47Z</time>
      </trkpt>
      <trkpt lat="43.64546" lon="1.38835">
        <ele>146</ele>
        <time>2025-02-27T11:55:48Z</time>
      </trkpt>
      <trkpt lat="43.64549" lon="1.38834">
        <ele>146</ele>
        <time>2025-02-27T11:55:49Z</time>
      </trkpt>
      <trkpt lat="43.6455" lon="1.38834">
        <ele>146</ele>
        <time>2025-02-27T11:55:50Z</time>
      </trkpt>
      <trkpt lat="43.64553" lon="1.38834">
        <ele>146</ele>
        <time>2025-02-27T11:55:51Z</time>
      </trkpt>
      <trkpt lat="43.64555" lon="1.38834">
        <ele>146</ele>
        <time>2025-02-27T11:55:52Z</time>
      </trkpt>
      <trkpt lat="43.64557" lon="1.38834">
        <ele>146</ele>
        <time>2025-02-27T11:55:53Z</time>
      </trkpt>
      <trkpt lat="43.64559" lon="1.38834">
        <ele>146</ele>
        <time>2025-02-27T11:55:54Z</time>
      </trkpt>
      <trkpt lat="43.64562" lon="1.38834">
        <ele>146</ele>
        <time>2025-02-27T11:55:55Z</time>
      </trkpt>
      <trkpt lat="43.64563" lon="1.38834">
        <ele>146</ele>
        <time>2025-02-27T11:55:56Z</time>
      </trkpt>
      <trkpt lat="43.64564" lon="1.38834">
        <ele>146</ele>
        <time>2025-02-27T11:55:57Z</time>
      </trkpt>
      <trkpt lat="43.64567" lon="1.38833">
        <ele>146</ele>
        <time>2025-02-27T11:55:58Z</time>
      </trkpt>
      <trkpt lat="43.6457" lon="1.38833">
        <ele>146</ele>
        <time>2025-02-27T11:55:59Z</time>
      </trkpt>
      <trkpt lat="43.64573" lon="1.38833">
        <ele>146</ele>
        <time>2025-02-27T11:56:00Z</time>
      </trkpt>
      <trkpt lat="43.64575" lon="1.38833">
        <ele>146</ele>
        <time>2025-02-27T11:56:01Z</time>
      </trkpt>
      <trkpt lat="43.64578" lon="1.38833">
        <ele>146</ele>
        <time>2025-02-27T11:56:02Z</time>
      </trkpt>
      <trkpt lat="43.6458" lon="1.38833">
        <ele>146</ele>
        <time>2025-02-27T11:56:03Z</time>
      </trkpt>
      <trkpt lat="43.64583" lon="1.38833">
        <ele>146</ele>
        <time>2025-02-27T11:56:04Z</time>
      </trkpt>
      <trkpt lat="43.64585" lon="1.38833">
        <ele>146</ele>
        <time>2025-02-27T11:56:05Z</time>
      </trkpt>
      <trkpt lat="43.64588" lon="1.38834">
        <ele>146</ele>
        <time>2025-02-27T11:56:06Z</time>
      </trkpt>
      <trkpt lat="43.64588" lon="1.38834">
        <ele>146</ele>
        <time>2025-02-27T11:56:07Z</time>
      </trkpt>
      <trkpt lat="43.64591" lon="1.38834">
        <ele>146</ele>
        <time>2025-02-27T11:56:08Z</time>
      </trkpt>
      <trkpt lat="43.64591" lon="1.38834">
        <ele>146</ele>
        <time>2025-02-27T11:56:09Z</time>
      </trkpt>
      <trkpt lat="43.64595" lon="1.38833">
        <ele>146</ele>
        <time>2025-02-27T11:56:10Z</time>
      </trkpt>
      <trkpt lat="43.64595" lon="1.38833">
        <ele>146</ele>
        <time>2025-02-27T11:56:11Z</time>
      </trkpt>
      <trkpt lat="43.64599" lon="1.38832">
        <ele>146</ele>
        <time>2025-02-27T11:56:12Z</time>
      </trkpt>
      <trkpt lat="43.64602" lon="1.38832">
        <ele>147</ele>
        <time>2025-02-27T11:56:13Z</time>
      </trkpt>
      <trkpt lat="43.64602" lon="1.38832">
        <ele>147</ele>
        <time>2025-02-27T11:56:14Z</time>
      </trkpt>
      <trkpt lat="43.64604" lon="1.38832">
        <ele>147</ele>
        <time>2025-02-27T11:56:15Z</time>
      </trkpt>
      <trkpt lat="43.64606" lon="1.38831">
        <ele>146</ele>
        <time>2025-02-27T11:56:16Z</time>
      </trkpt>
      <trkpt lat="43.64609" lon="1.38831">
        <ele>146</ele>
        <time>2025-02-27T11:56:17Z</time>
      </trkpt>
      <trkpt lat="43.64611" lon="1.3883">
        <ele>147</ele>
        <time>2025-02-27T11:56:18Z</time>
      </trkpt>
      <trkpt lat="43.64615" lon="1.38828">
        <ele>147</ele>
        <time>2025-02-27T11:56:19Z</time>
      </trkpt>
      <trkpt lat="43.64615" lon="1.38828">
        <ele>147</ele>
        <time>2025-02-27T11:56:20Z</time>
      </trkpt>
      <trkpt lat="43.64619" lon="1.38826">
        <ele>147</ele>
        <time>2025-02-27T11:56:21Z</time>
      </trkpt>
      <trkpt lat="43.64622" lon="1.38825">
        <ele>147</ele>
        <time>2025-02-27T11:56:22Z</time>
      </trkpt>
      <trkpt lat="43.64622" lon="1.38825">
        <ele>147</ele>
        <time>2025-02-27T11:56:23Z</time>
      </trkpt>
      <trkpt lat="43.64624" lon="1.38822">
        <ele>147</ele>
        <time>2025-02-27T11:56:24Z</time>
      </trkpt>
      <trkpt lat="43.64624" lon="1.38822">
        <ele>147</ele>
        <time>2025-02-27T11:56:25Z</time>
      </trkpt>
      <trkpt lat="43.64626" lon="1.3882">
        <ele>147</ele>
        <time>2025-02-27T11:56:26Z</time>
      </trkpt>
      <trkpt lat="43.64626" lon="1.3882">
        <ele>147</ele>
        <time>2025-02-27T11:56:27Z</time>
      </trkpt>
      <trkpt lat="43.64629" lon="1.38819">
        <ele>147</ele>
        <time>2025-02-27T11:56:28Z</time>
      </trkpt>
      <trkpt lat="43.64629" lon="1.38819">
        <ele>147</ele>
        <time>2025-02-27T11:56:29Z</time>
      </trkpt>
      <trkpt lat="43.64632" lon="1.38817">
        <ele>147</ele>
        <time>2025-02-27T11:56:30Z</time>
      </trkpt>
      <trkpt lat="43.64635" lon="1.38815">
        <ele>147</ele>
        <time>2025-02-27T11:56:31Z</time>
      </trkpt>
      <trkpt lat="43.64638" lon="1.38813">
        <ele>147</ele>
        <time>2025-02-27T11:56:32Z</time>
      </trkpt>
      <trkpt lat="43.6464" lon="1.38811">
        <ele>147</ele>
        <time>2025-02-27T11:56:33Z</time>
      </trkpt>
      <trkpt lat="43.64642" lon="1.3881">
        <ele>147</ele>
        <time>2025-02-27T11:56:34Z</time>
      </trkpt>
      <trkpt lat="43.64644" lon="1.38809">
        <ele>147</ele>
        <time>2025-02-27T11:56:35Z</time>
      </trkpt>
      <trkpt lat="43.64647" lon="1.38807">
        <ele>147</ele>
        <time>2025-02-27T11:56:36Z</time>
      </trkpt>
      <trkpt lat="43.64649" lon="1.38806">
        <ele>147</ele>
        <time>2025-02-27T11:56:37Z</time>
      </trkpt>
      <trkpt lat="43.64652" lon="1.38805">
        <ele>147</ele>
        <time>2025-02-27T11:56:38Z</time>
      </trkpt>
      <trkpt lat="43.64654" lon="1.38805">
        <ele>147</ele>
        <time>2025-02-27T11:56:39Z</time>
      </trkpt>
      <trkpt lat="43.64656" lon="1.38805">
        <ele>147</ele>
        <time>2025-02-27T11:56:40Z</time>
      </trkpt>
      <trkpt lat="43.64658" lon="1.38805">
        <ele>147</ele>
        <time>2025-02-27T11:56:41Z</time>
      </trkpt>
      <trkpt lat="43.64661" lon="1.38805">
        <ele>147</ele>
        <time>2025-02-27T11:56:42Z</time>
      </trkpt>
      <trkpt lat="43.64662" lon="1.38805">
        <ele>147</ele>
        <time>2025-02-27T11:56:43Z</time>
      </trkpt>
      <trkpt lat="43.64665" lon="1.38805">
        <ele>147</ele>
        <time>2025-02-27T11:56:44Z</time>
      </trkpt>
      <trkpt lat="43.64667" lon="1.38804">
        <ele>147</ele>
        <time>2025-02-27T11:56:45Z</time>
      </trkpt>
      <trkpt lat="43.64667" lon="1.38804">
        <ele>147</ele>
        <time>2025-02-27T11:56:46Z</time>
      </trkpt>
      <trkpt lat="43.6467" lon="1.38804">
        <ele>147</ele>
        <time>2025-02-27T11:56:47Z</time>
      </trkpt>
      <trkpt lat="43.64672" lon="1.38803">
        <ele>147</ele>
        <time>2025-02-27T11:56:48Z</time>
      </trkpt>
      <trkpt lat="43.64674" lon="1.38803">
        <ele>147</ele>
        <time>2025-02-27T11:56:49Z</time>
      </trkpt>
      <trkpt lat="43.6468" lon="1.38801">
        <ele>147</ele>
        <time>2025-02-27T11:56:50Z</time>
      </trkpt>
      <trkpt lat="43.64682" lon="1.38801">
        <ele>147</ele>
        <time>2025-02-27T11:56:51Z</time>
      </trkpt>
      <trkpt lat="43.64684" lon="1.38801">
        <ele>146</ele>
        <time>2025-02-27T11:56:52Z</time>
      </trkpt>
      <trkpt lat="43.64687" lon="1.38801">
        <ele>146</ele>
        <time>2025-02-27T11:56:53Z</time>
      </trkpt>
      <trkpt lat="43.64689" lon="1.388">
        <ele>146</ele>
        <time>2025-02-27T11:56:54Z</time>
      </trkpt>
      <trkpt lat="43.64689" lon="1.388">
        <ele>146</ele>
        <time>2025-02-27T11:56:55Z</time>
      </trkpt>
      <trkpt lat="43.64693" lon="1.38796">
        <ele>146</ele>
        <time>2025-02-27T11:56:56Z</time>
      </trkpt>
      <trkpt lat="43.64694" lon="1.38793">
        <ele>147</ele>
        <time>2025-02-27T11:56:57Z</time>
      </trkpt>
      <trkpt lat="43.64694" lon="1.38793">
        <ele>147</ele>
        <time>2025-02-27T11:56:58Z</time>
      </trkpt>
      <trkpt lat="43.64698" lon="1.3879">
        <ele>147</ele>
        <time>2025-02-27T11:56:59Z</time>
      </trkpt>
      <trkpt lat="43.64699" lon="1.38789">
        <ele>146</ele>
        <time>2025-02-27T11:57:00Z</time>
      </trkpt>
      <trkpt lat="43.64701" lon="1.38788">
        <ele>146</ele>
        <time>2025-02-27T11:57:01Z</time>
      </trkpt>
      <trkpt lat="43.64702" lon="1.38786">
        <ele>146</ele>
        <time>2025-02-27T11:57:02Z</time>
      </trkpt>
      <trkpt lat="43.64707" lon="1.38782">
        <ele>146</ele>
        <time>2025-02-27T11:57:03Z</time>
      </trkpt>
      <trkpt lat="43.64709" lon="1.3878">
        <ele>146</ele>
        <time>2025-02-27T11:57:04Z</time>
      </trkpt>
      <trkpt lat="43.64709" lon="1.3878">
        <ele>146</ele>
        <time>2025-02-27T11:57:05Z</time>
      </trkpt>
      <trkpt lat="43.64711" lon="1.38778">
        <ele>146</ele>
        <time>2025-02-27T11:57:06Z</time>
      </trkpt>
      <trkpt lat="43.64713" lon="1.38777">
        <ele>146</ele>
        <time>2025-02-27T11:57:07Z</time>
      </trkpt>
      <trkpt lat="43.64715" lon="1.38776">
        <ele>146</ele>
        <time>2025-02-27T11:57:08Z</time>
      </trkpt>
      <trkpt lat="43.64717" lon="1.38774">
        <ele>146</ele>
        <time>2025-02-27T11:57:09Z</time>
      </trkpt>
      <trkpt lat="43.6472" lon="1.38771">
        <ele>146</ele>
        <time>2025-02-27T11:57:10Z</time>
      </trkpt>
      <trkpt lat="43.64721" lon="1.3877">
        <ele>146</ele>
        <time>2025-02-27T11:57:11Z</time>
      </trkpt>
      <trkpt lat="43.64722" lon="1.38769">
        <ele>147</ele>
        <time>2025-02-27T11:57:12Z</time>
      </trkpt>
      <trkpt lat="43.64722" lon="1.38769">
        <ele>147</ele>
        <time>2025-02-27T11:57:13Z</time>
      </trkpt>
      <trkpt lat="43.64726" lon="1.38768">
        <ele>146</ele>
        <time>2025-02-27T11:57:14Z</time>
      </trkpt>
      <trkpt lat="43.64727" lon="1.38766">
        <ele>147</ele>
        <time>2025-02-27T11:57:15Z</time>
      </trkpt>
      <trkpt lat="43.64727" lon="1.38766">
        <ele>147</ele>
        <time>2025-02-27T11:57:16Z</time>
      </trkpt>
      <trkpt lat="43.6473" lon="1.38765">
        <ele>147</ele>
        <time>2025-02-27T11:57:17Z</time>
      </trkpt>
      <trkpt lat="43.64733" lon="1.38763">
        <ele>147</ele>
        <time>2025-02-27T11:57:18Z</time>
      </trkpt>
      <trkpt lat="43.64734" lon="1.38762">
        <ele>146</ele>
        <time>2025-02-27T11:57:19Z</time>
      </trkpt>
      <trkpt lat="43.64736" lon="1.38761">
        <ele>146</ele>
        <time>2025-02-27T11:57:20Z</time>
      </trkpt>
      <trkpt lat="43.64738" lon="1.3876">
        <ele>146</ele>
        <time>2025-02-27T11:57:21Z</time>
      </trkpt>
      <trkpt lat="43.64741" lon="1.38759">
        <ele>146</ele>
        <time>2025-02-27T11:57:22Z</time>
      </trkpt>
      <trkpt lat="43.64742" lon="1.38759">
        <ele>147</ele>
        <time>2025-02-27T11:57:23Z</time>
      </trkpt>
      <trkpt lat="43.64742" lon="1.38759">
        <ele>147</ele>
        <time>2025-02-27T11:57:24Z</time>
      </trkpt>
      <trkpt lat="43.64745" lon="1.38757">
        <ele>147</ele>
        <time>2025-02-27T11:57:25Z</time>
      </trkpt>
      <trkpt lat="43.64747" lon="1.38755">
        <ele>147</ele>
        <time>2025-02-27T11:57:26Z</time>
      </trkpt>
      <trkpt lat="43.6475" lon="1.38754">
        <ele>146</ele>
        <time>2025-02-27T11:57:27Z</time>
      </trkpt>
      <trkpt lat="43.64752" lon="1.38752">
        <ele>146</ele>
        <time>2025-02-27T11:57:28Z</time>
      </trkpt>
      <trkpt lat="43.64753" lon="1.38751">
        <ele>146</ele>
        <time>2025-02-27T11:57:29Z</time>
      </trkpt>
      <trkpt lat="43.64755" lon="1.3875">
        <ele>146</ele>
        <time>2025-02-27T11:57:30Z</time>
      </trkpt>
      <trkpt lat="43.64757" lon="1.38749">
        <ele>146</ele>
        <time>2025-02-27T11:57:31Z</time>
      </trkpt>
      <trkpt lat="43.64758" lon="1.38748">
        <ele>146</ele>
        <time>2025-02-27T11:57:32Z</time>
      </trkpt>
      <trkpt lat="43.64758" lon="1.38748">
        <ele>146</ele>
        <time>2025-02-27T11:57:33Z</time>
      </trkpt>
      <trkpt lat="43.64762" lon="1.38746">
        <ele>146</ele>
        <time>2025-02-27T11:57:34Z</time>
      </trkpt>
      <trkpt lat="43.64762" lon="1.38746">
        <ele>146</ele>
        <time>2025-02-27T11:57:35Z</time>
      </trkpt>
      <trkpt lat="43.64765" lon="1.38744">
        <ele>146</ele>
        <time>2025-02-27T11:57:36Z</time>
      </trkpt>
      <trkpt lat="43.64768" lon="1.38742">
        <ele>146</ele>
        <time>2025-02-27T11:57:37Z</time>
      </trkpt>
      <trkpt lat="43.64769" lon="1.3874">
        <ele>146</ele>
        <time>2025-02-27T11:57:38Z</time>
      </trkpt>
      <trkpt lat="43.64771" lon="1.38738">
        <ele>146</ele>
        <time>2025-02-27T11:57:39Z</time>
      </trkpt>
      <trkpt lat="43.64772" lon="1.38736">
        <ele>146</ele>
        <time>2025-02-27T11:57:40Z</time>
      </trkpt>
      <trkpt lat="43.64774" lon="1.38735">
        <ele>146</ele>
        <time>2025-02-27T11:57:41Z</time>
      </trkpt>
      <trkpt lat="43.6478" lon="1.38733">
        <ele>146</ele>
        <time>2025-02-27T11:57:42Z</time>
      </trkpt>
      <trkpt lat="43.6478" lon="1.38733">
        <ele>146</ele>
        <time>2025-02-27T11:57:43Z</time>
      </trkpt>
      <trkpt lat="43.64783" lon="1.38731">
        <ele>146</ele>
        <time>2025-02-27T11:57:44Z</time>
      </trkpt>
      <trkpt lat="43.64784" lon="1.3873">
        <ele>146</ele>
        <time>2025-02-27T11:57:45Z</time>
      </trkpt>
      <trkpt lat="43.64786" lon="1.38728">
        <ele>146</ele>
        <time>2025-02-27T11:57:46Z</time>
      </trkpt>
      <trkpt lat="43.64787" lon="1.38727">
        <ele>146</ele>
        <time>2025-02-27T11:57:47Z</time>
      </trkpt>
      <trkpt lat="43.64789" lon="1.38725">
        <ele>147</ele>
        <time>2025-02-27T11:57:48Z</time>
      </trkpt>
      <trkpt lat="43.64793" lon="1.38723">
        <ele>147</ele>
        <time>2025-02-27T11:57:49Z</time>
      </trkpt>
      <trkpt lat="43.64794" lon="1.38722">
        <ele>146</ele>
        <time>2025-02-27T11:57:50Z</time>
      </trkpt>
      <trkpt lat="43.64795" lon="1.38721">
        <ele>146</ele>
        <time>2025-02-27T11:57:51Z</time>
      </trkpt>
      <trkpt lat="43.64798" lon="1.3872">
        <ele>146</ele>
        <time>2025-02-27T11:57:52Z</time>
      </trkpt>
      <trkpt lat="43.648" lon="1.38719">
        <ele>146</ele>
        <time>2025-02-27T11:57:53Z</time>
      </trkpt>
      <trkpt lat="43.64802" lon="1.38718">
        <ele>146</ele>
        <time>2025-02-27T11:57:54Z</time>
      </trkpt>
      <trkpt lat="43.64804" lon="1.38717">
        <ele>146</ele>
        <time>2025-02-27T11:57:55Z</time>
      </trkpt>
      <trkpt lat="43.64807" lon="1.38716">
        <ele>146</ele>
        <time>2025-02-27T11:57:56Z</time>
      </trkpt>
      <trkpt lat="43.64809" lon="1.38715">
        <ele>146</ele>
        <time>2025-02-27T11:57:57Z</time>
      </trkpt>
      <trkpt lat="43.64811" lon="1.38714">
        <ele>146</ele>
        <time>2025-02-27T11:57:58Z</time>
      </trkpt>
      <trkpt lat="43.64814" lon="1.38712">
        <ele>146</ele>
        <time>2025-02-27T11:57:59Z</time>
      </trkpt>
      <trkpt lat="43.64816" lon="1.38711">
        <ele>146</ele>
        <time>2025-02-27T11:58:00Z</time>
      </trkpt>
      <trkpt lat="43.6482" lon="1.38707">
        <ele>146</ele>
        <time>2025-02-27T11:58:01Z</time>
      </trkpt>
      <trkpt lat="43.6482" lon="1.38707">
        <ele>146</ele>
        <time>2025-02-27T11:58:02Z</time>
      </trkpt>
      <trkpt lat="43.64822" lon="1.38706">
        <ele>146</ele>
        <time>2025-02-27T11:58:03Z</time>
      </trkpt>
      <trkpt lat="43.64823" lon="1.38705">
        <ele>146</ele>
        <time>2025-02-27T11:58:04Z</time>
      </trkpt>
      <trkpt lat="43.64826" lon="1.38702">
        <ele>146</ele>
        <time>2025-02-27T11:58:05Z</time>
      </trkpt>
      <trkpt lat="43.64827" lon="1.38701">
        <ele>146</ele>
        <time>2025-02-27T11:58:06Z</time>
      </trkpt>
      <trkpt lat="43.64827" lon="1.38701">
        <ele>146</ele>
        <time>2025-02-27T11:58:07Z</time>
      </trkpt>
      <trkpt lat="43.64829" lon="1.38698">
        <ele>146</ele>
        <time>2025-02-27T11:58:08Z</time>
      </trkpt>
      <trkpt lat="43.64829" lon="1.38698">
        <ele>146</ele>
        <time>2025-02-27T11:58:09Z</time>
      </trkpt>
      <trkpt lat="43.64832" lon="1.38696">
        <ele>146</ele>
        <time>2025-02-27T11:58:10Z</time>
      </trkpt>
      <trkpt lat="43.64832" lon="1.38696">
        <ele>146</ele>
        <time>2025-02-27T11:58:11Z</time>
      </trkpt>
      <trkpt lat="43.64834" lon="1.38693">
        <ele>147</ele>
        <time>2025-02-27T11:58:12Z</time>
      </trkpt>
      <trkpt lat="43.64834" lon="1.38693">
        <ele>147</ele>
        <time>2025-02-27T11:58:13Z</time>
      </trkpt>
      <trkpt lat="43.64837" lon="1.38691">
        <ele>147</ele>
        <time>2025-02-27T11:58:14Z</time>
      </trkpt>
      <trkpt lat="43.64839" lon="1.38688">
        <ele>147</ele>
        <time>2025-02-27T11:58:15Z</time>
      </trkpt>
      <trkpt lat="43.64842" lon="1.38685">
        <ele>147</ele>
        <time>2025-02-27T11:58:16Z</time>
      </trkpt>
      <trkpt lat="43.64843" lon="1.38685">
        <ele>147</ele>
        <time>2025-02-27T11:58:17Z</time>
      </trkpt>
      <trkpt lat="43.64846" lon="1.38683">
        <ele>147</ele>
        <time>2025-02-27T11:58:18Z</time>
      </trkpt>
      <trkpt lat="43.64847" lon="1.38682">
        <ele>147</ele>
        <time>2025-02-27T11:58:19Z</time>
      </trkpt>
      <trkpt lat="43.64854" lon="1.3868">
        <ele>147</ele>
        <time>2025-02-27T11:58:20Z</time>
      </trkpt>
      <trkpt lat="43.64854" lon="1.3868">
        <ele>147</ele>
        <time>2025-02-27T11:58:21Z</time>
      </trkpt>
      <trkpt lat="43.64857" lon="1.38678">
        <ele>147</ele>
        <time>2025-02-27T11:58:22Z</time>
      </trkpt>
      <trkpt lat="43.64859" lon="1.38677">
        <ele>147</ele>
        <time>2025-02-27T11:58:23Z</time>
      </trkpt>
      <trkpt lat="43.64861" lon="1.38676">
        <ele>147</ele>
        <time>2025-02-27T11:58:24Z</time>
      </trkpt>
      <trkpt lat="43.64864" lon="1.38675">
        <ele>147</ele>
        <time>2025-02-27T11:58:25Z</time>
      </trkpt>
      <trkpt lat="43.64866" lon="1.38674">
        <ele>147</ele>
        <time>2025-02-27T11:58:26Z</time>
      </trkpt>
      <trkpt lat="43.64868" lon="1.38672">
        <ele>147</ele>
        <time>2025-02-27T11:58:27Z</time>
      </trkpt>
      <trkpt lat="43.64871" lon="1.38671">
        <ele>147</ele>
        <time>2025-02-27T11:58:28Z</time>
      </trkpt>
      <trkpt lat="43.64873" lon="1.3867">
        <ele>147</ele>
        <time>2025-02-27T11:58:29Z</time>
      </trkpt>
      <trkpt lat="43.64875" lon="1.38668">
        <ele>147</ele>
        <time>2025-02-27T11:58:30Z</time>
      </trkpt>
      <trkpt lat="43.64877" lon="1.38667">
        <ele>147</ele>
        <time>2025-02-27T11:58:31Z</time>
      </trkpt>
      <trkpt lat="43.64881" lon="1.38666">
        <ele>147</ele>
        <time>2025-02-27T11:58:32Z</time>
      </trkpt>
      <trkpt lat="43.64882" lon="1.38666">
        <ele>147</ele>
        <time>2025-02-27T11:58:33Z</time>
      </trkpt>
      <trkpt lat="43.64884" lon="1.38665">
        <ele>147</ele>
        <time>2025-02-27T11:58:34Z</time>
      </trkpt>
      <trkpt lat="43.64886" lon="1.38663">
        <ele>147</ele>
        <time>2025-02-27T11:58:35Z</time>
      </trkpt>
      <trkpt lat="43.64888" lon="1.38662">
        <ele>147</ele>
        <time>2025-02-27T11:58:36Z</time>
      </trkpt>
      <trkpt lat="43.6489" lon="1.38661">
        <ele>147</ele>
        <time>2025-02-27T11:58:37Z</time>
      </trkpt>
      <trkpt lat="43.64892" lon="1.38659">
        <ele>147</ele>
        <time>2025-02-27T11:58:38Z</time>
      </trkpt>
      <trkpt lat="43.64896" lon="1.38655">
        <ele>147</ele>
        <time>2025-02-27T11:58:39Z</time>
      </trkpt>
      <trkpt lat="43.64896" lon="1.38655">
        <ele>147</ele>
        <time>2025-02-27T11:58:40Z</time>
      </trkpt>
      <trkpt lat="43.64898" lon="1.38654">
        <ele>147</ele>
        <time>2025-02-27T11:58:41Z</time>
      </trkpt>
      <trkpt lat="43.649" lon="1.38654">
        <ele>147</ele>
        <time>2025-02-27T11:58:42Z</time>
      </trkpt>
      <trkpt lat="43.64902" lon="1.38653">
        <ele>148</ele>
        <time>2025-02-27T11:58:43Z</time>
      </trkpt>
      <trkpt lat="43.64902" lon="1.38653">
        <ele>148</ele>
        <time>2025-02-27T11:58:44Z</time>
      </trkpt>
      <trkpt lat="43.64905" lon="1.38651">
        <ele>148</ele>
        <time>2025-02-27T11:58:45Z</time>
      </trkpt>
      <trkpt lat="43.64907" lon="1.3865">
        <ele>148</ele>
        <time>2025-02-27T11:58:46Z</time>
      </trkpt>
      <trkpt lat="43.64909" lon="1.38648">
        <ele>148</ele>
        <time>2025-02-27T11:58:47Z</time>
      </trkpt>
      <trkpt lat="43.64911" lon="1.38646">
        <ele>147</ele>
        <time>2025-02-27T11:58:48Z</time>
      </trkpt>
      <trkpt lat="43.64914" lon="1.38645">
        <ele>147</ele>
        <time>2025-02-27T11:58:49Z</time>
      </trkpt>
      <trkpt lat="43.64916" lon="1.38643">
        <ele>147</ele>
        <time>2025-02-27T11:58:50Z</time>
      </trkpt>
      <trkpt lat="43.64918" lon="1.38642">
        <ele>147</ele>
        <time>2025-02-27T11:58:51Z</time>
      </trkpt>
      <trkpt lat="43.64921" lon="1.3864">
        <ele>147</ele>
        <time>2025-02-27T11:58:52Z</time>
      </trkpt>
      <trkpt lat="43.64922" lon="1.38639">
        <ele>147</ele>
        <time>2025-02-27T11:58:53Z</time>
      </trkpt>
      <trkpt lat="43.64924" lon="1.38638">
        <ele>147</ele>
        <time>2025-02-27T11:58:54Z</time>
      </trkpt>
      <trkpt lat="43.64926" lon="1.38637">
        <ele>146</ele>
        <time>2025-02-27T11:58:55Z</time>
      </trkpt>
      <trkpt lat="43.64929" lon="1.38635">
        <ele>146</ele>
        <time>2025-02-27T11:58:56Z</time>
      </trkpt>
      <trkpt lat="43.6493" lon="1.38634">
        <ele>146</ele>
        <time>2025-02-27T11:58:57Z</time>
      </trkpt>
      <trkpt lat="43.64934" lon="1.38631">
        <ele>146</ele>
        <time>2025-02-27T11:58:58Z</time>
      </trkpt>
      <trkpt lat="43.64934" lon="1.38631">
        <ele>146</ele>
        <time>2025-02-27T11:58:59Z</time>
      </trkpt>
      <trkpt lat="43.64937" lon="1.38628">
        <ele>146</ele>
        <time>2025-02-27T11:59:00Z</time>
      </trkpt>
      <trkpt lat="43.64938" lon="1.38627">
        <ele>146</ele>
        <time>2025-02-27T11:59:01Z</time>
      </trkpt>
      <trkpt lat="43.6494" lon="1.38626">
        <ele>146</ele>
        <time>2025-02-27T11:59:02Z</time>
      </trkpt>
      <trkpt lat="43.64942" lon="1.38625">
        <ele>147</ele>
        <time>2025-02-27T11:59:03Z</time>
      </trkpt>
      <trkpt lat="43.64945" lon="1.38624">
        <ele>147</ele>
        <time>2025-02-27T11:59:04Z</time>
      </trkpt>
      <trkpt lat="43.64947" lon="1.38623">
        <ele>147</ele>
        <time>2025-02-27T11:59:05Z</time>
      </trkpt>
      <trkpt lat="43.64949" lon="1.38621">
        <ele>147</ele>
        <time>2025-02-27T11:59:06Z</time>
      </trkpt>
      <trkpt lat="43.6495" lon="1.38619">
        <ele>147</ele>
        <time>2025-02-27T11:59:07Z</time>
      </trkpt>
      <trkpt lat="43.64952" lon="1.38617">
        <ele>147</ele>
        <time>2025-02-27T11:59:08Z</time>
      </trkpt>
      <trkpt lat="43.64954" lon="1.38616">
        <ele>147</ele>
        <time>2025-02-27T11:59:09Z</time>
      </trkpt>
      <trkpt lat="43.64956" lon="1.38615">
        <ele>147</ele>
        <time>2025-02-27T11:59:10Z</time>
      </trkpt>
      <trkpt lat="43.64958" lon="1.38615">
        <ele>147</ele>
        <time>2025-02-27T11:59:11Z</time>
      </trkpt>
      <trkpt lat="43.6496" lon="1.38615">
        <ele>147</ele>
        <time>2025-02-27T11:59:12Z</time>
      </trkpt>
      <trkpt lat="43.64962" lon="1.38614">
        <ele>147</ele>
        <time>2025-02-27T11:59:13Z</time>
      </trkpt>
      <trkpt lat="43.64964" lon="1.38613">
        <ele>147</ele>
        <time>2025-02-27T11:59:14Z</time>
      </trkpt>
      <trkpt lat="43.64966" lon="1.38613">
        <ele>147</ele>
        <time>2025-02-27T11:59:15Z</time>
      </trkpt>
      <trkpt lat="43.64968" lon="1.38612">
        <ele>146</ele>
        <time>2025-02-27T11:59:16Z</time>
      </trkpt>
      <trkpt lat="43.64973" lon="1.3861">
        <ele>146</ele>
        <time>2025-02-27T11:59:17Z</time>
      </trkpt>
      <trkpt lat="43.64973" lon="1.3861">
        <ele>146</ele>
        <time>2025-02-27T11:59:18Z</time>
      </trkpt>
      <trkpt lat="43.64976" lon="1.38608">
        <ele>146</ele>
        <time>2025-02-27T11:59:19Z</time>
      </trkpt>
      <trkpt lat="43.64977" lon="1.38607">
        <ele>147</ele>
        <time>2025-02-27T11:59:20Z</time>
      </trkpt>
      <trkpt lat="43.64979" lon="1.38606">
        <ele>147</ele>
        <time>2025-02-27T11:59:21Z</time>
      </trkpt>
      <trkpt lat="43.64981" lon="1.38605">
        <ele>147</ele>
        <time>2025-02-27T11:59:22Z</time>
      </trkpt>
      <trkpt lat="43.64983" lon="1.38603">
        <ele>147</ele>
        <time>2025-02-27T11:59:23Z</time>
      </trkpt>
      <trkpt lat="43.64985" lon="1.38602">
        <ele>146</ele>
        <time>2025-02-27T11:59:24Z</time>
      </trkpt>
      <trkpt lat="43.64987" lon="1.38601">
        <ele>146</ele>
        <time>2025-02-27T11:59:25Z</time>
      </trkpt>
      <trkpt lat="43.6499" lon="1.386">
        <ele>146</ele>
        <time>2025-02-27T11:59:26Z</time>
      </trkpt>
      <trkpt lat="43.64994" lon="1.38598">
        <ele>147</ele>
        <time>2025-02-27T11:59:27Z</time>
      </trkpt>
      <trkpt lat="43.64995" lon="1.38597">
        <ele>147</ele>
        <time>2025-02-27T11:59:28Z</time>
      </trkpt>
      <trkpt lat="43.64997" lon="1.38595">
        <ele>146</ele>
        <time>2025-02-27T11:59:29Z</time>
      </trkpt>
      <trkpt lat="43.65" lon="1.38593">
        <ele>146</ele>
        <time>2025-02-27T11:59:30Z</time>
      </trkpt>
      <trkpt lat="43.65001" lon="1.38591">
        <ele>146</ele>
        <time>2025-02-27T11:59:31Z</time>
      </trkpt>
      <trkpt lat="43.65004" lon="1.3859">
        <ele>146</ele>
        <time>2025-02-27T11:59:32Z</time>
      </trkpt>
      <trkpt lat="43.65006" lon="1.38589">
        <ele>146</ele>
        <time>2025-02-27T11:59:33Z</time>
      </trkpt>
      <trkpt lat="43.65008" lon="1.38587">
        <ele>146</ele>
        <time>2025-02-27T11:59:34Z</time>
      </trkpt>
      <trkpt lat="43.6501" lon="1.38586">
        <ele>146</ele>
        <time>2025-02-27T11:59:35Z</time>
      </trkpt>
      <trkpt lat="43.65012" lon="1.38584">
        <ele>146</ele>
        <time>2025-02-27T11:59:36Z</time>
      </trkpt>
      <trkpt lat="43.65014" lon="1.38582">
        <ele>146</ele>
        <time>2025-02-27T11:59:37Z</time>
      </trkpt>
      <trkpt lat="43.65017" lon="1.38581">
        <ele>146</ele>
        <time>2025-02-27T11:59:38Z</time>
      </trkpt>
      <trkpt lat="43.65019" lon="1.3858">
        <ele>146</ele>
        <time>2025-02-27T11:59:39Z</time>
      </trkpt>
      <trkpt lat="43.65022" lon="1.38578">
        <ele>146</ele>
        <time>2025-02-27T11:59:40Z</time>
      </trkpt>
      <trkpt lat="43.65023" lon="1.38578">
        <ele>146</ele>
        <time>2025-02-27T11:59:41Z</time>
      </trkpt>
      <trkpt lat="43.65025" lon="1.38577">
        <ele>146</ele>
        <time>2025-02-27T11:59:42Z</time>
      </trkpt>
      <trkpt lat="43.65027" lon="1.38576">
        <ele>146</ele>
        <time>2025-02-27T11:59:43Z</time>
      </trkpt>
      <trkpt lat="43.65029" lon="1.38575">
        <ele>146</ele>
        <time>2025-02-27T11:59:44Z</time>
      </trkpt>
      <trkpt lat="43.65031" lon="1.38574">
        <ele>146</ele>
        <time>2025-02-27T11:59:45Z</time>
      </trkpt>
      <trkpt lat="43.65033" lon="1.38573">
        <ele>146</ele>
        <time>2025-02-27T11:59:46Z</time>
      </trkpt>
      <trkpt lat="43.65035" lon="1.38571">
        <ele>146</ele>
        <time>2025-02-27T11:59:47Z</time>
      </trkpt>
      <trkpt lat="43.65037" lon="1.3857">
        <ele>146</ele>
        <time>2025-02-27T11:59:48Z</time>
      </trkpt>
      <trkpt lat="43.65039" lon="1.38569">
        <ele>146</ele>
        <time>2025-02-27T11:59:49Z</time>
      </trkpt>
      <trkpt lat="43.65042" lon="1.38568">
        <ele>146</ele>
        <time>2025-02-27T11:59:50Z</time>
      </trkpt>
      <trkpt lat="43.65044" lon="1.38566">
        <ele>146</ele>
        <time>2025-02-27T11:59:51Z</time>
      </trkpt>
      <trkpt lat="43.65046" lon="1.38564">
        <ele>146</ele>
        <time>2025-02-27T11:59:52Z</time>
      </trkpt>
      <trkpt lat="43.65048" lon="1.38563">
        <ele>146</ele>
        <time>2025-02-27T11:59:53Z</time>
      </trkpt>
      <trkpt lat="43.65051" lon="1.38562">
        <ele>146</ele>
        <time>2025-02-27T11:59:54Z</time>
      </trkpt>
      <trkpt lat="43.65056" lon="1.38558">
        <ele>146</ele>
        <time>2025-02-27T11:59:55Z</time>
      </trkpt>
      <trkpt lat="43.65056" lon="1.38558">
        <ele>147</ele>
        <time>2025-02-27T11:59:56Z</time>
      </trkpt>
      <trkpt lat="43.65058" lon="1.38558">
        <ele>147</ele>
        <time>2025-02-27T11:59:57Z</time>
      </trkpt>
      <trkpt lat="43.65061" lon="1.38557">
        <ele>147</ele>
        <time>2025-02-27T11:59:58Z</time>
      </trkpt>
      <trkpt lat="43.65063" lon="1.38556">
        <ele>146</ele>
        <time>2025-02-27T11:59:59Z</time>
      </trkpt>
      <trkpt lat="43.65065" lon="1.38555">
        <ele>146</ele>
        <time>2025-02-27T12:00:00Z</time>
      </trkpt>
      <trkpt lat="43.65067" lon="1.38554">
        <ele>146</ele>
        <time>2025-02-27T12:00:01Z</time>
      </trkpt>
      <trkpt lat="43.65069" lon="1.38552">
        <ele>146</ele>
        <time>2025-02-27T12:00:02Z</time>
      </trkpt>
      <trkpt lat="43.65071" lon="1.38551">
        <ele>146</ele>
        <time>2025-02-27T12:00:03Z</time>
      </trkpt>
      <trkpt lat="43.65075" lon="1.38549">
        <ele>146</ele>
        <time>2025-02-27T12:00:04Z</time>
      </trkpt>
      <trkpt lat="43.65076" lon="1.38548">
        <ele>146</ele>
        <time>2025-02-27T12:00:05Z</time>
      </trkpt>
      <trkpt lat="43.65078" lon="1.38547">
        <ele>146</ele>
        <time>2025-02-27T12:00:06Z</time>
      </trkpt>
      <trkpt lat="43.65081" lon="1.38546">
        <ele>146</ele>
        <time>2025-02-27T12:00:07Z</time>
      </trkpt>
      <trkpt lat="43.65083" lon="1.38545">
        <ele>146</ele>
        <time>2025-02-27T12:00:08Z</time>
      </trkpt>
      <trkpt lat="43.65086" lon="1.38544">
        <ele>146</ele>
        <time>2025-02-27T12:00:09Z</time>
      </trkpt>
      <trkpt lat="43.65088" lon="1.38543">
        <ele>146</ele>
        <time>2025-02-27T12:00:10Z</time>
      </trkpt>
      <trkpt lat="43.65091" lon="1.3854">
        <ele>146</ele>
        <time>2025-02-27T12:00:11Z</time>
      </trkpt>
      <trkpt lat="43.65093" lon="1.38538">
        <ele>146</ele>
        <time>2025-02-27T12:00:12Z</time>
      </trkpt>
      <trkpt lat="43.65093" lon="1.38538">
        <ele>146</ele>
        <time>2025-02-27T12:00:13Z</time>
      </trkpt>
      <trkpt lat="43.65094" lon="1.38535">
        <ele>146</ele>
        <time>2025-02-27T12:00:14Z</time>
      </trkpt>
      <trkpt lat="43.65096" lon="1.38532">
        <ele>146</ele>
        <time>2025-02-27T12:00:15Z</time>
      </trkpt>
      <trkpt lat="43.65097" lon="1.38529">
        <ele>146</ele>
        <time>2025-02-27T12:00:16Z</time>
      </trkpt>
      <trkpt lat="43.65097" lon="1.38525">
        <ele>146</ele>
        <time>2025-02-27T12:00:17Z</time>
      </trkpt>
      <trkpt lat="43.65098" lon="1.38522">
        <ele>146</ele>
        <time>2025-02-27T12:00:18Z</time>
      </trkpt>
      <trkpt lat="43.65098" lon="1.38518">
        <ele>146</ele>
        <time>2025-02-27T12:00:19Z</time>
      </trkpt>
      <trkpt lat="43.651" lon="1.38513">
        <ele>146</ele>
        <time>2025-02-27T12:00:20Z</time>
      </trkpt>
      <trkpt lat="43.651" lon="1.38512">
        <ele>146</ele>
        <time>2025-02-27T12:00:21Z</time>
      </trkpt>
      <trkpt lat="43.65101" lon="1.38509">
        <ele>146</ele>
        <time>2025-02-27T12:00:22Z</time>
      </trkpt>
      <trkpt lat="43.65102" lon="1.38506">
        <ele>146</ele>
        <time>2025-02-27T12:00:23Z</time>
      </trkpt>
      <trkpt lat="43.65102" lon="1.38503">
        <ele>146</ele>
        <time>2025-02-27T12:00:24Z</time>
      </trkpt>
      <trkpt lat="43.65101" lon="1.385">
        <ele>146</ele>
        <time>2025-02-27T12:00:25Z</time>
      </trkpt>
      <trkpt lat="43.651" lon="1.38497">
        <ele>146</ele>
        <time>2025-02-27T12:00:26Z</time>
      </trkpt>
      <trkpt lat="43.651" lon="1.38495">
        <ele>146</ele>
        <time>2025-02-27T12:00:27Z</time>
      </trkpt>
      <trkpt lat="43.65099" lon="1.38491">
        <ele>146</ele>
        <time>2025-02-27T12:00:28Z</time>
      </trkpt>
      <trkpt lat="43.65098" lon="1.38489">
        <ele>146</ele>
        <time>2025-02-27T12:00:29Z</time>
      </trkpt>
      <trkpt lat="43.65097" lon="1.38486">
        <ele>146</ele>
        <time>2025-02-27T12:00:30Z</time>
      </trkpt>
      <trkpt lat="43.65096" lon="1.38483">
        <ele>146</ele>
        <time>2025-02-27T12:00:31Z</time>
      </trkpt>
      <trkpt lat="43.65094" lon="1.3848">
        <ele>146</ele>
        <time>2025-02-27T12:00:32Z</time>
      </trkpt>
      <trkpt lat="43.65092" lon="1.38475">
        <ele>146</ele>
        <time>2025-02-27T12:00:33Z</time>
      </trkpt>
      <trkpt lat="43.65092" lon="1.38475">
        <ele>146</ele>
        <time>2025-02-27T12:00:34Z</time>
      </trkpt>
      <trkpt lat="43.65091" lon="1.38472">
        <ele>146</ele>
        <time>2025-02-27T12:00:35Z</time>
      </trkpt>
      <trkpt lat="43.6509" lon="1.3847">
        <ele>146</ele>
        <time>2025-02-27T12:00:36Z</time>
      </trkpt>
      <trkpt lat="43.65089" lon="1.38467">
        <ele>146</ele>
        <time>2025-02-27T12:00:37Z</time>
      </trkpt>
      <trkpt lat="43.65089" lon="1.38464">
        <ele>146</ele>
        <time>2025-02-27T12:00:38Z</time>
      </trkpt>
      <trkpt lat="43.65087" lon="1.38461">
        <ele>146</ele>
        <time>2025-02-27T12:00:39Z</time>
      </trkpt>
      <trkpt lat="43.65086" lon="1.38459">
        <ele>146</ele>
        <time>2025-02-27T12:00:40Z</time>
      </trkpt>
      <trkpt lat="43.65086" lon="1.38456">
        <ele>146</ele>
        <time>2025-02-27T12:00:41Z</time>
      </trkpt>
      <trkpt lat="43.65085" lon="1.38454">
        <ele>146</ele>
        <time>2025-02-27T12:00:42Z</time>
      </trkpt>
      <trkpt lat="43.65084" lon="1.38451">
        <ele>146</ele>
        <time>2025-02-27T12:00:43Z</time>
      </trkpt>
      <trkpt lat="43.65083" lon="1.38448">
        <ele>146</ele>
        <time>2025-02-27T12:00:44Z</time>
      </trkpt>
      <trkpt lat="43.65082" lon="1.38446">
        <ele>146</ele>
        <time>2025-02-27T12:00:45Z</time>
      </trkpt>
      <trkpt lat="43.65081" lon="1.38443">
        <ele>147</ele>
        <time>2025-02-27T12:00:46Z</time>
      </trkpt>
      <trkpt lat="43.6508" lon="1.3844">
        <ele>147</ele>
        <time>2025-02-27T12:00:47Z</time>
      </trkpt>
      <trkpt lat="43.65079" lon="1.38436">
        <ele>147</ele>
        <time>2025-02-27T12:00:48Z</time>
      </trkpt>
      <trkpt lat="43.65079" lon="1.38434">
        <ele>147</ele>
        <time>2025-02-27T12:00:49Z</time>
      </trkpt>
      <trkpt lat="43.65078" lon="1.38432">
        <ele>147</ele>
        <time>2025-02-27T12:00:50Z</time>
      </trkpt>
      <trkpt lat="43.65076" lon="1.38429">
        <ele>147</ele>
        <time>2025-02-27T12:00:51Z</time>
      </trkpt>
      <trkpt lat="43.65075" lon="1.38426">
        <ele>147</ele>
        <time>2025-02-27T12:00:52Z</time>
      </trkpt>
      <trkpt lat="43.65074" lon="1.38421">
        <ele>147</ele>
        <time>2025-02-27T12:00:53Z</time>
      </trkpt>
      <trkpt lat="43.65074" lon="1.38419">
        <ele>147</ele>
        <time>2025-02-27T12:00:54Z</time>
      </trkpt>
      <trkpt lat="43.65073" lon="1.38416">
        <ele>147</ele>
        <time>2025-02-27T12:00:55Z</time>
      </trkpt>
      <trkpt lat="43.65073" lon="1.38413">
        <ele>147</ele>
        <time>2025-02-27T12:00:56Z</time>
      </trkpt>
      <trkpt lat="43.65073" lon="1.38409">
        <ele>147</ele>
        <time>2025-02-27T12:00:57Z</time>
      </trkpt>
      <trkpt lat="43.65072" lon="1.38407">
        <ele>147</ele>
        <time>2025-02-27T12:00:58Z</time>
      </trkpt>
      <trkpt lat="43.65071" lon="1.38403">
        <ele>147</ele>
        <time>2025-02-27T12:00:59Z</time>
      </trkpt>
      <trkpt lat="43.6507" lon="1.384">
        <ele>147</ele>
        <time>2025-02-27T12:01:00Z</time>
      </trkpt>
      <trkpt lat="43.65069" lon="1.38397">
        <ele>147</ele>
        <time>2025-02-27T12:01:01Z</time>
      </trkpt>
      <trkpt lat="43.65068" lon="1.38394">
        <ele>148</ele>
        <time>2025-02-27T12:01:02Z</time>
      </trkpt>
      <trkpt lat="43.65067" lon="1.38391">
        <ele>148</ele>
        <time>2025-02-27T12:01:03Z</time>
      </trkpt>
      <trkpt lat="43.65067" lon="1.38388">
        <ele>148</ele>
        <time>2025-02-27T12:01:04Z</time>
      </trkpt>
      <trkpt lat="43.65066" lon="1.38385">
        <ele>148</ele>
        <time>2025-02-27T12:01:05Z</time>
      </trkpt>
      <trkpt lat="43.65065" lon="1.38382">
        <ele>148</ele>
        <time>2025-02-27T12:01:06Z</time>
      </trkpt>
      <trkpt lat="43.65063" lon="1.38379">
        <ele>147</ele>
        <time>2025-02-27T12:01:07Z</time>
      </trkpt>
      <trkpt lat="43.65062" lon="1.38376">
        <ele>147</ele>
        <time>2025-02-27T12:01:08Z</time>
      </trkpt>
      <trkpt lat="43.65061" lon="1.38372">
        <ele>147</ele>
        <time>2025-02-27T12:01:09Z</time>
      </trkpt>
      <trkpt lat="43.6506" lon="1.38369">
        <ele>148</ele>
        <time>2025-02-27T12:01:10Z</time>
      </trkpt>
      <trkpt lat="43.65058" lon="1.38363">
        <ele>148</ele>
        <time>2025-02-27T12:01:11Z</time>
      </trkpt>
      <trkpt lat="43.65058" lon="1.38363">
        <ele>148</ele>
        <time>2025-02-27T12:01:12Z</time>
      </trkpt>
      <trkpt lat="43.65057" lon="1.38358">
        <ele>148</ele>
        <time>2025-02-27T12:01:13Z</time>
      </trkpt>
      <trkpt lat="43.65056" lon="1.38356">
        <ele>148</ele>
        <time>2025-02-27T12:01:14Z</time>
      </trkpt>
      <trkpt lat="43.65054" lon="1.38352">
        <ele>148</ele>
        <time>2025-02-27T12:01:15Z</time>
      </trkpt>
      <trkpt lat="43.65054" lon="1.38351">
        <ele>148</ele>
        <time>2025-02-27T12:01:16Z</time>
      </trkpt>
      <trkpt lat="43.65053" lon="1.38348">
        <ele>147</ele>
        <time>2025-02-27T12:01:17Z</time>
      </trkpt>
      <trkpt lat="43.65052" lon="1.38344">
        <ele>147</ele>
        <time>2025-02-27T12:01:18Z</time>
      </trkpt>
      <trkpt lat="43.65051" lon="1.38341">
        <ele>147</ele>
        <time>2025-02-27T12:01:19Z</time>
      </trkpt>
      <trkpt lat="43.6505" lon="1.38338">
        <ele>148</ele>
        <time>2025-02-27T12:01:20Z</time>
      </trkpt>
      <trkpt lat="43.6505" lon="1.38335">
        <ele>148</ele>
        <time>2025-02-27T12:01:21Z</time>
      </trkpt>
      <trkpt lat="43.65049" lon="1.38332">
        <ele>148</ele>
        <time>2025-02-27T12:01:22Z</time>
      </trkpt>
      <trkpt lat="43.65048" lon="1.38329">
        <ele>148</ele>
        <time>2025-02-27T12:01:23Z</time>
      </trkpt>
      <trkpt lat="43.65047" lon="1.38325">
        <ele>148</ele>
        <time>2025-02-27T12:01:24Z</time>
      </trkpt>
      <trkpt lat="43.65046" lon="1.38322">
        <ele>148</ele>
        <time>2025-02-27T12:01:25Z</time>
      </trkpt>
      <trkpt lat="43.65045" lon="1.3832">
        <ele>148</ele>
        <time>2025-02-27T12:01:26Z</time>
      </trkpt>
      <trkpt lat="43.65043" lon="1.38317">
        <ele>148</ele>
        <time>2025-02-27T12:01:27Z</time>
      </trkpt>
      <trkpt lat="43.65042" lon="1.38314">
        <ele>148</ele>
        <time>2025-02-27T12:01:28Z</time>
      </trkpt>
      <trkpt lat="43.6504" lon="1.38311">
        <ele>148</ele>
        <time>2025-02-27T12:01:29Z</time>
      </trkpt>
      <trkpt lat="43.65038" lon="1.38304">
        <ele>148</ele>
        <time>2025-02-27T12:01:30Z</time>
      </trkpt>
      <trkpt lat="43.65038" lon="1.38304">
        <ele>148</ele>
        <time>2025-02-27T12:01:31Z</time>
      </trkpt>
      <trkpt lat="43.65037" lon="1.38299">
        <ele>148</ele>
        <time>2025-02-27T12:01:32Z</time>
      </trkpt>
      <trkpt lat="43.65037" lon="1.38297">
        <ele>148</ele>
        <time>2025-02-27T12:01:33Z</time>
      </trkpt>
      <trkpt lat="43.65036" lon="1.38294">
        <ele>148</ele>
        <time>2025-02-27T12:01:34Z</time>
      </trkpt>
      <trkpt lat="43.65036" lon="1.38291">
        <ele>148</ele>
        <time>2025-02-27T12:01:35Z</time>
      </trkpt>
      <trkpt lat="43.65035" lon="1.38288">
        <ele>148</ele>
        <time>2025-02-27T12:01:36Z</time>
      </trkpt>
      <trkpt lat="43.65034" lon="1.38284">
        <ele>148</ele>
        <time>2025-02-27T12:01:37Z</time>
      </trkpt>
      <trkpt lat="43.65033" lon="1.38282">
        <ele>148</ele>
        <time>2025-02-27T12:01:38Z</time>
      </trkpt>
      <trkpt lat="43.65033" lon="1.38279">
        <ele>148</ele>
        <time>2025-02-27T12:01:39Z</time>
      </trkpt>
      <trkpt lat="43.65032" lon="1.38276">
        <ele>148</ele>
        <time>2025-02-27T12:01:40Z</time>
      </trkpt>
      <trkpt lat="43.65031" lon="1.38273">
        <ele>148</ele>
        <time>2025-02-27T12:01:41Z</time>
      </trkpt>
      <trkpt lat="43.6503" lon="1.3827">
        <ele>148</ele>
        <time>2025-02-27T12:01:42Z</time>
      </trkpt>
      <trkpt lat="43.65029" lon="1.38267">
        <ele>148</ele>
        <time>2025-02-27T12:01:43Z</time>
      </trkpt>
      <trkpt lat="43.65028" lon="1.38262">
        <ele>148</ele>
        <time>2025-02-27T12:01:44Z</time>
      </trkpt>
      <trkpt lat="43.65027" lon="1.3826">
        <ele>148</ele>
        <time>2025-02-27T12:01:45Z</time>
      </trkpt>
      <trkpt lat="43.65027" lon="1.38257">
        <ele>148</ele>
        <time>2025-02-27T12:01:46Z</time>
      </trkpt>
      <trkpt lat="43.65026" lon="1.38254">
        <ele>148</ele>
        <time>2025-02-27T12:01:47Z</time>
      </trkpt>
      <trkpt lat="43.65025" lon="1.38251">
        <ele>148</ele>
        <time>2025-02-27T12:01:48Z</time>
      </trkpt>
      <trkpt lat="43.65023" lon="1.38244">
        <ele>148</ele>
        <time>2025-02-27T12:01:49Z</time>
      </trkpt>
      <trkpt lat="43.65023" lon="1.38244">
        <ele>148</ele>
        <time>2025-02-27T12:01:50Z</time>
      </trkpt>
      <trkpt lat="43.65021" lon="1.3824">
        <ele>148</ele>
        <time>2025-02-27T12:01:51Z</time>
      </trkpt>
      <trkpt lat="43.65021" lon="1.38237">
        <ele>148</ele>
        <time>2025-02-27T12:01:52Z</time>
      </trkpt>
      <trkpt lat="43.6502" lon="1.38234">
        <ele>148</ele>
        <time>2025-02-27T12:01:53Z</time>
      </trkpt>
      <trkpt lat="43.65019" lon="1.3823">
        <ele>148</ele>
        <time>2025-02-27T12:01:54Z</time>
      </trkpt>
      <trkpt lat="43.65019" lon="1.38227">
        <ele>148</ele>
        <time>2025-02-27T12:01:55Z</time>
      </trkpt>
      <trkpt lat="43.65017" lon="1.38224">
        <ele>148</ele>
        <time>2025-02-27T12:01:56Z</time>
      </trkpt>
      <trkpt lat="43.65016" lon="1.38221">
        <ele>148</ele>
        <time>2025-02-27T12:01:57Z</time>
      </trkpt>
      <trkpt lat="43.65015" lon="1.38218">
        <ele>148</ele>
        <time>2025-02-27T12:01:58Z</time>
      </trkpt>
      <trkpt lat="43.65013" lon="1.38213">
        <ele>148</ele>
        <time>2025-02-27T12:01:59Z</time>
      </trkpt>
      <trkpt lat="43.65012" lon="1.38212">
        <ele>148</ele>
        <time>2025-02-27T12:02:00Z</time>
      </trkpt>
      <trkpt lat="43.65012" lon="1.38209">
        <ele>148</ele>
        <time>2025-02-27T12:02:01Z</time>
      </trkpt>
      <trkpt lat="43.6501" lon="1.38204">
        <ele>148</ele>
        <time>2025-02-27T12:02:02Z</time>
      </trkpt>
      <trkpt lat="43.6501" lon="1.38203">
        <ele>148</ele>
        <time>2025-02-27T12:02:03Z</time>
      </trkpt>
      <trkpt lat="43.65009" lon="1.382">
        <ele>148</ele>
        <time>2025-02-27T12:02:04Z</time>
      </trkpt>
      <trkpt lat="43.65008" lon="1.38197">
        <ele>148</ele>
        <time>2025-02-27T12:02:05Z</time>
      </trkpt>
      <trkpt lat="43.65007" lon="1.38194">
        <ele>148</ele>
        <time>2025-02-27T12:02:06Z</time>
      </trkpt>
      <trkpt lat="43.65005" lon="1.38192">
        <ele>148</ele>
        <time>2025-02-27T12:02:07Z</time>
      </trkpt>
      <trkpt lat="43.65002" lon="1.38186">
        <ele>148</ele>
        <time>2025-02-27T12:02:08Z</time>
      </trkpt>
      <trkpt lat="43.65002" lon="1.38186">
        <ele>148</ele>
        <time>2025-02-27T12:02:09Z</time>
      </trkpt>
      <trkpt lat="43.64999" lon="1.38184">
        <ele>148</ele>
        <time>2025-02-27T12:02:10Z</time>
      </trkpt>
      <trkpt lat="43.64997" lon="1.38181">
        <ele>148</ele>
        <time>2025-02-27T12:02:11Z</time>
      </trkpt>
      <trkpt lat="43.64996" lon="1.38178">
        <ele>148</ele>
        <time>2025-02-27T12:02:12Z</time>
      </trkpt>
      <trkpt lat="43.64994" lon="1.38175">
        <ele>148</ele>
        <time>2025-02-27T12:02:13Z</time>
      </trkpt>
      <trkpt lat="43.64994" lon="1.38171">
        <ele>148</ele>
        <time>2025-02-27T12:02:14Z</time>
      </trkpt>
      <trkpt lat="43.64994" lon="1.38167">
        <ele>148</ele>
        <time>2025-02-27T12:02:15Z</time>
      </trkpt>
      <trkpt lat="43.64995" lon="1.38164">
        <ele>148</ele>
        <time>2025-02-27T12:02:16Z</time>
      </trkpt>
      <trkpt lat="43.64996" lon="1.38161">
        <ele>148</ele>
        <time>2025-02-27T12:02:17Z</time>
      </trkpt>
      <trkpt lat="43.64997" lon="1.38158">
        <ele>149</ele>
        <time>2025-02-27T12:02:18Z</time>
      </trkpt>
      <trkpt lat="43.64998" lon="1.38156">
        <ele>149</ele>
        <time>2025-02-27T12:02:19Z</time>
      </trkpt>
      <trkpt lat="43.64999" lon="1.38153">
        <ele>148</ele>
        <time>2025-02-27T12:02:20Z</time>
      </trkpt>
      <trkpt lat="43.65" lon="1.3815">
        <ele>148</ele>
        <time>2025-02-27T12:02:21Z</time>
      </trkpt>
      <trkpt lat="43.65001" lon="1.38147">
        <ele>148</ele>
        <time>2025-02-27T12:02:22Z</time>
      </trkpt>
      <trkpt lat="43.65002" lon="1.38143">
        <ele>148</ele>
        <time>2025-02-27T12:02:23Z</time>
      </trkpt>
      <trkpt lat="43.65002" lon="1.3814">
        <ele>148</ele>
        <time>2025-02-27T12:02:24Z</time>
      </trkpt>
      <trkpt lat="43.65002" lon="1.38137">
        <ele>148</ele>
        <time>2025-02-27T12:02:25Z</time>
      </trkpt>
      <trkpt lat="43.65001" lon="1.38134">
        <ele>148</ele>
        <time>2025-02-27T12:02:26Z</time>
      </trkpt>
      <trkpt lat="43.65" lon="1.3813">
        <ele>148</ele>
        <time>2025-02-27T12:02:27Z</time>
      </trkpt>
      <trkpt lat="43.65" lon="1.38127">
        <ele>148</ele>
        <time>2025-02-27T12:02:28Z</time>
      </trkpt>
      <trkpt lat="43.64999" lon="1.38124">
        <ele>148</ele>
        <time>2025-02-27T12:02:29Z</time>
      </trkpt>
      <trkpt lat="43.64998" lon="1.38122">
        <ele>148</ele>
        <time>2025-02-27T12:02:30Z</time>
      </trkpt>
      <trkpt lat="43.64997" lon="1.38119">
        <ele>148</ele>
        <time>2025-02-27T12:02:31Z</time>
      </trkpt>
      <trkpt lat="43.64996" lon="1.38116">
        <ele>148</ele>
        <time>2025-02-27T12:02:32Z</time>
      </trkpt>
      <trkpt lat="43.64995" lon="1.38113">
        <ele>148</ele>
        <time>2025-02-27T12:02:33Z</time>
      </trkpt>
      <trkpt lat="43.64995" lon="1.3811">
        <ele>148</ele>
        <time>2025-02-27T12:02:34Z</time>
      </trkpt>
      <trkpt lat="43.64994" lon="1.38107">
        <ele>148</ele>
        <time>2025-02-27T12:02:35Z</time>
      </trkpt>
      <trkpt lat="43.64992" lon="1.38104">
        <ele>148</ele>
        <time>2025-02-27T12:02:36Z</time>
      </trkpt>
      <trkpt lat="43.64991" lon="1.38101">
        <ele>148</ele>
        <time>2025-02-27T12:02:37Z</time>
      </trkpt>
      <trkpt lat="43.6499" lon="1.38098">
        <ele>148</ele>
        <time>2025-02-27T12:02:38Z</time>
      </trkpt>
      <trkpt lat="43.64989" lon="1.38095">
        <ele>148</ele>
        <time>2025-02-27T12:02:39Z</time>
      </trkpt>
      <trkpt lat="43.64988" lon="1.38093">
        <ele>148</ele>
        <time>2025-02-27T12:02:40Z</time>
      </trkpt>
      <trkpt lat="43.64987" lon="1.3809">
        <ele>148</ele>
        <time>2025-02-27T12:02:41Z</time>
      </trkpt>
      <trkpt lat="43.64987" lon="1.3809">
        <ele>148</ele>
        <time>2025-02-27T12:02:42Z</time>
      </trkpt>
      <trkpt lat="43.64986" lon="1.38085">
        <ele>148</ele>
        <time>2025-02-27T12:02:43Z</time>
      </trkpt>
      <trkpt lat="43.64985" lon="1.38082">
        <ele>148</ele>
        <time>2025-02-27T12:02:44Z</time>
      </trkpt>
      <trkpt lat="43.64983" lon="1.38079">
        <ele>148</ele>
        <time>2025-02-27T12:02:45Z</time>
      </trkpt>
      <trkpt lat="43.64981" lon="1.38073">
        <ele>148</ele>
        <time>2025-02-27T12:02:46Z</time>
      </trkpt>
      <trkpt lat="43.64981" lon="1.38073">
        <ele>148</ele>
        <time>2025-02-27T12:02:47Z</time>
      </trkpt>
      <trkpt lat="43.6498" lon="1.38068">
        <ele>148</ele>
        <time>2025-02-27T12:02:48Z</time>
      </trkpt>
      <trkpt lat="43.64979" lon="1.38067">
        <ele>148</ele>
        <time>2025-02-27T12:02:49Z</time>
      </trkpt>
      <trkpt lat="43.64978" lon="1.38063">
        <ele>148</ele>
        <time>2025-02-27T12:02:50Z</time>
      </trkpt>
      <trkpt lat="43.64977" lon="1.38061">
        <ele>148</ele>
        <time>2025-02-27T12:02:51Z</time>
      </trkpt>
      <trkpt lat="43.64976" lon="1.38058">
        <ele>148</ele>
        <time>2025-02-27T12:02:52Z</time>
      </trkpt>
      <trkpt lat="43.64975" lon="1.38055">
        <ele>147</ele>
        <time>2025-02-27T12:02:53Z</time>
      </trkpt>
      <trkpt lat="43.64974" lon="1.38052">
        <ele>147</ele>
        <time>2025-02-27T12:02:54Z</time>
      </trkpt>
      <trkpt lat="43.64973" lon="1.38049">
        <ele>147</ele>
        <time>2025-02-27T12:02:55Z</time>
      </trkpt>
      <trkpt lat="43.64971" lon="1.38045">
        <ele>147</ele>
        <time>2025-02-27T12:02:56Z</time>
      </trkpt>
      <trkpt lat="43.6497" lon="1.38042">
        <ele>147</ele>
        <time>2025-02-27T12:02:57Z</time>
      </trkpt>
      <trkpt lat="43.64969" lon="1.38039">
        <ele>147</ele>
        <time>2025-02-27T12:02:58Z</time>
      </trkpt>
      <trkpt lat="43.64968" lon="1.38036">
        <ele>147</ele>
        <time>2025-02-27T12:02:59Z</time>
      </trkpt>
      <trkpt lat="43.64967" lon="1.38033">
        <ele>147</ele>
        <time>2025-02-27T12:03:00Z</time>
      </trkpt>
      <trkpt lat="43.64966" lon="1.3803">
        <ele>147</ele>
        <time>2025-02-27T12:03:01Z</time>
      </trkpt>
      <trkpt lat="43.64965" lon="1.38027">
        <ele>147</ele>
        <time>2025-02-27T12:03:02Z</time>
      </trkpt>
      <trkpt lat="43.64964" lon="1.38024">
        <ele>147</ele>
        <time>2025-02-27T12:03:03Z</time>
      </trkpt>
      <trkpt lat="43.64963" lon="1.38021">
        <ele>147</ele>
        <time>2025-02-27T12:03:04Z</time>
      </trkpt>
      <trkpt lat="43.64961" lon="1.38015">
        <ele>147</ele>
        <time>2025-02-27T12:03:05Z</time>
      </trkpt>
      <trkpt lat="43.64961" lon="1.38015">
        <ele>147</ele>
        <time>2025-02-27T12:03:06Z</time>
      </trkpt>
      <trkpt lat="43.6496" lon="1.38012">
        <ele>147</ele>
        <time>2025-02-27T12:03:07Z</time>
      </trkpt>
      <trkpt lat="43.64959" lon="1.38009">
        <ele>147</ele>
        <time>2025-02-27T12:03:08Z</time>
      </trkpt>
      <trkpt lat="43.64958" lon="1.38006">
        <ele>147</ele>
        <time>2025-02-27T12:03:09Z</time>
      </trkpt>
      <trkpt lat="43.64957" lon="1.38004">
        <ele>147</ele>
        <time>2025-02-27T12:03:10Z</time>
      </trkpt>
      <trkpt lat="43.64955" lon="1.38001">
        <ele>147</ele>
        <time>2025-02-27T12:03:11Z</time>
      </trkpt>
      <trkpt lat="43.64953" lon="1.37998">
        <ele>147</ele>
        <time>2025-02-27T12:03:12Z</time>
      </trkpt>
      <trkpt lat="43.64951" lon="1.37995">
        <ele>147</ele>
        <time>2025-02-27T12:03:13Z</time>
      </trkpt>
      <trkpt lat="43.64949" lon="1.37991">
        <ele>147</ele>
        <time>2025-02-27T12:03:14Z</time>
      </trkpt>
      <trkpt lat="43.64948" lon="1.37989">
        <ele>147</ele>
        <time>2025-02-27T12:03:15Z</time>
      </trkpt>
      <trkpt lat="43.64947" lon="1.37986">
        <ele>147</ele>
        <time>2025-02-27T12:03:16Z</time>
      </trkpt>
      <trkpt lat="43.64947" lon="1.37982">
        <ele>147</ele>
        <time>2025-02-27T12:03:17Z</time>
      </trkpt>
      <trkpt lat="43.64947" lon="1.37978">
        <ele>147</ele>
        <time>2025-02-27T12:03:18Z</time>
      </trkpt>
      <trkpt lat="43.64947" lon="1.37974">
        <ele>148</ele>
        <time>2025-02-27T12:03:19Z</time>
      </trkpt>
      <trkpt lat="43.64948" lon="1.37971">
        <ele>148</ele>
        <time>2025-02-27T12:03:20Z</time>
      </trkpt>
      <trkpt lat="43.64948" lon="1.37966">
        <ele>148</ele>
        <time>2025-02-27T12:03:21Z</time>
      </trkpt>
      <trkpt lat="43.64948" lon="1.37964">
        <ele>148</ele>
        <time>2025-02-27T12:03:22Z</time>
      </trkpt>
      <trkpt lat="43.64947" lon="1.37961">
        <ele>148</ele>
        <time>2025-02-27T12:03:23Z</time>
      </trkpt>
      <trkpt lat="43.64946" lon="1.37958">
        <ele>148</ele>
        <time>2025-02-27T12:03:24Z</time>
      </trkpt>
      <trkpt lat="43.64945" lon="1.37955">
        <ele>148</ele>
        <time>2025-02-27T12:03:25Z</time>
      </trkpt>
      <trkpt lat="43.64945" lon="1.37951">
        <ele>148</ele>
        <time>2025-02-27T12:03:26Z</time>
      </trkpt>
      <trkpt lat="43.64945" lon="1.37948">
        <ele>147</ele>
        <time>2025-02-27T12:03:27Z</time>
      </trkpt>
      <trkpt lat="43.64945" lon="1.37948">
        <ele>147</ele>
        <time>2025-02-27T12:03:28Z</time>
      </trkpt>
      <trkpt lat="43.64944" lon="1.37944">
        <ele>147</ele>
        <time>2025-02-27T12:03:29Z</time>
      </trkpt>
      <trkpt lat="43.64944" lon="1.37944">
        <ele>147</ele>
        <time>2025-02-27T12:03:30Z</time>
      </trkpt>
      <trkpt lat="43.64943" lon="1.3794">
        <ele>147</ele>
        <time>2025-02-27T12:03:31Z</time>
      </trkpt>
      <trkpt lat="43.64943" lon="1.3794">
        <ele>147</ele>
        <time>2025-02-27T12:03:32Z</time>
      </trkpt>
      <trkpt lat="43.64942" lon="1.37936">
        <ele>147</ele>
        <time>2025-02-27T12:03:33Z</time>
      </trkpt>
      <trkpt lat="43.64942" lon="1.37936">
        <ele>148</ele>
        <time>2025-02-27T12:03:34Z</time>
      </trkpt>
      <trkpt lat="43.64941" lon="1.37932">
        <ele>148</ele>
        <time>2025-02-27T12:03:35Z</time>
      </trkpt>
      <trkpt lat="43.6494" lon="1.37929">
        <ele>148</ele>
        <time>2025-02-27T12:03:36Z</time>
      </trkpt>
      <trkpt lat="43.6494" lon="1.37929">
        <ele>148</ele>
        <time>2025-02-27T12:03:37Z</time>
      </trkpt>
      <trkpt lat="43.6494" lon="1.37929">
        <ele>148</ele>
        <time>2025-02-27T12:03:38Z</time>
      </trkpt>
      <trkpt lat="43.64939" lon="1.37925">
        <ele>148</ele>
        <time>2025-02-27T12:03:39Z</time>
      </trkpt>
      <trkpt lat="43.64939" lon="1.37925">
        <ele>148</ele>
        <time>2025-02-27T12:03:40Z</time>
      </trkpt>
      <trkpt lat="43.64938" lon="1.37922">
        <ele>148</ele>
        <time>2025-02-27T12:03:41Z</time>
      </trkpt>
      <trkpt lat="43.64938" lon="1.37922">
        <ele>148</ele>
        <time>2025-02-27T12:03:42Z</time>
      </trkpt>
      <trkpt lat="43.64938" lon="1.37919">
        <ele>148</ele>
        <time>2025-02-27T12:03:43Z</time>
      </trkpt>
      <trkpt lat="43.64938" lon="1.37919">
        <ele>148</ele>
        <time>2025-02-27T12:03:44Z</time>
      </trkpt>
      <trkpt lat="43.64937" lon="1.37916">
        <ele>148</ele>
        <time>2025-02-27T12:03:45Z</time>
      </trkpt>
      <trkpt lat="43.64937" lon="1.37916">
        <ele>148</ele>
        <time>2025-02-27T12:03:46Z</time>
      </trkpt>
      <trkpt lat="43.64936" lon="1.37912">
        <ele>148</ele>
        <time>2025-02-27T12:03:47Z</time>
      </trkpt>
      <trkpt lat="43.64936" lon="1.37912">
        <ele>148</ele>
        <time>2025-02-27T12:03:48Z</time>
      </trkpt>
      <trkpt lat="43.64935" lon="1.37909">
        <ele>149</ele>
        <time>2025-02-27T12:03:49Z</time>
      </trkpt>
      <trkpt lat="43.64935" lon="1.37909">
        <ele>149</ele>
        <time>2025-02-27T12:03:50Z</time>
      </trkpt>
      <trkpt lat="43.64934" lon="1.37905">
        <ele>149</ele>
        <time>2025-02-27T12:03:51Z</time>
      </trkpt>
      <trkpt lat="43.64934" lon="1.37905">
        <ele>149</ele>
        <time>2025-02-27T12:03:52Z</time>
      </trkpt>
      <trkpt lat="43.64934" lon="1.37902">
        <ele>149</ele>
        <time>2025-02-27T12:03:53Z</time>
      </trkpt>
      <trkpt lat="43.64934" lon="1.37902">
        <ele>149</ele>
        <time>2025-02-27T12:03:54Z</time>
      </trkpt>
      <trkpt lat="43.64933" lon="1.37899">
        <ele>149</ele>
        <time>2025-02-27T12:03:55Z</time>
      </trkpt>
      <trkpt lat="43.64933" lon="1.37899">
        <ele>148</ele>
        <time>2025-02-27T12:03:56Z</time>
      </trkpt>
      <trkpt lat="43.64932" lon="1.37896">
        <ele>148</ele>
        <time>2025-02-27T12:03:57Z</time>
      </trkpt>
      <trkpt lat="43.64932" lon="1.37896">
        <ele>148</ele>
        <time>2025-02-27T12:03:58Z</time>
      </trkpt>
      <trkpt lat="43.64931" lon="1.37893">
        <ele>148</ele>
        <time>2025-02-27T12:03:59Z</time>
      </trkpt>
      <trkpt lat="43.64931" lon="1.37893">
        <ele>148</ele>
        <time>2025-02-27T12:04:00Z</time>
      </trkpt>
      <trkpt lat="43.6493" lon="1.3789">
        <ele>148</ele>
        <time>2025-02-27T12:04:01Z</time>
      </trkpt>
      <trkpt lat="43.6493" lon="1.37887">
        <ele>148</ele>
        <time>2025-02-27T12:04:02Z</time>
      </trkpt>
      <trkpt lat="43.6493" lon="1.37887">
        <ele>148</ele>
        <time>2025-02-27T12:04:03Z</time>
      </trkpt>
      <trkpt lat="43.6493" lon="1.37887">
        <ele>148</ele>
        <time>2025-02-27T12:04:04Z</time>
      </trkpt>
      <trkpt lat="43.64929" lon="1.37885">
        <ele>148</ele>
        <time>2025-02-27T12:04:05Z</time>
      </trkpt>
      <trkpt lat="43.64929" lon="1.37885">
        <ele>149</ele>
        <time>2025-02-27T12:04:06Z</time>
      </trkpt>
      <trkpt lat="43.64928" lon="1.37882">
        <ele>149</ele>
        <time>2025-02-27T12:04:07Z</time>
      </trkpt>
      <trkpt lat="43.64928" lon="1.37882">
        <ele>150</ele>
        <time>2025-02-27T12:04:08Z</time>
      </trkpt>
      <trkpt lat="43.64927" lon="1.37879">
        <ele>150</ele>
        <time>2025-02-27T12:04:09Z</time>
      </trkpt>
      <trkpt lat="43.64927" lon="1.37879">
        <ele>150</ele>
        <time>2025-02-27T12:04:10Z</time>
      </trkpt>
      <trkpt lat="43.64926" lon="1.37876">
        <ele>149</ele>
        <time>2025-02-27T12:04:11Z</time>
      </trkpt>
      <trkpt lat="43.64926" lon="1.37876">
        <ele>149</ele>
        <time>2025-02-27T12:04:12Z</time>
      </trkpt>
      <trkpt lat="43.64925" lon="1.37873">
        <ele>149</ele>
        <time>2025-02-27T12:04:13Z</time>
      </trkpt>
      <trkpt lat="43.64925" lon="1.37873">
        <ele>148</ele>
        <time>2025-02-27T12:04:14Z</time>
      </trkpt>
      <trkpt lat="43.64925" lon="1.37871">
        <ele>148</ele>
        <time>2025-02-27T12:04:15Z</time>
      </trkpt>
      <trkpt lat="43.64925" lon="1.37871">
        <ele>148</ele>
        <time>2025-02-27T12:04:16Z</time>
      </trkpt>
      <trkpt lat="43.64924" lon="1.37868">
        <ele>148</ele>
        <time>2025-02-27T12:04:17Z</time>
      </trkpt>
      <trkpt lat="43.64924" lon="1.37868">
        <ele>148</ele>
        <time>2025-02-27T12:04:18Z</time>
      </trkpt>
      <trkpt lat="43.64923" lon="1.37865">
        <ele>148</ele>
        <time>2025-02-27T12:04:19Z</time>
      </trkpt>
      <trkpt lat="43.64923" lon="1.37865">
        <ele>148</ele>
        <time>2025-02-27T12:04:20Z</time>
      </trkpt>
      <trkpt lat="43.64923" lon="1.37862">
        <ele>149</ele>
        <time>2025-02-27T12:04:21Z</time>
      </trkpt>
      <trkpt lat="43.64923" lon="1.37862">
        <ele>149</ele>
        <time>2025-02-27T12:04:22Z</time>
      </trkpt>
      <trkpt lat="43.64923" lon="1.37859">
        <ele>149</ele>
        <time>2025-02-27T12:04:23Z</time>
      </trkpt>
      <trkpt lat="43.64923" lon="1.37859">
        <ele>149</ele>
        <time>2025-02-27T12:04:24Z</time>
      </trkpt>
      <trkpt lat="43.64922" lon="1.37857">
        <ele>149</ele>
        <time>2025-02-27T12:04:25Z</time>
      </trkpt>
      <trkpt lat="43.64922" lon="1.37857">
        <ele>149</ele>
        <time>2025-02-27T12:04:26Z</time>
      </trkpt>
      <trkpt lat="43.64922" lon="1.37853">
        <ele>149</ele>
        <time>2025-02-27T12:04:27Z</time>
      </trkpt>
      <trkpt lat="43.64922" lon="1.37853">
        <ele>149</ele>
        <time>2025-02-27T12:04:28Z</time>
      </trkpt>
      <trkpt lat="43.64921" lon="1.3785">
        <ele>149</ele>
        <time>2025-02-27T12:04:29Z</time>
      </trkpt>
      <trkpt lat="43.64921" lon="1.3785">
        <ele>149</ele>
        <time>2025-02-27T12:04:30Z</time>
      </trkpt>
      <trkpt lat="43.64921" lon="1.37847">
        <ele>149</ele>
        <time>2025-02-27T12:04:31Z</time>
      </trkpt>
      <trkpt lat="43.64921" lon="1.37847">
        <ele>149</ele>
        <time>2025-02-27T12:04:32Z</time>
      </trkpt>
      <trkpt lat="43.6492" lon="1.37844">
        <ele>149</ele>
        <time>2025-02-27T12:04:33Z</time>
      </trkpt>
      <trkpt lat="43.6492" lon="1.37844">
        <ele>149</ele>
        <time>2025-02-27T12:04:34Z</time>
      </trkpt>
      <trkpt lat="43.6492" lon="1.3784">
        <ele>149</ele>
        <time>2025-02-27T12:04:35Z</time>
      </trkpt>
      <trkpt lat="43.6492" lon="1.3784">
        <ele>149</ele>
        <time>2025-02-27T12:04:36Z</time>
      </trkpt>
      <trkpt lat="43.64919" lon="1.37837">
        <ele>149</ele>
        <time>2025-02-27T12:04:37Z</time>
      </trkpt>
      <trkpt lat="43.64919" lon="1.37837">
        <ele>149</ele>
        <time>2025-02-27T12:04:38Z</time>
      </trkpt>
      <trkpt lat="43.64919" lon="1.37834">
        <ele>149</ele>
        <time>2025-02-27T12:04:39Z</time>
      </trkpt>
      <trkpt lat="43.64919" lon="1.37834">
        <ele>149</ele>
        <time>2025-02-27T12:04:40Z</time>
      </trkpt>
      <trkpt lat="43.64917" lon="1.37831">
        <ele>149</ele>
        <time>2025-02-27T12:04:41Z</time>
      </trkpt>
      <trkpt lat="43.64917" lon="1.37831">
        <ele>149</ele>
        <time>2025-02-27T12:04:42Z</time>
      </trkpt>
      <trkpt lat="43.64916" lon="1.37827">
        <ele>149</ele>
        <time>2025-02-27T12:04:43Z</time>
      </trkpt>
      <trkpt lat="43.64916" lon="1.37827">
        <ele>149</ele>
        <time>2025-02-27T12:04:44Z</time>
      </trkpt>
      <trkpt lat="43.64915" lon="1.37823">
        <ele>149</ele>
        <time>2025-02-27T12:04:45Z</time>
      </trkpt>
      <trkpt lat="43.64915" lon="1.37823">
        <ele>149</ele>
        <time>2025-02-27T12:04:46Z</time>
      </trkpt>
      <trkpt lat="43.64914" lon="1.3782">
        <ele>149</ele>
        <time>2025-02-27T12:04:47Z</time>
      </trkpt>
      <trkpt lat="43.64914" lon="1.3782">
        <ele>149</ele>
        <time>2025-02-27T12:04:48Z</time>
      </trkpt>
      <trkpt lat="43.64913" lon="1.37817">
        <ele>149</ele>
        <time>2025-02-27T12:04:49Z</time>
      </trkpt>
      <trkpt lat="43.64913" lon="1.37817">
        <ele>149</ele>
        <time>2025-02-27T12:04:50Z</time>
      </trkpt>
      <trkpt lat="43.64912" lon="1.37813">
        <ele>149</ele>
        <time>2025-02-27T12:04:51Z</time>
      </trkpt>
      <trkpt lat="43.64912" lon="1.37813">
        <ele>149</ele>
        <time>2025-02-27T12:04:52Z</time>
      </trkpt>
      <trkpt lat="43.64911" lon="1.3781">
        <ele>149</ele>
        <time>2025-02-27T12:04:53Z</time>
      </trkpt>
      <trkpt lat="43.64911" lon="1.3781">
        <ele>149</ele>
        <time>2025-02-27T12:04:54Z</time>
      </trkpt>
      <trkpt lat="43.64911" lon="1.37807">
        <ele>149</ele>
        <time>2025-02-27T12:04:55Z</time>
      </trkpt>
      <trkpt lat="43.64911" lon="1.37807">
        <ele>149</ele>
        <time>2025-02-27T12:04:56Z</time>
      </trkpt>
      <trkpt lat="43.6491" lon="1.37803">
        <ele>149</ele>
        <time>2025-02-27T12:04:57Z</time>
      </trkpt>
      <trkpt lat="43.6491" lon="1.37803">
        <ele>149</ele>
        <time>2025-02-27T12:04:58Z</time>
      </trkpt>
      <trkpt lat="43.64909" lon="1.378">
        <ele>149</ele>
        <time>2025-02-27T12:04:59Z</time>
      </trkpt>
      <trkpt lat="43.64909" lon="1.378">
        <ele>149</ele>
        <time>2025-02-27T12:05:00Z</time>
      </trkpt>
      <trkpt lat="43.64908" lon="1.37797">
        <ele>149</ele>
        <time>2025-02-27T12:05:01Z</time>
      </trkpt>
      <trkpt lat="43.64908" lon="1.37797">
        <ele>149</ele>
        <time>2025-02-27T12:05:02Z</time>
      </trkpt>
      <trkpt lat="43.64908" lon="1.37793">
        <ele>149</ele>
        <time>2025-02-27T12:05:03Z</time>
      </trkpt>
      <trkpt lat="43.64908" lon="1.37793">
        <ele>149</ele>
        <time>2025-02-27T12:05:04Z</time>
      </trkpt>
      <trkpt lat="43.64907" lon="1.3779">
        <ele>149</ele>
        <time>2025-02-27T12:05:05Z</time>
      </trkpt>
      <trkpt lat="43.64907" lon="1.3779">
        <ele>149</ele>
        <time>2025-02-27T12:05:06Z</time>
      </trkpt>
      <trkpt lat="43.64906" lon="1.37787">
        <ele>149</ele>
        <time>2025-02-27T12:05:07Z</time>
      </trkpt>
      <trkpt lat="43.64906" lon="1.37787">
        <ele>149</ele>
        <time>2025-02-27T12:05:08Z</time>
      </trkpt>
      <trkpt lat="43.64906" lon="1.37783">
        <ele>149</ele>
        <time>2025-02-27T12:05:09Z</time>
      </trkpt>
      <trkpt lat="43.64906" lon="1.37783">
        <ele>149</ele>
        <time>2025-02-27T12:05:10Z</time>
      </trkpt>
      <trkpt lat="43.64905" lon="1.3778">
        <ele>149</ele>
        <time>2025-02-27T12:05:11Z</time>
      </trkpt>
      <trkpt lat="43.64905" lon="1.3778">
        <ele>149</ele>
        <time>2025-02-27T12:05:12Z</time>
      </trkpt>
      <trkpt lat="43.64904" lon="1.37777">
        <ele>149</ele>
        <time>2025-02-27T12:05:13Z</time>
      </trkpt>
      <trkpt lat="43.64904" lon="1.37777">
        <ele>149</ele>
        <time>2025-02-27T12:05:14Z</time>
      </trkpt>
      <trkpt lat="43.64903" lon="1.37774">
        <ele>149</ele>
        <time>2025-02-27T12:05:15Z</time>
      </trkpt>
      <trkpt lat="43.64903" lon="1.37774">
        <ele>149</ele>
        <time>2025-02-27T12:05:16Z</time>
      </trkpt>
      <trkpt lat="43.64902" lon="1.37771">
        <ele>149</ele>
        <time>2025-02-27T12:05:17Z</time>
      </trkpt>
      <trkpt lat="43.64901" lon="1.37768">
        <ele>149</ele>
        <time>2025-02-27T12:05:18Z</time>
      </trkpt>
      <trkpt lat="43.64901" lon="1.37768">
        <ele>149</ele>
        <time>2025-02-27T12:05:19Z</time>
      </trkpt>
      <trkpt lat="43.64901" lon="1.37768">
        <ele>149</ele>
        <time>2025-02-27T12:05:20Z</time>
      </trkpt>
      <trkpt lat="43.64899" lon="1.37765">
        <ele>150</ele>
        <time>2025-02-27T12:05:21Z</time>
      </trkpt>
      <trkpt lat="43.64899" lon="1.37765">
        <ele>150</ele>
        <time>2025-02-27T12:05:22Z</time>
      </trkpt>
      <trkpt lat="43.64898" lon="1.37762">
        <ele>150</ele>
        <time>2025-02-27T12:05:23Z</time>
      </trkpt>
      <trkpt lat="43.64898" lon="1.37762">
        <ele>150</ele>
        <time>2025-02-27T12:05:24Z</time>
      </trkpt>
      <trkpt lat="43.64898" lon="1.37758">
        <ele>150</ele>
        <time>2025-02-27T12:05:25Z</time>
      </trkpt>
      <trkpt lat="43.64898" lon="1.37758">
        <ele>150</ele>
        <time>2025-02-27T12:05:26Z</time>
      </trkpt>
      <trkpt lat="43.64898" lon="1.37754">
        <ele>150</ele>
        <time>2025-02-27T12:05:27Z</time>
      </trkpt>
      <trkpt lat="43.64898" lon="1.37754">
        <ele>150</ele>
        <time>2025-02-27T12:05:28Z</time>
      </trkpt>
      <trkpt lat="43.64897" lon="1.37751">
        <ele>150</ele>
        <time>2025-02-27T12:05:29Z</time>
      </trkpt>
      <trkpt lat="43.64897" lon="1.37751">
        <ele>150</ele>
        <time>2025-02-27T12:05:30Z</time>
      </trkpt>
      <trkpt lat="43.64896" lon="1.37747">
        <ele>150</ele>
        <time>2025-02-27T12:05:31Z</time>
      </trkpt>
      <trkpt lat="43.64896" lon="1.37747">
        <ele>150</ele>
        <time>2025-02-27T12:05:32Z</time>
      </trkpt>
      <trkpt lat="43.64895" lon="1.37744">
        <ele>150</ele>
        <time>2025-02-27T12:05:33Z</time>
      </trkpt>
      <trkpt lat="43.64895" lon="1.37744">
        <ele>150</ele>
        <time>2025-02-27T12:05:34Z</time>
      </trkpt>
      <trkpt lat="43.64895" lon="1.37741">
        <ele>150</ele>
        <time>2025-02-27T12:05:35Z</time>
      </trkpt>
      <trkpt lat="43.64895" lon="1.37741">
        <ele>149</ele>
        <time>2025-02-27T12:05:36Z</time>
      </trkpt>
      <trkpt lat="43.64894" lon="1.37737">
        <ele>149</ele>
        <time>2025-02-27T12:05:37Z</time>
      </trkpt>
      <trkpt lat="43.64894" lon="1.37737">
        <ele>149</ele>
        <time>2025-02-27T12:05:38Z</time>
      </trkpt>
      <trkpt lat="43.64893" lon="1.37734">
        <ele>149</ele>
        <time>2025-02-27T12:05:39Z</time>
      </trkpt>
      <trkpt lat="43.64893" lon="1.37734">
        <ele>149</ele>
        <time>2025-02-27T12:05:40Z</time>
      </trkpt>
      <trkpt lat="43.64892" lon="1.37731">
        <ele>149</ele>
        <time>2025-02-27T12:05:41Z</time>
      </trkpt>
      <trkpt lat="43.64892" lon="1.37731">
        <ele>149</ele>
        <time>2025-02-27T12:05:42Z</time>
      </trkpt>
      <trkpt lat="43.64891" lon="1.37728">
        <ele>149</ele>
        <time>2025-02-27T12:05:43Z</time>
      </trkpt>
      <trkpt lat="43.64891" lon="1.37728">
        <ele>149</ele>
        <time>2025-02-27T12:05:44Z</time>
      </trkpt>
      <trkpt lat="43.64891" lon="1.37725">
        <ele>149</ele>
        <time>2025-02-27T12:05:45Z</time>
      </trkpt>
      <trkpt lat="43.64891" lon="1.37725">
        <ele>149</ele>
        <time>2025-02-27T12:05:46Z</time>
      </trkpt>
      <trkpt lat="43.6489" lon="1.37722">
        <ele>149</ele>
        <time>2025-02-27T12:05:47Z</time>
      </trkpt>
      <trkpt lat="43.6489" lon="1.37722">
        <ele>149</ele>
        <time>2025-02-27T12:05:48Z</time>
      </trkpt>
      <trkpt lat="43.64889" lon="1.37719">
        <ele>149</ele>
        <time>2025-02-27T12:05:49Z</time>
      </trkpt>
      <trkpt lat="43.64889" lon="1.37719">
        <ele>149</ele>
        <time>2025-02-27T12:05:50Z</time>
      </trkpt>
      <trkpt lat="43.64888" lon="1.37716">
        <ele>149</ele>
        <time>2025-02-27T12:05:51Z</time>
      </trkpt>
      <trkpt lat="43.64888" lon="1.37716">
        <ele>149</ele>
        <time>2025-02-27T12:05:52Z</time>
      </trkpt>
      <trkpt lat="43.64888" lon="1.37712">
        <ele>149</ele>
        <time>2025-02-27T12:05:53Z</time>
      </trkpt>
      <trkpt lat="43.64888" lon="1.37712">
        <ele>149</ele>
        <time>2025-02-27T12:05:54Z</time>
      </trkpt>
      <trkpt lat="43.64887" lon="1.37709">
        <ele>149</ele>
        <time>2025-02-27T12:05:55Z</time>
      </trkpt>
      <trkpt lat="43.64886" lon="1.37706">
        <ele>149</ele>
        <time>2025-02-27T12:05:56Z</time>
      </trkpt>
      <trkpt lat="43.64886" lon="1.37706">
        <ele>149</ele>
        <time>2025-02-27T12:05:57Z</time>
      </trkpt>
      <trkpt lat="43.64886" lon="1.37706">
        <ele>149</ele>
        <time>2025-02-27T12:05:58Z</time>
      </trkpt>
      <trkpt lat="43.64885" lon="1.37703">
        <ele>149</ele>
        <time>2025-02-27T12:05:59Z</time>
      </trkpt>
      <trkpt lat="43.64885" lon="1.37703">
        <ele>149</ele>
        <time>2025-02-27T12:06:00Z</time>
      </trkpt>
      <trkpt lat="43.64885" lon="1.377">
        <ele>149</ele>
        <time>2025-02-27T12:06:01Z</time>
      </trkpt>
      <trkpt lat="43.64885" lon="1.377">
        <ele>149</ele>
        <time>2025-02-27T12:06:02Z</time>
      </trkpt>
      <trkpt lat="43.64884" lon="1.37696">
        <ele>149</ele>
        <time>2025-02-27T12:06:03Z</time>
      </trkpt>
      <trkpt lat="43.64884" lon="1.37696">
        <ele>149</ele>
        <time>2025-02-27T12:06:04Z</time>
      </trkpt>
      <trkpt lat="43.64883" lon="1.37693">
        <ele>149</ele>
        <time>2025-02-27T12:06:05Z</time>
      </trkpt>
      <trkpt lat="43.64883" lon="1.37693">
        <ele>149</ele>
        <time>2025-02-27T12:06:06Z</time>
      </trkpt>
      <trkpt lat="43.64882" lon="1.3769">
        <ele>149</ele>
        <time>2025-02-27T12:06:07Z</time>
      </trkpt>
      <trkpt lat="43.64882" lon="1.3769">
        <ele>149</ele>
        <time>2025-02-27T12:06:08Z</time>
      </trkpt>
      <trkpt lat="43.64881" lon="1.37686">
        <ele>149</ele>
        <time>2025-02-27T12:06:09Z</time>
      </trkpt>
      <trkpt lat="43.64881" lon="1.37686">
        <ele>149</ele>
        <time>2025-02-27T12:06:10Z</time>
      </trkpt>
      <trkpt lat="43.64881" lon="1.37683">
        <ele>149</ele>
        <time>2025-02-27T12:06:11Z</time>
      </trkpt>
      <trkpt lat="43.64881" lon="1.37683">
        <ele>149</ele>
        <time>2025-02-27T12:06:12Z</time>
      </trkpt>
      <trkpt lat="43.6488" lon="1.37679">
        <ele>149</ele>
        <time>2025-02-27T12:06:13Z</time>
      </trkpt>
      <trkpt lat="43.6488" lon="1.37679">
        <ele>149</ele>
        <time>2025-02-27T12:06:14Z</time>
      </trkpt>
      <trkpt lat="43.64879" lon="1.37676">
        <ele>149</ele>
        <time>2025-02-27T12:06:15Z</time>
      </trkpt>
      <trkpt lat="43.64879" lon="1.37676">
        <ele>150</ele>
        <time>2025-02-27T12:06:16Z</time>
      </trkpt>
      <trkpt lat="43.64879" lon="1.37673">
        <ele>150</ele>
        <time>2025-02-27T12:06:17Z</time>
      </trkpt>
      <trkpt lat="43.64879" lon="1.37673">
        <ele>150</ele>
        <time>2025-02-27T12:06:18Z</time>
      </trkpt>
      <trkpt lat="43.64878" lon="1.37669">
        <ele>150</ele>
        <time>2025-02-27T12:06:19Z</time>
      </trkpt>
      <trkpt lat="43.64878" lon="1.37669">
        <ele>150</ele>
        <time>2025-02-27T12:06:20Z</time>
      </trkpt>
      <trkpt lat="43.64877" lon="1.37666">
        <ele>150</ele>
        <time>2025-02-27T12:06:21Z</time>
      </trkpt>
      <trkpt lat="43.64877" lon="1.37666">
        <ele>150</ele>
        <time>2025-02-27T12:06:22Z</time>
      </trkpt>
      <trkpt lat="43.64876" lon="1.37662">
        <ele>150</ele>
        <time>2025-02-27T12:06:23Z</time>
      </trkpt>
      <trkpt lat="43.64876" lon="1.37662">
        <ele>150</ele>
        <time>2025-02-27T12:06:24Z</time>
      </trkpt>
      <trkpt lat="43.64875" lon="1.37659">
        <ele>150</ele>
        <time>2025-02-27T12:06:25Z</time>
      </trkpt>
      <trkpt lat="43.64875" lon="1.37659">
        <ele>150</ele>
        <time>2025-02-27T12:06:26Z</time>
      </trkpt>
      <trkpt lat="43.64873" lon="1.37656">
        <ele>150</ele>
        <time>2025-02-27T12:06:27Z</time>
      </trkpt>
      <trkpt lat="43.64873" lon="1.37656">
        <ele>150</ele>
        <time>2025-02-27T12:06:28Z</time>
      </trkpt>
      <trkpt lat="43.64872" lon="1.37653">
        <ele>150</ele>
        <time>2025-02-27T12:06:29Z</time>
      </trkpt>
      <trkpt lat="43.64872" lon="1.37653">
        <ele>150</ele>
        <time>2025-02-27T12:06:30Z</time>
      </trkpt>
      <trkpt lat="43.6487" lon="1.37651">
        <ele>150</ele>
        <time>2025-02-27T12:06:31Z</time>
      </trkpt>
      <trkpt lat="43.6487" lon="1.37651">
        <ele>150</ele>
        <time>2025-02-27T12:06:32Z</time>
      </trkpt>
      <trkpt lat="43.64868" lon="1.37649">
        <ele>150</ele>
        <time>2025-02-27T12:06:33Z</time>
      </trkpt>
      <trkpt lat="43.64866" lon="1.37647">
        <ele>150</ele>
        <time>2025-02-27T12:06:34Z</time>
      </trkpt>
      <trkpt lat="43.64866" lon="1.37647">
        <ele>151</ele>
        <time>2025-02-27T12:06:35Z</time>
      </trkpt>
      <trkpt lat="43.64866" lon="1.37647">
        <ele>151</ele>
        <time>2025-02-27T12:06:36Z</time>
      </trkpt>
      <trkpt lat="43.64864" lon="1.37646">
        <ele>151</ele>
        <time>2025-02-27T12:06:37Z</time>
      </trkpt>
      <trkpt lat="43.64864" lon="1.37646">
        <ele>151</ele>
        <time>2025-02-27T12:06:38Z</time>
      </trkpt>
      <trkpt lat="43.64863" lon="1.37645">
        <ele>151</ele>
        <time>2025-02-27T12:06:39Z</time>
      </trkpt>
      <trkpt lat="43.64861" lon="1.37643">
        <ele>151</ele>
        <time>2025-02-27T12:06:40Z</time>
      </trkpt>
      <trkpt lat="43.6486" lon="1.37643">
        <ele>151</ele>
        <time>2025-02-27T12:06:41Z</time>
      </trkpt>
      <trkpt lat="43.6486" lon="1.37642">
        <ele>150</ele>
        <time>2025-02-27T12:06:42Z</time>
      </trkpt>
    </trkseg>
  </trk>
</gpx>